﻿<?xml version="1.0" encoding="utf-8"?><gpx creator="Garmin Desktop App" version="1.1" xsi:schemaLocation="http://www.topografix.com/GPX/1/1 http://www.topografix.com/GPX/1/1/gpx.xsd http://www.garmin.com/xmlschemas/WaypointExtension/v1 http://www8.garmin.com/xmlschemas/WaypointExtensionv1.xsd http://www.garmin.com/xmlschemas/TrackPointExtension/v1 http://www.garmin.com/xmlschemas/TrackPointExtensionv1.xsd http://www.garmin.com/xmlschemas/GpxExtensions/v3 http://www8.garmin.com/xmlschemas/GpxExtensionsv3.xsd http://www.garmin.com/xmlschemas/ActivityExtension/v1 http://www8.garmin.com/xmlschemas/ActivityExtensionv1.xsd http://www.garmin.com/xmlschemas/AdventuresExtensions/v1 http://www8.garmin.com/xmlschemas/AdventuresExtensionv1.xsd http://www.garmin.com/xmlschemas/PressureExtension/v1 http://www.garmin.com/xmlschemas/PressureExtensionv1.xsd http://www.garmin.com/xmlschemas/TripExtensions/v1 http://www.garmin.com/xmlschemas/TripExtensionsv1.xsd http://www.garmin.com/xmlschemas/TripMetaDataExtensions/v1 http://www.garmin.com/xmlschemas/TripMetaDataExtensionsv1.xsd http://www.garmin.com/xmlschemas/ViaPointTransportationModeExtensions/v1 http://www.garmin.com/xmlschemas/ViaPointTransportationModeExtensionsv1.xsd http://www.garmin.com/xmlschemas/CreationTimeExtension/v1 http://www.garmin.com/xmlschemas/CreationTimeExtensionsv1.xsd http://www.garmin.com/xmlschemas/AccelerationExtension/v1 http://www.garmin.com/xmlschemas/AccelerationExtensionv1.xsd http://www.garmin.com/xmlschemas/PowerExtension/v1 http://www.garmin.com/xmlschemas/PowerExtensionv1.xsd http://www.garmin.com/xmlschemas/VideoExtension/v1 http://www.garmin.com/xmlschemas/VideoExtensionv1.xsd" xmlns="http://www.topografix.com/GPX/1/1" xmlns:xsi="http://www.w3.org/2001/XMLSchema-instance" xmlns:wptx1="http://www.garmin.com/xmlschemas/WaypointExtension/v1" xmlns:gpxtrx="http://www.garmin.com/xmlschemas/GpxExtensions/v3" xmlns:gpxtpx="http://www.garmin.com/xmlschemas/TrackPointExtension/v1" xmlns:gpxx="http://www.garmin.com/xmlschemas/GpxExtensions/v3" xmlns:trp="http://www.garmin.com/xmlschemas/TripExtensions/v1" xmlns:adv="http://www.garmin.com/xmlschemas/AdventuresExtensions/v1" xmlns:prs="http://www.garmin.com/xmlschemas/PressureExtension/v1" xmlns:tmd="http://www.garmin.com/xmlschemas/TripMetaDataExtensions/v1" xmlns:vptm="http://www.garmin.com/xmlschemas/ViaPointTransportationModeExtensions/v1" xmlns:ctx="http://www.garmin.com/xmlschemas/CreationTimeExtension/v1" xmlns:gpxacc="http://www.garmin.com/xmlschemas/AccelerationExtension/v1" xmlns:gpxpx="http://www.garmin.com/xmlschemas/PowerExtension/v1" xmlns:vidx1="http://www.garmin.com/xmlschemas/VideoExtension/v1">

  <metadata>
    <link href="http://www.garmin.com">
      <text>Garmin International</text>
    </link>
    <time>2017-01-07T07:16:51Z</time>
    <bounds maxlat="46.519250124692917" maxlon="8.66327092051506" minlat="46.496223025023937" minlon="8.616362605243921" />
  </metadata>

  <trk>
    <name>capanna garzonera2017-01-06</name>
    <extensions>
      <gpxx:TrackExtension>
        <gpxx:DisplayColor>Yellow</gpxx:DisplayColor>
      </gpxx:TrackExtension>
      <gpxtrkx:TrackStatsExtension xmlns:gpxtrkx="http://www.garmin.com/xmlschemas/TrackStatsExtension/v1">
        <gpxtrkx:Distance>17073</gpxtrkx:Distance>
        <gpxtrkx:TotalElapsedTime>27931</gpxtrkx:TotalElapsedTime>
        <gpxtrkx:MovingTime>17796</gpxtrkx:MovingTime>
        <gpxtrkx:StoppedTime>9952</gpxtrkx:StoppedTime>
        <gpxtrkx:MovingSpeed>1</gpxtrkx:MovingSpeed>
        <gpxtrkx:MaxSpeed>2</gpxtrkx:MaxSpeed>
        <gpxtrkx:MaxElevation>1997</gpxtrkx:MaxElevation>
        <gpxtrkx:MinElevation>1417</gpxtrkx:MinElevation>
        <gpxtrkx:Ascent>735</gpxtrkx:Ascent>
        <gpxtrkx:Descent>742</gpxtrkx:Descent>
        <gpxtrkx:AvgAscentRate>0</gpxtrkx:AvgAscentRate>
        <gpxtrkx:MaxAscentRate>0</gpxtrkx:MaxAscentRate>
        <gpxtrkx:AvgDescentRate>0</gpxtrkx:AvgDescentRate>
        <gpxtrkx:MaxDescentRate>-0</gpxtrkx:MaxDescentRate>
      </gpxtrkx:TrackStatsExtension>
    </extensions>
    <trkseg>
      <trkpt lat="46.519000008702278" lon="8.618213497102261">
        <ele>1432.98</ele>
        <time>2017-01-06T08:31:27Z</time>
      </trkpt>
      <trkpt lat="46.519000763073564" lon="8.61821542493999">
        <ele>1432.98</ele>
        <time>2017-01-06T08:31:28Z</time>
      </trkpt>
      <trkpt lat="46.518995985388756" lon="8.61821198835969">
        <ele>1427.7</ele>
        <time>2017-01-06T08:31:33Z</time>
      </trkpt>
      <trkpt lat="46.518994141370058" lon="8.618209641426802">
        <ele>1427.7</ele>
        <time>2017-01-06T08:31:34Z</time>
      </trkpt>
      <trkpt lat="46.518938736990094" lon="8.618267476558685">
        <ele>1426.73</ele>
        <time>2017-01-06T08:31:51Z</time>
      </trkpt>
      <trkpt lat="46.51893412694335" lon="8.618251048028469">
        <ele>1426.25</ele>
        <time>2017-01-06T08:32:14Z</time>
      </trkpt>
      <trkpt lat="46.518976874649525" lon="8.618271499872208">
        <ele>1426.73</ele>
        <time>2017-01-06T08:32:39Z</time>
      </trkpt>
      <trkpt lat="46.518955584615469" lon="8.61828675493598">
        <ele>1426.73</ele>
        <time>2017-01-06T08:32:57Z</time>
      </trkpt>
      <trkpt lat="46.518959775567055" lon="8.618222046643496">
        <ele>1428.6600000000001</ele>
        <time>2017-01-06T08:33:15Z</time>
      </trkpt>
      <trkpt lat="46.518941922113299" lon="8.618205785751343">
        <ele>1428.6600000000001</ele>
        <time>2017-01-06T08:33:39Z</time>
      </trkpt>
      <trkpt lat="46.518966984003782" lon="8.618192207068205">
        <ele>1428.6600000000001</ele>
        <time>2017-01-06T08:33:58Z</time>
      </trkpt>
      <trkpt lat="46.51894586160779" lon="8.618168234825134">
        <ele>1425.29</ele>
        <time>2017-01-06T08:34:03Z</time>
      </trkpt>
      <trkpt lat="46.518927169963717" lon="8.618171839043498">
        <ele>1425.77</ele>
        <time>2017-01-06T08:34:04Z</time>
      </trkpt>
      <trkpt lat="46.518903030082583" lon="8.618134539574385">
        <ele>1428.6600000000001</ele>
        <time>2017-01-06T08:34:13Z</time>
      </trkpt>
      <trkpt lat="46.518906718119979" lon="8.618106627836824">
        <ele>1428.1800000000001</ele>
        <time>2017-01-06T08:34:28Z</time>
      </trkpt>
      <trkpt lat="46.518912669271231" lon="8.618104867637157">
        <ele>1428.1800000000001</ele>
        <time>2017-01-06T08:34:40Z</time>
      </trkpt>
      <trkpt lat="46.518924571573734" lon="8.618120206519961">
        <ele>1428.1800000000001</ele>
        <time>2017-01-06T08:34:57Z</time>
      </trkpt>
      <trkpt lat="46.51891996152699" lon="8.618158511817455">
        <ele>1428.1800000000001</ele>
        <time>2017-01-06T08:35:19Z</time>
      </trkpt>
      <trkpt lat="46.518924403935671" lon="8.618136215955019">
        <ele>1428.6600000000001</ele>
        <time>2017-01-06T08:35:27Z</time>
      </trkpt>
      <trkpt lat="46.518898839130998" lon="8.618131102994084">
        <ele>1428.1800000000001</ele>
        <time>2017-01-06T08:35:30Z</time>
      </trkpt>
      <trkpt lat="46.518732039257884" lon="8.618204947561026">
        <ele>1429.1400000000001</ele>
        <time>2017-01-06T08:35:44Z</time>
      </trkpt>
      <trkpt lat="46.518621984869242" lon="8.618209473788738">
        <ele>1427.7</ele>
        <time>2017-01-06T08:35:53Z</time>
      </trkpt>
      <trkpt lat="46.518439427018166" lon="8.618194973096252">
        <ele>1427.7</ele>
        <time>2017-01-06T08:36:08Z</time>
      </trkpt>
      <trkpt lat="46.51841914281249" lon="8.618203857913613">
        <ele>1427.7</ele>
        <time>2017-01-06T08:36:10Z</time>
      </trkpt>
      <trkpt lat="46.518371198326349" lon="8.618219783529639">
        <ele>1427.21</ele>
        <time>2017-01-06T08:36:15Z</time>
      </trkpt>
      <trkpt lat="46.518344460055232" lon="8.618249706923962">
        <ele>1427.21</ele>
        <time>2017-01-06T08:36:18Z</time>
      </trkpt>
      <trkpt lat="46.518290648236871" lon="8.618330508470535">
        <ele>1425.77</ele>
        <time>2017-01-06T08:36:25Z</time>
      </trkpt>
      <trkpt lat="46.518163494765759" lon="8.618333693593741">
        <ele>1425.77</ele>
        <time>2017-01-06T08:36:37Z</time>
      </trkpt>
      <trkpt lat="46.51812594383955" lon="8.618337046355009">
        <ele>1425.77</ele>
        <time>2017-01-06T08:36:40Z</time>
      </trkpt>
      <trkpt lat="46.518090488389134" lon="8.618362946435809">
        <ele>1426.25</ele>
        <time>2017-01-06T08:36:43Z</time>
      </trkpt>
      <trkpt lat="46.517954869195819" lon="8.618331430479884">
        <ele>1428.1800000000001</ele>
        <time>2017-01-06T08:36:55Z</time>
      </trkpt>
      <trkpt lat="46.517923688516021" lon="8.618343332782388">
        <ele>1428.6600000000001</ele>
        <time>2017-01-06T08:36:58Z</time>
      </trkpt>
      <trkpt lat="46.517904493957758" lon="8.618389684706926">
        <ele>1429.1400000000001</ele>
        <time>2017-01-06T08:37:00Z</time>
      </trkpt>
      <trkpt lat="46.517873648554087" lon="8.618413237854838">
        <ele>1430.0999999999999</ele>
        <time>2017-01-06T08:37:03Z</time>
      </trkpt>
      <trkpt lat="46.517852442339063" lon="8.618444921448827">
        <ele>1429.6199999999999</ele>
        <time>2017-01-06T08:37:09Z</time>
      </trkpt>
      <trkpt lat="46.517837857827544" lon="8.618663186207414">
        <ele>1429.1400000000001</ele>
        <time>2017-01-06T08:37:24Z</time>
      </trkpt>
      <trkpt lat="46.517812628298998" lon="8.618837278336287">
        <ele>1428.1800000000001</ele>
        <time>2017-01-06T08:37:36Z</time>
      </trkpt>
      <trkpt lat="46.517790583893657" lon="8.619074653834105">
        <ele>1429.1400000000001</ele>
        <time>2017-01-06T08:37:49Z</time>
      </trkpt>
      <trkpt lat="46.517795864492655" lon="8.619267269968987">
        <ele>1429.1400000000001</ele>
        <time>2017-01-06T08:37:59Z</time>
      </trkpt>
      <trkpt lat="46.517791841179132" lon="8.619513362646103">
        <ele>1428.6600000000001</ele>
        <time>2017-01-06T08:38:12Z</time>
      </trkpt>
      <trkpt lat="46.517798798158765" lon="8.619655100628734">
        <ele>1427.7</ele>
        <time>2017-01-06T08:38:24Z</time>
      </trkpt>
      <trkpt lat="46.517785554751754" lon="8.619851069524884">
        <ele>1428.6600000000001</ele>
        <time>2017-01-06T08:38:34Z</time>
      </trkpt>
      <trkpt lat="46.517793936654925" lon="8.620096072554588">
        <ele>1427.7</ele>
        <time>2017-01-06T08:38:48Z</time>
      </trkpt>
      <trkpt lat="46.517791673541069" lon="8.62033168785274">
        <ele>1427.21</ele>
        <time>2017-01-06T08:39:01Z</time>
      </trkpt>
      <trkpt lat="46.517761498689651" lon="8.620474012568593">
        <ele>1425.77</ele>
        <time>2017-01-06T08:39:11Z</time>
      </trkpt>
      <trkpt lat="46.517737191170454" lon="8.620618684217334">
        <ele>1425.29</ele>
        <time>2017-01-06T08:39:23Z</time>
      </trkpt>
      <trkpt lat="46.517722439020872" lon="8.620686745271087">
        <ele>1424.8099999999999</ele>
        <time>2017-01-06T08:39:30Z</time>
      </trkpt>
      <trkpt lat="46.517674159258604" lon="8.620914816856384">
        <ele>1422.4100000000001</ele>
        <time>2017-01-06T08:39:44Z</time>
      </trkpt>
      <trkpt lat="46.517657395452261" lon="8.621112126857042">
        <ele>1422.4100000000001</ele>
        <time>2017-01-06T08:39:58Z</time>
      </trkpt>
      <trkpt lat="46.517652366310358" lon="8.621125034987927">
        <ele>1422.4100000000001</ele>
        <time>2017-01-06T08:39:59Z</time>
      </trkpt>
      <trkpt lat="46.517604421824217" lon="8.621187480166555">
        <ele>1422.4100000000001</ele>
        <time>2017-01-06T08:40:05Z</time>
      </trkpt>
      <trkpt lat="46.517561003565788" lon="8.621346317231655">
        <ele>1422.8900000000001</ele>
        <time>2017-01-06T08:40:16Z</time>
      </trkpt>
      <trkpt lat="46.517525380477309" lon="8.621479840949178">
        <ele>1421.9300000000001</ele>
        <time>2017-01-06T08:40:25Z</time>
      </trkpt>
      <trkpt lat="46.517492607235909" lon="8.621635911986232">
        <ele>1422.8900000000001</ele>
        <time>2017-01-06T08:40:35Z</time>
      </trkpt>
      <trkpt lat="46.51748145930469" lon="8.621719814836979">
        <ele>1422.8900000000001</ele>
        <time>2017-01-06T08:40:39Z</time>
      </trkpt>
      <trkpt lat="46.517438041046262" lon="8.622025502845645">
        <ele>1423.8499999999999</ele>
        <time>2017-01-06T08:40:54Z</time>
      </trkpt>
      <trkpt lat="46.517390431836247" lon="8.622224070131779">
        <ele>1424.8099999999999</ele>
        <time>2017-01-06T08:41:05Z</time>
      </trkpt>
      <trkpt lat="46.517329830676317" lon="8.622379554435611">
        <ele>1425.29</ele>
        <time>2017-01-06T08:41:15Z</time>
      </trkpt>
      <trkpt lat="46.517239306122065" lon="8.622532607987523">
        <ele>1425.77</ele>
        <time>2017-01-06T08:41:26Z</time>
      </trkpt>
      <trkpt lat="46.517224218696356" lon="8.62256077118218">
        <ele>1425.77</ele>
        <time>2017-01-06T08:41:28Z</time>
      </trkpt>
      <trkpt lat="46.517189433798194" lon="8.622613912448287">
        <ele>1426.25</ele>
        <time>2017-01-06T08:41:32Z</time>
      </trkpt>
      <trkpt lat="46.517070578411222" lon="8.622782975435257">
        <ele>1427.21</ele>
        <time>2017-01-06T08:41:46Z</time>
      </trkpt>
      <trkpt lat="46.516991117969155" lon="8.622923456132412">
        <ele>1428.1800000000001</ele>
        <time>2017-01-06T08:41:57Z</time>
      </trkpt>
      <trkpt lat="46.516981730237603" lon="8.62293460406363">
        <ele>1428.6600000000001</ele>
        <time>2017-01-06T08:41:58Z</time>
      </trkpt>
      <trkpt lat="46.516885170713067" lon="8.623084221035242">
        <ele>1429.1400000000001</ele>
        <time>2017-01-06T08:42:10Z</time>
      </trkpt>
      <trkpt lat="46.51684233918786" lon="8.623168040066958">
        <ele>1429.1400000000001</ele>
        <time>2017-01-06T08:42:16Z</time>
      </trkpt>
      <trkpt lat="46.516793640330434" lon="8.623241633176804">
        <ele>1429.1400000000001</ele>
        <time>2017-01-06T08:42:22Z</time>
      </trkpt>
      <trkpt lat="46.516669420525432" lon="8.623415641486645">
        <ele>1430.5799999999999</ele>
        <time>2017-01-06T08:42:35Z</time>
      </trkpt>
      <trkpt lat="46.516570597887039" lon="8.623554948717356">
        <ele>1430.5799999999999</ele>
        <time>2017-01-06T08:42:46Z</time>
      </trkpt>
      <trkpt lat="46.516430284827948" lon="8.623756784945726">
        <ele>1432.02</ele>
        <time>2017-01-06T08:43:01Z</time>
      </trkpt>
      <trkpt lat="46.516306316480041" lon="8.62388301640749">
        <ele>1431.54</ele>
        <time>2017-01-06T08:43:13Z</time>
      </trkpt>
      <trkpt lat="46.516303131356835" lon="8.623878909274936">
        <ele>1431.54</ele>
        <time>2017-01-06T08:43:14Z</time>
      </trkpt>
      <trkpt lat="46.516259210184216" lon="8.623901875689626">
        <ele>1431.54</ele>
        <time>2017-01-06T08:43:20Z</time>
      </trkpt>
      <trkpt lat="46.516227275133133" lon="8.623911179602146">
        <ele>1431.0599999999999</ele>
        <time>2017-01-06T08:43:24Z</time>
      </trkpt>
      <trkpt lat="46.516105066984892" lon="8.623919058591127">
        <ele>1431.0599999999999</ele>
        <time>2017-01-06T08:43:32Z</time>
      </trkpt>
      <trkpt lat="46.516066007316113" lon="8.623922914266586">
        <ele>1431.0599999999999</ele>
        <time>2017-01-06T08:43:35Z</time>
      </trkpt>
      <trkpt lat="46.51587875559926" lon="8.623931715264916">
        <ele>1430.5799999999999</ele>
        <time>2017-01-06T08:43:48Z</time>
      </trkpt>
      <trkpt lat="46.515752859413624" lon="8.624037075787783">
        <ele>1430.5799999999999</ele>
        <time>2017-01-06T08:44:00Z</time>
      </trkpt>
      <trkpt lat="46.515689827501774" lon="8.624107986688614">
        <ele>1431.0599999999999</ele>
        <time>2017-01-06T08:44:07Z</time>
      </trkpt>
      <trkpt lat="46.515630315989256" lon="8.62417277880013">
        <ele>1431.54</ele>
        <time>2017-01-06T08:44:13Z</time>
      </trkpt>
      <trkpt lat="46.51559192687273" lon="8.624222232028842">
        <ele>1432.02</ele>
        <time>2017-01-06T08:44:17Z</time>
      </trkpt>
      <trkpt lat="46.515529230237007" lon="8.624298507347703">
        <ele>1432.98</ele>
        <time>2017-01-06T08:44:24Z</time>
      </trkpt>
      <trkpt lat="46.51549176312983" lon="8.624357096850872">
        <ele>1433.46</ele>
        <time>2017-01-06T08:44:29Z</time>
      </trkpt>
      <trkpt lat="46.515430826693773" lon="8.624440496787429">
        <ele>1434.4200000000001</ele>
        <time>2017-01-06T08:44:37Z</time>
      </trkpt>
      <trkpt lat="46.515364442020655" lon="8.624543510377407">
        <ele>1435.8699999999999</ele>
        <time>2017-01-06T08:44:47Z</time>
      </trkpt>
      <trkpt lat="46.515351617708802" lon="8.624581145122647">
        <ele>1435.8699999999999</ele>
        <time>2017-01-06T08:44:50Z</time>
      </trkpt>
      <trkpt lat="46.515320772305131" lon="8.62466337159276">
        <ele>1437.3099999999999</ele>
        <time>2017-01-06T08:44:57Z</time>
      </trkpt>
      <trkpt lat="46.515307612717152" lon="8.624733025208116">
        <ele>1437.79</ele>
        <time>2017-01-06T08:45:02Z</time>
      </trkpt>
      <trkpt lat="46.515285903587937" lon="8.624799074605107">
        <ele>1438.75</ele>
        <time>2017-01-06T08:45:07Z</time>
      </trkpt>
      <trkpt lat="46.515277773141861" lon="8.624904435127974">
        <ele>1439.71</ele>
        <time>2017-01-06T08:45:14Z</time>
      </trkpt>
      <trkpt lat="46.515285903587937" lon="8.625067211687565">
        <ele>1440.6700000000001</ele>
        <time>2017-01-06T08:45:25Z</time>
      </trkpt>
      <trkpt lat="46.515305265784264" lon="8.62522479146719">
        <ele>1442.1099999999999</ele>
        <time>2017-01-06T08:45:36Z</time>
      </trkpt>
      <trkpt lat="46.515318928286433" lon="8.62534892745316">
        <ele>1443.0799999999999</ele>
        <time>2017-01-06T08:45:44Z</time>
      </trkpt>
      <trkpt lat="46.515330662950873" lon="8.625542800873518">
        <ele>1445</ele>
        <time>2017-01-06T08:45:57Z</time>
      </trkpt>
      <trkpt lat="46.515337536111474" lon="8.625696441158652">
        <ele>1445.48</ele>
        <time>2017-01-06T08:46:07Z</time>
      </trkpt>
      <trkpt lat="46.51534172706306" lon="8.62585611641407">
        <ele>1448.3599999999999</ele>
        <time>2017-01-06T08:46:18Z</time>
      </trkpt>
      <trkpt lat="46.515342481434345" lon="8.626024425029755">
        <ele>1448.8399999999999</ele>
        <time>2017-01-06T08:46:29Z</time>
      </trkpt>
      <trkpt lat="46.515332255512476" lon="8.626091061159968">
        <ele>1449.8099999999999</ele>
        <time>2017-01-06T08:46:34Z</time>
      </trkpt>
      <trkpt lat="46.51534415781498" lon="8.626265237107873">
        <ele>1451.25</ele>
        <time>2017-01-06T08:46:45Z</time>
      </trkpt>
      <trkpt lat="46.515340972691774" lon="8.626379398629069">
        <ele>1452.6900000000001</ele>
        <time>2017-01-06T08:46:54Z</time>
      </trkpt>
      <trkpt lat="46.515331165865064" lon="8.626540498808026">
        <ele>1453.6500000000001</ele>
        <time>2017-01-06T08:47:07Z</time>
      </trkpt>
      <trkpt lat="46.515331836417317" lon="8.626602021977305">
        <ele>1454.1300000000001</ele>
        <time>2017-01-06T08:47:11Z</time>
      </trkpt>
      <trkpt lat="46.515351785346866" lon="8.62673562951386">
        <ele>1455.0899999999999</ele>
        <time>2017-01-06T08:47:22Z</time>
      </trkpt>
      <trkpt lat="46.515365531668067" lon="8.626849371939898">
        <ele>1456.53</ele>
        <time>2017-01-06T08:47:32Z</time>
      </trkpt>
      <trkpt lat="46.515367208048701" lon="8.626963365823031">
        <ele>1457.98</ele>
        <time>2017-01-06T08:47:42Z</time>
      </trkpt>
      <trkpt lat="46.515361256897449" lon="8.627078114077449">
        <ele>1459.4200000000001</ele>
        <time>2017-01-06T08:47:52Z</time>
      </trkpt>
      <trkpt lat="46.515355389565229" lon="8.627136033028364">
        <ele>1459.9000000000001</ele>
        <time>2017-01-06T08:47:57Z</time>
      </trkpt>
      <trkpt lat="46.515335105359554" lon="8.62727852538228">
        <ele>1462.78</ele>
        <time>2017-01-06T08:48:08Z</time>
      </trkpt>
      <trkpt lat="46.515323286876082" lon="8.62741288729012">
        <ele>1464.23</ele>
        <time>2017-01-06T08:48:19Z</time>
      </trkpt>
      <trkpt lat="46.515319850295782" lon="8.627539705485106">
        <ele>1465.6700000000001</ele>
        <time>2017-01-06T08:48:30Z</time>
      </trkpt>
      <trkpt lat="46.515301242470741" lon="8.627680186182261">
        <ele>1467.5899999999999</ele>
        <time>2017-01-06T08:48:40Z</time>
      </trkpt>
      <trkpt lat="46.515286071226001" lon="8.627792838960886">
        <ele>1469.03</ele>
        <time>2017-01-06T08:48:50Z</time>
      </trkpt>
      <trkpt lat="46.515268888324499" lon="8.627941031008959">
        <ele>1470.47</ele>
        <time>2017-01-06T08:49:02Z</time>
      </trkpt>
      <trkpt lat="46.51525916531682" lon="8.628039518371224">
        <ele>1470.95</ele>
        <time>2017-01-06T08:49:11Z</time>
      </trkpt>
      <trkpt lat="46.515255561098456" lon="8.628196092322469">
        <ele>1472.4000000000001</ele>
        <time>2017-01-06T08:49:24Z</time>
      </trkpt>
      <trkpt lat="46.515237959101796" lon="8.62831000238657">
        <ele>1473.3599999999999</ele>
        <time>2017-01-06T08:49:34Z</time>
      </trkpt>
      <trkpt lat="46.515196971595287" lon="8.628448219969869">
        <ele>1475.28</ele>
        <time>2017-01-06T08:49:45Z</time>
      </trkpt>
      <trkpt lat="46.515190852805972" lon="8.628457942977548">
        <ele>1475.28</ele>
        <time>2017-01-06T08:49:46Z</time>
      </trkpt>
      <trkpt lat="46.515074763447046" lon="8.628608649596572">
        <ele>1477.2</ele>
        <time>2017-01-06T08:49:59Z</time>
      </trkpt>
      <trkpt lat="46.514982981607318" lon="8.628664053976536">
        <ele>1478.1600000000001</ele>
        <time>2017-01-06T08:50:09Z</time>
      </trkpt>
      <trkpt lat="46.514948029071093" lon="8.6286710947752">
        <ele>1478.1600000000001</ele>
        <time>2017-01-06T08:50:12Z</time>
      </trkpt>
      <trkpt lat="46.514892540872097" lon="8.62870579585433">
        <ele>1477.6800000000001</ele>
        <time>2017-01-06T08:50:17Z</time>
      </trkpt>
      <trkpt lat="46.514746779575944" lon="8.628702946007252">
        <ele>1478.1600000000001</ele>
        <time>2017-01-06T08:50:30Z</time>
      </trkpt>
      <trkpt lat="46.514653572812676" lon="8.628674363717437">
        <ele>1478.1600000000001</ele>
        <time>2017-01-06T08:50:39Z</time>
      </trkpt>
      <trkpt lat="46.514555253088474" lon="8.628650391474366">
        <ele>1478.6500000000001</ele>
        <time>2017-01-06T08:50:49Z</time>
      </trkpt>
      <trkpt lat="46.514479732140899" lon="8.628665981814265">
        <ele>1479.6099999999999</ele>
        <time>2017-01-06T08:50:57Z</time>
      </trkpt>
      <trkpt lat="46.514382418245077" lon="8.628738988190889">
        <ele>1481.05</ele>
        <time>2017-01-06T08:51:08Z</time>
      </trkpt>
      <trkpt lat="46.514362385496497" lon="8.628734881058335">
        <ele>1482.01</ele>
        <time>2017-01-06T08:51:17Z</time>
      </trkpt>
      <trkpt lat="46.514354506507516" lon="8.62878056243062">
        <ele>1482.49</ele>
        <time>2017-01-06T08:51:24Z</time>
      </trkpt>
      <trkpt lat="46.514314357191324" lon="8.628923641517758">
        <ele>1482.97</ele>
        <time>2017-01-06T08:51:34Z</time>
      </trkpt>
      <trkpt lat="46.514310501515865" lon="8.628936130553484">
        <ele>1482.97</ele>
        <time>2017-01-06T08:51:35Z</time>
      </trkpt>
      <trkpt lat="46.514300778508186" lon="8.628973597660661">
        <ele>1483.45</ele>
        <time>2017-01-06T08:51:46Z</time>
      </trkpt>
      <trkpt lat="46.514300610870123" lon="8.629071582108736">
        <ele>1483.9300000000001</ele>
        <time>2017-01-06T08:51:59Z</time>
      </trkpt>
      <trkpt lat="46.514289295300841" lon="8.62924131564796">
        <ele>1484.8900000000001</ele>
        <time>2017-01-06T08:52:10Z</time>
      </trkpt>
      <trkpt lat="46.514257108792663" lon="8.629382299259305">
        <ele>1485.8499999999999</ele>
        <time>2017-01-06T08:52:22Z</time>
      </trkpt>
      <trkpt lat="46.514205140992999" lon="8.629538789391518">
        <ele>1486.8199999999999</ele>
        <time>2017-01-06T08:52:33Z</time>
      </trkpt>
      <trkpt lat="46.514170523732901" lon="8.629641970619559">
        <ele>1487.78</ele>
        <time>2017-01-06T08:52:41Z</time>
      </trkpt>
      <trkpt lat="46.514164488762617" lon="8.629671726375818">
        <ele>1487.78</ele>
        <time>2017-01-06T08:52:45Z</time>
      </trkpt>
      <trkpt lat="46.514129787683487" lon="8.629771554842591">
        <ele>1489.22</ele>
        <time>2017-01-06T08:52:55Z</time>
      </trkpt>
      <trkpt lat="46.514116125181317" lon="8.629882950335741">
        <ele>1491.1400000000001</ele>
        <time>2017-01-06T08:53:05Z</time>
      </trkpt>
      <trkpt lat="46.514092236757278" lon="8.630009097978473">
        <ele>1492.0999999999999</ele>
        <time>2017-01-06T08:53:15Z</time>
      </trkpt>
      <trkpt lat="46.514070024713874" lon="8.63014480099082">
        <ele>1493.55</ele>
        <time>2017-01-06T08:53:26Z</time>
      </trkpt>
      <trkpt lat="46.514061642810702" lon="8.630253514274955">
        <ele>1494.51</ele>
        <time>2017-01-06T08:53:35Z</time>
      </trkpt>
      <trkpt lat="46.514034820720553" lon="8.630393827334046">
        <ele>1496.4300000000001</ele>
        <time>2017-01-06T08:53:46Z</time>
      </trkpt>
      <trkpt lat="46.513996850699186" lon="8.63052005879581">
        <ele>1497.3900000000001</ele>
        <time>2017-01-06T08:53:56Z</time>
      </trkpt>
      <trkpt lat="46.513935411348939" lon="8.630646374076605">
        <ele>1498.8299999999999</ele>
        <time>2017-01-06T08:54:08Z</time>
      </trkpt>
      <trkpt lat="46.513893669471145" lon="8.630751399323344">
        <ele>1499.79</ele>
        <time>2017-01-06T08:54:17Z</time>
      </trkpt>
      <trkpt lat="46.513878162950277" lon="8.630762044340372">
        <ele>1499.79</ele>
        <time>2017-01-06T08:54:26Z</time>
      </trkpt>
      <trkpt lat="46.513835834339261" lon="8.630871428176761">
        <ele>1500.27</ele>
        <time>2017-01-06T08:54:35Z</time>
      </trkpt>
      <trkpt lat="46.513788141310215" lon="8.630981650203466">
        <ele>1501.72</ele>
        <time>2017-01-06T08:54:44Z</time>
      </trkpt>
      <trkpt lat="46.513734580948949" lon="8.63109128549695">
        <ele>1502.6800000000001</ele>
        <time>2017-01-06T08:54:55Z</time>
      </trkpt>
      <trkpt lat="46.513686301186681" lon="8.631219109520316">
        <ele>1502.6800000000001</ele>
        <time>2017-01-06T08:55:04Z</time>
      </trkpt>
      <trkpt lat="46.513611534610391" lon="8.631347185000777">
        <ele>1502.6800000000001</ele>
        <time>2017-01-06T08:55:15Z</time>
      </trkpt>
      <trkpt lat="46.513485219329596" lon="8.63156771287322">
        <ele>1501.72</ele>
        <time>2017-01-06T08:55:30Z</time>
      </trkpt>
      <trkpt lat="46.513468287885189" lon="8.631589841097593">
        <ele>1502.2</ele>
        <time>2017-01-06T08:55:32Z</time>
      </trkpt>
      <trkpt lat="46.513432078063488" lon="8.631649436429143">
        <ele>1501.72</ele>
        <time>2017-01-06T08:55:36Z</time>
      </trkpt>
      <trkpt lat="46.513364939019084" lon="8.631789498031139">
        <ele>1502.2</ele>
        <time>2017-01-06T08:55:45Z</time>
      </trkpt>
      <trkpt lat="46.513320431113243" lon="8.631912879645824">
        <ele>1501.72</ele>
        <time>2017-01-06T08:55:54Z</time>
      </trkpt>
      <trkpt lat="46.513270223513246" lon="8.632096778601408">
        <ele>1501.72</ele>
        <time>2017-01-06T08:56:06Z</time>
      </trkpt>
      <trkpt lat="46.513180704787374" lon="8.632330968976021">
        <ele>1501.72</ele>
        <time>2017-01-06T08:56:19Z</time>
      </trkpt>
      <trkpt lat="46.513142483308911" lon="8.632401879876852">
        <ele>1502.2</ele>
        <time>2017-01-06T08:56:24Z</time>
      </trkpt>
      <trkpt lat="46.513062436133623" lon="8.632515873759985">
        <ele>1502.2</ele>
        <time>2017-01-06T08:56:36Z</time>
      </trkpt>
      <trkpt lat="46.51298314332962" lon="8.632644703611732">
        <ele>1502.6800000000001</ele>
        <time>2017-01-06T08:56:46Z</time>
      </trkpt>
      <trkpt lat="46.512925559654832" lon="8.632722068578005">
        <ele>1502.6800000000001</ele>
        <time>2017-01-06T08:56:52Z</time>
      </trkpt>
      <trkpt lat="46.51279840618372" lon="8.632849641144276">
        <ele>1502.6800000000001</ele>
        <time>2017-01-06T08:57:03Z</time>
      </trkpt>
      <trkpt lat="46.512699918821454" lon="8.632857436314225">
        <ele>1503.1600000000001</ele>
        <time>2017-01-06T08:57:10Z</time>
      </trkpt>
      <trkpt lat="46.512639652937651" lon="8.63284545019269">
        <ele>1503.1600000000001</ele>
        <time>2017-01-06T08:57:15Z</time>
      </trkpt>
      <trkpt lat="46.512510068714619" lon="8.632866991683841">
        <ele>1503.6400000000001</ele>
        <time>2017-01-06T08:57:27Z</time>
      </trkpt>
      <trkpt lat="46.512502273544669" lon="8.632873697206378">
        <ele>1503.1600000000001</ele>
        <time>2017-01-06T08:57:28Z</time>
      </trkpt>
      <trkpt lat="46.51245147921145" lon="8.632935890927911">
        <ele>1503.1600000000001</ele>
        <time>2017-01-06T08:57:34Z</time>
      </trkpt>
      <trkpt lat="46.512385178357363" lon="8.633072013035417">
        <ele>1504.1199999999999</ele>
        <time>2017-01-06T08:57:44Z</time>
      </trkpt>
      <trkpt lat="46.512321224436164" lon="8.633231017738581">
        <ele>1505.0799999999999</ele>
        <time>2017-01-06T08:57:55Z</time>
      </trkpt>
      <trkpt lat="46.512288451194763" lon="8.633337300270796">
        <ele>1506.04</ele>
        <time>2017-01-06T08:58:02Z</time>
      </trkpt>
      <trkpt lat="46.512258863076568" lon="8.633410139009357">
        <ele>1506.52</ele>
        <time>2017-01-06T08:58:07Z</time>
      </trkpt>
      <trkpt lat="46.51219205930829" lon="8.633536705747247">
        <ele>1507.48</ele>
        <time>2017-01-06T08:58:17Z</time>
      </trkpt>
      <trkpt lat="46.512154676020145" lon="8.633591942489147">
        <ele>1507.97</ele>
        <time>2017-01-06T08:58:22Z</time>
      </trkpt>
      <trkpt lat="46.512066330760717" lon="8.633733931928873">
        <ele>1508.45</ele>
        <time>2017-01-06T08:58:35Z</time>
      </trkpt>
      <trkpt lat="46.512028612196445" lon="8.633894277736545">
        <ele>1509.8900000000001</ele>
        <time>2017-01-06T08:58:47Z</time>
      </trkpt>
      <trkpt lat="46.511995419859886" lon="8.63404599018395">
        <ele>1510.8499999999999</ele>
        <time>2017-01-06T08:58:57Z</time>
      </trkpt>
      <trkpt lat="46.511961305513978" lon="8.634188314899802">
        <ele>1511.8099999999999</ele>
        <time>2017-01-06T08:59:08Z</time>
      </trkpt>
      <trkpt lat="46.511923503130674" lon="8.634331561625004">
        <ele>1512.29</ele>
        <time>2017-01-06T08:59:17Z</time>
      </trkpt>
      <trkpt lat="46.511841779574752" lon="8.634518813341856">
        <ele>1512.77</ele>
        <time>2017-01-06T08:59:30Z</time>
      </trkpt>
      <trkpt lat="46.511715715751052" lon="8.634637501090765">
        <ele>1513.25</ele>
        <time>2017-01-06T08:59:42Z</time>
      </trkpt>
      <trkpt lat="46.511701969429851" lon="8.634643200784922">
        <ele>1515.1800000000001</ele>
        <time>2017-01-06T08:59:43Z</time>
      </trkpt>
      <trkpt lat="46.511643044650555" lon="8.634681422263384">
        <ele>1513.73</ele>
        <time>2017-01-06T08:59:49Z</time>
      </trkpt>
      <trkpt lat="46.511493679136038" lon="8.634761637076736">
        <ele>1513.73</ele>
        <time>2017-01-06T09:00:02Z</time>
      </trkpt>
      <trkpt lat="46.511350432410836" lon="8.634845791384578">
        <ele>1513.25</ele>
        <time>2017-01-06T09:00:14Z</time>
      </trkpt>
      <trkpt lat="46.511301398277283" lon="8.634882923215628">
        <ele>1513.25</ele>
        <time>2017-01-06T09:00:25Z</time>
      </trkpt>
      <trkpt lat="46.511288322508335" lon="8.634873535484076">
        <ele>1513.25</ele>
        <time>2017-01-06T09:00:42Z</time>
      </trkpt>
      <trkpt lat="46.511279437690973" lon="8.634875128045678">
        <ele>1513.73</ele>
        <time>2017-01-06T09:00:55Z</time>
      </trkpt>
      <trkpt lat="46.511281281709671" lon="8.634868673980236">
        <ele>1512.77</ele>
        <time>2017-01-06T09:01:11Z</time>
      </trkpt>
      <trkpt lat="46.511288993060589" lon="8.634909158572555">
        <ele>1512.29</ele>
        <time>2017-01-06T09:01:28Z</time>
      </trkpt>
      <trkpt lat="46.511277090758085" lon="8.634920474141836">
        <ele>1512.29</ele>
        <time>2017-01-06T09:01:48Z</time>
      </trkpt>
      <trkpt lat="46.51127683930099" lon="8.634916702285409">
        <ele>1511.8099999999999</ele>
        <time>2017-01-06T09:01:58Z</time>
      </trkpt>
      <trkpt lat="46.511267703026533" lon="8.634944278746843">
        <ele>1511.8099999999999</ele>
        <time>2017-01-06T09:02:00Z</time>
      </trkpt>
      <trkpt lat="46.511249262839556" lon="8.634873032569885">
        <ele>1511.8099999999999</ele>
        <time>2017-01-06T09:02:04Z</time>
      </trkpt>
      <trkpt lat="46.511262757703662" lon="8.634810755029321">
        <ele>1512.29</ele>
        <time>2017-01-06T09:02:14Z</time>
      </trkpt>
      <trkpt lat="46.511301398277283" lon="8.634798852726817">
        <ele>1512.29</ele>
        <time>2017-01-06T09:02:23Z</time>
      </trkpt>
      <trkpt lat="46.511310366913676" lon="8.63479851745069">
        <ele>1511.8099999999999</ele>
        <time>2017-01-06T09:02:42Z</time>
      </trkpt>
      <trkpt lat="46.511311205103993" lon="8.634796757251024">
        <ele>1511.8099999999999</ele>
        <time>2017-01-06T09:02:57Z</time>
      </trkpt>
      <trkpt lat="46.51129444129765" lon="8.634795751422644">
        <ele>1511.8099999999999</ele>
        <time>2017-01-06T09:03:12Z</time>
      </trkpt>
      <trkpt lat="46.511222776025534" lon="8.634815029799938">
        <ele>1511.8099999999999</ele>
        <time>2017-01-06T09:03:21Z</time>
      </trkpt>
      <trkpt lat="46.511106183752418" lon="8.634713860228658">
        <ele>1510.3699999999999</ele>
        <time>2017-01-06T09:03:33Z</time>
      </trkpt>
      <trkpt lat="46.511036781594157" lon="8.634627107530832">
        <ele>1509.8900000000001</ele>
        <time>2017-01-06T09:03:42Z</time>
      </trkpt>
      <trkpt lat="46.510958326980472" lon="8.634530045092106">
        <ele>1508.9300000000001</ele>
        <time>2017-01-06T09:03:53Z</time>
      </trkpt>
      <trkpt lat="46.510865958407521" lon="8.634513784199953">
        <ele>1508.9300000000001</ele>
        <time>2017-01-06T09:04:03Z</time>
      </trkpt>
      <trkpt lat="46.510778786614537" lon="8.634579246863723">
        <ele>1508.45</ele>
        <time>2017-01-06T09:04:15Z</time>
      </trkpt>
      <trkpt lat="46.510730506852269" lon="8.634655773639679">
        <ele>1508.9300000000001</ele>
        <time>2017-01-06T09:04:26Z</time>
      </trkpt>
      <trkpt lat="46.51072271168232" lon="8.634731629863381">
        <ele>1508.9300000000001</ele>
        <time>2017-01-06T09:04:34Z</time>
      </trkpt>
      <trkpt lat="46.51071491651237" lon="8.6348757147789">
        <ele>1509.4100000000001</ele>
        <time>2017-01-06T09:04:46Z</time>
      </trkpt>
      <trkpt lat="46.510708378627896" lon="8.634936902672052">
        <ele>1509.8900000000001</ele>
        <time>2017-01-06T09:04:52Z</time>
      </trkpt>
      <trkpt lat="46.510693626478314" lon="8.63506967201829">
        <ele>1510.3699999999999</ele>
        <time>2017-01-06T09:05:03Z</time>
      </trkpt>
      <trkpt lat="46.510702762752771" lon="8.635193137452006">
        <ele>1510.3699999999999</ele>
        <time>2017-01-06T09:05:13Z</time>
      </trkpt>
      <trkpt lat="46.510701589286327" lon="8.635286679491401">
        <ele>1509.8900000000001</ele>
        <time>2017-01-06T09:05:23Z</time>
      </trkpt>
      <trkpt lat="46.510731680318713" lon="8.635404696688056">
        <ele>1509.8900000000001</ele>
        <time>2017-01-06T09:05:33Z</time>
      </trkpt>
      <trkpt lat="46.5107686445117" lon="8.635562444105744">
        <ele>1510.3699999999999</ele>
        <time>2017-01-06T09:05:44Z</time>
      </trkpt>
      <trkpt lat="46.510786581784487" lon="8.6357615981251">
        <ele>1509.8900000000001</ele>
        <time>2017-01-06T09:05:56Z</time>
      </trkpt>
      <trkpt lat="46.510802926495671" lon="8.635929739102721">
        <ele>1509.4100000000001</ele>
        <time>2017-01-06T09:06:07Z</time>
      </trkpt>
      <trkpt lat="46.510810889303684" lon="8.636101735755801">
        <ele>1508.9300000000001</ele>
        <time>2017-01-06T09:06:19Z</time>
      </trkpt>
      <trkpt lat="46.51081801392138" lon="8.636258644983172">
        <ele>1508.45</ele>
        <time>2017-01-06T09:06:29Z</time>
      </trkpt>
      <trkpt lat="46.510820025578141" lon="8.636299883946776">
        <ele>1507.97</ele>
        <time>2017-01-06T09:06:32Z</time>
      </trkpt>
      <trkpt lat="46.510820360854268" lon="8.636496355757117">
        <ele>1507.48</ele>
        <time>2017-01-06T09:06:45Z</time>
      </trkpt>
      <trkpt lat="46.510809296742082" lon="8.636583192273974">
        <ele>1507</ele>
        <time>2017-01-06T09:06:52Z</time>
      </trkpt>
      <trkpt lat="46.510813152417541" lon="8.636644044891">
        <ele>1507</ele>
        <time>2017-01-06T09:06:57Z</time>
      </trkpt>
      <trkpt lat="46.510845338925719" lon="8.63675594329834">
        <ele>1506.04</ele>
        <time>2017-01-06T09:07:07Z</time>
      </trkpt>
      <trkpt lat="46.510890014469624" lon="8.6368702724576">
        <ele>1504.5999999999999</ele>
        <time>2017-01-06T09:07:18Z</time>
      </trkpt>
      <trkpt lat="46.510904934257269" lon="8.63699926994741">
        <ele>1504.1199999999999</ele>
        <time>2017-01-06T09:07:28Z</time>
      </trkpt>
      <trkpt lat="46.510962434113026" lon="8.637158861383796">
        <ele>1502.2</ele>
        <time>2017-01-06T09:07:41Z</time>
      </trkpt>
      <trkpt lat="46.511016581207514" lon="8.637369079515338">
        <ele>1500.76</ele>
        <time>2017-01-06T09:07:56Z</time>
      </trkpt>
      <trkpt lat="46.511008031666279" lon="8.637507632374764">
        <ele>1498.8299999999999</ele>
        <time>2017-01-06T09:08:06Z</time>
      </trkpt>
      <trkpt lat="46.510962098836899" lon="8.637663200497627">
        <ele>1496.9100000000001</ele>
        <time>2017-01-06T09:08:17Z</time>
      </trkpt>
      <trkpt lat="46.510906610637903" lon="8.637799238786101">
        <ele>1495.95</ele>
        <time>2017-01-06T09:08:29Z</time>
      </trkpt>
      <trkpt lat="46.510889595374465" lon="8.637913903221488">
        <ele>1495.95</ele>
        <time>2017-01-06T09:08:39Z</time>
      </trkpt>
      <trkpt lat="46.510858330875635" lon="8.638048097491264">
        <ele>1495.95</ele>
        <time>2017-01-06T09:08:51Z</time>
      </trkpt>
      <trkpt lat="46.510854307562113" lon="8.638060754165053">
        <ele>1495.95</ele>
        <time>2017-01-06T09:08:52Z</time>
      </trkpt>
      <trkpt lat="46.510783899575472" lon="8.63822428509593">
        <ele>1495.47</ele>
        <time>2017-01-06T09:09:05Z</time>
      </trkpt>
      <trkpt lat="46.510696643963456" lon="8.638388989493251">
        <ele>1495.47</ele>
        <time>2017-01-06T09:09:18Z</time>
      </trkpt>
      <trkpt lat="46.51063771918416" lon="8.638530895113945">
        <ele>1495.47</ele>
        <time>2017-01-06T09:09:30Z</time>
      </trkpt>
      <trkpt lat="46.510635372251272" lon="8.638543887063861">
        <ele>1495.47</ele>
        <time>2017-01-06T09:09:31Z</time>
      </trkpt>
      <trkpt lat="46.51058491319418" lon="8.638662658631802">
        <ele>1495.47</ele>
        <time>2017-01-06T09:09:42Z</time>
      </trkpt>
      <trkpt lat="46.51049648411572" lon="8.638823172077537">
        <ele>1495.95</ele>
        <time>2017-01-06T09:09:55Z</time>
      </trkpt>
      <trkpt lat="46.510443929582834" lon="8.638925096020103">
        <ele>1495.95</ele>
        <time>2017-01-06T09:10:05Z</time>
      </trkpt>
      <trkpt lat="46.510451221838593" lon="8.638919144868851">
        <ele>1495.47</ele>
        <time>2017-01-06T09:10:12Z</time>
      </trkpt>
      <trkpt lat="46.510438146069646" lon="8.63909256644547">
        <ele>1495.95</ele>
        <time>2017-01-06T09:10:23Z</time>
      </trkpt>
      <trkpt lat="46.510404786095023" lon="8.639283673837781">
        <ele>1495.95</ele>
        <time>2017-01-06T09:10:35Z</time>
      </trkpt>
      <trkpt lat="46.510366145521402" lon="8.639471344649792">
        <ele>1496.9100000000001</ele>
        <time>2017-01-06T09:10:46Z</time>
      </trkpt>
      <trkpt lat="46.510362708941102" lon="8.639515014365315">
        <ele>1496.4300000000001</ele>
        <time>2017-01-06T09:10:49Z</time>
      </trkpt>
      <trkpt lat="46.510323565453291" lon="8.639663541689515">
        <ele>1496.4300000000001</ele>
        <time>2017-01-06T09:10:58Z</time>
      </trkpt>
      <trkpt lat="46.510302694514394" lon="8.639733362942934">
        <ele>1496.9100000000001</ele>
        <time>2017-01-06T09:11:02Z</time>
      </trkpt>
      <trkpt lat="46.510281655937433" lon="8.639799160882831">
        <ele>1496.9100000000001</ele>
        <time>2017-01-06T09:11:06Z</time>
      </trkpt>
      <trkpt lat="46.510240249335766" lon="8.639969900250435">
        <ele>1497.3900000000001</ele>
        <time>2017-01-06T09:11:17Z</time>
      </trkpt>
      <trkpt lat="46.510202949866652" lon="8.64012161269784">
        <ele>1497.8699999999999</ele>
        <time>2017-01-06T09:11:27Z</time>
      </trkpt>
      <trkpt lat="46.510199261829257" lon="8.640137789770961">
        <ele>1497.8699999999999</ele>
        <time>2017-01-06T09:11:28Z</time>
      </trkpt>
      <trkpt lat="46.510176379233599" lon="8.6403429787606">
        <ele>1497.3900000000001</ele>
        <time>2017-01-06T09:11:40Z</time>
      </trkpt>
      <trkpt lat="46.510159447789192" lon="8.640504581853747">
        <ele>1497.8699999999999</ele>
        <time>2017-01-06T09:11:51Z</time>
      </trkpt>
      <trkpt lat="46.510154418647289" lon="8.640670124441385">
        <ele>1497.8699999999999</ele>
        <time>2017-01-06T09:12:01Z</time>
      </trkpt>
      <trkpt lat="46.510167745873332" lon="8.640831559896469">
        <ele>1497.8699999999999</ele>
        <time>2017-01-06T09:12:11Z</time>
      </trkpt>
      <trkpt lat="46.510160872712731" lon="8.640958126634359">
        <ele>1497.3900000000001</ele>
        <time>2017-01-06T09:12:19Z</time>
      </trkpt>
      <trkpt lat="46.510150227695704" lon="8.641090476885438">
        <ele>1497.8699999999999</ele>
        <time>2017-01-06T09:12:27Z</time>
      </trkpt>
      <trkpt lat="46.510135475546122" lon="8.641275130212307">
        <ele>1498.3499999999999</ele>
        <time>2017-01-06T09:12:39Z</time>
      </trkpt>
      <trkpt lat="46.510106725618243" lon="8.641457436606288">
        <ele>1498.3499999999999</ele>
        <time>2017-01-06T09:12:51Z</time>
      </trkpt>
      <trkpt lat="46.510107815265656" lon="8.64160462282598">
        <ele>1498.3499999999999</ele>
        <time>2017-01-06T09:13:01Z</time>
      </trkpt>
      <trkpt lat="46.510127177461982" lon="8.641694895923138">
        <ele>1498.3499999999999</ele>
        <time>2017-01-06T09:13:07Z</time>
      </trkpt>
      <trkpt lat="46.510146539658308" lon="8.641832945868373">
        <ele>1497.8699999999999</ele>
        <time>2017-01-06T09:13:17Z</time>
      </trkpt>
      <trkpt lat="46.510155675932765" lon="8.641864126548171">
        <ele>1497.8699999999999</ele>
        <time>2017-01-06T09:13:19Z</time>
      </trkpt>
      <trkpt lat="46.510171601548791" lon="8.64188801497221">
        <ele>1498.3499999999999</ele>
        <time>2017-01-06T09:13:21Z</time>
      </trkpt>
      <trkpt lat="46.510180067270994" lon="8.641934199258685">
        <ele>1498.8299999999999</ele>
        <time>2017-01-06T09:13:24Z</time>
      </trkpt>
      <trkpt lat="46.510186102241278" lon="8.641965296119452">
        <ele>1498.3499999999999</ele>
        <time>2017-01-06T09:13:26Z</time>
      </trkpt>
      <trkpt lat="46.510221222415566" lon="8.642156654968858">
        <ele>1498.8299999999999</ele>
        <time>2017-01-06T09:13:38Z</time>
      </trkpt>
      <trkpt lat="46.510239411145449" lon="8.642353042960167">
        <ele>1498.8299999999999</ele>
        <time>2017-01-06T09:13:49Z</time>
      </trkpt>
      <trkpt lat="46.510239914059639" lon="8.642370728775859">
        <ele>1500.27</ele>
        <time>2017-01-06T09:13:50Z</time>
      </trkpt>
      <trkpt lat="46.510268831625581" lon="8.642541132867336">
        <ele>1499.3099999999999</ele>
        <time>2017-01-06T09:14:00Z</time>
      </trkpt>
      <trkpt lat="46.510275285691023" lon="8.642707513645291">
        <ele>1498.8299999999999</ele>
        <time>2017-01-06T09:14:10Z</time>
      </trkpt>
      <trkpt lat="46.510283416137099" lon="8.642882946878672">
        <ele>1499.3099999999999</ele>
        <time>2017-01-06T09:14:21Z</time>
      </trkpt>
      <trkpt lat="46.510264137759805" lon="8.643090985715389">
        <ele>1499.3099999999999</ele>
        <time>2017-01-06T09:14:33Z</time>
      </trkpt>
      <trkpt lat="46.510252822190523" lon="8.643163405358791">
        <ele>1499.3099999999999</ele>
        <time>2017-01-06T09:14:37Z</time>
      </trkpt>
      <trkpt lat="46.510227927938104" lon="8.643334396183491">
        <ele>1499.3099999999999</ele>
        <time>2017-01-06T09:14:48Z</time>
      </trkpt>
      <trkpt lat="46.51019892655313" lon="8.643522905185819">
        <ele>1499.79</ele>
        <time>2017-01-06T09:14:59Z</time>
      </trkpt>
      <trkpt lat="46.510197836905718" lon="8.643543105572462">
        <ele>1499.79</ele>
        <time>2017-01-06T09:15:00Z</time>
      </trkpt>
      <trkpt lat="46.51016472838819" lon="8.643723148852587">
        <ele>1499.79</ele>
        <time>2017-01-06T09:15:11Z</time>
      </trkpt>
      <trkpt lat="46.510158693417907" lon="8.643772015348077">
        <ele>1499.79</ele>
        <time>2017-01-06T09:15:14Z</time>
      </trkpt>
      <trkpt lat="46.510139582678676" lon="8.643895145505667">
        <ele>1500.27</ele>
        <time>2017-01-06T09:15:22Z</time>
      </trkpt>
      <trkpt lat="46.510130194947124" lon="8.643940491601825">
        <ele>1500.27</ele>
        <time>2017-01-06T09:15:25Z</time>
      </trkpt>
      <trkpt lat="46.51010069064796" lon="8.644088935106993">
        <ele>1500.76</ele>
        <time>2017-01-06T09:15:36Z</time>
      </trkpt>
      <trkpt lat="46.510088872164488" lon="8.644134281203151">
        <ele>1500.76</ele>
        <time>2017-01-06T09:15:39Z</time>
      </trkpt>
      <trkpt lat="46.510032042860985" lon="8.644258081912994">
        <ele>1501.24</ele>
        <time>2017-01-06T09:15:48Z</time>
      </trkpt>
      <trkpt lat="46.510026510804892" lon="8.644287837669253">
        <ele>1501.24</ele>
        <time>2017-01-06T09:15:50Z</time>
      </trkpt>
      <trkpt lat="46.510014776140451" lon="8.644326981157064">
        <ele>1501.72</ele>
        <time>2017-01-06T09:15:53Z</time>
      </trkpt>
      <trkpt lat="46.510001113638282" lon="8.644409878179431">
        <ele>1501.72</ele>
        <time>2017-01-06T09:15:59Z</time>
      </trkpt>
      <trkpt lat="46.509962556883693" lon="8.644529404118657">
        <ele>1501.24</ele>
        <time>2017-01-06T09:16:07Z</time>
      </trkpt>
      <trkpt lat="46.509916875511408" lon="8.644634261727333">
        <ele>1501.24</ele>
        <time>2017-01-06T09:16:14Z</time>
      </trkpt>
      <trkpt lat="46.509879156947136" lon="8.64466829225421">
        <ele>1501.24</ele>
        <time>2017-01-06T09:16:18Z</time>
      </trkpt>
      <trkpt lat="46.509772790595889" lon="8.644759990274906">
        <ele>1500.76</ele>
        <time>2017-01-06T09:16:29Z</time>
      </trkpt>
      <trkpt lat="46.509680254384875" lon="8.64484473131597">
        <ele>1500.76</ele>
        <time>2017-01-06T09:16:39Z</time>
      </trkpt>
      <trkpt lat="46.509562321007252" lon="8.644970040768385">
        <ele>1500.76</ele>
        <time>2017-01-06T09:16:52Z</time>
      </trkpt>
      <trkpt lat="46.509481351822615" lon="8.645057631656528">
        <ele>1501.24</ele>
        <time>2017-01-06T09:17:02Z</time>
      </trkpt>
      <trkpt lat="46.50942150503397" lon="8.645142959430814">
        <ele>1501.24</ele>
        <time>2017-01-06T09:17:11Z</time>
      </trkpt>
      <trkpt lat="46.509368112310767" lon="8.645260808989406">
        <ele>1501.24</ele>
        <time>2017-01-06T09:17:22Z</time>
      </trkpt>
      <trkpt lat="46.509364256635308" lon="8.645273298025131">
        <ele>1501.24</ele>
        <time>2017-01-06T09:17:23Z</time>
      </trkpt>
      <trkpt lat="46.509310863912106" lon="8.645420735701919">
        <ele>1501.24</ele>
        <time>2017-01-06T09:17:35Z</time>
      </trkpt>
      <trkpt lat="46.509285382926464" lon="8.645473960787058">
        <ele>1501.24</ele>
        <time>2017-01-06T09:17:47Z</time>
      </trkpt>
      <trkpt lat="46.509275576099753" lon="8.645455352962017">
        <ele>1500.76</ele>
        <time>2017-01-06T09:18:05Z</time>
      </trkpt>
      <trkpt lat="46.509288651868701" lon="8.645488545298576">
        <ele>1501.24</ele>
        <time>2017-01-06T09:18:25Z</time>
      </trkpt>
      <trkpt lat="46.509285969659686" lon="8.645447138696909">
        <ele>1500.27</ele>
        <time>2017-01-06T09:18:38Z</time>
      </trkpt>
      <trkpt lat="46.509292172268033" lon="8.645449401810765">
        <ele>1500.76</ele>
        <time>2017-01-06T09:18:50Z</time>
      </trkpt>
      <trkpt lat="46.509277503937483" lon="8.645429201424122">
        <ele>1500.76</ele>
        <time>2017-01-06T09:19:08Z</time>
      </trkpt>
      <trkpt lat="46.509285634383559" lon="8.645435823127627">
        <ele>1500.27</ele>
        <time>2017-01-06T09:19:25Z</time>
      </trkpt>
      <trkpt lat="46.509286891669035" lon="8.645452419295907">
        <ele>1499.79</ele>
        <time>2017-01-06T09:19:43Z</time>
      </trkpt>
      <trkpt lat="46.509289490059018" lon="8.645515702664852">
        <ele>1499.79</ele>
        <time>2017-01-06T09:19:47Z</time>
      </trkpt>
      <trkpt lat="46.509288484230638" lon="8.645580746233463">
        <ele>1499.79</ele>
        <time>2017-01-06T09:19:51Z</time>
      </trkpt>
      <trkpt lat="46.50927297770977" lon="8.645604634657502">
        <ele>1499.79</ele>
        <time>2017-01-06T09:20:00Z</time>
      </trkpt>
      <trkpt lat="46.509281527251005" lon="8.645548559725285">
        <ele>1499.79</ele>
        <time>2017-01-06T09:20:09Z</time>
      </trkpt>
      <trkpt lat="46.509274570271373" lon="8.645458705723286">
        <ele>1499.3099999999999</ele>
        <time>2017-01-06T09:20:19Z</time>
      </trkpt>
      <trkpt lat="46.509279180318117" lon="8.645471278578043">
        <ele>1499.3099999999999</ele>
        <time>2017-01-06T09:20:31Z</time>
      </trkpt>
      <trkpt lat="46.509314803406596" lon="8.645476559177041">
        <ele>1498.8299999999999</ele>
        <time>2017-01-06T09:20:38Z</time>
      </trkpt>
      <trkpt lat="46.509389989078045" lon="8.645315039902926">
        <ele>1496.4300000000001</ele>
        <time>2017-01-06T09:20:53Z</time>
      </trkpt>
      <trkpt lat="46.509441286325455" lon="8.64534798078239">
        <ele>1495.95</ele>
        <time>2017-01-06T09:20:58Z</time>
      </trkpt>
      <trkpt lat="46.509423349052668" lon="8.645434901118279">
        <ele>1494.51</ele>
        <time>2017-01-06T09:21:07Z</time>
      </trkpt>
      <trkpt lat="46.509411446750164" lon="8.64558108150959">
        <ele>1492.5799999999999</ele>
        <time>2017-01-06T09:21:17Z</time>
      </trkpt>
      <trkpt lat="46.509432317689061" lon="8.64573547616601">
        <ele>1491.1400000000001</ele>
        <time>2017-01-06T09:21:28Z</time>
      </trkpt>
      <trkpt lat="46.509445728734136" lon="8.645857768133283">
        <ele>1490.1800000000001</ele>
        <time>2017-01-06T09:21:36Z</time>
      </trkpt>
      <trkpt lat="46.509461235255003" lon="8.64592113532126">
        <ele>1489.7</ele>
        <time>2017-01-06T09:21:40Z</time>
      </trkpt>
      <trkpt lat="46.509454529732466" lon="8.64611366763711">
        <ele>1487.3</ele>
        <time>2017-01-06T09:21:53Z</time>
      </trkpt>
      <trkpt lat="46.509444303810596" lon="8.646185081452131">
        <ele>1486.8199999999999</ele>
        <time>2017-01-06T09:21:57Z</time>
      </trkpt>
      <trkpt lat="46.509440196678042" lon="8.646198995411396">
        <ele>1486.3399999999999</ele>
        <time>2017-01-06T09:21:58Z</time>
      </trkpt>
      <trkpt lat="46.509433910250664" lon="8.646246185526252">
        <ele>1485.8499999999999</ele>
        <time>2017-01-06T09:22:01Z</time>
      </trkpt>
      <trkpt lat="46.509436508640647" lon="8.646401083096862">
        <ele>1483.9300000000001</ele>
        <time>2017-01-06T09:22:10Z</time>
      </trkpt>
      <trkpt lat="46.509469617158175" lon="8.646549610421062">
        <ele>1482.49</ele>
        <time>2017-01-06T09:22:20Z</time>
      </trkpt>
      <trkpt lat="46.509524853900075" lon="8.646731330081821">
        <ele>1480.5699999999999</ele>
        <time>2017-01-06T09:22:32Z</time>
      </trkpt>
      <trkpt lat="46.509531643241644" lon="8.646757649257779">
        <ele>1480.5699999999999</ele>
        <time>2017-01-06T09:22:34Z</time>
      </trkpt>
      <trkpt lat="46.509592495858669" lon="8.646927047520876">
        <ele>1478.1600000000001</ele>
        <time>2017-01-06T09:22:46Z</time>
      </trkpt>
      <trkpt lat="46.509594339877367" lon="8.646931322291493">
        <ele>1478.1600000000001</ele>
        <time>2017-01-06T09:22:47Z</time>
      </trkpt>
      <trkpt lat="46.509635327383876" lon="8.647083789110184">
        <ele>1476.72</ele>
        <time>2017-01-06T09:22:55Z</time>
      </trkpt>
      <trkpt lat="46.50963943451643" lon="8.647127542644739">
        <ele>1476.24</ele>
        <time>2017-01-06T09:22:57Z</time>
      </trkpt>
      <trkpt lat="46.509733563289046" lon="8.647373802959919">
        <ele>1473.8399999999999</ele>
        <time>2017-01-06T09:23:12Z</time>
      </trkpt>
      <trkpt lat="46.509743789210916" lon="8.647398613393307">
        <ele>1473.8399999999999</ele>
        <time>2017-01-06T09:23:14Z</time>
      </trkpt>
      <trkpt lat="46.509754853323102" lon="8.647418143227696">
        <ele>1473.8399999999999</ele>
        <time>2017-01-06T09:23:16Z</time>
      </trkpt>
      <trkpt lat="46.509867422282696" lon="8.647515960037708">
        <ele>1472.8800000000001</ele>
        <time>2017-01-06T09:23:27Z</time>
      </trkpt>
      <trkpt lat="46.509940596297383" lon="8.647548565641046">
        <ele>1472.4000000000001</ele>
        <time>2017-01-06T09:23:33Z</time>
      </trkpt>
      <trkpt lat="46.509946966543794" lon="8.647553259506822">
        <ele>1471.9200000000001</ele>
        <time>2017-01-06T09:23:41Z</time>
      </trkpt>
      <trkpt lat="46.510117035359144" lon="8.647601203992963">
        <ele>1471.9200000000001</ele>
        <time>2017-01-06T09:23:54Z</time>
      </trkpt>
      <trkpt lat="46.510130194947124" lon="8.647605981677771">
        <ele>1473.3599999999999</ele>
        <time>2017-01-06T09:23:55Z</time>
      </trkpt>
      <trkpt lat="46.510143019258976" lon="8.647610088810325">
        <ele>1471.9200000000001</ele>
        <time>2017-01-06T09:23:56Z</time>
      </trkpt>
      <trkpt lat="46.510274615138769" lon="8.647734392434359">
        <ele>1470.47</ele>
        <time>2017-01-06T09:24:09Z</time>
      </trkpt>
      <trkpt lat="46.510236728936434" lon="8.647865988314152">
        <ele>1470.47</ele>
        <time>2017-01-06T09:24:21Z</time>
      </trkpt>
      <trkpt lat="46.510220132768154" lon="8.647890295833349">
        <ele>1472.4000000000001</ele>
        <time>2017-01-06T09:24:24Z</time>
      </trkpt>
      <trkpt lat="46.510148970410228" lon="8.64800370298326">
        <ele>1472.8800000000001</ele>
        <time>2017-01-06T09:24:36Z</time>
      </trkpt>
      <trkpt lat="46.510108821094036" lon="8.648089617490768">
        <ele>1473.3599999999999</ele>
        <time>2017-01-06T09:24:46Z</time>
      </trkpt>
      <trkpt lat="46.510073281824589" lon="8.64815223030746">
        <ele>1474.3199999999999</ele>
        <time>2017-01-06T09:24:55Z</time>
      </trkpt>
      <trkpt lat="46.510069174692035" lon="8.648162037134171">
        <ele>1474.3199999999999</ele>
        <time>2017-01-06T09:24:56Z</time>
      </trkpt>
      <trkpt lat="46.51002449914813" lon="8.648264212533832">
        <ele>1474.8</ele>
        <time>2017-01-06T09:25:07Z</time>
      </trkpt>
      <trkpt lat="46.509980661794543" lon="8.648351300507784">
        <ele>1475.76</ele>
        <time>2017-01-06T09:25:18Z</time>
      </trkpt>
      <trkpt lat="46.509944787248969" lon="8.648445345461369">
        <ele>1476.72</ele>
        <time>2017-01-06T09:25:28Z</time>
      </trkpt>
      <trkpt lat="46.509905224665999" lon="8.648544251918793">
        <ele>1477.6800000000001</ele>
        <time>2017-01-06T09:25:38Z</time>
      </trkpt>
      <trkpt lat="46.509867254644632" lon="8.648648522794247">
        <ele>1478.6500000000001</ele>
        <time>2017-01-06T09:25:48Z</time>
      </trkpt>
      <trkpt lat="46.509816292673349" lon="8.648770814761519">
        <ele>1480.0899999999999</ele>
        <time>2017-01-06T09:26:00Z</time>
      </trkpt>
      <trkpt lat="46.509772455319762" lon="8.648884054273367">
        <ele>1481.05</ele>
        <time>2017-01-06T09:26:11Z</time>
      </trkpt>
      <trkpt lat="46.509731467813253" lon="8.648971896618605">
        <ele>1481.05</ele>
        <time>2017-01-06T09:26:21Z</time>
      </trkpt>
      <trkpt lat="46.509692911058664" lon="8.649066109210253">
        <ele>1482.01</ele>
        <time>2017-01-06T09:26:30Z</time>
      </trkpt>
      <trkpt lat="46.509661311283708" lon="8.649158477783203">
        <ele>1483.45</ele>
        <time>2017-01-06T09:26:39Z</time>
      </trkpt>
      <trkpt lat="46.509633315727115" lon="8.649259563535452">
        <ele>1484.4100000000001</ele>
        <time>2017-01-06T09:26:48Z</time>
      </trkpt>
      <trkpt lat="46.50959886610508" lon="8.64939384162426">
        <ele>1485.8499999999999</ele>
        <time>2017-01-06T09:26:59Z</time>
      </trkpt>
      <trkpt lat="46.509589562192559" lon="8.649514708667994">
        <ele>1486.8199999999999</ele>
        <time>2017-01-06T09:27:09Z</time>
      </trkpt>
      <trkpt lat="46.509573636576533" lon="8.649615962058306">
        <ele>1487.3</ele>
        <time>2017-01-06T09:27:18Z</time>
      </trkpt>
      <trkpt lat="46.509562069550157" lon="8.649717634543777">
        <ele>1488.74</ele>
        <time>2017-01-06T09:27:27Z</time>
      </trkpt>
      <trkpt lat="46.509559638798237" lon="8.649827521294355">
        <ele>1490.1800000000001</ele>
        <time>2017-01-06T09:27:37Z</time>
      </trkpt>
      <trkpt lat="46.509546227753162" lon="8.64998945966363">
        <ele>1491.6199999999999</ele>
        <time>2017-01-06T09:27:52Z</time>
      </trkpt>
      <trkpt lat="46.509537007659674" lon="8.650020556524396">
        <ele>1492.5799999999999</ele>
        <time>2017-01-06T09:28:04Z</time>
      </trkpt>
      <trkpt lat="46.509546311572194" lon="8.650006307289004">
        <ele>1492.5799999999999</ele>
        <time>2017-01-06T09:28:18Z</time>
      </trkpt>
      <trkpt lat="46.50955687277019" lon="8.650048468261957">
        <ele>1493.55</ele>
        <time>2017-01-06T09:28:29Z</time>
      </trkpt>
      <trkpt lat="46.509514711797237" lon="8.65009993314743">
        <ele>1494.99</ele>
        <time>2017-01-06T09:28:38Z</time>
      </trkpt>
      <trkpt lat="46.509513286873698" lon="8.650162378326058">
        <ele>1496.4300000000001</ele>
        <time>2017-01-06T09:28:49Z</time>
      </trkpt>
      <trkpt lat="46.509493170306087" lon="8.65020252764225">
        <ele>1497.3900000000001</ele>
        <time>2017-01-06T09:29:00Z</time>
      </trkpt>
      <trkpt lat="46.509447572752833" lon="8.650249382480979">
        <ele>1498.8299999999999</ele>
        <time>2017-01-06T09:29:12Z</time>
      </trkpt>
      <trkpt lat="46.509428210556507" lon="8.650334291160107">
        <ele>1500.76</ele>
        <time>2017-01-06T09:29:25Z</time>
      </trkpt>
      <trkpt lat="46.509430222213268" lon="8.650395646691322">
        <ele>1502.6800000000001</ele>
        <time>2017-01-06T09:29:37Z</time>
      </trkpt>
      <trkpt lat="46.509427037090063" lon="8.650471335276961">
        <ele>1504.5999999999999</ele>
        <time>2017-01-06T09:29:47Z</time>
      </trkpt>
      <trkpt lat="46.509413290768862" lon="8.650516010820866">
        <ele>1507.48</ele>
        <time>2017-01-06T09:29:58Z</time>
      </trkpt>
      <trkpt lat="46.509398957714438" lon="8.650526236742735">
        <ele>1506.52</ele>
        <time>2017-01-06T09:30:07Z</time>
      </trkpt>
      <trkpt lat="46.509383618831635" lon="8.650535037741065">
        <ele>1507</ele>
        <time>2017-01-06T09:30:16Z</time>
      </trkpt>
      <trkpt lat="46.509363753721118" lon="8.650589771568775">
        <ele>1508.9300000000001</ele>
        <time>2017-01-06T09:30:27Z</time>
      </trkpt>
      <trkpt lat="46.509338859468699" lon="8.650637632235885">
        <ele>1510.3699999999999</ele>
        <time>2017-01-06T09:30:40Z</time>
      </trkpt>
      <trkpt lat="46.509262500330806" lon="8.650666801258922">
        <ele>1510.8499999999999</ele>
        <time>2017-01-06T09:30:50Z</time>
      </trkpt>
      <trkpt lat="46.509234169498086" lon="8.6506921146065">
        <ele>1512.29</ele>
        <time>2017-01-06T09:31:02Z</time>
      </trkpt>
      <trkpt lat="46.50921874679625" lon="8.650702340528369">
        <ele>1513.25</ele>
        <time>2017-01-06T09:31:11Z</time>
      </trkpt>
      <trkpt lat="46.509196283295751" lon="8.650770988315344">
        <ele>1514.6900000000001</ele>
        <time>2017-01-06T09:31:21Z</time>
      </trkpt>
      <trkpt lat="46.509176334366202" lon="8.650858663022518">
        <ele>1516.6199999999999</ele>
        <time>2017-01-06T09:31:33Z</time>
      </trkpt>
      <trkpt lat="46.509212628006935" lon="8.650897890329361">
        <ele>1519.02</ele>
        <time>2017-01-06T09:31:43Z</time>
      </trkpt>
      <trkpt lat="46.509213047102094" lon="8.650945080444217">
        <ele>1520.46</ele>
        <time>2017-01-06T09:31:54Z</time>
      </trkpt>
      <trkpt lat="46.509190918877721" lon="8.651016494259238">
        <ele>1522.3900000000001</ele>
        <time>2017-01-06T09:32:05Z</time>
      </trkpt>
      <trkpt lat="46.509161414578557" lon="8.651086986064911">
        <ele>1524.3099999999999</ele>
        <time>2017-01-06T09:32:17Z</time>
      </trkpt>
      <trkpt lat="46.509088827297091" lon="8.65114901214838">
        <ele>1525.75</ele>
        <time>2017-01-06T09:32:29Z</time>
      </trkpt>
      <trkpt lat="46.509133167564869" lon="8.651154460385442">
        <ele>1527.1900000000001</ele>
        <time>2017-01-06T09:32:40Z</time>
      </trkpt>
      <trkpt lat="46.509164683520794" lon="8.651162758469582">
        <ele>1528.6300000000001</ele>
        <time>2017-01-06T09:32:50Z</time>
      </trkpt>
      <trkpt lat="46.509186895564198" lon="8.651168877258897">
        <ele>1530.0799999999999</ele>
        <time>2017-01-06T09:33:00Z</time>
      </trkpt>
      <trkpt lat="46.509224027395248" lon="8.651212379336357">
        <ele>1531.52</ele>
        <time>2017-01-06T09:33:09Z</time>
      </trkpt>
      <trkpt lat="46.509246323257685" lon="8.651293097063899">
        <ele>1533.9200000000001</ele>
        <time>2017-01-06T09:33:19Z</time>
      </trkpt>
      <trkpt lat="46.509248670190573" lon="8.651393931359053">
        <ele>1535.3599999999999</ele>
        <time>2017-01-06T09:33:29Z</time>
      </trkpt>
      <trkpt lat="46.509279850870371" lon="8.651473224163055">
        <ele>1537.29</ele>
        <time>2017-01-06T09:33:40Z</time>
      </trkpt>
      <trkpt lat="46.509294183924794" lon="8.651588223874569">
        <ele>1537.77</ele>
        <time>2017-01-06T09:33:50Z</time>
      </trkpt>
      <trkpt lat="46.509280018508434" lon="8.651651171967387">
        <ele>1538.25</ele>
        <time>2017-01-06T09:34:01Z</time>
      </trkpt>
      <trkpt lat="46.509261075407267" lon="8.651701463386416">
        <ele>1539.21</ele>
        <time>2017-01-06T09:34:12Z</time>
      </trkpt>
      <trkpt lat="46.509245317429304" lon="8.65174463018775">
        <ele>1540.6500000000001</ele>
        <time>2017-01-06T09:34:20Z</time>
      </trkpt>
      <trkpt lat="46.509261997416615" lon="8.65173289552331">
        <ele>1540.1700000000001</ele>
        <time>2017-01-06T09:34:33Z</time>
      </trkpt>
      <trkpt lat="46.509267026558518" lon="8.651744714006782">
        <ele>1540.1700000000001</ele>
        <time>2017-01-06T09:34:48Z</time>
      </trkpt>
      <trkpt lat="46.50928471237421" lon="8.651731219142675">
        <ele>1539.6900000000001</ele>
        <time>2017-01-06T09:35:08Z</time>
      </trkpt>
      <trkpt lat="46.509299380704761" lon="8.651782600209117">
        <ele>1540.1700000000001</ele>
        <time>2017-01-06T09:35:25Z</time>
      </trkpt>
      <trkpt lat="46.50926074013114" lon="8.651829622685909">
        <ele>1540.6500000000001</ele>
        <time>2017-01-06T09:35:36Z</time>
      </trkpt>
      <trkpt lat="46.509241797029972" lon="8.651825515553355">
        <ele>1540.6500000000001</ele>
        <time>2017-01-06T09:35:51Z</time>
      </trkpt>
      <trkpt lat="46.509243724867702" lon="8.651801124215126">
        <ele>1539.21</ele>
        <time>2017-01-06T09:35:59Z</time>
      </trkpt>
      <trkpt lat="46.509253196418285" lon="8.651777906343341">
        <ele>1539.21</ele>
        <time>2017-01-06T09:36:25Z</time>
      </trkpt>
      <trkpt lat="46.509247245267034" lon="8.65177690051496">
        <ele>1539.6900000000001</ele>
        <time>2017-01-06T09:36:53Z</time>
      </trkpt>
      <trkpt lat="46.509280269965529" lon="8.651759969070554">
        <ele>1539.6900000000001</ele>
        <time>2017-01-06T09:37:17Z</time>
      </trkpt>
      <trkpt lat="46.509293848648667" lon="8.651749156415463">
        <ele>1539.6900000000001</ele>
        <time>2017-01-06T09:37:39Z</time>
      </trkpt>
      <trkpt lat="46.509294770658016" lon="8.651761058717966">
        <ele>1539.6900000000001</ele>
        <time>2017-01-06T09:38:03Z</time>
      </trkpt>
      <trkpt lat="46.509245065972209" lon="8.651784108951688">
        <ele>1539.21</ele>
        <time>2017-01-06T09:38:30Z</time>
      </trkpt>
      <trkpt lat="46.509228805080056" lon="8.651752509176731">
        <ele>1540.6500000000001</ele>
        <time>2017-01-06T09:38:57Z</time>
      </trkpt>
      <trkpt lat="46.509260069578886" lon="8.651759382337332">
        <ele>1539.6900000000001</ele>
        <time>2017-01-06T09:38:59Z</time>
      </trkpt>
      <trkpt lat="46.509233498945832" lon="8.651780672371388">
        <ele>1540.6500000000001</ele>
        <time>2017-01-06T09:39:09Z</time>
      </trkpt>
      <trkpt lat="46.509202821180224" lon="8.651800788938999">
        <ele>1540.6500000000001</ele>
        <time>2017-01-06T09:39:23Z</time>
      </trkpt>
      <trkpt lat="46.509196199476719" lon="8.65177396684885">
        <ele>1540.6500000000001</ele>
        <time>2017-01-06T09:39:37Z</time>
      </trkpt>
      <trkpt lat="46.509194439277053" lon="8.651809589937329">
        <ele>1541.1300000000001</ele>
        <time>2017-01-06T09:39:53Z</time>
      </trkpt>
      <trkpt lat="46.509189577773213" lon="8.651798525825143">
        <ele>1541.1300000000001</ele>
        <time>2017-01-06T09:40:10Z</time>
      </trkpt>
      <trkpt lat="46.509195612743497" lon="8.651735242456198">
        <ele>1541.1300000000001</ele>
        <time>2017-01-06T09:40:20Z</time>
      </trkpt>
      <trkpt lat="46.509186057373881" lon="8.651781342923641">
        <ele>1541.6099999999999</ele>
        <time>2017-01-06T09:40:35Z</time>
      </trkpt>
      <trkpt lat="46.509197624400258" lon="8.651774469763041">
        <ele>1541.6099999999999</ele>
        <time>2017-01-06T09:40:54Z</time>
      </trkpt>
      <trkpt lat="46.509199049323797" lon="8.651735745370388">
        <ele>1541.6099999999999</ele>
        <time>2017-01-06T09:41:14Z</time>
      </trkpt>
      <trkpt lat="46.509192511439323" lon="8.651779582723975">
        <ele>1542.5699999999999</ele>
        <time>2017-01-06T09:41:27Z</time>
      </trkpt>
      <trkpt lat="46.509214052930474" lon="8.651784863322973">
        <ele>1543.05</ele>
        <time>2017-01-06T09:41:35Z</time>
      </trkpt>
      <trkpt lat="46.509224697947502" lon="8.651782851666212">
        <ele>1542.5699999999999</ele>
        <time>2017-01-06T09:41:46Z</time>
      </trkpt>
      <trkpt lat="46.509233498945832" lon="8.651804644614458">
        <ele>1542.5699999999999</ele>
        <time>2017-01-06T09:41:54Z</time>
      </trkpt>
      <trkpt lat="46.509208856150508" lon="8.651782851666212">
        <ele>1541.6099999999999</ele>
        <time>2017-01-06T09:42:09Z</time>
      </trkpt>
      <trkpt lat="46.509200306609273" lon="8.651816379278898">
        <ele>1542.0899999999999</ele>
        <time>2017-01-06T09:42:25Z</time>
      </trkpt>
      <trkpt lat="46.50920357555151" lon="8.651826353743672">
        <ele>1542.0899999999999</ele>
        <time>2017-01-06T09:42:37Z</time>
      </trkpt>
      <trkpt lat="46.509208520874381" lon="8.651799028739333">
        <ele>1541.6099999999999</ele>
        <time>2017-01-06T09:42:51Z</time>
      </trkpt>
      <trkpt lat="46.509204832836986" lon="8.651820570230484">
        <ele>1542.0899999999999</ele>
        <time>2017-01-06T09:43:06Z</time>
      </trkpt>
      <trkpt lat="46.50918991304934" lon="8.651843788102269">
        <ele>1542.0899999999999</ele>
        <time>2017-01-06T09:43:22Z</time>
      </trkpt>
      <trkpt lat="46.509164264425635" lon="8.651867592707276">
        <ele>1542.0899999999999</ele>
        <time>2017-01-06T09:43:46Z</time>
      </trkpt>
      <trkpt lat="46.5091747418046" lon="8.651872538030148">
        <ele>1541.6099999999999</ele>
        <time>2017-01-06T09:43:55Z</time>
      </trkpt>
      <trkpt lat="46.509193601086736" lon="8.651864491403103">
        <ele>1542.5699999999999</ele>
        <time>2017-01-06T09:44:05Z</time>
      </trkpt>
      <trkpt lat="46.509202318266034" lon="8.651890475302935">
        <ele>1543.05</ele>
        <time>2017-01-06T09:44:17Z</time>
      </trkpt>
      <trkpt lat="46.509161163121462" lon="8.65194546058774">
        <ele>1544.98</ele>
        <time>2017-01-06T09:44:29Z</time>
      </trkpt>
      <trkpt lat="46.50910927914083" lon="8.652001032605767">
        <ele>1546.9000000000001</ele>
        <time>2017-01-06T09:44:40Z</time>
      </trkpt>
      <trkpt lat="46.509056892246008" lon="8.652071775868535">
        <ele>1548.3399999999999</ele>
        <time>2017-01-06T09:44:52Z</time>
      </trkpt>
      <trkpt lat="46.509014647454023" lon="8.65217168815434">
        <ele>1550.74</ele>
        <time>2017-01-06T09:45:05Z</time>
      </trkpt>
      <trkpt lat="46.509052868932486" lon="8.652276881039143">
        <ele>1552.1900000000001</ele>
        <time>2017-01-06T09:45:18Z</time>
      </trkpt>
      <trkpt lat="46.509055132046342" lon="8.652296327054501">
        <ele>1552.1900000000001</ele>
        <time>2017-01-06T09:45:20Z</time>
      </trkpt>
      <trkpt lat="46.509029818698764" lon="8.652405543252826">
        <ele>1554.1099999999999</ele>
        <time>2017-01-06T09:45:31Z</time>
      </trkpt>
      <trkpt lat="46.509022107347846" lon="8.652413841336966">
        <ele>1554.1099999999999</ele>
        <time>2017-01-06T09:45:32Z</time>
      </trkpt>
      <trkpt lat="46.509034931659698" lon="8.652472766116262">
        <ele>1555.0699999999999</ele>
        <time>2017-01-06T09:45:41Z</time>
      </trkpt>
      <trkpt lat="46.509053707122803" lon="8.652573013678193">
        <ele>1556.51</ele>
        <time>2017-01-06T09:45:54Z</time>
      </trkpt>
      <trkpt lat="46.509023029357195" lon="8.652631770819426">
        <ele>1559.8800000000001</ele>
        <time>2017-01-06T09:46:05Z</time>
      </trkpt>
      <trkpt lat="46.509025879204273" lon="8.652762779965997">
        <ele>1559.4000000000001</ele>
        <time>2017-01-06T09:46:16Z</time>
      </trkpt>
      <trkpt lat="46.509027387946844" lon="8.652841234579682">
        <ele>1561.3199999999999</ele>
        <time>2017-01-06T09:46:26Z</time>
      </trkpt>
      <trkpt lat="46.50896267965436" lon="8.652913067489862">
        <ele>1563.24</ele>
        <time>2017-01-06T09:46:37Z</time>
      </trkpt>
      <trkpt lat="46.508944490924478" lon="8.652975847944617">
        <ele>1565.1600000000001</ele>
        <time>2017-01-06T09:46:48Z</time>
      </trkpt>
      <trkpt lat="46.508912891149521" lon="8.653022116050124">
        <ele>1566.1199999999999</ele>
        <time>2017-01-06T09:46:58Z</time>
      </trkpt>
      <trkpt lat="46.508873915299773" lon="8.65297693759203">
        <ele>1567.5699999999999</ele>
        <time>2017-01-06T09:47:08Z</time>
      </trkpt>
      <trkpt lat="46.508872490376234" lon="8.653048854321241">
        <ele>1569.49</ele>
        <time>2017-01-06T09:47:18Z</time>
      </trkpt>
      <trkpt lat="46.508806692436337" lon="8.653050027787685">
        <ele>1571.8900000000001</ele>
        <time>2017-01-06T09:47:30Z</time>
      </trkpt>
      <trkpt lat="46.508732177317142" lon="8.653007028624415">
        <ele>1573.8199999999999</ele>
        <time>2017-01-06T09:47:42Z</time>
      </trkpt>
      <trkpt lat="46.508721448481083" lon="8.652933100238442">
        <ele>1575.74</ele>
        <time>2017-01-06T09:47:52Z</time>
      </trkpt>
      <trkpt lat="46.508672330528498" lon="8.652864117175341">
        <ele>1576.7</ele>
        <time>2017-01-06T09:48:03Z</time>
      </trkpt>
      <trkpt lat="46.508599072694778" lon="8.652901249006391">
        <ele>1577.6600000000001</ele>
        <time>2017-01-06T09:48:13Z</time>
      </trkpt>
      <trkpt lat="46.508512822911143" lon="8.652820782735944">
        <ele>1578.6199999999999</ele>
        <time>2017-01-06T09:48:25Z</time>
      </trkpt>
      <trkpt lat="46.508436882868409" lon="8.652824806049466">
        <ele>1580.0599999999999</ele>
        <time>2017-01-06T09:48:36Z</time>
      </trkpt>
      <trkpt lat="46.508358344435692" lon="8.652832852676511">
        <ele>1581.03</ele>
        <time>2017-01-06T09:48:48Z</time>
      </trkpt>
      <trkpt lat="46.508351974189281" lon="8.65291491150856">
        <ele>1581.99</ele>
        <time>2017-01-06T09:48:58Z</time>
      </trkpt>
      <trkpt lat="46.508363457396626" lon="8.652981715276837">
        <ele>1582.95</ele>
        <time>2017-01-06T09:49:06Z</time>
      </trkpt>
      <trkpt lat="46.508350465446711" lon="8.65308590233326">
        <ele>1584.8699999999999</ele>
        <time>2017-01-06T09:49:18Z</time>
      </trkpt>
      <trkpt lat="46.508391033858061" lon="8.653159998357296">
        <ele>1585.8299999999999</ele>
        <time>2017-01-06T09:49:29Z</time>
      </trkpt>
      <trkpt lat="46.5084183588624" lon="8.653222611173987">
        <ele>1587.27</ele>
        <time>2017-01-06T09:49:39Z</time>
      </trkpt>
      <trkpt lat="46.508379299193621" lon="8.653309280052781">
        <ele>1588.24</ele>
        <time>2017-01-06T09:49:49Z</time>
      </trkpt>
      <trkpt lat="46.508408132940531" lon="8.653384884819388">
        <ele>1589.6800000000001</ele>
        <time>2017-01-06T09:50:00Z</time>
      </trkpt>
      <trkpt lat="46.508397068828344" lon="8.653478259220719">
        <ele>1591.1199999999999</ele>
        <time>2017-01-06T09:50:10Z</time>
      </trkpt>
      <trkpt lat="46.508359601721168" lon="8.653543805703521">
        <ele>1592.0799999999999</ele>
        <time>2017-01-06T09:50:19Z</time>
      </trkpt>
      <trkpt lat="46.508352477103472" lon="8.653606418520212">
        <ele>1593.52</ele>
        <time>2017-01-06T09:50:30Z</time>
      </trkpt>
      <trkpt lat="46.508326828479767" lon="8.65364640019834">
        <ele>1594.96</ele>
        <time>2017-01-06T09:50:39Z</time>
      </trkpt>
      <trkpt lat="46.508339568972588" lon="8.653759220615029">
        <ele>1597.3699999999999</ele>
        <time>2017-01-06T09:50:53Z</time>
      </trkpt>
      <trkpt lat="46.508302185684443" lon="8.653838681057096">
        <ele>1599.29</ele>
        <time>2017-01-06T09:51:06Z</time>
      </trkpt>
      <trkpt lat="46.508253989741206" lon="8.653879752382636">
        <ele>1600.73</ele>
        <time>2017-01-06T09:51:15Z</time>
      </trkpt>
      <trkpt lat="46.508237896487117" lon="8.653903724625707">
        <ele>1601.21</ele>
        <time>2017-01-06T09:51:25Z</time>
      </trkpt>
      <trkpt lat="46.508180731907487" lon="8.653920320793986">
        <ele>1602.6600000000001</ele>
        <time>2017-01-06T09:51:38Z</time>
      </trkpt>
      <trkpt lat="46.508097918704152" lon="8.653929205611348">
        <ele>1603.6199999999999</ele>
        <time>2017-01-06T09:51:49Z</time>
      </trkpt>
      <trkpt lat="46.508107976987958" lon="8.653999110683799">
        <ele>1605.0599999999999</ele>
        <time>2017-01-06T09:52:00Z</time>
      </trkpt>
      <trkpt lat="46.508105294778943" lon="8.654058119282126">
        <ele>1608.4200000000001</ele>
        <time>2017-01-06T09:52:08Z</time>
      </trkpt>
      <trkpt lat="46.508098756894469" lon="8.65409248508513">
        <ele>1607.9400000000001</ele>
        <time>2017-01-06T09:52:18Z</time>
      </trkpt>
      <trkpt lat="46.508065480738878" lon="8.654102208092809">
        <ele>1609.3800000000001</ele>
        <time>2017-01-06T09:52:31Z</time>
      </trkpt>
      <trkpt lat="46.507995324209332" lon="8.654097598046064">
        <ele>1610.8299999999999</ele>
        <time>2017-01-06T09:52:41Z</time>
      </trkpt>
      <trkpt lat="46.50794830173254" lon="8.654078990221024">
        <ele>1612.27</ele>
        <time>2017-01-06T09:52:51Z</time>
      </trkpt>
      <trkpt lat="46.50786129757762" lon="8.654014533385634">
        <ele>1614.1900000000001</ele>
        <time>2017-01-06T09:53:04Z</time>
      </trkpt>
      <trkpt lat="46.507806312292814" lon="8.653936078771949">
        <ele>1616.1099999999999</ele>
        <time>2017-01-06T09:53:16Z</time>
      </trkpt>
      <trkpt lat="46.507779406383634" lon="8.653877321630716">
        <ele>1616.5899999999999</ele>
        <time>2017-01-06T09:53:23Z</time>
      </trkpt>
      <trkpt lat="46.507741352543235" lon="8.653810936957598">
        <ele>1616.1099999999999</ele>
        <time>2017-01-06T09:53:31Z</time>
      </trkpt>
      <trkpt lat="46.507686618715525" lon="8.653702391311526">
        <ele>1617.5599999999999</ele>
        <time>2017-01-06T09:53:43Z</time>
      </trkpt>
      <trkpt lat="46.507630543783307" lon="8.653654363006353">
        <ele>1619.48</ele>
        <time>2017-01-06T09:53:55Z</time>
      </trkpt>
      <trkpt lat="46.507599614560604" lon="8.653622008860111">
        <ele>1619.96</ele>
        <time>2017-01-06T09:54:05Z</time>
      </trkpt>
      <trkpt lat="46.507555861026049" lon="8.653529305011034">
        <ele>1620.9200000000001</ele>
        <time>2017-01-06T09:54:17Z</time>
      </trkpt>
      <trkpt lat="46.507544377818704" lon="8.653482869267464">
        <ele>1621.8800000000001</ele>
        <time>2017-01-06T09:54:31Z</time>
      </trkpt>
      <trkpt lat="46.507483776658773" lon="8.653447329998016">
        <ele>1623.3199999999999</ele>
        <time>2017-01-06T09:54:41Z</time>
      </trkpt>
      <trkpt lat="46.507389564067125" lon="8.653416316956282">
        <ele>1623.8</ele>
        <time>2017-01-06T09:54:53Z</time>
      </trkpt>
      <trkpt lat="46.507331812754273" lon="8.653431236743927">
        <ele>1626.21</ele>
        <time>2017-01-06T09:55:04Z</time>
      </trkpt>
      <trkpt lat="46.50729644112289" lon="8.653424782678485">
        <ele>1627.6500000000001</ele>
        <time>2017-01-06T09:55:12Z</time>
      </trkpt>
      <trkpt lat="46.507228715345263" lon="8.653389913961291">
        <ele>1629.0899999999999</ele>
        <time>2017-01-06T09:55:23Z</time>
      </trkpt>
      <trkpt lat="46.507183369249105" lon="8.653362924233079">
        <ele>1631.01</ele>
        <time>2017-01-06T09:55:36Z</time>
      </trkpt>
      <trkpt lat="46.507102819159627" lon="8.653317913413048">
        <ele>1632.9400000000001</ele>
        <time>2017-01-06T09:55:46Z</time>
      </trkpt>
      <trkpt lat="46.507036769762635" lon="8.653271645307541">
        <ele>1633.9000000000001</ele>
        <time>2017-01-06T09:55:58Z</time>
      </trkpt>
      <trkpt lat="46.507001901045442" lon="8.65329846739769">
        <ele>1634.8599999999999</ele>
        <time>2017-01-06T09:56:09Z</time>
      </trkpt>
      <trkpt lat="46.506989160552621" lon="8.653349429368973">
        <ele>1635.8199999999999</ele>
        <time>2017-01-06T09:56:21Z</time>
      </trkpt>
      <trkpt lat="46.50698128156364" lon="8.653364097699523">
        <ele>1637.26</ele>
        <time>2017-01-06T09:56:32Z</time>
      </trkpt>
      <trkpt lat="46.506928643211722" lon="8.653357811272144">
        <ele>1637.74</ele>
        <time>2017-01-06T09:56:43Z</time>
      </trkpt>
      <trkpt lat="46.506880531087518" lon="8.653356470167637">
        <ele>1638.22</ele>
        <time>2017-01-06T09:56:58Z</time>
      </trkpt>
      <trkpt lat="46.506816660985351" lon="8.653378430753946">
        <ele>1640.1500000000001</ele>
        <time>2017-01-06T09:57:07Z</time>
      </trkpt>
      <trkpt lat="46.506782127544284" lon="8.65338689647615">
        <ele>1642.55</ele>
        <time>2017-01-06T09:57:19Z</time>
      </trkpt>
      <trkpt lat="46.506788162514567" lon="8.65335563197732">
        <ele>1642.0699999999999</ele>
        <time>2017-01-06T09:57:29Z</time>
      </trkpt>
      <trkpt lat="46.506716413423419" lon="8.653388572856784">
        <ele>1643.99</ele>
        <time>2017-01-06T09:57:40Z</time>
      </trkpt>
      <trkpt lat="46.506694620475173" lon="8.653485216200352">
        <ele>1646.4000000000001</ele>
        <time>2017-01-06T09:57:51Z</time>
      </trkpt>
      <trkpt lat="46.50665195658803" lon="8.653545649722219">
        <ele>1647.8399999999999</ele>
        <time>2017-01-06T09:58:02Z</time>
      </trkpt>
      <trkpt lat="46.50658012367785" lon="8.653581524267793">
        <ele>1649.28</ele>
        <time>2017-01-06T09:58:13Z</time>
      </trkpt>
      <trkpt lat="46.506542572751641" lon="8.653669198974967">
        <ele>1651.2</ele>
        <time>2017-01-06T09:58:25Z</time>
      </trkpt>
      <trkpt lat="46.506511475890875" lon="8.6537572927773">
        <ele>1651.6800000000001</ele>
        <time>2017-01-06T09:58:36Z</time>
      </trkpt>
      <trkpt lat="46.50651172734797" lon="8.653856702148914">
        <ele>1653.1199999999999</ele>
        <time>2017-01-06T09:58:44Z</time>
      </trkpt>
      <trkpt lat="46.506511643528938" lon="8.654014030471444">
        <ele>1653.5999999999999</ele>
        <time>2017-01-06T09:58:56Z</time>
      </trkpt>
      <trkpt lat="46.50648096576333" lon="8.654061472043395">
        <ele>1653.1199999999999</ele>
        <time>2017-01-06T09:59:06Z</time>
      </trkpt>
      <trkpt lat="46.506427070125937" lon="8.654098520055413">
        <ele>1654.5699999999999</ele>
        <time>2017-01-06T09:59:13Z</time>
      </trkpt>
      <trkpt lat="46.506348783150315" lon="8.654163731262088">
        <ele>1655.05</ele>
        <time>2017-01-06T09:59:23Z</time>
      </trkpt>
      <trkpt lat="46.506297904998064" lon="8.65418435074389">
        <ele>1655.05</ele>
        <time>2017-01-06T09:59:33Z</time>
      </trkpt>
      <trkpt lat="46.506245853379369" lon="8.654251154512167">
        <ele>1656.01</ele>
        <time>2017-01-06T09:59:43Z</time>
      </trkpt>
      <trkpt lat="46.506171757355332" lon="8.654278563335538">
        <ele>1655.53</ele>
        <time>2017-01-06T09:59:54Z</time>
      </trkpt>
      <trkpt lat="46.50609883479774" lon="8.654321311041713">
        <ele>1655.05</ele>
        <time>2017-01-06T10:00:04Z</time>
      </trkpt>
      <trkpt lat="46.506085423752666" lon="8.6543392483145">
        <ele>1655.53</ele>
        <time>2017-01-06T10:00:06Z</time>
      </trkpt>
      <trkpt lat="46.50603286921978" lon="8.654425665736198">
        <ele>1656.01</ele>
        <time>2017-01-06T10:00:16Z</time>
      </trkpt>
      <trkpt lat="46.506034461781383" lon="8.654435053467751">
        <ele>1656.01</ele>
        <time>2017-01-06T10:00:17Z</time>
      </trkpt>
      <trkpt lat="46.506013423204422" lon="8.65455768071115">
        <ele>1656.97</ele>
        <time>2017-01-06T10:00:26Z</time>
      </trkpt>
      <trkpt lat="46.505958354100585" lon="8.654650133103132">
        <ele>1656.97</ele>
        <time>2017-01-06T10:00:35Z</time>
      </trkpt>
      <trkpt lat="46.505927927792072" lon="8.65469740703702">
        <ele>1656.01</ele>
        <time>2017-01-06T10:00:44Z</time>
      </trkpt>
      <trkpt lat="46.505937734618783" lon="8.654659939929843">
        <ele>1655.53</ele>
        <time>2017-01-06T10:00:54Z</time>
      </trkpt>
      <trkpt lat="46.505931196734309" lon="8.654668740928173">
        <ele>1655.53</ele>
        <time>2017-01-06T10:01:10Z</time>
      </trkpt>
      <trkpt lat="46.505943685770035" lon="8.654685923829675">
        <ele>1656.01</ele>
        <time>2017-01-06T10:01:22Z</time>
      </trkpt>
      <trkpt lat="46.505928430706263" lon="8.654652815312147">
        <ele>1655.05</ele>
        <time>2017-01-06T10:01:35Z</time>
      </trkpt>
      <trkpt lat="46.505908314138651" lon="8.6546431761235">
        <ele>1655.53</ele>
        <time>2017-01-06T10:01:46Z</time>
      </trkpt>
      <trkpt lat="46.505920635536313" lon="8.654665807262063">
        <ele>1656.01</ele>
        <time>2017-01-06T10:02:07Z</time>
      </trkpt>
      <trkpt lat="46.505910158157349" lon="8.654676787555218">
        <ele>1656.01</ele>
        <time>2017-01-06T10:02:19Z</time>
      </trkpt>
      <trkpt lat="46.50592147372663" lon="8.654662957414985">
        <ele>1655.53</ele>
        <time>2017-01-06T10:02:34Z</time>
      </trkpt>
      <trkpt lat="46.505913678556681" lon="8.654636889696121">
        <ele>1655.53</ele>
        <time>2017-01-06T10:02:41Z</time>
      </trkpt>
      <trkpt lat="46.505853664129972" lon="8.654557093977928">
        <ele>1654.0899999999999</ele>
        <time>2017-01-06T10:02:51Z</time>
      </trkpt>
      <trkpt lat="46.505834134295583" lon="8.654524488374591">
        <ele>1653.1199999999999</ele>
        <time>2017-01-06T10:03:04Z</time>
      </trkpt>
      <trkpt lat="46.505835643038154" lon="8.654529936611652">
        <ele>1652.6400000000001</ele>
        <time>2017-01-06T10:03:30Z</time>
      </trkpt>
      <trkpt lat="46.505883755162358" lon="8.654607972130179">
        <ele>1654.0899999999999</ele>
        <time>2017-01-06T10:03:39Z</time>
      </trkpt>
      <trkpt lat="46.505899764597416" lon="8.654625490307808">
        <ele>1654.0899999999999</ele>
        <time>2017-01-06T10:03:49Z</time>
      </trkpt>
      <trkpt lat="46.505923569202423" lon="8.654713584110141">
        <ele>1654.5699999999999</ele>
        <time>2017-01-06T10:03:56Z</time>
      </trkpt>
      <trkpt lat="46.505963047966361" lon="8.654820034280419">
        <ele>1655.53</ele>
        <time>2017-01-06T10:04:05Z</time>
      </trkpt>
      <trkpt lat="46.505967071279883" lon="8.654834618791938">
        <ele>1656.01</ele>
        <time>2017-01-06T10:04:06Z</time>
      </trkpt>
      <trkpt lat="46.506001772359014" lon="8.654944756999612">
        <ele>1656.97</ele>
        <time>2017-01-06T10:04:15Z</time>
      </trkpt>
      <trkpt lat="46.506017446517944" lon="8.655022876337171">
        <ele>1657.45</ele>
        <time>2017-01-06T10:04:21Z</time>
      </trkpt>
      <trkpt lat="46.506060948595405" lon="8.655123123899102">
        <ele>1658.4100000000001</ele>
        <time>2017-01-06T10:04:30Z</time>
      </trkpt>
      <trkpt lat="46.5060680732131" lon="8.655169308185577">
        <ele>1658.8900000000001</ele>
        <time>2017-01-06T10:04:33Z</time>
      </trkpt>
      <trkpt lat="46.506087686866522" lon="8.655269052833319">
        <ele>1660.3299999999999</ele>
        <time>2017-01-06T10:04:41Z</time>
      </trkpt>
      <trkpt lat="46.506109731271863" lon="8.655390255153179">
        <ele>1661.3</ele>
        <time>2017-01-06T10:04:51Z</time>
      </trkpt>
      <trkpt lat="46.506128003820777" lon="8.65549192763865">
        <ele>1662.26</ele>
        <time>2017-01-06T10:05:00Z</time>
      </trkpt>
      <trkpt lat="46.506136385723948" lon="8.655593851581216">
        <ele>1662.74</ele>
        <time>2017-01-06T10:05:10Z</time>
      </trkpt>
      <trkpt lat="46.506164046004415" lon="8.655704744160175">
        <ele>1663.22</ele>
        <time>2017-01-06T10:05:20Z</time>
      </trkpt>
      <trkpt lat="46.506183659657836" lon="8.655824353918433">
        <ele>1664.1800000000001</ele>
        <time>2017-01-06T10:05:30Z</time>
      </trkpt>
      <trkpt lat="46.506153400987387" lon="8.655869364738464">
        <ele>1663.7</ele>
        <time>2017-01-06T10:05:38Z</time>
      </trkpt>
      <trkpt lat="46.50618776679039" lon="8.655979419127107">
        <ele>1664.6600000000001</ele>
        <time>2017-01-06T10:05:47Z</time>
      </trkpt>
      <trkpt lat="46.506198579445481" lon="8.65600255317986">
        <ele>1665.1400000000001</ele>
        <time>2017-01-06T10:05:49Z</time>
      </trkpt>
      <trkpt lat="46.506217271089554" lon="8.656043037772179">
        <ele>1665.1400000000001</ele>
        <time>2017-01-06T10:05:53Z</time>
      </trkpt>
      <trkpt lat="46.506215175613761" lon="8.656078828498721">
        <ele>1665.1400000000001</ele>
        <time>2017-01-06T10:05:56Z</time>
      </trkpt>
      <trkpt lat="46.506218947470188" lon="8.656222578138113">
        <ele>1666.0999999999999</ele>
        <time>2017-01-06T10:06:07Z</time>
      </trkpt>
      <trkpt lat="46.506235459819436" lon="8.656325843185186">
        <ele>1667.54</ele>
        <time>2017-01-06T10:06:16Z</time>
      </trkpt>
      <trkpt lat="46.506251888349652" lon="8.656450901180506">
        <ele>1668.51</ele>
        <time>2017-01-06T10:06:26Z</time>
      </trkpt>
      <trkpt lat="46.506267562508583" lon="8.65653564222157">
        <ele>1668.99</ele>
        <time>2017-01-06T10:06:33Z</time>
      </trkpt>
      <trkpt lat="46.506287092342973" lon="8.656680900603533">
        <ele>1669.47</ele>
        <time>2017-01-06T10:06:43Z</time>
      </trkpt>
      <trkpt lat="46.506295390427113" lon="8.656833115965128">
        <ele>1670.4300000000001</ele>
        <time>2017-01-06T10:06:54Z</time>
      </trkpt>
      <trkpt lat="46.506292875856161" lon="8.656941410154104">
        <ele>1670.4300000000001</ele>
        <time>2017-01-06T10:07:03Z</time>
      </trkpt>
      <trkpt lat="46.506298659369349" lon="8.656994132325053">
        <ele>1670.9100000000001</ele>
        <time>2017-01-06T10:07:07Z</time>
      </trkpt>
      <trkpt lat="46.506267227232456" lon="8.657126734033227">
        <ele>1672.3499999999999</ele>
        <time>2017-01-06T10:07:19Z</time>
      </trkpt>
      <trkpt lat="46.506259432062507" lon="8.657194459810853">
        <ele>1673.3099999999999</ele>
        <time>2017-01-06T10:07:30Z</time>
      </trkpt>
      <trkpt lat="46.506253564730287" lon="8.657321780920029">
        <ele>1674.27</ele>
        <time>2017-01-06T10:07:41Z</time>
      </trkpt>
      <trkpt lat="46.506219785660505" lon="8.657403755933046">
        <ele>1676.2</ele>
        <time>2017-01-06T10:07:53Z</time>
      </trkpt>
      <trkpt lat="46.506194472312927" lon="8.657486150041223">
        <ele>1677.1600000000001</ele>
        <time>2017-01-06T10:08:03Z</time>
      </trkpt>
      <trkpt lat="46.506163962185383" lon="8.657513475045562">
        <ele>1678.1199999999999</ele>
        <time>2017-01-06T10:08:15Z</time>
      </trkpt>
      <trkpt lat="46.506132613867521" lon="8.657581452280283">
        <ele>1677.6400000000001</ele>
        <time>2017-01-06T10:08:25Z</time>
      </trkpt>
      <trkpt lat="46.50610126554966" lon="8.657683208584786">
        <ele>1678.1199999999999</ele>
        <time>2017-01-06T10:08:36Z</time>
      </trkpt>
      <trkpt lat="46.506073689088225" lon="8.657787563279271">
        <ele>1679.5599999999999</ele>
        <time>2017-01-06T10:08:46Z</time>
      </trkpt>
      <trkpt lat="46.506051812320948" lon="8.657878674566746">
        <ele>1680.52</ele>
        <time>2017-01-06T10:08:57Z</time>
      </trkpt>
      <trkpt lat="46.506022308021784" lon="8.657971462234855">
        <ele>1681.48</ele>
        <time>2017-01-06T10:09:07Z</time>
      </trkpt>
      <trkpt lat="46.505988528952003" lon="8.658045222982764">
        <ele>1682.4400000000001</ele>
        <time>2017-01-06T10:09:16Z</time>
      </trkpt>
      <trkpt lat="46.505982410162687" lon="8.65809584967792">
        <ele>1683.4100000000001</ele>
        <time>2017-01-06T10:09:22Z</time>
      </trkpt>
      <trkpt lat="46.505981823429465" lon="8.658122671768069">
        <ele>1683.4100000000001</ele>
        <time>2017-01-06T10:09:31Z</time>
      </trkpt>
      <trkpt lat="46.505941087380052" lon="8.658123090863228">
        <ele>1683.8900000000001</ele>
        <time>2017-01-06T10:09:41Z</time>
      </trkpt>
      <trkpt lat="46.505942596122622" lon="8.658128455281258">
        <ele>1683.4100000000001</ele>
        <time>2017-01-06T10:09:50Z</time>
      </trkpt>
      <trkpt lat="46.505925413221121" lon="8.658123845234513">
        <ele>1682.9300000000001</ele>
        <time>2017-01-06T10:10:06Z</time>
      </trkpt>
      <trkpt lat="46.505908062681556" lon="8.658098867163062">
        <ele>1683.4100000000001</ele>
        <time>2017-01-06T10:10:23Z</time>
      </trkpt>
      <trkpt lat="46.505932621657848" lon="8.658116972073913">
        <ele>1683.8900000000001</ele>
        <time>2017-01-06T10:10:45Z</time>
      </trkpt>
      <trkpt lat="46.505944607779384" lon="8.658127868548036">
        <ele>1683.4100000000001</ele>
        <time>2017-01-06T10:11:03Z</time>
      </trkpt>
      <trkpt lat="46.505924742668867" lon="8.658115128055215">
        <ele>1683.4100000000001</ele>
        <time>2017-01-06T10:11:23Z</time>
      </trkpt>
      <trkpt lat="46.505911499261856" lon="8.658087467774749">
        <ele>1683.4100000000001</ele>
        <time>2017-01-06T10:11:43Z</time>
      </trkpt>
      <trkpt lat="46.505934800952673" lon="8.658087467774749">
        <ele>1684.3699999999999</ele>
        <time>2017-01-06T10:12:03Z</time>
      </trkpt>
      <trkpt lat="46.505959611386061" lon="8.658115211874247">
        <ele>1684.3699999999999</ele>
        <time>2017-01-06T10:12:25Z</time>
      </trkpt>
      <trkpt lat="46.505956258624792" lon="8.658113535493612">
        <ele>1683.8900000000001</ele>
        <time>2017-01-06T10:12:46Z</time>
      </trkpt>
      <trkpt lat="46.505951229482889" lon="8.658092748373747">
        <ele>1683.4100000000001</ele>
        <time>2017-01-06T10:13:02Z</time>
      </trkpt>
      <trkpt lat="46.505948463454843" lon="8.658104818314314">
        <ele>1683.4100000000001</ele>
        <time>2017-01-06T10:13:18Z</time>
      </trkpt>
      <trkpt lat="46.505963299423456" lon="8.658094005659223">
        <ele>1683.4100000000001</ele>
        <time>2017-01-06T10:13:33Z</time>
      </trkpt>
      <trkpt lat="46.505969585850835" lon="8.658084534108639">
        <ele>1683.8900000000001</ele>
        <time>2017-01-06T10:13:55Z</time>
      </trkpt>
      <trkpt lat="46.50596204213798" lon="8.658093418926001">
        <ele>1684.3699999999999</ele>
        <time>2017-01-06T10:14:15Z</time>
      </trkpt>
      <trkpt lat="46.505964808166027" lon="8.658079924061894">
        <ele>1684.3699999999999</ele>
        <time>2017-01-06T10:14:33Z</time>
      </trkpt>
      <trkpt lat="46.505968496203423" lon="8.658092832192779">
        <ele>1684.8499999999999</ele>
        <time>2017-01-06T10:14:51Z</time>
      </trkpt>
      <trkpt lat="46.505956761538982" lon="8.65808361209929">
        <ele>1683.8900000000001</ele>
        <time>2017-01-06T10:15:10Z</time>
      </trkpt>
      <trkpt lat="46.505968077108264" lon="8.658075146377087">
        <ele>1682.9300000000001</ele>
        <time>2017-01-06T10:15:36Z</time>
      </trkpt>
      <trkpt lat="46.505952989682555" lon="8.658115798607469">
        <ele>1682.9300000000001</ele>
        <time>2017-01-06T10:15:55Z</time>
      </trkpt>
      <trkpt lat="46.505971094593406" lon="8.658095262944698">
        <ele>1682.9300000000001</ele>
        <time>2017-01-06T10:16:16Z</time>
      </trkpt>
      <trkpt lat="46.505974866449833" lon="8.658077828586102">
        <ele>1682.9300000000001</ele>
        <time>2017-01-06T10:16:40Z</time>
      </trkpt>
      <trkpt lat="46.505948463454843" lon="8.658092245459557">
        <ele>1683.4100000000001</ele>
        <time>2017-01-06T10:16:54Z</time>
      </trkpt>
      <trkpt lat="46.505952151492238" lon="8.658096101135016">
        <ele>1682.9300000000001</ele>
        <time>2017-01-06T10:17:08Z</time>
      </trkpt>
      <trkpt lat="46.505932873114944" lon="8.658098448067904">
        <ele>1682.4400000000001</ele>
        <time>2017-01-06T10:17:28Z</time>
      </trkpt>
      <trkpt lat="46.505954498425126" lon="8.658115128055215">
        <ele>1680.52</ele>
        <time>2017-01-06T10:17:40Z</time>
      </trkpt>
      <trkpt lat="46.505950642749667" lon="8.658101297914982">
        <ele>1679.5599999999999</ele>
        <time>2017-01-06T10:17:56Z</time>
      </trkpt>
      <trkpt lat="46.50594737380743" lon="8.65812711417675">
        <ele>1680.52</ele>
        <time>2017-01-06T10:18:16Z</time>
      </trkpt>
      <trkpt lat="46.50597226805985" lon="8.658115630969405">
        <ele>1682.9300000000001</ele>
        <time>2017-01-06T10:18:39Z</time>
      </trkpt>
      <trkpt lat="46.505966149270535" lon="8.658106746152043">
        <ele>1683.8900000000001</ele>
        <time>2017-01-06T10:19:03Z</time>
      </trkpt>
      <trkpt lat="46.505953576415777" lon="8.658098699524999">
        <ele>1684.8499999999999</ele>
        <time>2017-01-06T10:19:12Z</time>
      </trkpt>
      <trkpt lat="46.505966652184725" lon="8.658083863556385">
        <ele>1684.3699999999999</ele>
        <time>2017-01-06T10:19:20Z</time>
      </trkpt>
      <trkpt lat="46.505946535617113" lon="8.658072631806135">
        <ele>1684.3699999999999</ele>
        <time>2017-01-06T10:19:27Z</time>
      </trkpt>
      <trkpt lat="46.50594636797905" lon="8.658112026751041">
        <ele>1684.3699999999999</ele>
        <time>2017-01-06T10:19:40Z</time>
      </trkpt>
      <trkpt lat="46.505968580022454" lon="8.658102639019489">
        <ele>1684.8499999999999</ele>
        <time>2017-01-06T10:19:52Z</time>
      </trkpt>
      <trkpt lat="46.505966149270535" lon="8.658100795000792">
        <ele>1684.3699999999999</ele>
        <time>2017-01-06T10:20:07Z</time>
      </trkpt>
      <trkpt lat="46.505941757932305" lon="8.65808604285121">
        <ele>1682.4400000000001</ele>
        <time>2017-01-06T10:20:29Z</time>
      </trkpt>
      <trkpt lat="46.505921306088567" lon="8.65808361209929">
        <ele>1682.4400000000001</ele>
        <time>2017-01-06T10:20:47Z</time>
      </trkpt>
      <trkpt lat="46.505913678556681" lon="8.658079253509641">
        <ele>1681.96</ele>
        <time>2017-01-06T10:21:01Z</time>
      </trkpt>
      <trkpt lat="46.50587746873498" lon="8.657964337617159">
        <ele>1681.48</ele>
        <time>2017-01-06T10:21:12Z</time>
      </trkpt>
      <trkpt lat="46.505866907536983" lon="8.657976994290948">
        <ele>1681.48</ele>
        <time>2017-01-06T10:21:18Z</time>
      </trkpt>
      <trkpt lat="46.505751991644502" lon="8.657981855794787">
        <ele>1682.4400000000001</ele>
        <time>2017-01-06T10:21:29Z</time>
      </trkpt>
      <trkpt lat="46.505710501223803" lon="8.657998368144035">
        <ele>1683.4100000000001</ele>
        <time>2017-01-06T10:21:34Z</time>
      </trkpt>
      <trkpt lat="46.505645290017128" lon="8.657999290153384">
        <ele>1683.8900000000001</ele>
        <time>2017-01-06T10:21:43Z</time>
      </trkpt>
      <trkpt lat="46.505605140700936" lon="8.657979508861899">
        <ele>1685.8099999999999</ele>
        <time>2017-01-06T10:21:48Z</time>
      </trkpt>
      <trkpt lat="46.505556190386415" lon="8.657950507476926">
        <ele>1685.3299999999999</ele>
        <time>2017-01-06T10:21:54Z</time>
      </trkpt>
      <trkpt lat="46.505478993058205" lon="8.657868448644877">
        <ele>1688.21</ele>
        <time>2017-01-06T10:22:04Z</time>
      </trkpt>
      <trkpt lat="46.505430461838841" lon="8.657777002081275">
        <ele>1688.6900000000001</ele>
        <time>2017-01-06T10:22:15Z</time>
      </trkpt>
      <trkpt lat="46.505395760759711" lon="8.657829388976097">
        <ele>1690.1400000000001</ele>
        <time>2017-01-06T10:22:22Z</time>
      </trkpt>
      <trkpt lat="46.505423756316304" lon="8.657939694821835">
        <ele>1691.5799999999999</ele>
        <time>2017-01-06T10:22:32Z</time>
      </trkpt>
      <trkpt lat="46.505441023036838" lon="8.658058885484934">
        <ele>1692.0599999999999</ele>
        <time>2017-01-06T10:22:43Z</time>
      </trkpt>
      <trkpt lat="46.505478909239173" lon="8.658188721165061">
        <ele>1693.98</ele>
        <time>2017-01-06T10:22:56Z</time>
      </trkpt>
      <trkpt lat="46.505488799884915" lon="8.658286286517978">
        <ele>1695.4200000000001</ele>
        <time>2017-01-06T10:23:06Z</time>
      </trkpt>
      <trkpt lat="46.505403472110629" lon="8.658265667036176">
        <ele>1696.8599999999999</ele>
        <time>2017-01-06T10:23:15Z</time>
      </trkpt>
      <trkpt lat="46.505325185135007" lon="8.658179752528667">
        <ele>1698.79</ele>
        <time>2017-01-06T10:23:26Z</time>
      </trkpt>
      <trkpt lat="46.50528822094202" lon="8.658118145540357">
        <ele>1700.23</ele>
        <time>2017-01-06T10:23:34Z</time>
      </trkpt>
      <trkpt lat="46.505273720249534" lon="8.658112194389105">
        <ele>1700.23</ele>
        <time>2017-01-06T10:23:36Z</time>
      </trkpt>
      <trkpt lat="46.505217477679253" lon="8.658027620986104">
        <ele>1701.1900000000001</ele>
        <time>2017-01-06T10:23:46Z</time>
      </trkpt>
      <trkpt lat="46.50516215711832" lon="8.657930726185441">
        <ele>1702.6300000000001</ele>
        <time>2017-01-06T10:23:57Z</time>
      </trkpt>
      <trkpt lat="46.50511228479445" lon="8.657842800021172">
        <ele>1704.0699999999999</ele>
        <time>2017-01-06T10:24:07Z</time>
      </trkpt>
      <trkpt lat="46.505070794373751" lon="8.657740540802479">
        <ele>1705.04</ele>
        <time>2017-01-06T10:24:18Z</time>
      </trkpt>
      <trkpt lat="46.505036931484938" lon="8.657627552747726">
        <ele>1706</ele>
        <time>2017-01-06T10:24:29Z</time>
      </trkpt>
      <trkpt lat="46.504970211535692" lon="8.657529568299651">
        <ele>1707.9200000000001</ele>
        <time>2017-01-06T10:24:41Z</time>
      </trkpt>
      <trkpt lat="46.504910448566079" lon="8.657475840300322">
        <ele>1708.8800000000001</ele>
        <time>2017-01-06T10:24:51Z</time>
      </trkpt>
      <trkpt lat="46.504844985902309" lon="8.657410126179457">
        <ele>1710.8</ele>
        <time>2017-01-06T10:25:02Z</time>
      </trkpt>
      <trkpt lat="46.504756892099977" lon="8.657420016825199">
        <ele>1712.25</ele>
        <time>2017-01-06T10:25:16Z</time>
      </trkpt>
      <trkpt lat="46.504676258191466" lon="8.657407611608505">
        <ele>1712.73</ele>
        <time>2017-01-06T10:25:28Z</time>
      </trkpt>
      <trkpt lat="46.5046192612499" lon="8.657398307695985">
        <ele>1715.1300000000001</ele>
        <time>2017-01-06T10:25:39Z</time>
      </trkpt>
      <trkpt lat="46.50461733341217" lon="8.657398726791143">
        <ele>1715.1300000000001</ele>
        <time>2017-01-06T10:25:40Z</time>
      </trkpt>
      <trkpt lat="46.504532424733043" lon="8.657448431476951">
        <ele>1716.5699999999999</ele>
        <time>2017-01-06T10:25:51Z</time>
      </trkpt>
      <trkpt lat="46.504441481083632" lon="8.657461674883962">
        <ele>1718.49</ele>
        <time>2017-01-06T10:26:03Z</time>
      </trkpt>
      <trkpt lat="46.504380125552416" lon="8.657478438690305">
        <ele>1719.9400000000001</ele>
        <time>2017-01-06T10:26:14Z</time>
      </trkpt>
      <trkpt lat="46.504326146095991" lon="8.657467709854245">
        <ele>1721.3800000000001</ele>
        <time>2017-01-06T10:26:24Z</time>
      </trkpt>
      <trkpt lat="46.504279542714357" lon="8.657460166141391">
        <ele>1722.3399999999999</ele>
        <time>2017-01-06T10:26:34Z</time>
      </trkpt>
      <trkpt lat="46.504266047850251" lon="8.657422782853246">
        <ele>1722.8199999999999</ele>
        <time>2017-01-06T10:26:45Z</time>
      </trkpt>
      <trkpt lat="46.504221707582474" lon="8.657429907470942">
        <ele>1724.26</ele>
        <time>2017-01-06T10:26:57Z</time>
      </trkpt>
      <trkpt lat="46.504166470840573" lon="8.657433092594147">
        <ele>1725.7</ele>
        <time>2017-01-06T10:27:07Z</time>
      </trkpt>
      <trkpt lat="46.504094135016203" lon="8.657434601336718">
        <ele>1727.1500000000001</ele>
        <time>2017-01-06T10:27:19Z</time>
      </trkpt>
      <trkpt lat="46.504015931859612" lon="8.657426219433546">
        <ele>1728.5899999999999</ele>
        <time>2017-01-06T10:27:30Z</time>
      </trkpt>
      <trkpt lat="46.503931023180485" lon="8.65742496214807">
        <ele>1730.51</ele>
        <time>2017-01-06T10:27:42Z</time>
      </trkpt>
      <trkpt lat="46.503874445334077" lon="8.657430075109005">
        <ele>1730.99</ele>
        <time>2017-01-06T10:27:48Z</time>
      </trkpt>
      <trkpt lat="46.503793895244598" lon="8.657408617436886">
        <ele>1732.4300000000001</ele>
        <time>2017-01-06T10:27:58Z</time>
      </trkpt>
      <trkpt lat="46.503730863332748" lon="8.657396631315351">
        <ele>1734.8399999999999</ele>
        <time>2017-01-06T10:28:09Z</time>
      </trkpt>
      <trkpt lat="46.503668334335089" lon="8.657376179471612">
        <ele>1736.28</ele>
        <time>2017-01-06T10:28:20Z</time>
      </trkpt>
      <trkpt lat="46.503616366535425" lon="8.657378107309341">
        <ele>1737.72</ele>
        <time>2017-01-06T10:28:30Z</time>
      </trkpt>
      <trkpt lat="46.503543024882674" lon="8.657384309917688">
        <ele>1739.1600000000001</ele>
        <time>2017-01-06T10:28:41Z</time>
      </trkpt>
      <trkpt lat="46.503513269126415" lon="8.65738045424223">
        <ele>1740.1199999999999</ele>
        <time>2017-01-06T10:28:48Z</time>
      </trkpt>
      <trkpt lat="46.503437496721745" lon="8.657405935227871">
        <ele>1741.0799999999999</ele>
        <time>2017-01-06T10:29:00Z</time>
      </trkpt>
      <trkpt lat="46.503392402082682" lon="8.657430745661259">
        <ele>1742.53</ele>
        <time>2017-01-06T10:29:10Z</time>
      </trkpt>
      <trkpt lat="46.503331884741783" lon="8.657449185848236">
        <ele>1743.97</ele>
        <time>2017-01-06T10:29:20Z</time>
      </trkpt>
      <trkpt lat="46.503263069316745" lon="8.657454466447234">
        <ele>1744.9300000000001</ele>
        <time>2017-01-06T10:29:30Z</time>
      </trkpt>
      <trkpt lat="46.503209508955479" lon="8.657486820593476">
        <ele>1745.8900000000001</ele>
        <time>2017-01-06T10:29:41Z</time>
      </trkpt>
      <trkpt lat="46.503147315233946" lon="8.657487658783793">
        <ele>1748.29</ele>
        <time>2017-01-06T10:29:54Z</time>
      </trkpt>
      <trkpt lat="46.503098113462329" lon="8.657532753422856">
        <ele>1749.26</ele>
        <time>2017-01-06T10:30:04Z</time>
      </trkpt>
      <trkpt lat="46.50302829220891" lon="8.657564269378781">
        <ele>1750.7</ele>
        <time>2017-01-06T10:30:16Z</time>
      </trkpt>
      <trkpt lat="46.502974648028612" lon="8.657567957416177">
        <ele>1751.6600000000001</ele>
        <time>2017-01-06T10:30:27Z</time>
      </trkpt>
      <trkpt lat="46.502899546176195" lon="8.657582877203822">
        <ele>1752.6199999999999</ele>
        <time>2017-01-06T10:30:36Z</time>
      </trkpt>
      <trkpt lat="46.502826539799571" lon="8.657580111175776">
        <ele>1754.0599999999999</ele>
        <time>2017-01-06T10:30:48Z</time>
      </trkpt>
      <trkpt lat="46.502768788486719" lon="8.657590253278613">
        <ele>1755.5</ele>
        <time>2017-01-06T10:30:58Z</time>
      </trkpt>
      <trkpt lat="46.502711540088058" lon="8.657604502514005">
        <ele>1756.95</ele>
        <time>2017-01-06T10:31:08Z</time>
      </trkpt>
      <trkpt lat="46.50264180265367" lon="8.657592851668596">
        <ele>1758.8699999999999</ele>
        <time>2017-01-06T10:31:22Z</time>
      </trkpt>
      <trkpt lat="46.502636605873704" lon="8.657562090083957">
        <ele>1759.8299999999999</ele>
        <time>2017-01-06T10:31:32Z</time>
      </trkpt>
      <trkpt lat="46.502636438235641" lon="8.657525293529034">
        <ele>1759.8299999999999</ele>
        <time>2017-01-06T10:31:48Z</time>
      </trkpt>
      <trkpt lat="46.502630235627294" lon="8.657522359862924">
        <ele>1760.3099999999999</ele>
        <time>2017-01-06T10:32:03Z</time>
      </trkpt>
      <trkpt lat="46.502632917836308" lon="8.657521940767765">
        <ele>1760.3099999999999</ele>
        <time>2017-01-06T10:32:22Z</time>
      </trkpt>
      <trkpt lat="46.502629900351167" lon="8.657506769523025">
        <ele>1759.3499999999999</ele>
        <time>2017-01-06T10:32:45Z</time>
      </trkpt>
      <trkpt lat="46.502621015533805" lon="8.65751682780683">
        <ele>1760.3099999999999</ele>
        <time>2017-01-06T10:33:09Z</time>
      </trkpt>
      <trkpt lat="46.502528311684728" lon="8.657493023201823">
        <ele>1761.75</ele>
        <time>2017-01-06T10:33:21Z</time>
      </trkpt>
      <trkpt lat="46.502488581463695" lon="8.657508697360754">
        <ele>1763.2</ele>
        <time>2017-01-06T10:33:32Z</time>
      </trkpt>
      <trkpt lat="46.502461256459355" lon="8.657482042908669">
        <ele>1764.1600000000001</ele>
        <time>2017-01-06T10:33:45Z</time>
      </trkpt>
      <trkpt lat="46.502379951998591" lon="8.657439714297652">
        <ele>1765.1199999999999</ele>
        <time>2017-01-06T10:33:57Z</time>
      </trkpt>
      <trkpt lat="46.502321865409613" lon="8.65741272456944">
        <ele>1766.5599999999999</ele>
        <time>2017-01-06T10:34:06Z</time>
      </trkpt>
      <trkpt lat="46.50224894285202" lon="8.657377772033215">
        <ele>1768</ele>
        <time>2017-01-06T10:34:18Z</time>
      </trkpt>
      <trkpt lat="46.502241566777229" lon="8.657363019883633">
        <ele>1768</ele>
        <time>2017-01-06T10:34:20Z</time>
      </trkpt>
      <trkpt lat="46.502187000587583" lon="8.657305100932717">
        <ele>1768.96</ele>
        <time>2017-01-06T10:34:31Z</time>
      </trkpt>
      <trkpt lat="46.502104187384248" lon="8.657240392640233">
        <ele>1769.4400000000001</ele>
        <time>2017-01-06T10:34:44Z</time>
      </trkpt>
      <trkpt lat="46.502070492133498" lon="8.657212061807513">
        <ele>1770.4100000000001</ele>
        <time>2017-01-06T10:34:50Z</time>
      </trkpt>
      <trkpt lat="46.502019362524152" lon="8.657159758731723">
        <ele>1770.4100000000001</ele>
        <time>2017-01-06T10:34:58Z</time>
      </trkpt>
      <trkpt lat="46.501958509907126" lon="8.657057667151094">
        <ele>1771.3699999999999</ele>
        <time>2017-01-06T10:35:09Z</time>
      </trkpt>
      <trkpt lat="46.50190738029778" lon="8.657011147588491">
        <ele>1772.3299999999999</ele>
        <time>2017-01-06T10:35:18Z</time>
      </trkpt>
      <trkpt lat="46.501851221546531" lon="8.656955072656274">
        <ele>1773.77</ele>
        <time>2017-01-06T10:35:30Z</time>
      </trkpt>
      <trkpt lat="46.501827081665397" lon="8.656917102634907">
        <ele>1773.77</ele>
        <time>2017-01-06T10:35:45Z</time>
      </trkpt>
      <trkpt lat="46.501800762489438" lon="8.656887095421553">
        <ele>1773.77</ele>
        <time>2017-01-06T10:35:58Z</time>
      </trkpt>
      <trkpt lat="46.501746950671077" lon="8.656795984134078">
        <ele>1775.6900000000001</ele>
        <time>2017-01-06T10:36:11Z</time>
      </trkpt>
      <trkpt lat="46.501730103045702" lon="8.656767820939422">
        <ele>1776.1700000000001</ele>
        <time>2017-01-06T10:36:17Z</time>
      </trkpt>
      <trkpt lat="46.501687858253717" lon="8.656700178980827">
        <ele>1777.1300000000001</ele>
        <time>2017-01-06T10:36:26Z</time>
      </trkpt>
      <trkpt lat="46.501627005636692" lon="8.656635051593185">
        <ele>1778.5799999999999</ele>
        <time>2017-01-06T10:36:38Z</time>
      </trkpt>
      <trkpt lat="46.50156632065773" lon="8.656571181491017">
        <ele>1779.54</ele>
        <time>2017-01-06T10:36:50Z</time>
      </trkpt>
      <trkpt lat="46.501517705619335" lon="8.656496750190854">
        <ele>1781.46</ele>
        <time>2017-01-06T10:37:02Z</time>
      </trkpt>
      <trkpt lat="46.501454003155231" lon="8.656458193436265">
        <ele>1782.9000000000001</ele>
        <time>2017-01-06T10:37:14Z</time>
      </trkpt>
      <trkpt lat="46.501377979293466" lon="8.656420055776835">
        <ele>1784.3399999999999</ele>
        <time>2017-01-06T10:37:25Z</time>
      </trkpt>
      <trkpt lat="46.501299859955907" lon="8.65635434165597">
        <ele>1784.8199999999999</ele>
        <time>2017-01-06T10:37:36Z</time>
      </trkpt>
      <trkpt lat="46.501254597678781" lon="8.656287956982851">
        <ele>1786.27</ele>
        <time>2017-01-06T10:37:47Z</time>
      </trkpt>
      <trkpt lat="46.501189302653074" lon="8.656250992789865">
        <ele>1786.75</ele>
        <time>2017-01-06T10:37:57Z</time>
      </trkpt>
      <trkpt lat="46.501139095053077" lon="8.656213190406561">
        <ele>1787.23</ele>
        <time>2017-01-06T10:38:06Z</time>
      </trkpt>
      <trkpt lat="46.50111529044807" lon="8.65619994699955">
        <ele>1787.71</ele>
        <time>2017-01-06T10:38:17Z</time>
      </trkpt>
      <trkpt lat="46.501048486679792" lon="8.656139513477683">
        <ele>1789.1500000000001</ele>
        <time>2017-01-06T10:38:29Z</time>
      </trkpt>
      <trkpt lat="46.500971205532551" lon="8.656051503494382">
        <ele>1790.1099999999999</ele>
        <time>2017-01-06T10:38:42Z</time>
      </trkpt>
      <trkpt lat="46.500874562188983" lon="8.656003139913082">
        <ele>1790.1099999999999</ele>
        <time>2017-01-06T10:38:54Z</time>
      </trkpt>
      <trkpt lat="46.500781858339906" lon="8.655994338914752">
        <ele>1791.0699999999999</ele>
        <time>2017-01-06T10:39:07Z</time>
      </trkpt>
      <trkpt lat="46.500762412324548" lon="8.655995344743133">
        <ele>1789.6300000000001</ele>
        <time>2017-01-06T10:39:10Z</time>
      </trkpt>
      <trkpt lat="46.500696279108524" lon="8.655921667814255">
        <ele>1791.0699999999999</ele>
        <time>2017-01-06T10:39:22Z</time>
      </trkpt>
      <trkpt lat="46.500633582472801" lon="8.65589115768671">
        <ele>1791.55</ele>
        <time>2017-01-06T10:39:32Z</time>
      </trkpt>
      <trkpt lat="46.500582369044423" lon="8.655888810753822">
        <ele>1792.52</ele>
        <time>2017-01-06T10:39:42Z</time>
      </trkpt>
      <trkpt lat="46.500510536134243" lon="8.655932061374188">
        <ele>1793</ele>
        <time>2017-01-06T10:39:53Z</time>
      </trkpt>
      <trkpt lat="46.500426884740591" lon="8.655987717211247">
        <ele>1793.48</ele>
        <time>2017-01-06T10:40:02Z</time>
      </trkpt>
      <trkpt lat="46.500371731817722" lon="8.65597858093679">
        <ele>1793.96</ele>
        <time>2017-01-06T10:40:12Z</time>
      </trkpt>
      <trkpt lat="46.500313896685839" lon="8.655970618128777">
        <ele>1794.4400000000001</ele>
        <time>2017-01-06T10:40:22Z</time>
      </trkpt>
      <trkpt lat="46.50027240626514" lon="8.655959134921432">
        <ele>1795.4000000000001</ele>
        <time>2017-01-06T10:40:31Z</time>
      </trkpt>
      <trkpt lat="46.500230748206377" lon="8.65594144910574">
        <ele>1796.8399999999999</ele>
        <time>2017-01-06T10:40:40Z</time>
      </trkpt>
      <trkpt lat="46.500187749043107" lon="8.65590138360858">
        <ele>1797.8</ele>
        <time>2017-01-06T10:40:51Z</time>
      </trkpt>
      <trkpt lat="46.500155813992023" lon="8.655854528769851">
        <ele>1799.73</ele>
        <time>2017-01-06T10:41:02Z</time>
      </trkpt>
      <trkpt lat="46.50010384619236" lon="8.655805326998234">
        <ele>1800.6900000000001</ele>
        <time>2017-01-06T10:41:14Z</time>
      </trkpt>
      <trkpt lat="46.500038718804717" lon="8.655768865719438">
        <ele>1800.6900000000001</ele>
        <time>2017-01-06T10:41:24Z</time>
      </trkpt>
      <trkpt lat="46.499993959441781" lon="8.655770709738135">
        <ele>1800.21</ele>
        <time>2017-01-06T10:41:29Z</time>
      </trkpt>
      <trkpt lat="46.499918606132269" lon="8.655786300078034">
        <ele>1800.6900000000001</ele>
        <time>2017-01-06T10:41:39Z</time>
      </trkpt>
      <trkpt lat="46.499852808192372" lon="8.655831897631288">
        <ele>1801.1700000000001</ele>
        <time>2017-01-06T10:41:51Z</time>
      </trkpt>
      <trkpt lat="46.499874768778682" lon="8.655837764963508">
        <ele>1801.1700000000001</ele>
        <time>2017-01-06T10:42:03Z</time>
      </trkpt>
      <trkpt lat="46.499817604199052" lon="8.655886044725776">
        <ele>1801.1700000000001</ele>
        <time>2017-01-06T10:42:14Z</time>
      </trkpt>
      <trkpt lat="46.499718949198723" lon="8.655885960906744">
        <ele>1802.1300000000001</ele>
        <time>2017-01-06T10:42:24Z</time>
      </trkpt>
      <trkpt lat="46.499647703021765" lon="8.655839608982205">
        <ele>1802.6099999999999</ele>
        <time>2017-01-06T10:42:34Z</time>
      </trkpt>
      <trkpt lat="46.499629765748978" lon="8.655829047784209">
        <ele>1802.6099999999999</ele>
        <time>2017-01-06T10:42:37Z</time>
      </trkpt>
      <trkpt lat="46.499545108526945" lon="8.655753694474697">
        <ele>1803.0899999999999</ele>
        <time>2017-01-06T10:42:49Z</time>
      </trkpt>
      <trkpt lat="46.499486016109586" lon="8.655657973140478">
        <ele>1803.5699999999999</ele>
        <time>2017-01-06T10:43:01Z</time>
      </trkpt>
      <trkpt lat="46.499441424384713" lon="8.655572645366192">
        <ele>1804.05</ele>
        <time>2017-01-06T10:43:12Z</time>
      </trkpt>
      <trkpt lat="46.499431114643812" lon="8.655554708093405">
        <ele>1804.05</ele>
        <time>2017-01-06T10:43:14Z</time>
      </trkpt>
      <trkpt lat="46.499375542625785" lon="8.655476588755846">
        <ele>1804.53</ele>
        <time>2017-01-06T10:43:25Z</time>
      </trkpt>
      <trkpt lat="46.499337237328291" lon="8.655382711440325">
        <ele>1805.01</ele>
        <time>2017-01-06T10:43:36Z</time>
      </trkpt>
      <trkpt lat="46.499293148517609" lon="8.655309705063701">
        <ele>1805.97</ele>
        <time>2017-01-06T10:43:47Z</time>
      </trkpt>
      <trkpt lat="46.499274792149663" lon="8.655278440564871">
        <ele>1805.97</ele>
        <time>2017-01-06T10:43:52Z</time>
      </trkpt>
      <trkpt lat="46.499211508780718" lon="8.655178360641003">
        <ele>1806.45</ele>
        <time>2017-01-06T10:44:04Z</time>
      </trkpt>
      <trkpt lat="46.499185273423791" lon="8.655150029808283">
        <ele>1806.9400000000001</ele>
        <time>2017-01-06T10:44:16Z</time>
      </trkpt>
      <trkpt lat="46.499160379171371" lon="8.655121447518468">
        <ele>1806.9400000000001</ele>
        <time>2017-01-06T10:44:20Z</time>
      </trkpt>
      <trkpt lat="46.499059209600091" lon="8.655070988461375">
        <ele>1808.3800000000001</ele>
        <time>2017-01-06T10:44:32Z</time>
      </trkpt>
      <trkpt lat="46.498994585126638" lon="8.655037125572562">
        <ele>1808.3800000000001</ele>
        <time>2017-01-06T10:44:42Z</time>
      </trkpt>
      <trkpt lat="46.498924177139997" lon="8.654968813061714">
        <ele>1808.8599999999999</ele>
        <time>2017-01-06T10:44:52Z</time>
      </trkpt>
      <trkpt lat="46.498855194076896" lon="8.654922628775239">
        <ele>1809.8199999999999</ele>
        <time>2017-01-06T10:45:04Z</time>
      </trkpt>
      <trkpt lat="46.498809931799769" lon="8.654906619340181">
        <ele>1810.3</ele>
        <time>2017-01-06T10:45:09Z</time>
      </trkpt>
      <trkpt lat="46.49876307696104" lon="8.654907876625657">
        <ele>1810.3</ele>
        <time>2017-01-06T10:45:13Z</time>
      </trkpt>
      <trkpt lat="46.498703565448523" lon="8.654860267415643">
        <ele>1810.3</ele>
        <time>2017-01-06T10:45:20Z</time>
      </trkpt>
      <trkpt lat="46.498684538528323" lon="8.654796984046698">
        <ele>1810.3</ele>
        <time>2017-01-06T10:45:25Z</time>
      </trkpt>
      <trkpt lat="46.498673055320978" lon="8.654645187780261">
        <ele>1810.78</ele>
        <time>2017-01-06T10:45:38Z</time>
      </trkpt>
      <trkpt lat="46.498652016744018" lon="8.654578048735857">
        <ele>1811.74</ele>
        <time>2017-01-06T10:45:48Z</time>
      </trkpt>
      <trkpt lat="46.498596193268895" lon="8.65456254221499">
        <ele>1812.22</ele>
        <time>2017-01-06T10:46:00Z</time>
      </trkpt>
      <trkpt lat="46.498560653999448" lon="8.65464560687542">
        <ele>1812.7</ele>
        <time>2017-01-06T10:46:12Z</time>
      </trkpt>
      <trkpt lat="46.498579764738679" lon="8.654694808647037">
        <ele>1813.6600000000001</ele>
        <time>2017-01-06T10:46:20Z</time>
      </trkpt>
      <trkpt lat="46.498587392270565" lon="8.654780220240355">
        <ele>1813.6600000000001</ele>
        <time>2017-01-06T10:46:29Z</time>
      </trkpt>
      <trkpt lat="46.498602228239179" lon="8.654856914654374">
        <ele>1813.6600000000001</ele>
        <time>2017-01-06T10:46:41Z</time>
      </trkpt>
      <trkpt lat="46.498625697568059" lon="8.654950708150864">
        <ele>1814.6300000000001</ele>
        <time>2017-01-06T10:46:51Z</time>
      </trkpt>
      <trkpt lat="46.49862720631063" lon="8.654969567433">
        <ele>1814.6300000000001</ele>
        <time>2017-01-06T10:46:53Z</time>
      </trkpt>
      <trkpt lat="46.498685711994767" lon="8.65504483692348">
        <ele>1815.1099999999999</ele>
        <time>2017-01-06T10:47:04Z</time>
      </trkpt>
      <trkpt lat="46.498754695057869" lon="8.655050788074732">
        <ele>1816.0699999999999</ele>
        <time>2017-01-06T10:47:13Z</time>
      </trkpt>
      <trkpt lat="46.49879920296371" lon="8.655079789459705">
        <ele>1817.03</ele>
        <time>2017-01-06T10:47:20Z</time>
      </trkpt>
      <trkpt lat="46.498825857415795" lon="8.65519437007606">
        <ele>1818.47</ele>
        <time>2017-01-06T10:47:30Z</time>
      </trkpt>
      <trkpt lat="46.498838094994426" lon="8.655235692858696">
        <ele>1819.4300000000001</ele>
        <time>2017-01-06T10:47:39Z</time>
      </trkpt>
      <trkpt lat="46.498875729739666" lon="8.655289085581899">
        <ele>1820.8699999999999</ele>
        <time>2017-01-06T10:47:49Z</time>
      </trkpt>
      <trkpt lat="46.498889895156026" lon="8.655347675085068">
        <ele>1821.8399999999999</ele>
        <time>2017-01-06T10:47:59Z</time>
      </trkpt>
      <trkpt lat="46.498912023380399" lon="8.655415317043662">
        <ele>1822.8</ele>
        <time>2017-01-06T10:48:11Z</time>
      </trkpt>
      <trkpt lat="46.498929122462869" lon="8.655472733080387">
        <ele>1823.76</ele>
        <time>2017-01-06T10:48:20Z</time>
      </trkpt>
      <trkpt lat="46.498933397233486" lon="8.655555881559849">
        <ele>1825.2</ele>
        <time>2017-01-06T10:48:31Z</time>
      </trkpt>
      <trkpt lat="46.498946724459529" lon="8.655652943998575">
        <ele>1826.6400000000001</ele>
        <time>2017-01-06T10:48:43Z</time>
      </trkpt>
      <trkpt lat="46.49895410053432" lon="8.655743803828955">
        <ele>1828.0799999999999</ele>
        <time>2017-01-06T10:48:55Z</time>
      </trkpt>
      <trkpt lat="46.498976144939661" lon="8.655785461887717">
        <ele>1829.05</ele>
        <time>2017-01-06T10:49:04Z</time>
      </trkpt>
      <trkpt lat="46.498967679217458" lon="8.655852181836963">
        <ele>1830.97</ele>
        <time>2017-01-06T10:49:15Z</time>
      </trkpt>
      <trkpt lat="46.49898050352931" lon="8.65589115768671">
        <ele>1831.9300000000001</ele>
        <time>2017-01-06T10:49:24Z</time>
      </trkpt>
      <trkpt lat="46.498996093869209" lon="8.655927954241633">
        <ele>1832.8900000000001</ele>
        <time>2017-01-06T10:49:35Z</time>
      </trkpt>
      <trkpt lat="46.499023586511612" lon="8.655974641442299">
        <ele>1834.3299999999999</ele>
        <time>2017-01-06T10:49:44Z</time>
      </trkpt>
      <trkpt lat="46.49906013160944" lon="8.656008169054985">
        <ele>1835.29</ele>
        <time>2017-01-06T10:49:55Z</time>
      </trkpt>
      <trkpt lat="46.499072201550007" lon="8.656038595363498">
        <ele>1836.26</ele>
        <time>2017-01-06T10:50:03Z</time>
      </trkpt>
      <trkpt lat="46.499094413593411" lon="8.656106907874346">
        <ele>1837.22</ele>
        <time>2017-01-06T10:50:15Z</time>
      </trkpt>
      <trkpt lat="46.499114613980055" lon="8.656176058575511">
        <ele>1838.6600000000001</ele>
        <time>2017-01-06T10:50:27Z</time>
      </trkpt>
      <trkpt lat="46.499128360301256" lon="8.656231295317411">
        <ele>1840.0999999999999</ele>
        <time>2017-01-06T10:50:36Z</time>
      </trkpt>
      <trkpt lat="46.499143028631806" lon="8.656287705525756">
        <ele>1841.0599999999999</ele>
        <time>2017-01-06T10:50:47Z</time>
      </trkpt>
      <trkpt lat="46.499170437455177" lon="8.656341768801212">
        <ele>1842.5</ele>
        <time>2017-01-06T10:51:00Z</time>
      </trkpt>
      <trkpt lat="46.499180914834142" lon="8.656394993886352">
        <ele>1843.95</ele>
        <time>2017-01-06T10:51:10Z</time>
      </trkpt>
      <trkpt lat="46.499212179332972" lon="8.656460288912058">
        <ele>1845.3900000000001</ele>
        <time>2017-01-06T10:51:21Z</time>
      </trkpt>
      <trkpt lat="46.499200109392405" lon="8.656536228954792">
        <ele>1846.8299999999999</ele>
        <time>2017-01-06T10:51:31Z</time>
      </trkpt>
      <trkpt lat="46.499214023351669" lon="8.656591465696693">
        <ele>1847.3099999999999</ele>
        <time>2017-01-06T10:51:41Z</time>
      </trkpt>
      <trkpt lat="46.499214610084891" lon="8.6566670704633">
        <ele>1848.27</ele>
        <time>2017-01-06T10:51:51Z</time>
      </trkpt>
      <trkpt lat="46.49923799559474" lon="8.656723145395517">
        <ele>1849.23</ele>
        <time>2017-01-06T10:52:02Z</time>
      </trkpt>
      <trkpt lat="46.499284934252501" lon="8.656765138730407">
        <ele>1850.6800000000001</ele>
        <time>2017-01-06T10:52:14Z</time>
      </trkpt>
      <trkpt lat="46.499315612018108" lon="8.656819369643927">
        <ele>1851.6400000000001</ele>
        <time>2017-01-06T10:52:21Z</time>
      </trkpt>
      <trkpt lat="46.499337237328291" lon="8.656868068501353">
        <ele>1852.1199999999999</ele>
        <time>2017-01-06T10:52:25Z</time>
      </trkpt>
      <trkpt lat="46.499388702213764" lon="8.656948115676642">
        <ele>1855.96</ele>
        <time>2017-01-06T10:52:36Z</time>
      </trkpt>
      <trkpt lat="46.499420301988721" lon="8.656987091526389">
        <ele>1855.48</ele>
        <time>2017-01-06T10:52:46Z</time>
      </trkpt>
      <trkpt lat="46.499480148777366" lon="8.657031767070293">
        <ele>1856.4400000000001</ele>
        <time>2017-01-06T10:52:57Z</time>
      </trkpt>
      <trkpt lat="46.499516945332289" lon="8.657070742920041">
        <ele>1857.4000000000001</ele>
        <time>2017-01-06T10:53:06Z</time>
      </trkpt>
      <trkpt lat="46.499556424096227" lon="8.657131930813193">
        <ele>1858.8499999999999</ele>
        <time>2017-01-06T10:53:17Z</time>
      </trkpt>
      <trkpt lat="46.49959858506918" lon="8.657162608578801">
        <ele>1859.8099999999999</ele>
        <time>2017-01-06T10:53:26Z</time>
      </trkpt>
      <trkpt lat="46.499636387452483" lon="8.657202422618866">
        <ele>1861.25</ele>
        <time>2017-01-06T10:53:37Z</time>
      </trkpt>
      <trkpt lat="46.499683661386371" lon="8.657257575541735">
        <ele>1862.21</ele>
        <time>2017-01-06T10:53:47Z</time>
      </trkpt>
      <trkpt lat="46.499732444062829" lon="8.657324630767107">
        <ele>1863.1700000000001</ele>
        <time>2017-01-06T10:53:57Z</time>
      </trkpt>
      <trkpt lat="46.499731689691544" lon="8.657373329624534">
        <ele>1863.6500000000001</ele>
        <time>2017-01-06T10:54:07Z</time>
      </trkpt>
      <trkpt lat="46.499770665541291" lon="8.657431332394481">
        <ele>1864.1300000000001</ele>
        <time>2017-01-06T10:54:17Z</time>
      </trkpt>
      <trkpt lat="46.499809976667166" lon="8.657503835856915">
        <ele>1865.0899999999999</ele>
        <time>2017-01-06T10:54:26Z</time>
      </trkpt>
      <trkpt lat="46.499859848991036" lon="8.657573573291302">
        <ele>1866.0599999999999</ele>
        <time>2017-01-06T10:54:38Z</time>
      </trkpt>
      <trkpt lat="46.499900249764323" lon="8.657613219693303">
        <ele>1866.54</ele>
        <time>2017-01-06T10:54:47Z</time>
      </trkpt>
      <trkpt lat="46.499937884509563" lon="8.657656218856573">
        <ele>1867.98</ele>
        <time>2017-01-06T10:54:55Z</time>
      </trkpt>
      <trkpt lat="46.499990439042449" lon="8.657704666256905">
        <ele>1868.9400000000001</ele>
        <time>2017-01-06T10:55:07Z</time>
      </trkpt>
      <trkpt lat="46.500042574480176" lon="8.657777504995465">
        <ele>1869.9000000000001</ele>
        <time>2017-01-06T10:55:18Z</time>
      </trkpt>
      <trkpt lat="46.500063696876168" lon="8.657821845263243">
        <ele>1870.8599999999999</ele>
        <time>2017-01-06T10:55:26Z</time>
      </trkpt>
      <trkpt lat="46.500117341056466" lon="8.657879764214158">
        <ele>1872.3</ele>
        <time>2017-01-06T10:55:37Z</time>
      </trkpt>
      <trkpt lat="46.500176433473825" lon="8.657926619052887">
        <ele>1873.75</ele>
        <time>2017-01-06T10:55:48Z</time>
      </trkpt>
      <trkpt lat="46.500208871439099" lon="8.657957296818495">
        <ele>1874.71</ele>
        <time>2017-01-06T10:55:58Z</time>
      </trkpt>
      <trkpt lat="46.500251200050116" lon="8.657992919906974">
        <ele>1876.1500000000001</ele>
        <time>2017-01-06T10:56:08Z</time>
      </trkpt>
      <trkpt lat="46.500298893079162" lon="8.658057963475585">
        <ele>1877.5899999999999</ele>
        <time>2017-01-06T10:56:18Z</time>
      </trkpt>
      <trkpt lat="46.500325128436089" lon="8.658163910731673">
        <ele>1879.03</ele>
        <time>2017-01-06T10:56:29Z</time>
      </trkpt>
      <trkpt lat="46.500360080972314" lon="8.658239180222154">
        <ele>1880.48</ele>
        <time>2017-01-06T10:56:39Z</time>
      </trkpt>
      <trkpt lat="46.500375084578991" lon="8.658311180770397">
        <ele>1880.96</ele>
        <time>2017-01-06T10:56:48Z</time>
      </trkpt>
      <trkpt lat="46.500412132591009" lon="8.658374212682247">
        <ele>1881.9200000000001</ele>
        <time>2017-01-06T10:56:57Z</time>
      </trkpt>
      <trkpt lat="46.500456975772977" lon="8.658428192138672">
        <ele>1882.8800000000001</ele>
        <time>2017-01-06T10:57:07Z</time>
      </trkpt>
      <trkpt lat="46.500511961057782" lon="8.658455014228821">
        <ele>1883.8399999999999</ele>
        <time>2017-01-06T10:57:16Z</time>
      </trkpt>
      <trkpt lat="46.500556049868464" lon="8.658469850197434">
        <ele>1885.28</ele>
        <time>2017-01-06T10:57:24Z</time>
      </trkpt>
      <trkpt lat="46.500559905543923" lon="8.658536653965712">
        <ele>1886.24</ele>
        <time>2017-01-06T10:57:32Z</time>
      </trkpt>
      <trkpt lat="46.500554122030735" lon="8.658541180193424">
        <ele>1886.24</ele>
        <time>2017-01-06T10:57:33Z</time>
      </trkpt>
      <trkpt lat="46.500465022400022" lon="8.658518046140671">
        <ele>1887.21</ele>
        <time>2017-01-06T10:57:46Z</time>
      </trkpt>
      <trkpt lat="46.50040584616363" lon="8.658501785248518">
        <ele>1888.6500000000001</ele>
        <time>2017-01-06T10:57:57Z</time>
      </trkpt>
      <trkpt lat="46.500338623300195" lon="8.658457109704614">
        <ele>1889.1300000000001</ele>
        <time>2017-01-06T10:58:09Z</time>
      </trkpt>
      <trkpt lat="46.500271735712886" lon="8.658419055864215">
        <ele>1890.5699999999999</ele>
        <time>2017-01-06T10:58:21Z</time>
      </trkpt>
      <trkpt lat="46.500194370746613" lon="8.658375889062882">
        <ele>1891.05</ele>
        <time>2017-01-06T10:58:32Z</time>
      </trkpt>
      <trkpt lat="46.500112731009722" lon="8.658335655927658">
        <ele>1892.01</ele>
        <time>2017-01-06T10:58:44Z</time>
      </trkpt>
      <trkpt lat="46.500021703541279" lon="8.658325849100947">
        <ele>1892.49</ele>
        <time>2017-01-06T10:58:56Z</time>
      </trkpt>
      <trkpt lat="46.499948780983686" lon="8.658302631229162">
        <ele>1893.9300000000001</ele>
        <time>2017-01-06T10:59:07Z</time>
      </trkpt>
      <trkpt lat="46.499908547848463" lon="8.658258374780417">
        <ele>1894.4200000000001</ele>
        <time>2017-01-06T10:59:13Z</time>
      </trkpt>
      <trkpt lat="46.499853562563658" lon="8.658202383667231">
        <ele>1894.9000000000001</ele>
        <time>2017-01-06T10:59:24Z</time>
      </trkpt>
      <trkpt lat="46.499778460711241" lon="8.658180087804794">
        <ele>1895.8599999999999</ele>
        <time>2017-01-06T10:59:35Z</time>
      </trkpt>
      <trkpt lat="46.499707130715251" lon="8.658176567405462">
        <ele>1896.8199999999999</ele>
        <time>2017-01-06T10:59:46Z</time>
      </trkpt>
      <trkpt lat="46.49966748431325" lon="8.658171035349369">
        <ele>1897.3</ele>
        <time>2017-01-06T10:59:55Z</time>
      </trkpt>
      <trkpt lat="46.499708304181695" lon="8.658210849389434">
        <ele>1898.74</ele>
        <time>2017-01-06T11:00:04Z</time>
      </trkpt>
      <trkpt lat="46.499746525660157" lon="8.658260470256209">
        <ele>1900.6600000000001</ele>
        <time>2017-01-06T11:00:15Z</time>
      </trkpt>
      <trkpt lat="46.49980042129755" lon="8.658280000090599">
        <ele>1902.5899999999999</ele>
        <time>2017-01-06T11:00:25Z</time>
      </trkpt>
      <trkpt lat="46.499835876747966" lon="8.658316964283586">
        <ele>1903.0699999999999</ele>
        <time>2017-01-06T11:00:32Z</time>
      </trkpt>
      <trkpt lat="46.499873427674174" lon="8.658374296501279">
        <ele>1904.51</ele>
        <time>2017-01-06T11:00:43Z</time>
      </trkpt>
      <trkpt lat="46.499899411574006" lon="8.658412853255868">
        <ele>1905.47</ele>
        <time>2017-01-06T11:00:51Z</time>
      </trkpt>
      <trkpt lat="46.499916594475508" lon="8.658502623438835">
        <ele>1907.8699999999999</ele>
        <time>2017-01-06T11:01:02Z</time>
      </trkpt>
      <trkpt lat="46.499959761276841" lon="8.658551992848516">
        <ele>1909.3199999999999</ele>
        <time>2017-01-06T11:01:13Z</time>
      </trkpt>
      <trkpt lat="46.499992283061147" lon="8.658590549603105">
        <ele>1910.28</ele>
        <time>2017-01-06T11:01:22Z</time>
      </trkpt>
      <trkpt lat="46.500003514811397" lon="8.658624915406108">
        <ele>1910.76</ele>
        <time>2017-01-06T11:01:31Z</time>
      </trkpt>
      <trkpt lat="46.500039473176003" lon="8.658682918176055">
        <ele>1912.2</ele>
        <time>2017-01-06T11:01:42Z</time>
      </trkpt>
      <trkpt lat="46.500049280002713" lon="8.658730611205101">
        <ele>1913.6400000000001</ele>
        <time>2017-01-06T11:01:52Z</time>
      </trkpt>
      <trkpt lat="46.500095967203379" lon="8.658766318112612">
        <ele>1914.1199999999999</ele>
        <time>2017-01-06T11:02:02Z</time>
      </trkpt>
      <trkpt lat="46.500061601400375" lon="8.658821471035481">
        <ele>1916.04</ele>
        <time>2017-01-06T11:02:14Z</time>
      </trkpt>
      <trkpt lat="46.499992283061147" lon="8.658808814361692">
        <ele>1916.04</ele>
        <time>2017-01-06T11:02:24Z</time>
      </trkpt>
      <trkpt lat="46.499931095167994" lon="8.658795235678554">
        <ele>1917.97</ele>
        <time>2017-01-06T11:02:36Z</time>
      </trkpt>
      <trkpt lat="46.499925227835774" lon="8.65877503529191">
        <ele>1922.29</ele>
        <time>2017-01-06T11:02:42Z</time>
      </trkpt>
      <trkpt lat="46.499922797083855" lon="8.658768832683563">
        <ele>1921.3299999999999</ele>
        <time>2017-01-06T11:02:43Z</time>
      </trkpt>
      <trkpt lat="46.499885162338614" lon="8.658738909289241">
        <ele>1921.8099999999999</ele>
        <time>2017-01-06T11:02:54Z</time>
      </trkpt>
      <trkpt lat="46.499830847606063" lon="8.658692305907607">
        <ele>1924.7</ele>
        <time>2017-01-06T11:03:07Z</time>
      </trkpt>
      <trkpt lat="46.499794637784362" lon="8.658673027530313">
        <ele>1926.1400000000001</ele>
        <time>2017-01-06T11:03:17Z</time>
      </trkpt>
      <trkpt lat="46.499768402427435" lon="8.658658945932984">
        <ele>1926.6199999999999</ele>
        <time>2017-01-06T11:03:28Z</time>
      </trkpt>
      <trkpt lat="46.499783657491207" lon="8.658644948154688">
        <ele>1926.1400000000001</ele>
        <time>2017-01-06T11:03:43Z</time>
      </trkpt>
      <trkpt lat="46.499707214534283" lon="8.658667160198093">
        <ele>1926.6199999999999</ele>
        <time>2017-01-06T11:03:55Z</time>
      </trkpt>
      <trkpt lat="46.499637309461832" lon="8.658640757203102">
        <ele>1928.0599999999999</ele>
        <time>2017-01-06T11:04:06Z</time>
      </trkpt>
      <trkpt lat="46.499581318348646" lon="8.658610498532653">
        <ele>1929.02</ele>
        <time>2017-01-06T11:04:16Z</time>
      </trkpt>
      <trkpt lat="46.499544437974691" lon="8.658599350601435">
        <ele>1929.98</ele>
        <time>2017-01-06T11:04:24Z</time>
      </trkpt>
      <trkpt lat="46.499482411891222" lon="8.658560961484909">
        <ele>1929.98</ele>
        <time>2017-01-06T11:04:34Z</time>
      </trkpt>
      <trkpt lat="46.499438658356667" lon="8.658535061404109">
        <ele>1931.9100000000001</ele>
        <time>2017-01-06T11:04:44Z</time>
      </trkpt>
      <trkpt lat="46.499387780204415" lon="8.6585199739784">
        <ele>1932.3900000000001</ele>
        <time>2017-01-06T11:04:55Z</time>
      </trkpt>
      <trkpt lat="46.499337153509259" lon="8.658511424437165">
        <ele>1933.8299999999999</ele>
        <time>2017-01-06T11:05:06Z</time>
      </trkpt>
      <trkpt lat="46.499365987256169" lon="8.658524500206113">
        <ele>1934.3099999999999</ele>
        <time>2017-01-06T11:05:19Z</time>
      </trkpt>
      <trkpt lat="46.499395491555333" lon="8.65857906639576">
        <ele>1935.27</ele>
        <time>2017-01-06T11:05:31Z</time>
      </trkpt>
      <trkpt lat="46.499424409121275" lon="8.658635728061199">
        <ele>1936.23</ele>
        <time>2017-01-06T11:05:40Z</time>
      </trkpt>
      <trkpt lat="46.499448465183377" lon="8.658686690032482">
        <ele>1937.6700000000001</ele>
        <time>2017-01-06T11:05:49Z</time>
      </trkpt>
      <trkpt lat="46.499474449083209" lon="8.65872080437839">
        <ele>1939.1199999999999</ele>
        <time>2017-01-06T11:05:59Z</time>
      </trkpt>
      <trkpt lat="46.499482579529285" lon="8.658751985058188">
        <ele>1939.1199999999999</ele>
        <time>2017-01-06T11:06:10Z</time>
      </trkpt>
      <trkpt lat="46.499517532065511" lon="8.658796744421125">
        <ele>1940.0799999999999</ele>
        <time>2017-01-06T11:06:18Z</time>
      </trkpt>
      <trkpt lat="46.499561788514256" lon="8.658862793818116">
        <ele>1941.04</ele>
        <time>2017-01-06T11:06:29Z</time>
      </trkpt>
      <trkpt lat="46.499599255621433" lon="8.658904535695911">
        <ele>1942.48</ele>
        <time>2017-01-06T11:06:38Z</time>
      </trkpt>
      <trkpt lat="46.499603698030114" lon="8.658980056643486">
        <ele>1943.9200000000001</ele>
        <time>2017-01-06T11:06:49Z</time>
      </trkpt>
      <trkpt lat="46.499645942822099" lon="8.659042418003082">
        <ele>1945.3599999999999</ele>
        <time>2017-01-06T11:07:02Z</time>
      </trkpt>
      <trkpt lat="46.49966899305582" lon="8.659111820161343">
        <ele>1946.8099999999999</ele>
        <time>2017-01-06T11:07:13Z</time>
      </trkpt>
      <trkpt lat="46.499687433242798" lon="8.659188179299235">
        <ele>1948.73</ele>
        <time>2017-01-06T11:07:24Z</time>
      </trkpt>
      <trkpt lat="46.499699167907238" lon="8.659281637519598">
        <ele>1950.1700000000001</ele>
        <time>2017-01-06T11:07:35Z</time>
      </trkpt>
      <trkpt lat="46.499716183170676" lon="8.65936185233295">
        <ele>1951.1300000000001</ele>
        <time>2017-01-06T11:07:46Z</time>
      </trkpt>
      <trkpt lat="46.499774269759655" lon="8.659342657774687">
        <ele>1951.6099999999999</ele>
        <time>2017-01-06T11:07:55Z</time>
      </trkpt>
      <trkpt lat="46.499810144305229" lon="8.65930862724781">
        <ele>1952.5699999999999</ele>
        <time>2017-01-06T11:08:04Z</time>
      </trkpt>
      <trkpt lat="46.499810982495546" lon="8.659372748807073">
        <ele>1954.5</ele>
        <time>2017-01-06T11:08:13Z</time>
      </trkpt>
      <trkpt lat="46.499768486246467" lon="8.659394457936287">
        <ele>1955.46</ele>
        <time>2017-01-06T11:08:22Z</time>
      </trkpt>
      <trkpt lat="46.499746441841125" lon="8.659492777660489">
        <ele>1956.9000000000001</ele>
        <time>2017-01-06T11:08:35Z</time>
      </trkpt>
      <trkpt lat="46.499721547588706" lon="8.659562934190035">
        <ele>1958.8199999999999</ele>
        <time>2017-01-06T11:08:47Z</time>
      </trkpt>
      <trkpt lat="46.499696234241128" lon="8.659627726301551">
        <ele>1960.75</ele>
        <time>2017-01-06T11:08:58Z</time>
      </trkpt>
      <trkpt lat="46.499672764912248" lon="8.659674916416407">
        <ele>1962.6700000000001</ele>
        <time>2017-01-06T11:09:08Z</time>
      </trkpt>
      <trkpt lat="46.499656587839127" lon="8.65972931496799">
        <ele>1963.6300000000001</ele>
        <time>2017-01-06T11:09:19Z</time>
      </trkpt>
      <trkpt lat="46.499617779627442" lon="8.659756723791361">
        <ele>1964.5899999999999</ele>
        <time>2017-01-06T11:09:29Z</time>
      </trkpt>
      <trkpt lat="46.499577546492219" lon="8.659738367423415">
        <ele>1965.55</ele>
        <time>2017-01-06T11:09:40Z</time>
      </trkpt>
      <trkpt lat="46.499521303921938" lon="8.659675167873502">
        <ele>1966.51</ele>
        <time>2017-01-06T11:09:51Z</time>
      </trkpt>
      <trkpt lat="46.499473359435797" lon="8.659618757665157">
        <ele>1967.96</ele>
        <time>2017-01-06T11:10:04Z</time>
      </trkpt>
      <trkpt lat="46.499455254524946" lon="8.659638287499547">
        <ele>1967.48</ele>
        <time>2017-01-06T11:10:13Z</time>
      </trkpt>
      <trkpt lat="46.499452404677868" lon="8.659647759050131">
        <ele>1967.96</ele>
        <time>2017-01-06T11:10:24Z</time>
      </trkpt>
      <trkpt lat="46.499458439648151" lon="8.659719172865152">
        <ele>1968.9200000000001</ele>
        <time>2017-01-06T11:10:35Z</time>
      </trkpt>
      <trkpt lat="46.4994593616575" lon="8.659806847572327">
        <ele>1972.76</ele>
        <time>2017-01-06T11:10:46Z</time>
      </trkpt>
      <trkpt lat="46.499485848471522" lon="8.65989058278501">
        <ele>1972.76</ele>
        <time>2017-01-06T11:10:59Z</time>
      </trkpt>
      <trkpt lat="46.499523064121604" lon="8.659952189773321">
        <ele>1974.6900000000001</ele>
        <time>2017-01-06T11:11:10Z</time>
      </trkpt>
      <trkpt lat="46.499547706916928" lon="8.660029219463468">
        <ele>1977.0899999999999</ele>
        <time>2017-01-06T11:11:23Z</time>
      </trkpt>
      <trkpt lat="46.49957025423646" lon="8.660082025453448">
        <ele>1978.53</ele>
        <time>2017-01-06T11:11:32Z</time>
      </trkpt>
      <trkpt lat="46.499604033306241" lon="8.660136675462127">
        <ele>1979.01</ele>
        <time>2017-01-06T11:11:42Z</time>
      </trkpt>
      <trkpt lat="46.499608810991049" lon="8.660171208903194">
        <ele>1979.01</ele>
        <time>2017-01-06T11:11:53Z</time>
      </trkpt>
      <trkpt lat="46.499594142660499" lon="8.660189229995012">
        <ele>1979.01</ele>
        <time>2017-01-06T11:12:03Z</time>
      </trkpt>
      <trkpt lat="46.499591208994389" lon="8.660186044871807">
        <ele>1978.53</ele>
        <time>2017-01-06T11:12:14Z</time>
      </trkpt>
      <trkpt lat="46.499595735222101" lon="8.66019451059401">
        <ele>1978.53</ele>
        <time>2017-01-06T11:12:31Z</time>
      </trkpt>
      <trkpt lat="46.499612079933286" lon="8.660201551392674">
        <ele>1978.05</ele>
        <time>2017-01-06T11:12:49Z</time>
      </trkpt>
      <trkpt lat="46.499589364975691" lon="8.66025754250586">
        <ele>1978.53</ele>
        <time>2017-01-06T11:12:59Z</time>
      </trkpt>
      <trkpt lat="46.499561034142971" lon="8.66029073484242">
        <ele>1980.45</ele>
        <time>2017-01-06T11:13:09Z</time>
      </trkpt>
      <trkpt lat="46.499561369419098" lon="8.660298110917211">
        <ele>1980.45</ele>
        <time>2017-01-06T11:13:20Z</time>
      </trkpt>
      <trkpt lat="46.499559190124273" lon="8.660266427323222">
        <ele>1979.01</ele>
        <time>2017-01-06T11:13:29Z</time>
      </trkpt>
      <trkpt lat="46.499541839584708" lon="8.660271121188998">
        <ele>1979.49</ele>
        <time>2017-01-06T11:13:48Z</time>
      </trkpt>
      <trkpt lat="46.499533038586378" lon="8.660260979086161">
        <ele>1978.53</ele>
        <time>2017-01-06T11:14:08Z</time>
      </trkpt>
      <trkpt lat="46.499530524015427" lon="8.660260811448097">
        <ele>1978.53</ele>
        <time>2017-01-06T11:14:24Z</time>
      </trkpt>
      <trkpt lat="46.499528344720602" lon="8.660249579697847">
        <ele>1977.5699999999999</ele>
        <time>2017-01-06T11:14:32Z</time>
      </trkpt>
      <trkpt lat="46.499542593955994" lon="8.660246729850769">
        <ele>1977.5699999999999</ele>
        <time>2017-01-06T11:15:00Z</time>
      </trkpt>
      <trkpt lat="46.499545695260167" lon="8.6602624040097">
        <ele>1977.0899999999999</ele>
        <time>2017-01-06T11:15:23Z</time>
      </trkpt>
      <trkpt lat="46.499544186517596" lon="8.660253519192338">
        <ele>1976.6099999999999</ele>
        <time>2017-01-06T11:15:44Z</time>
      </trkpt>
      <trkpt lat="46.499538235366344" lon="8.660253938287497">
        <ele>1975.6500000000001</ele>
        <time>2017-01-06T11:16:23Z</time>
      </trkpt>
      <trkpt lat="46.499532116577029" lon="8.660251507535577">
        <ele>1975.6500000000001</ele>
        <time>2017-01-06T11:16:47Z</time>
      </trkpt>
      <trkpt lat="46.499539911746979" lon="8.660256620496512">
        <ele>1975.6500000000001</ele>
        <time>2017-01-06T11:17:15Z</time>
      </trkpt>
      <trkpt lat="46.499539827927947" lon="8.660262823104858">
        <ele>1977.5699999999999</ele>
        <time>2017-01-06T11:17:32Z</time>
      </trkpt>
      <trkpt lat="46.499536726623774" lon="8.660251423716545">
        <ele>1977.0899999999999</ele>
        <time>2017-01-06T11:18:06Z</time>
      </trkpt>
      <trkpt lat="46.499537229537964" lon="8.660253938287497">
        <ele>1976.6099999999999</ele>
        <time>2017-01-06T11:18:35Z</time>
      </trkpt>
      <trkpt lat="46.4995336253196" lon="8.660252094268799">
        <ele>1977.5699999999999</ele>
        <time>2017-01-06T11:18:52Z</time>
      </trkpt>
      <trkpt lat="46.499536391347647" lon="8.660248909145594">
        <ele>1977.5699999999999</ele>
        <time>2017-01-06T11:19:10Z</time>
      </trkpt>
      <trkpt lat="46.499539073556662" lon="8.660241533070803">
        <ele>1977.0899999999999</ele>
        <time>2017-01-06T11:19:31Z</time>
      </trkpt>
      <trkpt lat="46.49956002831459" lon="8.660275982692838">
        <ele>1978.05</ele>
        <time>2017-01-06T11:19:54Z</time>
      </trkpt>
      <trkpt lat="46.499538403004408" lon="8.660307079553604">
        <ele>1978.53</ele>
        <time>2017-01-06T11:20:04Z</time>
      </trkpt>
      <trkpt lat="46.499555669724941" lon="8.660301212221384">
        <ele>1978.53</ele>
        <time>2017-01-06T11:20:15Z</time>
      </trkpt>
      <trkpt lat="46.499566901475191" lon="8.660292662680149">
        <ele>1978.53</ele>
        <time>2017-01-06T11:20:27Z</time>
      </trkpt>
      <trkpt lat="46.499561285600066" lon="8.660305570811033">
        <ele>1978.05</ele>
        <time>2017-01-06T11:20:39Z</time>
      </trkpt>
      <trkpt lat="46.499555166810751" lon="8.660308085381985">
        <ele>1977.5699999999999</ele>
        <time>2017-01-06T11:20:45Z</time>
      </trkpt>
      <trkpt lat="46.499474868178368" lon="8.660382181406021">
        <ele>1979.49</ele>
        <time>2017-01-06T11:20:55Z</time>
      </trkpt>
      <trkpt lat="46.499439161270857" lon="8.660458708181977">
        <ele>1981.4100000000001</ele>
        <time>2017-01-06T11:21:04Z</time>
      </trkpt>
      <trkpt lat="46.499425414949656" lon="8.660531714558601">
        <ele>1980.45</ele>
        <time>2017-01-06T11:21:10Z</time>
      </trkpt>
      <trkpt lat="46.499407896772027" lon="8.660609163343906">
        <ele>1981.9000000000001</ele>
        <time>2017-01-06T11:21:19Z</time>
      </trkpt>
      <trkpt lat="46.499387864023447" lon="8.660709830000997">
        <ele>1983.3399999999999</ele>
        <time>2017-01-06T11:21:28Z</time>
      </trkpt>
      <trkpt lat="46.499366071075201" lon="8.660774705931544">
        <ele>1984.78</ele>
        <time>2017-01-06T11:21:36Z</time>
      </trkpt>
      <trkpt lat="46.499336482957006" lon="8.660847041755915">
        <ele>1986.22</ele>
        <time>2017-01-06T11:21:45Z</time>
      </trkpt>
      <trkpt lat="46.499327179044485" lon="8.660862380638719">
        <ele>1985.74</ele>
        <time>2017-01-06T11:21:57Z</time>
      </trkpt>
      <trkpt lat="46.499309912323952" lon="8.660979056730866">
        <ele>1984.78</ele>
        <time>2017-01-06T11:22:06Z</time>
      </trkpt>
      <trkpt lat="46.499272445216775" lon="8.661142671480775">
        <ele>1983.3399999999999</ele>
        <time>2017-01-06T11:22:18Z</time>
      </trkpt>
      <trkpt lat="46.499200109392405" lon="8.661224311217666">
        <ele>1982.8599999999999</ele>
        <time>2017-01-06T11:22:27Z</time>
      </trkpt>
      <trkpt lat="46.499127522110939" lon="8.661280889064074">
        <ele>1983.8199999999999</ele>
        <time>2017-01-06T11:22:37Z</time>
      </trkpt>
      <trkpt lat="46.499097598716617" lon="8.661289187148213">
        <ele>1984.78</ele>
        <time>2017-01-06T11:22:45Z</time>
      </trkpt>
      <trkpt lat="46.499088378623128" lon="8.661283235996962">
        <ele>1984.3</ele>
        <time>2017-01-06T11:22:59Z</time>
      </trkpt>
      <trkpt lat="46.4990777336061" lon="8.661317685618997">
        <ele>1983.8199999999999</ele>
        <time>2017-01-06T11:23:10Z</time>
      </trkpt>
      <trkpt lat="46.499043619260192" lon="8.661343334242702">
        <ele>1985.26</ele>
        <time>2017-01-06T11:23:19Z</time>
      </trkpt>
      <trkpt lat="46.499044289812446" lon="8.661341406404972">
        <ele>1985.26</ele>
        <time>2017-01-06T11:23:28Z</time>
      </trkpt>
      <trkpt lat="46.499049654230475" lon="8.661336293444037">
        <ele>1984.78</ele>
        <time>2017-01-06T11:23:46Z</time>
      </trkpt>
      <trkpt lat="46.499046133831143" lon="8.661333192139864">
        <ele>1984.78</ele>
        <time>2017-01-06T11:24:16Z</time>
      </trkpt>
      <trkpt lat="46.499052168801427" lon="8.661335119977593">
        <ele>1985.74</ele>
        <time>2017-01-06T11:24:23Z</time>
      </trkpt>
      <trkpt lat="46.499046804383397" lon="8.661359008401632">
        <ele>1985.74</ele>
        <time>2017-01-06T11:24:33Z</time>
      </trkpt>
      <trkpt lat="46.49905233643949" lon="8.66136085242033">
        <ele>1985.26</ele>
        <time>2017-01-06T11:24:36Z</time>
      </trkpt>
      <trkpt lat="46.499052923172712" lon="8.661405695602298">
        <ele>1985.74</ele>
        <time>2017-01-06T11:24:40Z</time>
      </trkpt>
      <trkpt lat="46.499059544876218" lon="8.661433439701796">
        <ele>1985.74</ele>
        <time>2017-01-06T11:24:42Z</time>
      </trkpt>
      <trkpt lat="46.499053174629807" lon="8.661530753597617">
        <ele>1985.26</ele>
        <time>2017-01-06T11:24:48Z</time>
      </trkpt>
      <trkpt lat="46.499055437743664" lon="8.661598898470402">
        <ele>1985.26</ele>
        <time>2017-01-06T11:24:52Z</time>
      </trkpt>
      <trkpt lat="46.499066334217787" lon="8.661626558750868">
        <ele>1987.1800000000001</ele>
        <time>2017-01-06T11:24:54Z</time>
      </trkpt>
      <trkpt lat="46.499074716120958" lon="8.661654386669397">
        <ele>1985.74</ele>
        <time>2017-01-06T11:24:56Z</time>
      </trkpt>
      <trkpt lat="46.49908410385251" lon="8.66167550906539">
        <ele>1986.22</ele>
        <time>2017-01-06T11:24:58Z</time>
      </trkpt>
      <trkpt lat="46.499086366966367" lon="8.661744659766555">
        <ele>1986.7</ele>
        <time>2017-01-06T11:25:03Z</time>
      </trkpt>
      <trkpt lat="46.499101622030139" lon="8.661800399422646">
        <ele>1987.6600000000001</ele>
        <time>2017-01-06T11:25:07Z</time>
      </trkpt>
      <trkpt lat="46.499112686142325" lon="8.661821270361543">
        <ele>1987.6600000000001</ele>
        <time>2017-01-06T11:25:09Z</time>
      </trkpt>
      <trkpt lat="46.499116206541657" lon="8.661834262311459">
        <ele>1988.6199999999999</ele>
        <time>2017-01-06T11:25:19Z</time>
      </trkpt>
      <trkpt lat="46.499142525717616" lon="8.66190223954618">
        <ele>1989.0999999999999</ele>
        <time>2017-01-06T11:25:31Z</time>
      </trkpt>
      <trkpt lat="46.499175801873207" lon="8.661967450752854">
        <ele>1989.0999999999999</ele>
        <time>2017-01-06T11:25:39Z</time>
      </trkpt>
      <trkpt lat="46.499191056936979" lon="8.661970300599933">
        <ele>1988.6199999999999</ele>
        <time>2017-01-06T11:25:41Z</time>
      </trkpt>
      <trkpt lat="46.4992262609303" lon="8.66197700612247">
        <ele>1991.99</ele>
        <time>2017-01-06T11:25:46Z</time>
      </trkpt>
      <trkpt lat="46.499228356406093" lon="8.661978431046009">
        <ele>1992.47</ele>
        <time>2017-01-06T11:25:47Z</time>
      </trkpt>
      <trkpt lat="46.499232212081552" lon="8.661972731351852">
        <ele>1992.47</ele>
        <time>2017-01-06T11:26:01Z</time>
      </trkpt>
      <trkpt lat="46.499227099120617" lon="8.661989578977227">
        <ele>1991.51</ele>
        <time>2017-01-06T11:26:13Z</time>
      </trkpt>
      <trkpt lat="46.499226512387395" lon="8.661992680281401">
        <ele>1993.4300000000001</ele>
        <time>2017-01-06T11:26:17Z</time>
      </trkpt>
      <trkpt lat="46.499235481023788" lon="8.661991422995925">
        <ele>1994.3900000000001</ele>
        <time>2017-01-06T11:26:21Z</time>
      </trkpt>
      <trkpt lat="46.499234475195408" lon="8.661988656967878">
        <ele>1993.4300000000001</ele>
        <time>2017-01-06T11:26:34Z</time>
      </trkpt>
      <trkpt lat="46.499229362234473" lon="8.661982621997595">
        <ele>1990.55</ele>
        <time>2017-01-06T11:26:42Z</time>
      </trkpt>
      <trkpt lat="46.499234642833471" lon="8.661983963102102">
        <ele>1993.4300000000001</ele>
        <time>2017-01-06T11:26:44Z</time>
      </trkpt>
      <trkpt lat="46.499229446053505" lon="8.661980023607612">
        <ele>1991.99</ele>
        <time>2017-01-06T11:26:47Z</time>
      </trkpt>
      <trkpt lat="46.499218298122287" lon="8.661984885111451">
        <ele>1991.51</ele>
        <time>2017-01-06T11:27:13Z</time>
      </trkpt>
      <trkpt lat="46.49924042634666" lon="8.662059484049678">
        <ele>1993.9100000000001</ele>
        <time>2017-01-06T11:27:22Z</time>
      </trkpt>
      <trkpt lat="46.499230116605759" lon="8.662105081602931">
        <ele>1994.8699999999999</ele>
        <time>2017-01-06T11:27:32Z</time>
      </trkpt>
      <trkpt lat="46.499222069978714" lon="8.662122432142496">
        <ele>1994.3900000000001</ele>
        <time>2017-01-06T11:27:43Z</time>
      </trkpt>
      <trkpt lat="46.499217711389065" lon="8.662120001390576">
        <ele>1995.3499999999999</ele>
        <time>2017-01-06T11:27:53Z</time>
      </trkpt>
      <trkpt lat="46.499210251495242" lon="8.662118827924132">
        <ele>1996.8</ele>
        <time>2017-01-06T11:28:08Z</time>
      </trkpt>
      <trkpt lat="46.499209748581052" lon="8.662113547325134">
        <ele>1996.3199999999999</ele>
        <time>2017-01-06T11:28:18Z</time>
      </trkpt>
      <trkpt lat="46.499217627570033" lon="8.662182614207268">
        <ele>1995.8299999999999</ele>
        <time>2017-01-06T11:28:28Z</time>
      </trkpt>
      <trkpt lat="46.499229781329632" lon="8.662156378850341">
        <ele>1994.3900000000001</ele>
        <time>2017-01-06T11:28:44Z</time>
      </trkpt>
      <trkpt lat="46.499231038615108" lon="8.662172053009272">
        <ele>1994.3900000000001</ele>
        <time>2017-01-06T11:29:03Z</time>
      </trkpt>
      <trkpt lat="46.499213688075542" lon="8.662166437134147">
        <ele>1995.8299999999999</ele>
        <time>2017-01-06T11:29:21Z</time>
      </trkpt>
      <trkpt lat="46.49919449351728" lon="8.662139866501093">
        <ele>1994.3900000000001</ele>
        <time>2017-01-06T11:29:24Z</time>
      </trkpt>
      <trkpt lat="46.49918376468122" lon="8.662120001390576">
        <ele>1994.3900000000001</ele>
        <time>2017-01-06T11:29:26Z</time>
      </trkpt>
      <trkpt lat="46.499173119664192" lon="8.662064261734486">
        <ele>1994.3900000000001</ele>
        <time>2017-01-06T11:29:30Z</time>
      </trkpt>
      <trkpt lat="46.499131293967366" lon="8.661982035264373">
        <ele>1990.55</ele>
        <time>2017-01-06T11:29:36Z</time>
      </trkpt>
      <trkpt lat="46.499104052782059" lon="8.661890169605613">
        <ele>1988.1400000000001</ele>
        <time>2017-01-06T11:29:42Z</time>
      </trkpt>
      <trkpt lat="46.499081840738654" lon="8.661826970055699">
        <ele>1986.22</ele>
        <time>2017-01-06T11:29:46Z</time>
      </trkpt>
      <trkpt lat="46.499044205993414" lon="8.661683136597276">
        <ele>1984.3</ele>
        <time>2017-01-06T11:29:56Z</time>
      </trkpt>
      <trkpt lat="46.499041439965367" lon="8.66162471473217">
        <ele>1984.3</ele>
        <time>2017-01-06T11:30:01Z</time>
      </trkpt>
      <trkpt lat="46.499034147709608" lon="8.661497142165899">
        <ele>1984.3</ele>
        <time>2017-01-06T11:30:10Z</time>
      </trkpt>
      <trkpt lat="46.499053593724966" lon="8.661339730024338">
        <ele>1984.3</ele>
        <time>2017-01-06T11:30:22Z</time>
      </trkpt>
      <trkpt lat="46.499034482985735" lon="8.661284660920501">
        <ele>1983.8199999999999</ele>
        <time>2017-01-06T11:30:32Z</time>
      </trkpt>
      <trkpt lat="46.499031465500593" lon="8.66130905225873">
        <ele>1983.3399999999999</ele>
        <time>2017-01-06T11:30:46Z</time>
      </trkpt>
      <trkpt lat="46.499042110517621" lon="8.661325145512819">
        <ele>1983.3399999999999</ele>
        <time>2017-01-06T11:31:01Z</time>
      </trkpt>
      <trkpt lat="46.499038841575384" lon="8.661310896277428">
        <ele>1981.9000000000001</ele>
        <time>2017-01-06T11:31:15Z</time>
      </trkpt>
      <trkpt lat="46.499031968414783" lon="8.661325061693788">
        <ele>1982.3800000000001</ele>
        <time>2017-01-06T11:31:26Z</time>
      </trkpt>
      <trkpt lat="46.499034566804767" lon="8.661327240988612">
        <ele>1982.3800000000001</ele>
        <time>2017-01-06T11:31:34Z</time>
      </trkpt>
      <trkpt lat="46.499043367803097" lon="8.661314668133855">
        <ele>1982.3800000000001</ele>
        <time>2017-01-06T11:31:43Z</time>
      </trkpt>
      <trkpt lat="46.499044205993414" lon="8.661300502717495">
        <ele>1981.9000000000001</ele>
        <time>2017-01-06T11:31:46Z</time>
      </trkpt>
      <trkpt lat="46.49904940277338" lon="8.661327492445707">
        <ele>1982.8599999999999</ele>
        <time>2017-01-06T11:31:55Z</time>
      </trkpt>
      <trkpt lat="46.499054096639156" lon="8.66134274750948">
        <ele>1983.3399999999999</ele>
        <time>2017-01-06T11:32:06Z</time>
      </trkpt>
      <trkpt lat="46.499047642573714" lon="8.661325061693788">
        <ele>1983.3399999999999</ele>
        <time>2017-01-06T11:32:20Z</time>
      </trkpt>
      <trkpt lat="46.499056359753013" lon="8.661331264302135">
        <ele>1983.3399999999999</ele>
        <time>2017-01-06T11:32:35Z</time>
      </trkpt>
      <trkpt lat="46.499047474935651" lon="8.661324726417661">
        <ele>1982.8599999999999</ele>
        <time>2017-01-06T11:32:50Z</time>
      </trkpt>
      <trkpt lat="46.499036410823464" lon="8.66132372058928">
        <ele>1982.8599999999999</ele>
        <time>2017-01-06T11:33:07Z</time>
      </trkpt>
      <trkpt lat="46.499031884595752" lon="8.661366887390614">
        <ele>1982.8599999999999</ele>
        <time>2017-01-06T11:33:15Z</time>
      </trkpt>
      <trkpt lat="46.499038673937321" lon="8.661336461082101">
        <ele>1982.8599999999999</ele>
        <time>2017-01-06T11:33:25Z</time>
      </trkpt>
      <trkpt lat="46.499053677543998" lon="8.661337299272418">
        <ele>1982.8599999999999</ele>
        <time>2017-01-06T11:33:41Z</time>
      </trkpt>
      <trkpt lat="46.499053006991744" lon="8.661336712539196">
        <ele>1982.8599999999999</ele>
        <time>2017-01-06T11:33:53Z</time>
      </trkpt>
      <trkpt lat="46.499059209600091" lon="8.661330509930849">
        <ele>1982.8599999999999</ele>
        <time>2017-01-06T11:34:11Z</time>
      </trkpt>
      <trkpt lat="46.499047391116619" lon="8.661336712539196">
        <ele>1984.3</ele>
        <time>2017-01-06T11:34:24Z</time>
      </trkpt>
      <trkpt lat="46.499047726392746" lon="8.661384992301464">
        <ele>1982.8599999999999</ele>
        <time>2017-01-06T11:34:35Z</time>
      </trkpt>
      <trkpt lat="46.49902299977839" lon="8.661346016451716">
        <ele>1982.3800000000001</ele>
        <time>2017-01-06T11:34:46Z</time>
      </trkpt>
      <trkpt lat="46.498997434973717" lon="8.661394296213985">
        <ele>1981.9000000000001</ele>
        <time>2017-01-06T11:35:03Z</time>
      </trkpt>
      <trkpt lat="46.498893331736326" lon="8.661409467458725">
        <ele>1981.4100000000001</ele>
        <time>2017-01-06T11:35:21Z</time>
      </trkpt>
      <trkpt lat="46.498868688941002" lon="8.661364624276757">
        <ele>1980.9300000000001</ele>
        <time>2017-01-06T11:35:31Z</time>
      </trkpt>
      <trkpt lat="46.498954268172383" lon="8.661347609013319">
        <ele>1981.4100000000001</ele>
        <time>2017-01-06T11:35:50Z</time>
      </trkpt>
      <trkpt lat="46.498984107747674" lon="8.661371329799295">
        <ele>1981.9000000000001</ele>
        <time>2017-01-06T11:36:11Z</time>
      </trkpt>
      <trkpt lat="46.498987795785069" lon="8.661352638155222">
        <ele>1981.9000000000001</ele>
        <time>2017-01-06T11:36:33Z</time>
      </trkpt>
      <trkpt lat="46.49901956319809" lon="8.661384405568242">
        <ele>1982.8599999999999</ele>
        <time>2017-01-06T11:36:52Z</time>
      </trkpt>
      <trkpt lat="46.499027526006103" lon="8.661413071677089">
        <ele>1983.3399999999999</ele>
        <time>2017-01-06T11:36:55Z</time>
      </trkpt>
      <trkpt lat="46.499085025861859" lon="8.661706941202283">
        <ele>1983.8199999999999</ele>
        <time>2017-01-06T11:37:15Z</time>
      </trkpt>
      <trkpt lat="46.499080415815115" lon="8.661795454099774">
        <ele>1982.8599999999999</ele>
        <time>2017-01-06T11:37:32Z</time>
      </trkpt>
      <trkpt lat="46.499034399166703" lon="8.661787156015635">
        <ele>1982.8599999999999</ele>
        <time>2017-01-06T11:37:52Z</time>
      </trkpt>
      <trkpt lat="46.499038757756352" lon="8.661764273419976">
        <ele>1981.9000000000001</ele>
        <time>2017-01-06T11:38:01Z</time>
      </trkpt>
      <trkpt lat="46.499268589541316" lon="8.661648854613304">
        <ele>1982.8599999999999</ele>
        <time>2017-01-06T11:38:17Z</time>
      </trkpt>
      <trkpt lat="46.499309409409761" lon="8.661642400547862">
        <ele>1981.4100000000001</ele>
        <time>2017-01-06T11:38:25Z</time>
      </trkpt>
      <trkpt lat="46.499339500442147" lon="8.66159345023334">
        <ele>1981.9000000000001</ele>
        <time>2017-01-06T11:38:38Z</time>
      </trkpt>
      <trkpt lat="46.499321730807424" lon="8.661575680598617">
        <ele>1981.9000000000001</ele>
        <time>2017-01-06T11:38:40Z</time>
      </trkpt>
      <trkpt lat="46.499120146036148" lon="8.661504937335849">
        <ele>1982.3800000000001</ele>
        <time>2017-01-06T11:38:52Z</time>
      </trkpt>
      <trkpt lat="46.499081924557686" lon="8.661502506583929">
        <ele>1981.9000000000001</ele>
        <time>2017-01-06T11:38:54Z</time>
      </trkpt>
      <trkpt lat="46.499169850721955" lon="8.661462441086769">
        <ele>1980.9300000000001</ele>
        <time>2017-01-06T11:42:13Z</time>
      </trkpt>
      <trkpt lat="46.499246377497911" lon="8.6613486148417">
        <ele>1981.4100000000001</ele>
        <time>2017-01-06T11:42:34Z</time>
      </trkpt>
      <trkpt lat="46.499236319214106" lon="8.661296647042036">
        <ele>1981.4100000000001</ele>
        <time>2017-01-06T11:42:51Z</time>
      </trkpt>
      <trkpt lat="46.499215112999082" lon="8.661306537687779">
        <ele>1980.45</ele>
        <time>2017-01-06T11:43:15Z</time>
      </trkpt>
      <trkpt lat="46.499086618423462" lon="8.661393625661731">
        <ele>1980.45</ele>
        <time>2017-01-06T11:43:37Z</time>
      </trkpt>
      <trkpt lat="46.499090641736984" lon="8.66145271807909">
        <ele>1979.97</ele>
        <time>2017-01-06T11:43:59Z</time>
      </trkpt>
      <trkpt lat="46.499040685594082" lon="8.661399576812983">
        <ele>1979.97</ele>
        <time>2017-01-06T11:44:20Z</time>
      </trkpt>
      <trkpt lat="46.498955441638827" lon="8.661399409174919">
        <ele>1979.97</ele>
        <time>2017-01-06T11:44:44Z</time>
      </trkpt>
      <trkpt lat="46.499015623703599" lon="8.66142924875021">
        <ele>1980.45</ele>
        <time>2017-01-06T11:45:04Z</time>
      </trkpt>
      <trkpt lat="46.498986203223467" lon="8.661442995071411">
        <ele>1980.45</ele>
        <time>2017-01-06T11:45:28Z</time>
      </trkpt>
      <trkpt lat="46.498996261507273" lon="8.661402091383934">
        <ele>1980.9300000000001</ele>
        <time>2017-01-06T11:45:50Z</time>
      </trkpt>
      <trkpt lat="46.499105896800756" lon="8.661402007564902">
        <ele>1981.4100000000001</ele>
        <time>2017-01-06T11:46:07Z</time>
      </trkpt>
      <trkpt lat="46.499165911227465" lon="8.661448527127504">
        <ele>1980.9300000000001</ele>
        <time>2017-01-06T11:46:27Z</time>
      </trkpt>
      <trkpt lat="46.499080080538988" lon="8.66138088516891">
        <ele>1979.97</ele>
        <time>2017-01-06T11:46:48Z</time>
      </trkpt>
      <trkpt lat="46.498975055292249" lon="8.661364037543535">
        <ele>1978.53</ele>
        <time>2017-01-06T11:47:08Z</time>
      </trkpt>
      <trkpt lat="46.499054012820125" lon="8.661389937624335">
        <ele>1979.01</ele>
        <time>2017-01-06T11:47:29Z</time>
      </trkpt>
      <trkpt lat="46.499196169897914" lon="8.66144978441298">
        <ele>1979.49</ele>
        <time>2017-01-06T11:47:50Z</time>
      </trkpt>
      <trkpt lat="46.49918426759541" lon="8.661467805504799">
        <ele>1979.49</ele>
        <time>2017-01-06T11:48:09Z</time>
      </trkpt>
      <trkpt lat="46.499165156856179" lon="8.661468895152211">
        <ele>1979.49</ele>
        <time>2017-01-06T11:48:28Z</time>
      </trkpt>
      <trkpt lat="46.499134311452508" lon="8.661436541005969">
        <ele>1980.45</ele>
        <time>2017-01-06T11:48:50Z</time>
      </trkpt>
      <trkpt lat="46.499147387221456" lon="8.661444587633014">
        <ele>1981.9000000000001</ele>
        <time>2017-01-06T11:49:10Z</time>
      </trkpt>
      <trkpt lat="46.499115619808435" lon="8.661455484107137">
        <ele>1981.9000000000001</ele>
        <time>2017-01-06T11:49:27Z</time>
      </trkpt>
      <trkpt lat="46.499068178236485" lon="8.661444252356887">
        <ele>1980.9300000000001</ele>
        <time>2017-01-06T11:49:46Z</time>
      </trkpt>
      <trkpt lat="46.499055186286569" lon="8.661478953436017">
        <ele>1979.97</ele>
        <time>2017-01-06T11:50:05Z</time>
      </trkpt>
      <trkpt lat="46.499024340882897" lon="8.661492364481092">
        <ele>1979.49</ele>
        <time>2017-01-06T11:50:23Z</time>
      </trkpt>
      <trkpt lat="46.499007996171713" lon="8.66145464591682">
        <ele>1979.97</ele>
        <time>2017-01-06T11:50:46Z</time>
      </trkpt>
      <trkpt lat="46.498991483822465" lon="8.661392703652382">
        <ele>1979.97</ele>
        <time>2017-01-06T11:51:09Z</time>
      </trkpt>
      <trkpt lat="46.499067172408104" lon="8.661407455801964">
        <ele>1980.45</ele>
        <time>2017-01-06T11:51:29Z</time>
      </trkpt>
      <trkpt lat="46.499019479379058" lon="8.661368060857058">
        <ele>1980.45</ele>
        <time>2017-01-06T11:51:48Z</time>
      </trkpt>
      <trkpt lat="46.499020736664534" lon="8.661358673125505">
        <ele>1979.97</ele>
        <time>2017-01-06T11:52:10Z</time>
      </trkpt>
      <trkpt lat="46.498989975079894" lon="8.66139211691916">
        <ele>1979.97</ele>
        <time>2017-01-06T11:52:31Z</time>
      </trkpt>
      <trkpt lat="46.499020401388407" lon="8.661360181868076">
        <ele>1979.97</ele>
        <time>2017-01-06T11:52:52Z</time>
      </trkpt>
      <trkpt lat="46.499008415266871" lon="8.661397229880095">
        <ele>1979.97</ele>
        <time>2017-01-06T11:53:15Z</time>
      </trkpt>
      <trkpt lat="46.498993998393416" lon="8.661372251808643">
        <ele>1979.97</ele>
        <time>2017-01-06T11:53:35Z</time>
      </trkpt>
      <trkpt lat="46.498988466337323" lon="8.661363115534186">
        <ele>1979.97</ele>
        <time>2017-01-06T11:53:56Z</time>
      </trkpt>
      <trkpt lat="46.499042361974716" lon="8.66140142083168">
        <ele>1979.49</ele>
        <time>2017-01-06T11:54:24Z</time>
      </trkpt>
      <trkpt lat="46.499000703915954" lon="8.661414999514818">
        <ele>1979.97</ele>
        <time>2017-01-06T11:54:49Z</time>
      </trkpt>
      <trkpt lat="46.498962147161365" lon="8.661396810784936">
        <ele>1979.97</ele>
        <time>2017-01-06T11:55:10Z</time>
      </trkpt>
      <trkpt lat="46.498983101919293" lon="8.661425895988941">
        <ele>1979.49</ele>
        <time>2017-01-06T11:55:33Z</time>
      </trkpt>
      <trkpt lat="46.499006571248174" lon="8.661421872675419">
        <ele>1979.01</ele>
        <time>2017-01-06T11:55:55Z</time>
      </trkpt>
      <trkpt lat="46.499016713351011" lon="8.661408042535186">
        <ele>1979.01</ele>
        <time>2017-01-06T11:56:16Z</time>
      </trkpt>
      <trkpt lat="46.499001458287239" lon="8.661440396681428">
        <ele>1979.01</ele>
        <time>2017-01-06T11:56:36Z</time>
      </trkpt>
      <trkpt lat="46.499014031141996" lon="8.66143754683435">
        <ele>1979.49</ele>
        <time>2017-01-06T11:57:00Z</time>
      </trkpt>
      <trkpt lat="46.498968601226807" lon="8.661424638703466">
        <ele>1979.01</ele>
        <time>2017-01-06T11:57:16Z</time>
      </trkpt>
      <trkpt lat="46.49895066395402" lon="8.661413909867406">
        <ele>1979.01</ele>
        <time>2017-01-06T11:57:36Z</time>
      </trkpt>
      <trkpt lat="46.498904060572386" lon="8.661425979807973">
        <ele>1979.01</ele>
        <time>2017-01-06T11:57:57Z</time>
      </trkpt>
      <trkpt lat="46.498786211013794" lon="8.661394715309143">
        <ele>1979.49</ele>
        <time>2017-01-06T11:58:22Z</time>
      </trkpt>
      <trkpt lat="46.498970109969378" lon="8.661432852968574">
        <ele>1979.49</ele>
        <time>2017-01-06T11:58:42Z</time>
      </trkpt>
      <trkpt lat="46.49906650185585" lon="8.661460345610976">
        <ele>1979.49</ele>
        <time>2017-01-06T11:59:02Z</time>
      </trkpt>
      <trkpt lat="46.498959129676223" lon="8.661434361711144">
        <ele>1979.49</ele>
        <time>2017-01-06T11:59:18Z</time>
      </trkpt>
      <trkpt lat="46.499049738049507" lon="8.661449449136853">
        <ele>1979.49</ele>
        <time>2017-01-06T11:59:35Z</time>
      </trkpt>
      <trkpt lat="46.498956950381398" lon="8.661442156881094">
        <ele>1979.01</ele>
        <time>2017-01-06T11:59:54Z</time>
      </trkpt>
      <trkpt lat="46.498971953988075" lon="8.661425476893783">
        <ele>1979.01</ele>
        <time>2017-01-06T12:00:14Z</time>
      </trkpt>
      <trkpt lat="46.498966421931982" lon="8.661471409723163">
        <ele>1979.01</ele>
        <time>2017-01-06T12:00:29Z</time>
      </trkpt>
      <trkpt lat="46.498982096090913" lon="8.661462189629674">
        <ele>1979.01</ele>
        <time>2017-01-06T12:00:49Z</time>
      </trkpt>
      <trkpt lat="46.498994836583734" lon="8.661452634260058">
        <ele>1978.53</ele>
        <time>2017-01-06T12:01:11Z</time>
      </trkpt>
      <trkpt lat="46.4989292062819" lon="8.661472918465734">
        <ele>1978.05</ele>
        <time>2017-01-06T12:01:30Z</time>
      </trkpt>
      <trkpt lat="46.498954184353352" lon="8.661431428045034">
        <ele>1978.05</ele>
        <time>2017-01-06T12:01:48Z</time>
      </trkpt>
      <trkpt lat="46.498983856290579" lon="8.661444336175919">
        <ele>1978.05</ele>
        <time>2017-01-06T12:02:08Z</time>
      </trkpt>
      <trkpt lat="46.499014869332314" lon="8.66145322099328">
        <ele>1977.5699999999999</ele>
        <time>2017-01-06T12:02:28Z</time>
      </trkpt>
      <trkpt lat="46.499022413045168" lon="8.66149278357625">
        <ele>1977.5699999999999</ele>
        <time>2017-01-06T12:02:47Z</time>
      </trkpt>
      <trkpt lat="46.499082511290908" lon="8.661491274833679">
        <ele>1977.5699999999999</ele>
        <time>2017-01-06T12:03:03Z</time>
      </trkpt>
      <trkpt lat="46.499073794111609" lon="8.661523377522826">
        <ele>1977.5699999999999</ele>
        <time>2017-01-06T12:03:26Z</time>
      </trkpt>
      <trkpt lat="46.499035069718957" lon="8.661483563482761">
        <ele>1978.05</ele>
        <time>2017-01-06T12:03:49Z</time>
      </trkpt>
      <trkpt lat="46.499038422480226" lon="8.661501165479422">
        <ele>1978.53</ele>
        <time>2017-01-06T12:04:11Z</time>
      </trkpt>
      <trkpt lat="46.499019060283899" lon="8.66149035282433">
        <ele>1979.01</ele>
        <time>2017-01-06T12:04:33Z</time>
      </trkpt>
      <trkpt lat="46.499041356146336" lon="8.661503428593278">
        <ele>1979.01</ele>
        <time>2017-01-06T12:04:54Z</time>
      </trkpt>
      <trkpt lat="46.499013863503933" lon="8.66147224791348">
        <ele>1979.01</ele>
        <time>2017-01-06T12:05:15Z</time>
      </trkpt>
      <trkpt lat="46.499039176851511" lon="8.661479121074081">
        <ele>1978.05</ele>
        <time>2017-01-06T12:05:35Z</time>
      </trkpt>
      <trkpt lat="46.499054012820125" lon="8.661494459956884">
        <ele>1977.5699999999999</ele>
        <time>2017-01-06T12:05:55Z</time>
      </trkpt>
      <trkpt lat="46.499056275933981" lon="8.661417765542865">
        <ele>1977.5699999999999</ele>
        <time>2017-01-06T12:06:15Z</time>
      </trkpt>
      <trkpt lat="46.499089803546667" lon="8.661404270678759">
        <ele>1977.0899999999999</ele>
        <time>2017-01-06T12:06:38Z</time>
      </trkpt>
      <trkpt lat="46.499161384999752" lon="8.661447102203965">
        <ele>1977.0899999999999</ele>
        <time>2017-01-06T12:07:01Z</time>
      </trkpt>
      <trkpt lat="46.499142777174711" lon="8.661464788019657">
        <ele>1977.0899999999999</ele>
        <time>2017-01-06T12:07:24Z</time>
      </trkpt>
      <trkpt lat="46.499115535989404" lon="8.661447102203965">
        <ele>1977.0899999999999</ele>
        <time>2017-01-06T12:07:47Z</time>
      </trkpt>
      <trkpt lat="46.499087288975716" lon="8.661482892930508">
        <ele>1977.0899999999999</ele>
        <time>2017-01-06T12:08:10Z</time>
      </trkpt>
      <trkpt lat="46.499064322561026" lon="8.661440061405301">
        <ele>1977.0899999999999</ele>
        <time>2017-01-06T12:08:39Z</time>
      </trkpt>
      <trkpt lat="46.499019730836153" lon="8.661438804119825">
        <ele>1977.0899999999999</ele>
        <time>2017-01-06T12:09:06Z</time>
      </trkpt>
      <trkpt lat="46.499019730836153" lon="8.661435954272747">
        <ele>1976.6099999999999</ele>
        <time>2017-01-06T12:09:27Z</time>
      </trkpt>
      <trkpt lat="46.499016126617789" lon="8.661443581804633">
        <ele>1977.0899999999999</ele>
        <time>2017-01-06T12:09:51Z</time>
      </trkpt>
      <trkpt lat="46.499025262892246" lon="8.661420531570911">
        <ele>1977.0899999999999</ele>
        <time>2017-01-06T12:10:15Z</time>
      </trkpt>
      <trkpt lat="46.499010007828474" lon="8.661429584026337">
        <ele>1977.5699999999999</ele>
        <time>2017-01-06T12:10:37Z</time>
      </trkpt>
      <trkpt lat="46.499044708907604" lon="8.66144735366106">
        <ele>1977.0899999999999</ele>
        <time>2017-01-06T12:11:00Z</time>
      </trkpt>
      <trkpt lat="46.499050492420793" lon="8.661429500207305">
        <ele>1977.0899999999999</ele>
        <time>2017-01-06T12:11:22Z</time>
      </trkpt>
      <trkpt lat="46.499034147709608" lon="8.661408210173249">
        <ele>1977.0899999999999</ele>
        <time>2017-01-06T12:11:43Z</time>
      </trkpt>
      <trkpt lat="46.499031465500593" lon="8.661426566541195">
        <ele>1977.0899999999999</ele>
        <time>2017-01-06T12:12:04Z</time>
      </trkpt>
      <trkpt lat="46.499060718342662" lon="8.661487586796284">
        <ele>1977.5699999999999</ele>
        <time>2017-01-06T12:12:27Z</time>
      </trkpt>
      <trkpt lat="46.499123331159353" lon="8.661464788019657">
        <ele>1977.0899999999999</ele>
        <time>2017-01-06T12:12:47Z</time>
      </trkpt>
      <trkpt lat="46.499065412208438" lon="8.661414161324501">
        <ele>1977.5699999999999</ele>
        <time>2017-01-06T12:13:10Z</time>
      </trkpt>
      <trkpt lat="46.49908603169024" lon="8.6614522151649">
        <ele>1977.0899999999999</ele>
        <time>2017-01-06T12:13:35Z</time>
      </trkpt>
      <trkpt lat="46.499189212918282" lon="8.661532262340188">
        <ele>1977.5699999999999</ele>
        <time>2017-01-06T12:14:01Z</time>
      </trkpt>
      <trkpt lat="46.499112099409103" lon="8.661445174366236">
        <ele>1977.5699999999999</ele>
        <time>2017-01-06T12:14:24Z</time>
      </trkpt>
      <trkpt lat="46.499017802998424" lon="8.661460764706135">
        <ele>1976.6099999999999</ele>
        <time>2017-01-06T12:14:43Z</time>
      </trkpt>
      <trkpt lat="46.498973378911614" lon="8.66140921600163">
        <ele>1976.1300000000001</ele>
        <time>2017-01-06T12:15:03Z</time>
      </trkpt>
      <trkpt lat="46.498954771086574" lon="8.661443162709475">
        <ele>1976.6099999999999</ele>
        <time>2017-01-06T12:15:27Z</time>
      </trkpt>
      <trkpt lat="46.499001961201429" lon="8.661457411944866">
        <ele>1977.0899999999999</ele>
        <time>2017-01-06T12:15:48Z</time>
      </trkpt>
      <trkpt lat="46.49905426427722" lon="8.661430170759559">
        <ele>1976.6099999999999</ele>
        <time>2017-01-06T12:16:08Z</time>
      </trkpt>
      <trkpt lat="46.499076811596751" lon="8.661404605954886">
        <ele>1976.6099999999999</ele>
        <time>2017-01-06T12:16:28Z</time>
      </trkpt>
      <trkpt lat="46.499052671715617" lon="8.661392871290445">
        <ele>1976.6099999999999</ele>
        <time>2017-01-06T12:16:51Z</time>
      </trkpt>
      <trkpt lat="46.49908703751862" lon="8.661442492157221">
        <ele>1976.6099999999999</ele>
        <time>2017-01-06T12:17:09Z</time>
      </trkpt>
      <trkpt lat="46.499076057225466" lon="8.661576183512807">
        <ele>1976.6099999999999</ele>
        <time>2017-01-06T12:17:25Z</time>
      </trkpt>
      <trkpt lat="46.499044373631477" lon="8.661369737237692">
        <ele>1977.0899999999999</ele>
        <time>2017-01-06T12:17:41Z</time>
      </trkpt>
      <trkpt lat="46.499048732221127" lon="8.661359008401632">
        <ele>1977.0899999999999</ele>
        <time>2017-01-06T12:17:42Z</time>
      </trkpt>
      <trkpt lat="46.499195583164692" lon="8.661291617900133">
        <ele>1977.0899999999999</ele>
        <time>2017-01-06T12:17:58Z</time>
      </trkpt>
      <trkpt lat="46.499121822416782" lon="8.66141164675355">
        <ele>1977.0899999999999</ele>
        <time>2017-01-06T12:18:17Z</time>
      </trkpt>
      <trkpt lat="46.499122409150004" lon="8.661472499370575">
        <ele>1977.0899999999999</ele>
        <time>2017-01-06T12:18:35Z</time>
      </trkpt>
      <trkpt lat="46.499125007539988" lon="8.661568891257048">
        <ele>1977.5699999999999</ele>
        <time>2017-01-06T12:18:59Z</time>
      </trkpt>
      <trkpt lat="46.499140597879887" lon="8.6616818793118">
        <ele>1977.5699999999999</ele>
        <time>2017-01-06T12:19:22Z</time>
      </trkpt>
      <trkpt lat="46.499189464375377" lon="8.66165891289711">
        <ele>1978.53</ele>
        <time>2017-01-06T12:19:45Z</time>
      </trkpt>
      <trkpt lat="46.499200696125627" lon="8.661583978682756">
        <ele>1978.53</ele>
        <time>2017-01-06T12:20:09Z</time>
      </trkpt>
      <trkpt lat="46.499070106074214" lon="8.661589259281755">
        <ele>1978.05</ele>
        <time>2017-01-06T12:20:31Z</time>
      </trkpt>
      <trkpt lat="46.499003050848842" lon="8.661622870713472">
        <ele>1977.5699999999999</ele>
        <time>2017-01-06T12:20:52Z</time>
      </trkpt>
      <trkpt lat="46.499133557081223" lon="8.661704426631331">
        <ele>1976.6099999999999</ele>
        <time>2017-01-06T12:21:12Z</time>
      </trkpt>
      <trkpt lat="46.498944712802768" lon="8.661405192688108">
        <ele>1975.6500000000001</ele>
        <time>2017-01-06T12:38:48Z</time>
      </trkpt>
      <trkpt lat="46.498938007280231" lon="8.661363618448377">
        <ele>1975.6500000000001</ele>
        <time>2017-01-06T12:39:15Z</time>
      </trkpt>
      <trkpt lat="46.499185189604759" lon="8.661488424986601">
        <ele>1976.1300000000001</ele>
        <time>2017-01-06T12:39:57Z</time>
      </trkpt>
      <trkpt lat="46.499143112450838" lon="8.661479623988271">
        <ele>1977.0899999999999</ele>
        <time>2017-01-06T12:40:07Z</time>
      </trkpt>
      <trkpt lat="46.49913783185184" lon="8.661481132730842">
        <ele>1976.1300000000001</ele>
        <time>2017-01-06T12:40:08Z</time>
      </trkpt>
      <trkpt lat="46.499120397493243" lon="8.661489011719823">
        <ele>1975.6500000000001</ele>
        <time>2017-01-06T12:40:31Z</time>
      </trkpt>
      <trkpt lat="46.499063400551677" lon="8.661425309255719">
        <ele>1976.1300000000001</ele>
        <time>2017-01-06T12:40:52Z</time>
      </trkpt>
      <trkpt lat="46.499027526006103" lon="8.661482138559222">
        <ele>1975.6500000000001</ele>
        <time>2017-01-06T12:41:18Z</time>
      </trkpt>
      <trkpt lat="46.49904252961278" lon="8.661486580967903">
        <ele>1975.1700000000001</ele>
        <time>2017-01-06T12:41:42Z</time>
      </trkpt>
      <trkpt lat="46.499019898474216" lon="8.661469398066402">
        <ele>1975.1700000000001</ele>
        <time>2017-01-06T12:42:05Z</time>
      </trkpt>
      <trkpt lat="46.499043367803097" lon="8.661465290933847">
        <ele>1975.6500000000001</ele>
        <time>2017-01-06T12:42:30Z</time>
      </trkpt>
      <trkpt lat="46.499054851010442" lon="8.661463195458055">
        <ele>1976.1300000000001</ele>
        <time>2017-01-06T12:42:56Z</time>
      </trkpt>
      <trkpt lat="46.499000368639827" lon="8.661454059183598">
        <ele>1976.6099999999999</ele>
        <time>2017-01-06T12:43:17Z</time>
      </trkpt>
      <trkpt lat="46.499032219871879" lon="8.661476606503129">
        <ele>1977.5699999999999</ele>
        <time>2017-01-06T12:43:41Z</time>
      </trkpt>
      <trkpt lat="46.498998692259192" lon="8.661508960649371">
        <ele>1978.53</ele>
        <time>2017-01-06T12:44:01Z</time>
      </trkpt>
      <trkpt lat="46.499034566804767" lon="8.661484150215983">
        <ele>1977.5699999999999</ele>
        <time>2017-01-06T12:44:23Z</time>
      </trkpt>
      <trkpt lat="46.499058622866869" lon="8.661459591239691">
        <ele>1977.5699999999999</ele>
        <time>2017-01-06T12:44:42Z</time>
      </trkpt>
      <trkpt lat="46.499174628406763" lon="8.661505440250039">
        <ele>1977.5699999999999</ele>
        <time>2017-01-06T12:45:05Z</time>
      </trkpt>
      <trkpt lat="46.499259285628796" lon="8.661574590951204">
        <ele>1977.5699999999999</ele>
        <time>2017-01-06T12:45:28Z</time>
      </trkpt>
      <trkpt lat="46.499289711937308" lon="8.661567885428667">
        <ele>1977.0899999999999</ele>
        <time>2017-01-06T12:45:48Z</time>
      </trkpt>
      <trkpt lat="46.499354084953666" lon="8.661571238189936">
        <ele>1977.0899999999999</ele>
        <time>2017-01-06T12:46:04Z</time>
      </trkpt>
      <trkpt lat="46.499356599524617" lon="8.661545924842358">
        <ele>1977.0899999999999</ele>
        <time>2017-01-06T12:46:21Z</time>
      </trkpt>
      <trkpt lat="46.499310163781047" lon="8.661517510190606">
        <ele>1977.0899999999999</ele>
        <time>2017-01-06T12:46:41Z</time>
      </trkpt>
      <trkpt lat="46.499206479638815" lon="8.661522539332509">
        <ele>1977.0899999999999</ele>
        <time>2017-01-06T12:46:58Z</time>
      </trkpt>
      <trkpt lat="46.499213520437479" lon="8.66149228066206">
        <ele>1977.5699999999999</ele>
        <time>2017-01-06T12:47:20Z</time>
      </trkpt>
      <trkpt lat="46.499203713610768" lon="8.661502506583929">
        <ele>1977.5699999999999</ele>
        <time>2017-01-06T12:47:39Z</time>
      </trkpt>
      <trkpt lat="46.499164067208767" lon="8.661441570147872">
        <ele>1977.5699999999999</ele>
        <time>2017-01-06T12:48:02Z</time>
      </trkpt>
      <trkpt lat="46.499147638678551" lon="8.6614746786654">
        <ele>1977.5699999999999</ele>
        <time>2017-01-06T12:48:20Z</time>
      </trkpt>
      <trkpt lat="46.499149482697248" lon="8.661381890997291">
        <ele>1977.5699999999999</ele>
        <time>2017-01-06T12:48:36Z</time>
      </trkpt>
      <trkpt lat="46.499164570122957" lon="8.661325899884105">
        <ele>1977.5699999999999</ele>
        <time>2017-01-06T12:48:41Z</time>
      </trkpt>
      <trkpt lat="46.499137161299586" lon="8.661072514951229">
        <ele>1977.5699999999999</ele>
        <time>2017-01-06T12:49:03Z</time>
      </trkpt>
      <trkpt lat="46.499036578461528" lon="8.660958185791969">
        <ele>1977.0899999999999</ele>
        <time>2017-01-06T12:49:29Z</time>
      </trkpt>
      <trkpt lat="46.499156439676881" lon="8.661049464717507">
        <ele>1977.5699999999999</ele>
        <time>2017-01-06T12:49:56Z</time>
      </trkpt>
      <trkpt lat="46.49916616268456" lon="8.661100761964917">
        <ele>1977.0899999999999</ele>
        <time>2017-01-06T12:50:17Z</time>
      </trkpt>
      <trkpt lat="46.499159792438149" lon="8.66110922768712">
        <ele>1977.0899999999999</ele>
        <time>2017-01-06T12:50:18Z</time>
      </trkpt>
      <trkpt lat="46.49888763204217" lon="8.6615782789886">
        <ele>1977.0899999999999</ele>
        <time>2017-01-06T12:50:38Z</time>
      </trkpt>
      <trkpt lat="46.498808255419135" lon="8.661763016134501">
        <ele>1977.0899999999999</ele>
        <time>2017-01-06T12:50:56Z</time>
      </trkpt>
      <trkpt lat="46.498945383355021" lon="8.6615040153265">
        <ele>1977.0899999999999</ele>
        <time>2017-01-06T12:51:13Z</time>
      </trkpt>
      <trkpt lat="46.498985784128308" lon="8.661523964256048">
        <ele>1977.0899999999999</ele>
        <time>2017-01-06T12:51:32Z</time>
      </trkpt>
      <trkpt lat="46.499028783291578" lon="8.661471661180258">
        <ele>1977.5699999999999</ele>
        <time>2017-01-06T12:51:51Z</time>
      </trkpt>
      <trkpt lat="46.499177897349" lon="8.661477528512478">
        <ele>1978.05</ele>
        <time>2017-01-06T12:52:11Z</time>
      </trkpt>
      <trkpt lat="46.499112350866199" lon="8.661418939009309">
        <ele>1977.5699999999999</ele>
        <time>2017-01-06T12:52:31Z</time>
      </trkpt>
      <trkpt lat="46.499083517119288" lon="8.661391446366906">
        <ele>1977.5699999999999</ele>
        <time>2017-01-06T12:52:53Z</time>
      </trkpt>
      <trkpt lat="46.499118721112609" lon="8.661364875733852">
        <ele>1977.0899999999999</ele>
        <time>2017-01-06T12:53:12Z</time>
      </trkpt>
      <trkpt lat="46.499112183228135" lon="8.661284744739533">
        <ele>1977.0899999999999</ele>
        <time>2017-01-06T12:53:29Z</time>
      </trkpt>
      <trkpt lat="46.499075554311275" lon="8.661380298435688">
        <ele>1977.0899999999999</ele>
        <time>2017-01-06T12:53:45Z</time>
      </trkpt>
      <trkpt lat="46.499100113287568" lon="8.661363366991282">
        <ele>1977.0899999999999</ele>
        <time>2017-01-06T12:54:07Z</time>
      </trkpt>
      <trkpt lat="46.499074129387736" lon="8.661368982866406">
        <ele>1978.05</ele>
        <time>2017-01-06T12:54:28Z</time>
      </trkpt>
      <trkpt lat="46.499083768576384" lon="8.661368312314153">
        <ele>1978.53</ele>
        <time>2017-01-06T12:54:47Z</time>
      </trkpt>
      <trkpt lat="46.499128025025129" lon="8.661318775266409">
        <ele>1979.01</ele>
        <time>2017-01-06T12:55:14Z</time>
      </trkpt>
      <trkpt lat="46.49921846576035" lon="8.661189191043377">
        <ele>1978.53</ele>
        <time>2017-01-06T12:55:35Z</time>
      </trkpt>
      <trkpt lat="46.499220645055175" lon="8.661208553239703">
        <ele>1978.53</ele>
        <time>2017-01-06T12:55:52Z</time>
      </trkpt>
      <trkpt lat="46.499218214303255" lon="8.661223724484444">
        <ele>1978.05</ele>
        <time>2017-01-06T12:56:08Z</time>
      </trkpt>
      <trkpt lat="46.499089552089572" lon="8.661335958167911">
        <ele>1977.5699999999999</ele>
        <time>2017-01-06T12:56:28Z</time>
      </trkpt>
      <trkpt lat="46.499097095802426" lon="8.661310393363237">
        <ele>1977.5699999999999</ele>
        <time>2017-01-06T12:56:42Z</time>
      </trkpt>
      <trkpt lat="46.499107824638486" lon="8.661299664527178">
        <ele>1977.0899999999999</ele>
        <time>2017-01-06T12:56:55Z</time>
      </trkpt>
      <trkpt lat="46.499051079154015" lon="8.661445509642363">
        <ele>1977.5699999999999</ele>
        <time>2017-01-06T12:57:23Z</time>
      </trkpt>
      <trkpt lat="46.499006487429142" lon="8.661341238766909">
        <ele>1979.01</ele>
        <time>2017-01-06T13:12:49Z</time>
      </trkpt>
      <trkpt lat="46.499001877382398" lon="8.66134031675756">
        <ele>1979.49</ele>
        <time>2017-01-06T13:12:50Z</time>
      </trkpt>
      <trkpt lat="46.498992322012782" lon="8.661438468843699">
        <ele>1978.53</ele>
        <time>2017-01-06T13:13:10Z</time>
      </trkpt>
      <trkpt lat="46.499027274549007" lon="8.661498818546534">
        <ele>1978.05</ele>
        <time>2017-01-06T13:13:17Z</time>
      </trkpt>
      <trkpt lat="46.499038757756352" lon="8.661436792463064">
        <ele>1977.5699999999999</ele>
        <time>2017-01-06T13:13:34Z</time>
      </trkpt>
      <trkpt lat="46.499062227085233" lon="8.661321792751551">
        <ele>1977.5699999999999</ele>
        <time>2017-01-06T13:13:49Z</time>
      </trkpt>
      <trkpt lat="46.499041272327304" lon="8.661323469132185">
        <ele>1976.6099999999999</ele>
        <time>2017-01-06T13:13:59Z</time>
      </trkpt>
      <trkpt lat="46.499042697250843" lon="8.661303771659732">
        <ele>1977.5699999999999</ele>
        <time>2017-01-06T13:14:12Z</time>
      </trkpt>
      <trkpt lat="46.499036997556686" lon="8.66129974834621">
        <ele>1977.0899999999999</ele>
        <time>2017-01-06T13:14:22Z</time>
      </trkpt>
      <trkpt lat="46.499043200165033" lon="8.66129538975656">
        <ele>1977.5699999999999</ele>
        <time>2017-01-06T13:14:43Z</time>
      </trkpt>
      <trkpt lat="46.499043367803097" lon="8.661296479403973">
        <ele>1977.5699999999999</ele>
        <time>2017-01-06T13:15:14Z</time>
      </trkpt>
      <trkpt lat="46.499039093032479" lon="8.661291785538197">
        <ele>1977.5699999999999</ele>
        <time>2017-01-06T13:15:45Z</time>
      </trkpt>
      <trkpt lat="46.499044373631477" lon="8.661291534081101">
        <ele>1978.05</ele>
        <time>2017-01-06T13:16:13Z</time>
      </trkpt>
      <trkpt lat="46.499041607603431" lon="8.661284493282437">
        <ele>1977.5699999999999</ele>
        <time>2017-01-06T13:16:43Z</time>
      </trkpt>
      <trkpt lat="46.499038254842162" lon="8.661293461918831">
        <ele>1977.5699999999999</ele>
        <time>2017-01-06T13:17:21Z</time>
      </trkpt>
      <trkpt lat="46.499053090810776" lon="8.661267729476094">
        <ele>1977.0899999999999</ele>
        <time>2017-01-06T13:17:55Z</time>
      </trkpt>
      <trkpt lat="46.499049905687571" lon="8.661273932084441">
        <ele>1976.6099999999999</ele>
        <time>2017-01-06T13:18:28Z</time>
      </trkpt>
      <trkpt lat="46.499029202386737" lon="8.661284828558564">
        <ele>1976.6099999999999</ele>
        <time>2017-01-06T13:18:58Z</time>
      </trkpt>
      <trkpt lat="46.499042781069875" lon="8.661288097500801">
        <ele>1977.0899999999999</ele>
        <time>2017-01-06T13:19:32Z</time>
      </trkpt>
      <trkpt lat="46.49902543053031" lon="8.661289857700467">
        <ele>1978.53</ele>
        <time>2017-01-06T13:20:07Z</time>
      </trkpt>
      <trkpt lat="46.499029872938991" lon="8.661280972883105">
        <ele>1979.01</ele>
        <time>2017-01-06T13:20:38Z</time>
      </trkpt>
      <trkpt lat="46.499051917344332" lon="8.66128851659596">
        <ele>1978.05</ele>
        <time>2017-01-06T13:21:14Z</time>
      </trkpt>
      <trkpt lat="46.49905476719141" lon="8.66128952242434">
        <ele>1978.05</ele>
        <time>2017-01-06T13:21:48Z</time>
      </trkpt>
      <trkpt lat="46.499053509905934" lon="8.661293797194958">
        <ele>1978.05</ele>
        <time>2017-01-06T13:22:20Z</time>
      </trkpt>
      <trkpt lat="46.499045379459858" lon="8.661291785538197">
        <ele>1977.5699999999999</ele>
        <time>2017-01-06T13:22:47Z</time>
      </trkpt>
      <trkpt lat="46.499042781069875" lon="8.661290779709816">
        <ele>1978.05</ele>
        <time>2017-01-06T13:23:22Z</time>
      </trkpt>
      <trkpt lat="46.499039009213448" lon="8.661283738911152">
        <ele>1978.53</ele>
        <time>2017-01-06T13:23:51Z</time>
      </trkpt>
      <trkpt lat="46.49903230369091" lon="8.66129438392818">
        <ele>1978.53</ele>
        <time>2017-01-06T13:24:24Z</time>
      </trkpt>
      <trkpt lat="46.499029956758022" lon="8.661270495504141">
        <ele>1977.5699999999999</ele>
        <time>2017-01-06T13:24:56Z</time>
      </trkpt>
      <trkpt lat="46.499026603996754" lon="8.661270327866077">
        <ele>1978.53</ele>
        <time>2017-01-06T13:25:32Z</time>
      </trkpt>
      <trkpt lat="46.499018473550677" lon="8.661269573494792">
        <ele>1980.45</ele>
        <time>2017-01-06T13:26:07Z</time>
      </trkpt>
      <trkpt lat="46.499014282599092" lon="8.661262867972255">
        <ele>1980.45</ele>
        <time>2017-01-06T13:26:33Z</time>
      </trkpt>
      <trkpt lat="46.499020149931312" lon="8.661261275410652">
        <ele>1979.49</ele>
        <time>2017-01-06T13:26:56Z</time>
      </trkpt>
      <trkpt lat="46.499024424701929" lon="8.661270830780268">
        <ele>1980.45</ele>
        <time>2017-01-06T13:27:20Z</time>
      </trkpt>
      <trkpt lat="46.499020233750343" lon="8.661267729476094">
        <ele>1980.45</ele>
        <time>2017-01-06T13:27:49Z</time>
      </trkpt>
      <trkpt lat="46.499021742492914" lon="8.661265969276428">
        <ele>1979.97</ele>
        <time>2017-01-06T13:28:21Z</time>
      </trkpt>
      <trkpt lat="46.499023921787739" lon="8.661268232390285">
        <ele>1980.9300000000001</ele>
        <time>2017-01-06T13:28:48Z</time>
      </trkpt>
      <trkpt lat="46.499040434136987" lon="8.661285834386945">
        <ele>1981.9000000000001</ele>
        <time>2017-01-06T13:29:08Z</time>
      </trkpt>
      <trkpt lat="46.499043451622128" lon="8.66130905225873">
        <ele>1981.4100000000001</ele>
        <time>2017-01-06T13:29:20Z</time>
      </trkpt>
      <trkpt lat="46.49902543053031" lon="8.661302262917161">
        <ele>1981.4100000000001</ele>
        <time>2017-01-06T13:29:32Z</time>
      </trkpt>
      <trkpt lat="46.499019647017121" lon="8.661322463303804">
        <ele>1981.4100000000001</ele>
        <time>2017-01-06T13:29:43Z</time>
      </trkpt>
      <trkpt lat="46.499036159366369" lon="8.661289438605309">
        <ele>1981.4100000000001</ele>
        <time>2017-01-06T13:29:56Z</time>
      </trkpt>
      <trkpt lat="46.499042445793748" lon="8.661283906549215">
        <ele>1981.4100000000001</ele>
        <time>2017-01-06T13:30:06Z</time>
      </trkpt>
      <trkpt lat="46.499031633138657" lon="8.661281391978264">
        <ele>1981.4100000000001</ele>
        <time>2017-01-06T13:30:20Z</time>
      </trkpt>
      <trkpt lat="46.499033812433481" lon="8.661285918205977">
        <ele>1981.4100000000001</ele>
        <time>2017-01-06T13:30:22Z</time>
      </trkpt>
      <trkpt lat="46.49904110468924" lon="8.661284996196628">
        <ele>1979.97</ele>
        <time>2017-01-06T13:30:28Z</time>
      </trkpt>
      <trkpt lat="46.499058539047837" lon="8.661298742517829">
        <ele>1979.97</ele>
        <time>2017-01-06T13:30:45Z</time>
      </trkpt>
      <trkpt lat="46.499092150479555" lon="8.661296060308814">
        <ele>1979.49</ele>
        <time>2017-01-06T13:31:08Z</time>
      </trkpt>
      <trkpt lat="46.499065244570374" lon="8.661291701719165">
        <ele>1979.49</ele>
        <time>2017-01-06T13:31:37Z</time>
      </trkpt>
      <trkpt lat="46.49903766810894" lon="8.66128901951015">
        <ele>1980.45</ele>
        <time>2017-01-06T13:31:50Z</time>
      </trkpt>
      <trkpt lat="46.499050157144666" lon="8.661276111379266">
        <ele>1979.97</ele>
        <time>2017-01-06T13:32:00Z</time>
      </trkpt>
      <trkpt lat="46.499050911515951" lon="8.661289857700467">
        <ele>1981.4100000000001</ele>
        <time>2017-01-06T13:32:08Z</time>
      </trkpt>
      <trkpt lat="46.499038506299257" lon="8.661294048652053">
        <ele>1981.4100000000001</ele>
        <time>2017-01-06T13:32:21Z</time>
      </trkpt>
      <trkpt lat="46.499041188508272" lon="8.661310225725174">
        <ele>1983.3399999999999</ele>
        <time>2017-01-06T13:32:31Z</time>
      </trkpt>
      <trkpt lat="46.499033644795418" lon="8.661308381706476">
        <ele>1981.4100000000001</ele>
        <time>2017-01-06T13:32:44Z</time>
      </trkpt>
      <trkpt lat="46.499038925394416" lon="8.661303604021668">
        <ele>1981.4100000000001</ele>
        <time>2017-01-06T13:33:01Z</time>
      </trkpt>
      <trkpt lat="46.499030962586403" lon="8.661319110542536">
        <ele>1981.4100000000001</ele>
        <time>2017-01-06T13:33:12Z</time>
      </trkpt>
      <trkpt lat="46.499036075547338" lon="8.661323972046375">
        <ele>1981.4100000000001</ele>
        <time>2017-01-06T13:33:28Z</time>
      </trkpt>
      <trkpt lat="46.499038338661194" lon="8.661301760002971">
        <ele>1981.4100000000001</ele>
        <time>2017-01-06T13:33:48Z</time>
      </trkpt>
      <trkpt lat="46.499034399166703" lon="8.66131978109479">
        <ele>1981.4100000000001</ele>
        <time>2017-01-06T13:34:04Z</time>
      </trkpt>
      <trkpt lat="46.499024257063866" lon="8.661343669518828">
        <ele>1980.9300000000001</ele>
        <time>2017-01-06T13:34:18Z</time>
      </trkpt>
      <trkpt lat="46.49903129786253" lon="8.66133201867342">
        <ele>1981.4100000000001</ele>
        <time>2017-01-06T13:34:34Z</time>
      </trkpt>
      <trkpt lat="46.499013612046838" lon="8.661332605406642">
        <ele>1981.4100000000001</ele>
        <time>2017-01-06T13:34:45Z</time>
      </trkpt>
      <trkpt lat="46.499009504914284" lon="8.661331348121166">
        <ele>1981.9000000000001</ele>
        <time>2017-01-06T13:34:49Z</time>
      </trkpt>
      <trkpt lat="46.498940857127309" lon="8.661253144964576">
        <ele>1980.9300000000001</ele>
        <time>2017-01-06T13:34:59Z</time>
      </trkpt>
      <trkpt lat="46.498929038643837" lon="8.661262448877096">
        <ele>1981.9000000000001</ele>
        <time>2017-01-06T13:35:03Z</time>
      </trkpt>
      <trkpt lat="46.498880842700601" lon="8.661293964833021">
        <ele>1983.8199999999999</ele>
        <time>2017-01-06T13:35:12Z</time>
      </trkpt>
      <trkpt lat="46.498867012560368" lon="8.661308968439698">
        <ele>1984.78</ele>
        <time>2017-01-06T13:35:15Z</time>
      </trkpt>
      <trkpt lat="46.498818900436163" lon="8.661367725580931">
        <ele>1986.7</ele>
        <time>2017-01-06T13:35:24Z</time>
      </trkpt>
      <trkpt lat="46.498793754726648" lon="8.661419693380594">
        <ele>1987.6600000000001</ele>
        <time>2017-01-06T13:35:33Z</time>
      </trkpt>
      <trkpt lat="46.498791156336665" lon="8.661416843533516">
        <ele>1987.1800000000001</ele>
        <time>2017-01-06T13:35:42Z</time>
      </trkpt>
      <trkpt lat="46.498765591531992" lon="8.66146738640964">
        <ele>1988.1400000000001</ele>
        <time>2017-01-06T13:35:50Z</time>
      </trkpt>
      <trkpt lat="46.49873566813767" lon="8.661525975912809">
        <ele>1989.5899999999999</ele>
        <time>2017-01-06T13:35:59Z</time>
      </trkpt>
      <trkpt lat="46.498709181323647" lon="8.6615817155689">
        <ele>1991.03</ele>
        <time>2017-01-06T13:36:07Z</time>
      </trkpt>
      <trkpt lat="46.498664170503616" lon="8.66163837723434">
        <ele>1991.99</ele>
        <time>2017-01-06T13:36:18Z</time>
      </trkpt>
      <trkpt lat="46.498670456930995" lon="8.66162764839828">
        <ele>1991.99</ele>
        <time>2017-01-06T13:36:29Z</time>
      </trkpt>
      <trkpt lat="46.498660650104284" lon="8.66164080798626">
        <ele>1991.99</ele>
        <time>2017-01-06T13:36:45Z</time>
      </trkpt>
      <trkpt lat="46.4986477419734" lon="8.661642735823989">
        <ele>1991.99</ele>
        <time>2017-01-06T13:37:01Z</time>
      </trkpt>
      <trkpt lat="46.498651430010796" lon="8.661654302850366">
        <ele>1991.99</ele>
        <time>2017-01-06T13:37:03Z</time>
      </trkpt>
      <trkpt lat="46.498621422797441" lon="8.661724962294102">
        <ele>1991.51</ele>
        <time>2017-01-06T13:37:12Z</time>
      </trkpt>
      <trkpt lat="46.498619075864553" lon="8.66172437556088">
        <ele>1991.51</ele>
        <time>2017-01-06T13:37:19Z</time>
      </trkpt>
      <trkpt lat="46.498608263209462" lon="8.661739798262715">
        <ele>1991.51</ele>
        <time>2017-01-06T13:37:28Z</time>
      </trkpt>
      <trkpt lat="46.498586470261216" lon="8.661816995590925">
        <ele>1991.03</ele>
        <time>2017-01-06T13:37:35Z</time>
      </trkpt>
      <trkpt lat="46.498538441956043" lon="8.661937359720469">
        <ele>1990.0699999999999</ele>
        <time>2017-01-06T13:37:43Z</time>
      </trkpt>
      <trkpt lat="46.498440625146031" lon="8.662090916186571">
        <ele>1988.6199999999999</ele>
        <time>2017-01-06T13:37:56Z</time>
      </trkpt>
      <trkpt lat="46.498384885489941" lon="8.662149086594582">
        <ele>1988.6199999999999</ele>
        <time>2017-01-06T13:38:03Z</time>
      </trkpt>
      <trkpt lat="46.498340461403131" lon="8.662162162363529">
        <ele>1989.0999999999999</ele>
        <time>2017-01-06T13:38:09Z</time>
      </trkpt>
      <trkpt lat="46.498318081721663" lon="8.66219837218523">
        <ele>1988.6199999999999</ele>
        <time>2017-01-06T13:38:18Z</time>
      </trkpt>
      <trkpt lat="46.498322943225503" lon="8.662187224254012">
        <ele>1988.6199999999999</ele>
        <time>2017-01-06T13:38:27Z</time>
      </trkpt>
      <trkpt lat="46.498284721747041" lon="8.662253441289067">
        <ele>1987.1800000000001</ele>
        <time>2017-01-06T13:38:32Z</time>
      </trkpt>
      <trkpt lat="46.498225713148713" lon="8.662331979721785">
        <ele>1986.7</ele>
        <time>2017-01-06T13:38:40Z</time>
      </trkpt>
      <trkpt lat="46.498175421729684" lon="8.66239869967103">
        <ele>1986.22</ele>
        <time>2017-01-06T13:38:47Z</time>
      </trkpt>
      <trkpt lat="46.498158071190119" lon="8.662413032725453">
        <ele>1985.74</ele>
        <time>2017-01-06T13:38:49Z</time>
      </trkpt>
      <trkpt lat="46.498068049550056" lon="8.662502635270357">
        <ele>1984.3</ele>
        <time>2017-01-06T13:38:59Z</time>
      </trkpt>
      <trkpt lat="46.497991941869259" lon="8.662575138732791">
        <ele>1982.3800000000001</ele>
        <time>2017-01-06T13:39:07Z</time>
      </trkpt>
      <trkpt lat="46.497953217476606" lon="8.662595171481371">
        <ele>1981.4100000000001</ele>
        <time>2017-01-06T13:39:12Z</time>
      </trkpt>
      <trkpt lat="46.497929245233536" lon="8.66259609349072">
        <ele>1980.9300000000001</ele>
        <time>2017-01-06T13:39:15Z</time>
      </trkpt>
      <trkpt lat="46.497837128117681" lon="8.662606822326779">
        <ele>1981.9000000000001</ele>
        <time>2017-01-06T13:39:25Z</time>
      </trkpt>
      <trkpt lat="46.497791362926364" lon="8.662610091269016">
        <ele>1982.3800000000001</ele>
        <time>2017-01-06T13:39:34Z</time>
      </trkpt>
      <trkpt lat="46.497762277722359" lon="8.662624508142471">
        <ele>1982.8599999999999</ele>
        <time>2017-01-06T13:39:44Z</time>
      </trkpt>
      <trkpt lat="46.497735874727368" lon="8.662618389353156">
        <ele>1982.3800000000001</ele>
        <time>2017-01-06T13:39:54Z</time>
      </trkpt>
      <trkpt lat="46.497717099264264" lon="8.66260539740324">
        <ele>1982.8599999999999</ele>
        <time>2017-01-06T13:40:04Z</time>
      </trkpt>
      <trkpt lat="46.497709052637219" lon="8.662616545334458">
        <ele>1981.9000000000001</ele>
        <time>2017-01-06T13:40:15Z</time>
      </trkpt>
      <trkpt lat="46.497708633542061" lon="8.662624005228281">
        <ele>1982.3800000000001</ele>
        <time>2017-01-06T13:40:26Z</time>
      </trkpt>
      <trkpt lat="46.497712656855583" lon="8.662624172866345">
        <ele>1983.8199999999999</ele>
        <time>2017-01-06T13:40:35Z</time>
      </trkpt>
      <trkpt lat="46.497711483389139" lon="8.662626100704074">
        <ele>1981.9000000000001</ele>
        <time>2017-01-06T13:40:45Z</time>
      </trkpt>
      <trkpt lat="46.49769539013505" lon="8.662628531455994">
        <ele>1981.9000000000001</ele>
        <time>2017-01-06T13:40:56Z</time>
      </trkpt>
      <trkpt lat="46.497685834765434" lon="8.662610175088048">
        <ele>1981.9000000000001</ele>
        <time>2017-01-06T13:41:08Z</time>
      </trkpt>
      <trkpt lat="46.497696228325367" lon="8.662612102925777">
        <ele>1981.4100000000001</ele>
        <time>2017-01-06T13:41:27Z</time>
      </trkpt>
      <trkpt lat="46.497697150334716" lon="8.662603469565511">
        <ele>1981.4100000000001</ele>
        <time>2017-01-06T13:41:43Z</time>
      </trkpt>
      <trkpt lat="46.497713997960091" lon="8.662602882832289">
        <ele>1981.9000000000001</ele>
        <time>2017-01-06T13:42:03Z</time>
      </trkpt>
      <trkpt lat="46.497696312144399" lon="8.662623837590218">
        <ele>1981.4100000000001</ele>
        <time>2017-01-06T13:42:13Z</time>
      </trkpt>
      <trkpt lat="46.497680135071278" lon="8.66263322532177">
        <ele>1981.9000000000001</ele>
        <time>2017-01-06T13:42:24Z</time>
      </trkpt>
      <trkpt lat="46.497691869735718" lon="8.662608498707414">
        <ele>1981.9000000000001</ele>
        <time>2017-01-06T13:42:35Z</time>
      </trkpt>
      <trkpt lat="46.497701425105333" lon="8.662607492879033">
        <ele>1981.9000000000001</ele>
        <time>2017-01-06T13:42:50Z</time>
      </trkpt>
      <trkpt lat="46.497702514752746" lon="8.662616545334458">
        <ele>1981.4100000000001</ele>
        <time>2017-01-06T13:43:03Z</time>
      </trkpt>
      <trkpt lat="46.497699078172445" lon="8.662626268342137">
        <ele>1981.4100000000001</ele>
        <time>2017-01-06T13:43:17Z</time>
      </trkpt>
      <trkpt lat="46.497697904706001" lon="8.662620987743139">
        <ele>1980.9300000000001</ele>
        <time>2017-01-06T13:43:33Z</time>
      </trkpt>
      <trkpt lat="46.497702095657587" lon="8.662627190351486">
        <ele>1980.9300000000001</ele>
        <time>2017-01-06T13:43:50Z</time>
      </trkpt>
      <trkpt lat="46.497704023495317" lon="8.662622328847647">
        <ele>1981.4100000000001</ele>
        <time>2017-01-06T13:44:04Z</time>
      </trkpt>
      <trkpt lat="46.497701089829206" lon="8.662611935287714">
        <ele>1981.4100000000001</ele>
        <time>2017-01-06T13:44:17Z</time>
      </trkpt>
      <trkpt lat="46.497709974646568" lon="8.662627944722772">
        <ele>1981.9000000000001</ele>
        <time>2017-01-06T13:44:30Z</time>
      </trkpt>
      <trkpt lat="46.49767929688096" lon="8.662610510364175">
        <ele>1981.4100000000001</ele>
        <time>2017-01-06T13:44:45Z</time>
      </trkpt>
      <trkpt lat="46.497671082615852" lon="8.662594249472022">
        <ele>1981.4100000000001</ele>
        <time>2017-01-06T13:44:57Z</time>
      </trkpt>
      <trkpt lat="46.497674016281962" lon="8.662592573091388">
        <ele>1981.4100000000001</ele>
        <time>2017-01-06T13:45:14Z</time>
      </trkpt>
      <trkpt lat="46.497675776481628" lon="8.662591399624944">
        <ele>1981.4100000000001</ele>
        <time>2017-01-06T13:45:24Z</time>
      </trkpt>
      <trkpt lat="46.497671836987138" lon="8.662602882832289">
        <ele>1981.4100000000001</ele>
        <time>2017-01-06T13:45:33Z</time>
      </trkpt>
      <trkpt lat="46.497665466740727" lon="8.6626229993999">
        <ele>1980.9300000000001</ele>
        <time>2017-01-06T13:45:36Z</time>
      </trkpt>
      <trkpt lat="46.4976357948035" lon="8.662638338282704">
        <ele>1980.9300000000001</ele>
        <time>2017-01-06T13:45:39Z</time>
      </trkpt>
      <trkpt lat="46.497605117037892" lon="8.662652587518096">
        <ele>1980.9300000000001</ele>
        <time>2017-01-06T13:45:42Z</time>
      </trkpt>
      <trkpt lat="46.497560776770115" lon="8.662694748491049">
        <ele>1980.45</ele>
        <time>2017-01-06T13:45:47Z</time>
      </trkpt>
      <trkpt lat="46.497515179216862" lon="8.662751745432615">
        <ele>1980.45</ele>
        <time>2017-01-06T13:45:53Z</time>
      </trkpt>
      <trkpt lat="46.497488860040903" lon="8.662784434854984">
        <ele>1980.45</ele>
        <time>2017-01-06T13:45:56Z</time>
      </trkpt>
      <trkpt lat="46.497402945533395" lon="8.662838581949472">
        <ele>1980.45</ele>
        <time>2017-01-06T13:46:06Z</time>
      </trkpt>
      <trkpt lat="46.497364388778806" lon="8.66283455863595">
        <ele>1980.45</ele>
        <time>2017-01-06T13:46:10Z</time>
      </trkpt>
      <trkpt lat="46.497309571132064" lon="8.662827517837286">
        <ele>1981.4100000000001</ele>
        <time>2017-01-06T13:46:17Z</time>
      </trkpt>
      <trkpt lat="46.497247712686658" lon="8.662836402654648">
        <ele>1981.9000000000001</ele>
        <time>2017-01-06T13:46:24Z</time>
      </trkpt>
      <trkpt lat="46.497151153162122" lon="8.662835983559489">
        <ele>1982.3800000000001</ele>
        <time>2017-01-06T13:46:34Z</time>
      </trkpt>
      <trkpt lat="46.497093234211206" lon="8.662867331877351">
        <ele>1982.8599999999999</ele>
        <time>2017-01-06T13:46:40Z</time>
      </trkpt>
      <trkpt lat="46.497064651921391" lon="8.662897003814578">
        <ele>1982.3800000000001</ele>
        <time>2017-01-06T13:46:43Z</time>
      </trkpt>
      <trkpt lat="46.497027855366468" lon="8.662923825904727">
        <ele>1982.3800000000001</ele>
        <time>2017-01-06T13:46:47Z</time>
      </trkpt>
      <trkpt lat="46.496973875910044" lon="8.662988282740116">
        <ele>1982.3800000000001</ele>
        <time>2017-01-06T13:46:53Z</time>
      </trkpt>
      <trkpt lat="46.496925428509712" lon="8.663030276075006">
        <ele>1981.9000000000001</ele>
        <time>2017-01-06T13:46:58Z</time>
      </trkpt>
      <trkpt lat="46.496898019686341" lon="8.663066737353802">
        <ele>1981.9000000000001</ele>
        <time>2017-01-06T13:47:01Z</time>
      </trkpt>
      <trkpt lat="46.496860720217228" lon="8.663096660748124">
        <ele>1981.9000000000001</ele>
        <time>2017-01-06T13:47:05Z</time>
      </trkpt>
      <trkpt lat="46.496832221746445" lon="8.663119962438941">
        <ele>1981.9000000000001</ele>
        <time>2017-01-06T13:47:08Z</time>
      </trkpt>
      <trkpt lat="46.49674161337316" lon="8.663197914138436">
        <ele>1981.9000000000001</ele>
        <time>2017-01-06T13:47:18Z</time>
      </trkpt>
      <trkpt lat="46.496714623644948" lon="8.663220210000873">
        <ele>1981.9000000000001</ele>
        <time>2017-01-06T13:47:21Z</time>
      </trkpt>
      <trkpt lat="46.496652262285352" lon="8.66325625218451">
        <ele>1982.3800000000001</ele>
        <time>2017-01-06T13:47:27Z</time>
      </trkpt>
      <trkpt lat="46.496586631983519" lon="8.66327092051506">
        <ele>1981.9000000000001</ele>
        <time>2017-01-06T13:47:33Z</time>
      </trkpt>
      <trkpt lat="46.496567102149129" lon="8.663257593289018">
        <ele>1982.8599999999999</ele>
        <time>2017-01-06T13:47:43Z</time>
      </trkpt>
      <trkpt lat="46.496544890105724" lon="8.663260610774159">
        <ele>1982.8599999999999</ele>
        <time>2017-01-06T13:47:47Z</time>
      </trkpt>
      <trkpt lat="46.496482361108065" lon="8.66326404735446">
        <ele>1982.3800000000001</ele>
        <time>2017-01-06T13:47:53Z</time>
      </trkpt>
      <trkpt lat="46.496383119374514" lon="8.663185006007552">
        <ele>1982.8599999999999</ele>
        <time>2017-01-06T13:48:05Z</time>
      </trkpt>
      <trkpt lat="46.496318243443966" lon="8.663114011287689">
        <ele>1981.9000000000001</ele>
        <time>2017-01-06T13:48:14Z</time>
      </trkpt>
      <trkpt lat="46.496309777721763" lon="8.663115771487355">
        <ele>1981.9000000000001</ele>
        <time>2017-01-06T13:48:15Z</time>
      </trkpt>
      <trkpt lat="46.49624808691442" lon="8.663165476173163">
        <ele>1982.3800000000001</ele>
        <time>2017-01-06T13:48:23Z</time>
      </trkpt>
      <trkpt lat="46.496223025023937" lon="8.66316388361156">
        <ele>1983.3399999999999</ele>
        <time>2017-01-06T13:48:34Z</time>
      </trkpt>
      <trkpt lat="46.496224449947476" lon="8.663142090663314">
        <ele>1983.3399999999999</ele>
        <time>2017-01-06T13:48:48Z</time>
      </trkpt>
      <trkpt lat="46.496238112449646" lon="8.663127757608891">
        <ele>1982.8599999999999</ele>
        <time>2017-01-06T13:48:50Z</time>
      </trkpt>
      <trkpt lat="46.496283710002899" lon="8.663108060136437">
        <ele>1982.3800000000001</ele>
        <time>2017-01-06T13:48:54Z</time>
      </trkpt>
      <trkpt lat="46.496358476579189" lon="8.663100516423583">
        <ele>1981.9000000000001</ele>
        <time>2017-01-06T13:49:05Z</time>
      </trkpt>
      <trkpt lat="46.49635311216116" lon="8.663090458139777">
        <ele>1982.3800000000001</ele>
        <time>2017-01-06T13:49:11Z</time>
      </trkpt>
      <trkpt lat="46.49642301723361" lon="8.662932543084025">
        <ele>1979.01</ele>
        <time>2017-01-06T13:49:23Z</time>
      </trkpt>
      <trkpt lat="46.496465681120753" lon="8.662818381562829">
        <ele>1976.6099999999999</ele>
        <time>2017-01-06T13:49:31Z</time>
      </trkpt>
      <trkpt lat="46.49647431448102" lon="8.662791978567839">
        <ele>1976.1300000000001</ele>
        <time>2017-01-06T13:49:33Z</time>
      </trkpt>
      <trkpt lat="46.496481187641621" lon="8.662756187841296">
        <ele>1975.6500000000001</ele>
        <time>2017-01-06T13:49:36Z</time>
      </trkpt>
      <trkpt lat="46.496501052752137" lon="8.662595255300403">
        <ele>1974.2</ele>
        <time>2017-01-06T13:49:46Z</time>
      </trkpt>
      <trkpt lat="46.496515888720751" lon="8.662485117092729">
        <ele>1972.28</ele>
        <time>2017-01-06T13:49:54Z</time>
      </trkpt>
      <trkpt lat="46.496515385806561" lon="8.662435160949826">
        <ele>1971.3199999999999</ele>
        <time>2017-01-06T13:50:04Z</time>
      </trkpt>
      <trkpt lat="46.49652510881424" lon="8.662400124594569">
        <ele>1970.8399999999999</ele>
        <time>2017-01-06T13:50:06Z</time>
      </trkpt>
      <trkpt lat="46.496533574536443" lon="8.662281604483724">
        <ele>1969.4000000000001</ele>
        <time>2017-01-06T13:50:13Z</time>
      </trkpt>
      <trkpt lat="46.496502812951803" lon="8.662140537053347">
        <ele>1966.51</ele>
        <time>2017-01-06T13:50:22Z</time>
      </trkpt>
      <trkpt lat="46.49648554623127" lon="8.661993350833654">
        <ele>1963.6300000000001</ele>
        <time>2017-01-06T13:50:31Z</time>
      </trkpt>
      <trkpt lat="46.496495604515076" lon="8.66187441162765">
        <ele>1961.71</ele>
        <time>2017-01-06T13:50:38Z</time>
      </trkpt>
      <trkpt lat="46.49648655205965" lon="8.661741055548191">
        <ele>1959.78</ele>
        <time>2017-01-06T13:50:46Z</time>
      </trkpt>
      <trkpt lat="46.496487222611904" lon="8.661609292030335">
        <ele>1957.8599999999999</ele>
        <time>2017-01-06T13:50:54Z</time>
      </trkpt>
      <trkpt lat="46.496495353057981" lon="8.661519857123494">
        <ele>1956.4200000000001</ele>
        <time>2017-01-06T13:51:00Z</time>
      </trkpt>
      <trkpt lat="46.496567269787192" lon="8.661412317305803">
        <ele>1956.9000000000001</ele>
        <time>2017-01-06T13:51:10Z</time>
      </trkpt>
      <trkpt lat="46.496610855683684" lon="8.661278793588281">
        <ele>1956.4200000000001</ele>
        <time>2017-01-06T13:51:21Z</time>
      </trkpt>
      <trkpt lat="46.4966463111341" lon="8.661160273477435">
        <ele>1956.9000000000001</ele>
        <time>2017-01-06T13:51:31Z</time>
      </trkpt>
      <trkpt lat="46.496702218428254" lon="8.661082908511162">
        <ele>1957.8599999999999</ele>
        <time>2017-01-06T13:51:41Z</time>
      </trkpt>
      <trkpt lat="46.496768267825246" lon="8.660998838022351">
        <ele>1959.3</ele>
        <time>2017-01-06T13:51:52Z</time>
      </trkpt>
      <trkpt lat="46.49681051261723" lon="8.660962712019682">
        <ele>1961.23</ele>
        <time>2017-01-06T13:52:02Z</time>
      </trkpt>
      <trkpt lat="46.496873376891017" lon="8.660946702584624">
        <ele>1962.6700000000001</ele>
        <time>2017-01-06T13:52:13Z</time>
      </trkpt>
      <trkpt lat="46.496901456266642" lon="8.660937985405326">
        <ele>1963.1500000000001</ele>
        <time>2017-01-06T13:52:21Z</time>
      </trkpt>
      <trkpt lat="46.496926434338093" lon="8.660898925736547">
        <ele>1964.5899999999999</ele>
        <time>2017-01-06T13:52:29Z</time>
      </trkpt>
      <trkpt lat="46.496950155124068" lon="8.660841174423695">
        <ele>1965.0699999999999</ele>
        <time>2017-01-06T13:52:38Z</time>
      </trkpt>
      <trkpt lat="46.49697907269001" lon="8.660794906318188">
        <ele>1965.0699999999999</ele>
        <time>2017-01-06T13:52:44Z</time>
      </trkpt>
      <trkpt lat="46.49701620452106" lon="8.660757271572948">
        <ele>1965.0699999999999</ele>
        <time>2017-01-06T13:52:54Z</time>
      </trkpt>
      <trkpt lat="46.497044451534748" lon="8.660737406462431">
        <ele>1965.0699999999999</ele>
        <time>2017-01-06T13:53:01Z</time>
      </trkpt>
      <trkpt lat="46.497051324695349" lon="8.660706393420696">
        <ele>1964.5899999999999</ele>
        <time>2017-01-06T13:53:13Z</time>
      </trkpt>
      <trkpt lat="46.497053001075983" lon="8.660631291568279">
        <ele>1963.6300000000001</ele>
        <time>2017-01-06T13:53:18Z</time>
      </trkpt>
      <trkpt lat="46.497057862579823" lon="8.660583514720202">
        <ele>1963.6300000000001</ele>
        <time>2017-01-06T13:53:27Z</time>
      </trkpt>
      <trkpt lat="46.497049732133746" lon="8.660599524155259">
        <ele>1963.6300000000001</ele>
        <time>2017-01-06T13:53:38Z</time>
      </trkpt>
      <trkpt lat="46.497063394635916" lon="8.660589130595326">
        <ele>1963.6300000000001</ele>
        <time>2017-01-06T13:53:42Z</time>
      </trkpt>
      <trkpt lat="46.497051659971476" lon="8.660712009295821">
        <ele>1964.5899999999999</ele>
        <time>2017-01-06T13:53:52Z</time>
      </trkpt>
      <trkpt lat="46.49703380651772" lon="8.660754589363933">
        <ele>1965.0699999999999</ele>
        <time>2017-01-06T13:54:02Z</time>
      </trkpt>
      <trkpt lat="46.497045708820224" lon="8.660737657919526">
        <ele>1965.55</ele>
        <time>2017-01-06T13:54:18Z</time>
      </trkpt>
      <trkpt lat="46.497061969712377" lon="8.660730700939894">
        <ele>1965.55</ele>
        <time>2017-01-06T13:54:34Z</time>
      </trkpt>
      <trkpt lat="46.497093150392175" lon="8.660738579928875">
        <ele>1965.55</ele>
        <time>2017-01-06T13:54:47Z</time>
      </trkpt>
      <trkpt lat="46.497074877843261" lon="8.660730198025703">
        <ele>1965.55</ele>
        <time>2017-01-06T13:55:02Z</time>
      </trkpt>
      <trkpt lat="46.497083762660623" lon="8.660736735910177">
        <ele>1965.55</ele>
        <time>2017-01-06T13:55:13Z</time>
      </trkpt>
      <trkpt lat="46.497079320251942" lon="8.660730617120862">
        <ele>1965.55</ele>
        <time>2017-01-06T13:55:30Z</time>
      </trkpt>
      <trkpt lat="46.497096754610538" lon="8.660743860527873">
        <ele>1966.03</ele>
        <time>2017-01-06T13:55:53Z</time>
      </trkpt>
      <trkpt lat="46.497104968875647" lon="8.660744195804">
        <ele>1966.03</ele>
        <time>2017-01-06T13:56:02Z</time>
      </trkpt>
      <trkpt lat="46.497112261131406" lon="8.660748805850744">
        <ele>1966.03</ele>
        <time>2017-01-06T13:56:22Z</time>
      </trkpt>
      <trkpt lat="46.497071944177151" lon="8.660755511373282">
        <ele>1966.03</ele>
        <time>2017-01-06T13:56:38Z</time>
      </trkpt>
      <trkpt lat="46.497074039652944" lon="8.660763641819358">
        <ele>1966.03</ele>
        <time>2017-01-06T13:56:54Z</time>
      </trkpt>
      <trkpt lat="46.497076638042927" lon="8.660746291279793">
        <ele>1965.55</ele>
        <time>2017-01-06T13:57:05Z</time>
      </trkpt>
      <trkpt lat="46.49708267301321" lon="8.660755762830377">
        <ele>1965.55</ele>
        <time>2017-01-06T13:57:19Z</time>
      </trkpt>
      <trkpt lat="46.497096167877316" lon="8.660753248259425">
        <ele>1965.55</ele>
        <time>2017-01-06T13:57:30Z</time>
      </trkpt>
      <trkpt lat="46.497095245867968" lon="8.660727180540562">
        <ele>1966.03</ele>
        <time>2017-01-06T13:57:32Z</time>
      </trkpt>
      <trkpt lat="46.49709683842957" lon="8.660666327923536">
        <ele>1964.5899999999999</ele>
        <time>2017-01-06T13:57:41Z</time>
      </trkpt>
      <trkpt lat="46.497112177312374" lon="8.660671776160598">
        <ele>1964.5899999999999</ele>
        <time>2017-01-06T13:57:52Z</time>
      </trkpt>
      <trkpt lat="46.497125085443258" lon="8.660650653764606">
        <ele>1965.0699999999999</ele>
        <time>2017-01-06T13:58:10Z</time>
      </trkpt>
      <trkpt lat="46.497121397405863" lon="8.660622071474791">
        <ele>1964.5899999999999</ele>
        <time>2017-01-06T13:58:12Z</time>
      </trkpt>
      <trkpt lat="46.497127180919051" lon="8.660597009584308">
        <ele>1964.1099999999999</ele>
        <time>2017-01-06T13:58:14Z</time>
      </trkpt>
      <trkpt lat="46.49713053368032" lon="8.660569852218032">
        <ele>1963.6300000000001</ele>
        <time>2017-01-06T13:58:16Z</time>
      </trkpt>
      <trkpt lat="46.49718476459384" lon="8.660435909405351">
        <ele>1960.75</ele>
        <time>2017-01-06T13:58:26Z</time>
      </trkpt>
      <trkpt lat="46.497264141216874" lon="8.66036499850452">
        <ele>1958.8199999999999</ele>
        <time>2017-01-06T13:58:35Z</time>
      </trkpt>
      <trkpt lat="46.497344020754099" lon="8.660324765369296">
        <ele>1958.8199999999999</ele>
        <time>2017-01-06T13:58:44Z</time>
      </trkpt>
      <trkpt lat="46.497360533103347" lon="8.660308923572302">
        <ele>1956.9000000000001</ele>
        <time>2017-01-06T13:58:46Z</time>
      </trkpt>
      <trkpt lat="46.497379895299673" lon="8.660298613831401">
        <ele>1956.4200000000001</ele>
        <time>2017-01-06T13:58:51Z</time>
      </trkpt>
      <trkpt lat="46.497427672147751" lon="8.660275312140584">
        <ele>1955.46</ele>
        <time>2017-01-06T13:58:57Z</time>
      </trkpt>
      <trkpt lat="46.497467905282974" lon="8.660252681002021">
        <ele>1954.98</ele>
        <time>2017-01-06T13:59:02Z</time>
      </trkpt>
      <trkpt lat="46.497528087347746" lon="8.660178249701858">
        <ele>1953.0599999999999</ele>
        <time>2017-01-06T13:59:13Z</time>
      </trkpt>
      <trkpt lat="46.497587095946074" lon="8.660111110657454">
        <ele>1951.6099999999999</ele>
        <time>2017-01-06T13:59:24Z</time>
      </trkpt>
      <trkpt lat="46.497598411515355" lon="8.660099124535918">
        <ele>1951.1300000000001</ele>
        <time>2017-01-06T13:59:33Z</time>
      </trkpt>
      <trkpt lat="46.497629508376122" lon="8.660035505890846">
        <ele>1950.1700000000001</ele>
        <time>2017-01-06T13:59:41Z</time>
      </trkpt>
      <trkpt lat="46.497661359608173" lon="8.659956799820066">
        <ele>1949.21</ele>
        <time>2017-01-06T13:59:50Z</time>
      </trkpt>
      <trkpt lat="46.497681392356753" lon="8.659930313006043">
        <ele>1949.21</ele>
        <time>2017-01-06T13:59:53Z</time>
      </trkpt>
      <trkpt lat="46.497690277174115" lon="8.659882619976997">
        <ele>1948.25</ele>
        <time>2017-01-06T13:59:57Z</time>
      </trkpt>
      <trkpt lat="46.497720452025533" lon="8.659760160371661">
        <ele>1946.8099999999999</ele>
        <time>2017-01-06T14:00:06Z</time>
      </trkpt>
      <trkpt lat="46.497723553329706" lon="8.659720765426755">
        <ele>1946.3299999999999</ele>
        <time>2017-01-06T14:00:09Z</time>
      </trkpt>
      <trkpt lat="46.49774526245892" lon="8.65963501855731">
        <ele>1944.8800000000001</ele>
        <time>2017-01-06T14:00:16Z</time>
      </trkpt>
      <trkpt lat="46.497761104255915" lon="8.659599982202053">
        <ele>1944.4000000000001</ele>
        <time>2017-01-06T14:00:19Z</time>
      </trkpt>
      <trkpt lat="46.497770408168435" lon="8.659570896998048">
        <ele>1944.4000000000001</ele>
        <time>2017-01-06T14:00:21Z</time>
      </trkpt>
      <trkpt lat="46.497797314077616" lon="8.659540051594377">
        <ele>1943.4400000000001</ele>
        <time>2017-01-06T14:00:24Z</time>
      </trkpt>
      <trkpt lat="46.497863363474607" lon="8.659469056874514">
        <ele>1942.96</ele>
        <time>2017-01-06T14:00:33Z</time>
      </trkpt>
      <trkpt lat="46.49789672344923" lon="8.659438965842128">
        <ele>1942</ele>
        <time>2017-01-06T14:00:37Z</time>
      </trkpt>
      <trkpt lat="46.497956570237875" lon="8.659363109618425">
        <ele>1940.5599999999999</ele>
        <time>2017-01-06T14:00:46Z</time>
      </trkpt>
      <trkpt lat="46.497986325994134" lon="8.659270741045475">
        <ele>1939.1199999999999</ele>
        <time>2017-01-06T14:00:57Z</time>
      </trkpt>
      <trkpt lat="46.498000910505652" lon="8.659256743267179">
        <ele>1939.1199999999999</ele>
        <time>2017-01-06T14:01:04Z</time>
      </trkpt>
      <trkpt lat="46.49804919026792" lon="8.659180719405413">
        <ele>1938.6400000000001</ele>
        <time>2017-01-06T14:01:12Z</time>
      </trkpt>
      <trkpt lat="46.498070061206818" lon="8.65915666334331">
        <ele>1937.6700000000001</ele>
        <time>2017-01-06T14:01:15Z</time>
      </trkpt>
      <trkpt lat="46.498116245493293" lon="8.659127494320273">
        <ele>1937.6700000000001</ele>
        <time>2017-01-06T14:01:24Z</time>
      </trkpt>
      <trkpt lat="46.498135775327682" lon="8.659045267850161">
        <ele>1936.23</ele>
        <time>2017-01-06T14:01:34Z</time>
      </trkpt>
      <trkpt lat="46.498172152787447" lon="8.659009728580713">
        <ele>1935.27</ele>
        <time>2017-01-06T14:01:39Z</time>
      </trkpt>
      <trkpt lat="46.498205428943038" lon="8.658915348351002">
        <ele>1934.3099999999999</ele>
        <time>2017-01-06T14:01:46Z</time>
      </trkpt>
      <trkpt lat="46.498229820281267" lon="8.658757265657187">
        <ele>1932.8699999999999</ele>
        <time>2017-01-06T14:01:57Z</time>
      </trkpt>
      <trkpt lat="46.498249350115657" lon="8.658686773851514">
        <ele>1931.9100000000001</ele>
        <time>2017-01-06T14:02:02Z</time>
      </trkpt>
      <trkpt lat="46.498264102265239" lon="8.658642182126641">
        <ele>1931.4300000000001</ele>
        <time>2017-01-06T14:02:05Z</time>
      </trkpt>
      <trkpt lat="46.498337276279926" lon="8.658541180193424">
        <ele>1929.98</ele>
        <time>2017-01-06T14:02:15Z</time>
      </trkpt>
      <trkpt lat="46.49833794683218" lon="8.658526008948684">
        <ele>1929.5</ele>
        <time>2017-01-06T14:02:16Z</time>
      </trkpt>
      <trkpt lat="46.498343897983432" lon="8.658465994521976">
        <ele>1929.5</ele>
        <time>2017-01-06T14:02:20Z</time>
      </trkpt>
      <trkpt lat="46.498353201895952" lon="8.658407907932997">
        <ele>1928.54</ele>
        <time>2017-01-06T14:02:25Z</time>
      </trkpt>
      <trkpt lat="46.498341634869576" lon="8.658326268196106">
        <ele>1927.5799999999999</ele>
        <time>2017-01-06T14:02:31Z</time>
      </trkpt>
      <trkpt lat="46.498315231874585" lon="8.658198108896613">
        <ele>1926.1400000000001</ele>
        <time>2017-01-06T14:02:41Z</time>
      </trkpt>
      <trkpt lat="46.498302826657891" lon="8.658136585727334">
        <ele>1925.6600000000001</ele>
        <time>2017-01-06T14:02:45Z</time>
      </trkpt>
      <trkpt lat="46.498296372592449" lon="8.658071625977755">
        <ele>1924.7</ele>
        <time>2017-01-06T14:02:49Z</time>
      </trkpt>
      <trkpt lat="46.498313806951046" lon="8.657881692051888">
        <ele>1922.77</ele>
        <time>2017-01-06T14:03:00Z</time>
      </trkpt>
      <trkpt lat="46.498326379805803" lon="8.65785202011466">
        <ele>1922.29</ele>
        <time>2017-01-06T14:03:03Z</time>
      </trkpt>
      <trkpt lat="46.498350268229842" lon="8.657690919935703">
        <ele>1919.8900000000001</ele>
        <time>2017-01-06T14:03:13Z</time>
      </trkpt>
      <trkpt lat="46.498359236866236" lon="8.657660577446222">
        <ele>1919.4100000000001</ele>
        <time>2017-01-06T14:03:15Z</time>
      </trkpt>
      <trkpt lat="46.498362589627504" lon="8.657630905508995">
        <ele>1918.9300000000001</ele>
        <time>2017-01-06T14:03:17Z</time>
      </trkpt>
      <trkpt lat="46.498377425596118" lon="8.657588073983789">
        <ele>1917.97</ele>
        <time>2017-01-06T14:03:20Z</time>
      </trkpt>
      <trkpt lat="46.498407181352377" lon="8.657473912462592">
        <ele>1916.53</ele>
        <time>2017-01-06T14:03:28Z</time>
      </trkpt>
      <trkpt lat="46.49843324907124" lon="8.657374754548073">
        <ele>1915.0799999999999</ele>
        <time>2017-01-06T14:03:34Z</time>
      </trkpt>
      <trkpt lat="46.498510278761387" lon="8.657200075685978">
        <ele>1912.6800000000001</ele>
        <time>2017-01-06T14:03:46Z</time>
      </trkpt>
      <trkpt lat="46.498552272096276" lon="8.65719429217279">
        <ele>1912.2</ele>
        <time>2017-01-06T14:03:49Z</time>
      </trkpt>
      <trkpt lat="46.498617231845856" lon="8.657258665189147">
        <ele>1910.76</ele>
        <time>2017-01-06T14:03:58Z</time>
      </trkpt>
      <trkpt lat="46.498616226017475" lon="8.657261095941067">
        <ele>1910.76</ele>
        <time>2017-01-06T14:04:09Z</time>
      </trkpt>
      <trkpt lat="46.498611364513636" lon="8.65725539624691">
        <ele>1911.24</ele>
        <time>2017-01-06T14:04:26Z</time>
      </trkpt>
      <trkpt lat="46.498606335371733" lon="8.657259335741401">
        <ele>1910.76</ele>
        <time>2017-01-06T14:04:40Z</time>
      </trkpt>
      <trkpt lat="46.498612789437175" lon="8.657249864190817">
        <ele>1910.76</ele>
        <time>2017-01-06T14:04:55Z</time>
      </trkpt>
      <trkpt lat="46.498620165511966" lon="8.657246259972453">
        <ele>1910.76</ele>
        <time>2017-01-06T14:05:04Z</time>
      </trkpt>
      <trkpt lat="46.498655453324318" lon="8.657347848638892">
        <ele>1909.3199999999999</ele>
        <time>2017-01-06T14:05:10Z</time>
      </trkpt>
      <trkpt lat="46.498664254322648" lon="8.657375676557422">
        <ele>1908.8299999999999</ele>
        <time>2017-01-06T14:05:12Z</time>
      </trkpt>
      <trkpt lat="46.498687639832497" lon="8.657403085380793">
        <ele>1908.8299999999999</ele>
        <time>2017-01-06T14:05:15Z</time>
      </trkpt>
      <trkpt lat="46.498743463307619" lon="8.657460082322359">
        <ele>1907.8699999999999</ele>
        <time>2017-01-06T14:05:21Z</time>
      </trkpt>
      <trkpt lat="46.498775482177734" lon="8.657476343214512">
        <ele>1907.3900000000001</ele>
        <time>2017-01-06T14:05:24Z</time>
      </trkpt>
      <trkpt lat="46.498804986476898" lon="8.6574821267277">
        <ele>1906.9100000000001</ele>
        <time>2017-01-06T14:05:27Z</time>
      </trkpt>
      <trkpt lat="46.498874807730317" lon="8.657509200274944">
        <ele>1905.47</ele>
        <time>2017-01-06T14:05:36Z</time>
      </trkpt>
      <trkpt lat="46.498875226825476" lon="8.65749285556376">
        <ele>1905.47</ele>
        <time>2017-01-06T14:05:50Z</time>
      </trkpt>
      <trkpt lat="46.498983772471547" lon="8.65763308480382">
        <ele>1903.55</ele>
        <time>2017-01-06T14:06:01Z</time>
      </trkpt>
      <trkpt lat="46.499003134667873" lon="8.657657476142049">
        <ele>1903.0699999999999</ele>
        <time>2017-01-06T14:06:03Z</time>
      </trkpt>
      <trkpt lat="46.499018389731646" lon="8.65769175812602">
        <ele>1902.5899999999999</ele>
        <time>2017-01-06T14:06:05Z</time>
      </trkpt>
      <trkpt lat="46.499119726940989" lon="8.657734086737037">
        <ele>1900.6600000000001</ele>
        <time>2017-01-06T14:06:14Z</time>
      </trkpt>
      <trkpt lat="46.499208323657513" lon="8.65777188912034">
        <ele>1898.74</ele>
        <time>2017-01-06T14:06:22Z</time>
      </trkpt>
      <trkpt lat="46.499220561236143" lon="8.657775158062577">
        <ele>1898.74</ele>
        <time>2017-01-06T14:06:23Z</time>
      </trkpt>
      <trkpt lat="46.499297926202416" lon="8.657862078398466">
        <ele>1896.8199999999999</ele>
        <time>2017-01-06T14:06:31Z</time>
      </trkpt>
      <trkpt lat="46.499326759949327" lon="8.657890157774091">
        <ele>1895.8599999999999</ele>
        <time>2017-01-06T14:06:34Z</time>
      </trkpt>
      <trkpt lat="46.499352073296905" lon="8.657913208007813">
        <ele>1895.8599999999999</ele>
        <time>2017-01-06T14:06:37Z</time>
      </trkpt>
      <trkpt lat="46.499379146844149" lon="8.657930139452219">
        <ele>1895.3800000000001</ele>
        <time>2017-01-06T14:06:40Z</time>
      </trkpt>
      <trkpt lat="46.499420888721943" lon="8.657946567982435">
        <ele>1894.9000000000001</ele>
        <time>2017-01-06T14:06:44Z</time>
      </trkpt>
      <trkpt lat="46.499465312808752" lon="8.657982442528009">
        <ele>1894.4200000000001</ele>
        <time>2017-01-06T14:06:48Z</time>
      </trkpt>
      <trkpt lat="46.49956002831459" lon="8.658084785565734">
        <ele>1892.49</ele>
        <time>2017-01-06T14:06:58Z</time>
      </trkpt>
      <trkpt lat="46.499651558697224" lon="8.658147482201457">
        <ele>1890.5699999999999</ele>
        <time>2017-01-06T14:07:08Z</time>
      </trkpt>
      <trkpt lat="46.499683074653149" lon="8.658177405595779">
        <ele>1889.6099999999999</ele>
        <time>2017-01-06T14:07:17Z</time>
      </trkpt>
      <trkpt lat="46.499691205099225" lon="8.65817790850997">
        <ele>1889.6099999999999</ele>
        <time>2017-01-06T14:07:36Z</time>
      </trkpt>
      <trkpt lat="46.499714087694883" lon="8.658172460272908">
        <ele>1889.1300000000001</ele>
        <time>2017-01-06T14:07:47Z</time>
      </trkpt>
      <trkpt lat="46.499758511781693" lon="8.65818134509027">
        <ele>1888.6500000000001</ele>
        <time>2017-01-06T14:07:50Z</time>
      </trkpt>
      <trkpt lat="46.499837134033442" lon="8.658211687579751">
        <ele>1887.6900000000001</ele>
        <time>2017-01-06T14:07:56Z</time>
      </trkpt>
      <trkpt lat="46.499964287504554" lon="8.658305816352367">
        <ele>1885.76</ele>
        <time>2017-01-06T14:08:06Z</time>
      </trkpt>
      <trkpt lat="46.500013573095202" lon="8.658318556845188">
        <ele>1885.28</ele>
        <time>2017-01-06T14:08:10Z</time>
      </trkpt>
      <trkpt lat="46.500046933069825" lon="8.658324927091599">
        <ele>1884.8</ele>
        <time>2017-01-06T14:08:12Z</time>
      </trkpt>
      <trkpt lat="46.500124717131257" lon="8.658346133306623">
        <ele>1883.3599999999999</ele>
        <time>2017-01-06T14:08:18Z</time>
      </trkpt>
      <trkpt lat="46.500256145372987" lon="8.658417295664549">
        <ele>1881.4400000000001</ele>
        <time>2017-01-06T14:08:28Z</time>
      </trkpt>
      <trkpt lat="46.500349268317223" lon="8.658469012007117">
        <ele>1880</ele>
        <time>2017-01-06T14:08:36Z</time>
      </trkpt>
      <trkpt lat="46.500379610806704" lon="8.658478986471891">
        <ele>1879.51</ele>
        <time>2017-01-06T14:08:38Z</time>
      </trkpt>
      <trkpt lat="46.500455383211374" lon="8.658532127737999">
        <ele>1878.55</ele>
        <time>2017-01-06T14:08:44Z</time>
      </trkpt>
      <trkpt lat="46.500509278848767" lon="8.658556938171387">
        <ele>1879.03</ele>
        <time>2017-01-06T14:08:48Z</time>
      </trkpt>
      <trkpt lat="46.50053090415895" lon="8.658553333953023">
        <ele>1877.1099999999999</ele>
        <time>2017-01-06T14:08:50Z</time>
      </trkpt>
      <trkpt lat="46.500535933300853" lon="8.658517962321639">
        <ele>1876.1500000000001</ele>
        <time>2017-01-06T14:08:54Z</time>
      </trkpt>
      <trkpt lat="46.500473152846098" lon="8.658483847975731">
        <ele>1875.1900000000001</ele>
        <time>2017-01-06T14:08:59Z</time>
      </trkpt>
      <trkpt lat="46.500355135649443" lon="8.658355101943016">
        <ele>1872.79</ele>
        <time>2017-01-06T14:09:11Z</time>
      </trkpt>
      <trkpt lat="46.500358069315553" lon="8.658353425562382">
        <ele>1873.27</ele>
        <time>2017-01-06T14:09:13Z</time>
      </trkpt>
      <trkpt lat="46.500332672148943" lon="8.658298859372735">
        <ele>1872.3</ele>
        <time>2017-01-06T14:09:17Z</time>
      </trkpt>
      <trkpt lat="46.500248182564974" lon="8.65807581692934">
        <ele>1869.9000000000001</ele>
        <time>2017-01-06T14:09:31Z</time>
      </trkpt>
      <trkpt lat="46.500231418758631" lon="8.658045306801796">
        <ele>1869.4200000000001</ele>
        <time>2017-01-06T14:09:33Z</time>
      </trkpt>
      <trkpt lat="46.500089680776" lon="8.657938521355391">
        <ele>1865.5799999999999</ele>
        <time>2017-01-06T14:09:45Z</time>
      </trkpt>
      <trkpt lat="46.500018769875169" lon="8.657874064520001">
        <ele>1863.6500000000001</ele>
        <time>2017-01-06T14:09:51Z</time>
      </trkpt>
      <trkpt lat="46.49991424754262" lon="8.657762669026852">
        <ele>1860.77</ele>
        <time>2017-01-06T14:10:02Z</time>
      </trkpt>
      <trkpt lat="46.499815424904227" lon="8.657624702900648">
        <ele>1857.8900000000001</ele>
        <time>2017-01-06T14:10:13Z</time>
      </trkpt>
      <trkpt lat="46.499808048829436" lon="8.657618500292301">
        <ele>1857.4000000000001</ele>
        <time>2017-01-06T14:10:14Z</time>
      </trkpt>
      <trkpt lat="46.499721631407738" lon="8.657441306859255">
        <ele>1855</ele>
        <time>2017-01-06T14:10:27Z</time>
      </trkpt>
      <trkpt lat="46.499705202877522" lon="8.657419765368104">
        <ele>1855</ele>
        <time>2017-01-06T14:10:29Z</time>
      </trkpt>
      <trkpt lat="46.499655498191714" lon="8.657321026548743">
        <ele>1853.5599999999999</ele>
        <time>2017-01-06T14:10:36Z</time>
      </trkpt>
      <trkpt lat="46.499553322792053" lon="8.657221784815192">
        <ele>1851.6400000000001</ele>
        <time>2017-01-06T14:10:46Z</time>
      </trkpt>
      <trkpt lat="46.499498505145311" lon="8.65716596134007">
        <ele>1849.71</ele>
        <time>2017-01-06T14:10:52Z</time>
      </trkpt>
      <trkpt lat="46.499490458518267" lon="8.657131846994162">
        <ele>1849.23</ele>
        <time>2017-01-06T14:10:56Z</time>
      </trkpt>
      <trkpt lat="46.499383924528956" lon="8.65701156668365">
        <ele>1845.8699999999999</ele>
        <time>2017-01-06T14:11:08Z</time>
      </trkpt>
      <trkpt lat="46.49933623149991" lon="8.656949792057276">
        <ele>1844.4300000000001</ele>
        <time>2017-01-06T14:11:13Z</time>
      </trkpt>
      <trkpt lat="46.499283006414771" lon="8.656878629699349">
        <ele>1842.5</ele>
        <time>2017-01-06T14:11:19Z</time>
      </trkpt>
      <trkpt lat="46.499242605641484" lon="8.656823057681322">
        <ele>1840.5799999999999</ele>
        <time>2017-01-06T14:11:24Z</time>
      </trkpt>
      <trkpt lat="46.499209413304925" lon="8.656736221164465">
        <ele>1839.1400000000001</ele>
        <time>2017-01-06T14:11:30Z</time>
      </trkpt>
      <trkpt lat="46.499173538759351" lon="8.656594483181834">
        <ele>1836.74</ele>
        <time>2017-01-06T14:11:39Z</time>
      </trkpt>
      <trkpt lat="46.499156523495913" lon="8.656449811533094">
        <ele>1834.3299999999999</ele>
        <time>2017-01-06T14:11:47Z</time>
      </trkpt>
      <trkpt lat="46.499145207926631" lon="8.656405974179506">
        <ele>1833.8499999999999</ele>
        <time>2017-01-06T14:11:50Z</time>
      </trkpt>
      <trkpt lat="46.499104471877217" lon="8.656210256740451">
        <ele>1830.01</ele>
        <time>2017-01-06T14:12:03Z</time>
      </trkpt>
      <trkpt lat="46.49909240193665" lon="8.65618284791708">
        <ele>1829.53</ele>
        <time>2017-01-06T14:12:05Z</time>
      </trkpt>
      <trkpt lat="46.499061305075884" lon="8.655993584543467">
        <ele>1826.1600000000001</ele>
        <time>2017-01-06T14:12:17Z</time>
      </trkpt>
      <trkpt lat="46.499039009213448" lon="8.655943125486374">
        <ele>1825.2</ele>
        <time>2017-01-06T14:12:21Z</time>
      </trkpt>
      <trkpt lat="46.498990561813116" lon="8.6557880602777">
        <ele>1821.3499999999999</ele>
        <time>2017-01-06T14:12:31Z</time>
      </trkpt>
      <trkpt lat="46.498976899310946" lon="8.65560038946569">
        <ele>1818.47</ele>
        <time>2017-01-06T14:12:41Z</time>
      </trkpt>
      <trkpt lat="46.49897463619709" lon="8.655493520200253">
        <ele>1817.03</ele>
        <time>2017-01-06T14:12:47Z</time>
      </trkpt>
      <trkpt lat="46.498967595398426" lon="8.655406096950173">
        <ele>1815.1099999999999</ele>
        <time>2017-01-06T14:12:52Z</time>
      </trkpt>
      <trkpt lat="46.498960806056857" lon="8.655358823016286">
        <ele>1814.1500000000001</ele>
        <time>2017-01-06T14:12:55Z</time>
      </trkpt>
      <trkpt lat="46.498946389183402" lon="8.655316578224301">
        <ele>1813.6600000000001</ele>
        <time>2017-01-06T14:12:58Z</time>
      </trkpt>
      <trkpt lat="46.498904479667544" lon="8.65525052882731">
        <ele>1812.22</ele>
        <time>2017-01-06T14:13:03Z</time>
      </trkpt>
      <trkpt lat="46.498857960104942" lon="8.655110131949186">
        <ele>1809.8199999999999</ele>
        <time>2017-01-06T14:13:12Z</time>
      </trkpt>
      <trkpt lat="46.498841950669885" lon="8.655087752267718">
        <ele>1809.3399999999999</ele>
        <time>2017-01-06T14:13:14Z</time>
      </trkpt>
      <trkpt lat="46.498726950958371" lon="8.655006866902113">
        <ele>1807.4200000000001</ele>
        <time>2017-01-06T14:13:25Z</time>
      </trkpt>
      <trkpt lat="46.498727537691593" lon="8.654970154166222">
        <ele>1806.45</ele>
        <time>2017-01-06T14:13:27Z</time>
      </trkpt>
      <trkpt lat="46.498769279569387" lon="8.654921790584922">
        <ele>1804.05</ele>
        <time>2017-01-06T14:13:32Z</time>
      </trkpt>
      <trkpt lat="46.498813284561038" lon="8.654829170554876">
        <ele>1802.1300000000001</ele>
        <time>2017-01-06T14:13:39Z</time>
      </trkpt>
      <trkpt lat="46.498894840478897" lon="8.654859429225326">
        <ele>1800.6900000000001</ele>
        <time>2017-01-06T14:13:48Z</time>
      </trkpt>
      <trkpt lat="46.498935827985406" lon="8.65488164126873">
        <ele>1800.6900000000001</ele>
        <time>2017-01-06T14:13:58Z</time>
      </trkpt>
      <trkpt lat="46.498910933732986" lon="8.654906116425991">
        <ele>1801.1700000000001</ele>
        <time>2017-01-06T14:14:09Z</time>
      </trkpt>
      <trkpt lat="46.49890280328691" lon="8.654925394803286">
        <ele>1801.1700000000001</ele>
        <time>2017-01-06T14:14:20Z</time>
      </trkpt>
      <trkpt lat="46.498898612335324" lon="8.654930843040347">
        <ele>1801.1700000000001</ele>
        <time>2017-01-06T14:14:30Z</time>
      </trkpt>
      <trkpt lat="46.498911520466208" lon="8.65492656826973">
        <ele>1801.1700000000001</ele>
        <time>2017-01-06T14:14:43Z</time>
      </trkpt>
      <trkpt lat="46.498924680054188" lon="8.654938973486424">
        <ele>1801.1700000000001</ele>
        <time>2017-01-06T14:15:00Z</time>
      </trkpt>
      <trkpt lat="46.498909089714289" lon="8.654955234378576">
        <ele>1800.6900000000001</ele>
        <time>2017-01-06T14:15:11Z</time>
      </trkpt>
      <trkpt lat="46.498893080279231" lon="8.654956491664052">
        <ele>1801.6500000000001</ele>
        <time>2017-01-06T14:15:37Z</time>
      </trkpt>
      <trkpt lat="46.498850835487247" lon="8.654946517199278">
        <ele>1802.1300000000001</ele>
        <time>2017-01-06T14:15:53Z</time>
      </trkpt>
      <trkpt lat="46.498849326744676" lon="8.654951546341181">
        <ele>1802.1300000000001</ele>
        <time>2017-01-06T14:16:10Z</time>
      </trkpt>
      <trkpt lat="46.498876232653856" lon="8.654940314590931">
        <ele>1802.6099999999999</ele>
        <time>2017-01-06T14:16:25Z</time>
      </trkpt>
      <trkpt lat="46.498866425827146" lon="8.654955066740513">
        <ele>1802.6099999999999</ele>
        <time>2017-01-06T14:16:36Z</time>
      </trkpt>
      <trkpt lat="46.498878076672554" lon="8.654957078397274">
        <ele>1802.6099999999999</ele>
        <time>2017-01-06T14:16:48Z</time>
      </trkpt>
      <trkpt lat="46.498889056965709" lon="8.654944924637675">
        <ele>1802.1300000000001</ele>
        <time>2017-01-06T14:17:05Z</time>
      </trkpt>
      <trkpt lat="46.498896768316627" lon="8.654928579926491">
        <ele>1802.1300000000001</ele>
        <time>2017-01-06T14:17:16Z</time>
      </trkpt>
      <trkpt lat="46.498863073065877" lon="8.654955737292767">
        <ele>1802.1300000000001</ele>
        <time>2017-01-06T14:17:29Z</time>
      </trkpt>
      <trkpt lat="46.498855361714959" lon="8.654962191358209">
        <ele>1802.1300000000001</ele>
        <time>2017-01-06T14:17:41Z</time>
      </trkpt>
      <trkpt lat="46.498849494382739" lon="8.654963281005621">
        <ele>1802.1300000000001</ele>
        <time>2017-01-06T14:17:52Z</time>
      </trkpt>
      <trkpt lat="46.498846225440502" lon="8.654978452250361">
        <ele>1802.1300000000001</ele>
        <time>2017-01-06T14:18:04Z</time>
      </trkpt>
      <trkpt lat="46.498877741396427" lon="8.654970405623317">
        <ele>1801.6500000000001</ele>
        <time>2017-01-06T14:18:11Z</time>
      </trkpt>
      <trkpt lat="46.498951083049178" lon="8.654974177479744">
        <ele>1801.6500000000001</ele>
        <time>2017-01-06T14:18:16Z</time>
      </trkpt>
      <trkpt lat="46.499015456065536" lon="8.654985576868057">
        <ele>1801.1700000000001</ele>
        <time>2017-01-06T14:18:21Z</time>
      </trkpt>
      <trkpt lat="46.499130371958017" lon="8.655027402564883">
        <ele>1800.21</ele>
        <time>2017-01-06T14:18:31Z</time>
      </trkpt>
      <trkpt lat="46.499240258708596" lon="8.65511423908174">
        <ele>1799.73</ele>
        <time>2017-01-06T14:18:41Z</time>
      </trkpt>
      <trkpt lat="46.499263979494572" lon="8.655146425589919">
        <ele>1799.73</ele>
        <time>2017-01-06T14:18:44Z</time>
      </trkpt>
      <trkpt lat="46.499288873746991" lon="8.65519386716187">
        <ele>1800.21</ele>
        <time>2017-01-06T14:18:48Z</time>
      </trkpt>
      <trkpt lat="46.49932106025517" lon="8.655255893245339">
        <ele>1801.6500000000001</ele>
        <time>2017-01-06T14:18:53Z</time>
      </trkpt>
      <trkpt lat="46.49933522567153" lon="8.655281122773886">
        <ele>1800.21</ele>
        <time>2017-01-06T14:18:55Z</time>
      </trkpt>
      <trkpt lat="46.499382834881544" lon="8.655367959290743">
        <ele>1798.28</ele>
        <time>2017-01-06T14:19:02Z</time>
      </trkpt>
      <trkpt lat="46.499409154057503" lon="8.655420849099755">
        <ele>1797.8</ele>
        <time>2017-01-06T14:19:06Z</time>
      </trkpt>
      <trkpt lat="46.49945835582912" lon="8.655514977872372">
        <ele>1797.8</ele>
        <time>2017-01-06T14:19:15Z</time>
      </trkpt>
      <trkpt lat="46.499479645863175" lon="8.655526796355844">
        <ele>1797.8</ele>
        <time>2017-01-06T14:19:17Z</time>
      </trkpt>
      <trkpt lat="46.499509150162339" lon="8.655571723356843">
        <ele>1798.28</ele>
        <time>2017-01-06T14:19:23Z</time>
      </trkpt>
      <trkpt lat="46.499601602554321" lon="8.655678927898407">
        <ele>1797.3199999999999</ele>
        <time>2017-01-06T14:19:33Z</time>
      </trkpt>
      <trkpt lat="46.499688439071178" lon="8.65575285628438">
        <ele>1796.8399999999999</ele>
        <time>2017-01-06T14:19:43Z</time>
      </trkpt>
      <trkpt lat="46.499699167907238" lon="8.655761238187552">
        <ele>1796.3599999999999</ele>
        <time>2017-01-06T14:19:44Z</time>
      </trkpt>
      <trkpt lat="46.499729426577687" lon="8.655779091641307">
        <ele>1796.3599999999999</ele>
        <time>2017-01-06T14:19:47Z</time>
      </trkpt>
      <trkpt lat="46.499795559793711" lon="8.655819240957499">
        <ele>1796.3599999999999</ele>
        <time>2017-01-06T14:19:54Z</time>
      </trkpt>
      <trkpt lat="46.499873846769333" lon="8.655818738043308">
        <ele>1796.3599999999999</ele>
        <time>2017-01-06T14:20:01Z</time>
      </trkpt>
      <trkpt lat="46.499899914488196" lon="8.655799040570855">
        <ele>1795.8800000000001</ele>
        <time>2017-01-06T14:20:04Z</time>
      </trkpt>
      <trkpt lat="46.500004017725587" lon="8.655721005052328">
        <ele>1794.9200000000001</ele>
        <time>2017-01-06T14:20:14Z</time>
      </trkpt>
      <trkpt lat="46.50007450953126" lon="8.655712204053998">
        <ele>1794.9200000000001</ele>
        <time>2017-01-06T14:20:22Z</time>
      </trkpt>
      <trkpt lat="46.500099068507552" lon="8.655716059729457">
        <ele>1794.9200000000001</ele>
        <time>2017-01-06T14:20:24Z</time>
      </trkpt>
      <trkpt lat="46.500117592513561" lon="8.655731733888388">
        <ele>1794.9200000000001</ele>
        <time>2017-01-06T14:20:26Z</time>
      </trkpt>
      <trkpt lat="46.500187329947948" lon="8.655798118561506">
        <ele>1794.9200000000001</ele>
        <time>2017-01-06T14:20:33Z</time>
      </trkpt>
      <trkpt lat="46.500244159251451" lon="8.655839525163174">
        <ele>1793.96</ele>
        <time>2017-01-06T14:20:38Z</time>
      </trkpt>
      <trkpt lat="46.500354465097189" lon="8.655894761905074">
        <ele>1791.55</ele>
        <time>2017-01-06T14:20:48Z</time>
      </trkpt>
      <trkpt lat="46.500412970781326" lon="8.65590968169272">
        <ele>1790.1099999999999</ele>
        <time>2017-01-06T14:20:53Z</time>
      </trkpt>
      <trkpt lat="46.500463346019387" lon="8.65591655485332">
        <ele>1789.1500000000001</ele>
        <time>2017-01-06T14:20:57Z</time>
      </trkpt>
      <trkpt lat="46.500490671023726" lon="8.655924601480365">
        <ele>1788.6700000000001</ele>
        <time>2017-01-06T14:20:59Z</time>
      </trkpt>
      <trkpt lat="46.500599551945925" lon="8.655909094959498">
        <ele>1787.23</ele>
        <time>2017-01-06T14:21:08Z</time>
      </trkpt>
      <trkpt lat="46.500685131177306" lon="8.65587942302227">
        <ele>1786.27</ele>
        <time>2017-01-06T14:21:14Z</time>
      </trkpt>
      <trkpt lat="46.500792670994997" lon="8.655877411365509">
        <ele>1785.3099999999999</ele>
        <time>2017-01-06T14:21:22Z</time>
      </trkpt>
      <trkpt lat="46.500827874988317" lon="8.655906412750483">
        <ele>1784.8199999999999</ele>
        <time>2017-01-06T14:21:25Z</time>
      </trkpt>
      <trkpt lat="46.500835251063108" lon="8.655925691127777">
        <ele>1784.3399999999999</ele>
        <time>2017-01-06T14:21:26Z</time>
      </trkpt>
      <trkpt lat="46.500842962414026" lon="8.655958045274019">
        <ele>1784.3399999999999</ele>
        <time>2017-01-06T14:21:36Z</time>
      </trkpt>
      <trkpt lat="46.50082997046411" lon="8.655928038060665">
        <ele>1784.8199999999999</ele>
        <time>2017-01-06T14:21:41Z</time>
      </trkpt>
      <trkpt lat="46.500813877210021" lon="8.655925439670682">
        <ele>1784.3399999999999</ele>
        <time>2017-01-06T14:21:52Z</time>
      </trkpt>
      <trkpt lat="46.500842124223709" lon="8.655904652550817">
        <ele>1784.3399999999999</ele>
        <time>2017-01-06T14:22:06Z</time>
      </trkpt>
      <trkpt lat="46.500852014869452" lon="8.655912699177861">
        <ele>1784.3399999999999</ele>
        <time>2017-01-06T14:22:20Z</time>
      </trkpt>
      <trkpt lat="46.500869616866112" lon="8.655893253162503">
        <ele>1785.3099999999999</ele>
        <time>2017-01-06T14:22:34Z</time>
      </trkpt>
      <trkpt lat="46.500884955748916" lon="8.655906412750483">
        <ele>1785.3099999999999</ele>
        <time>2017-01-06T14:22:37Z</time>
      </trkpt>
      <trkpt lat="46.500971289351583" lon="8.6559556145221">
        <ele>1784.8199999999999</ele>
        <time>2017-01-06T14:22:46Z</time>
      </trkpt>
      <trkpt lat="46.500989645719528" lon="8.655961398035288">
        <ele>1784.3399999999999</ele>
        <time>2017-01-06T14:22:48Z</time>
      </trkpt>
      <trkpt lat="46.500999787822366" lon="8.655971456319094">
        <ele>1784.3399999999999</ele>
        <time>2017-01-06T14:22:49Z</time>
      </trkpt>
      <trkpt lat="46.501022502779961" lon="8.655975060537458">
        <ele>1784.3399999999999</ele>
        <time>2017-01-06T14:22:50Z</time>
      </trkpt>
      <trkpt lat="46.501033985987306" lon="8.65597615018487">
        <ele>1784.8199999999999</ele>
        <time>2017-01-06T14:22:51Z</time>
      </trkpt>
      <trkpt lat="46.500989478081465" lon="8.656023759394884">
        <ele>1784.8199999999999</ele>
        <time>2017-01-06T14:22:58Z</time>
      </trkpt>
      <trkpt lat="46.501014456152916" lon="8.656045300886035">
        <ele>1784.3399999999999</ele>
        <time>2017-01-06T14:23:01Z</time>
      </trkpt>
      <trkpt lat="46.501033985987306" lon="8.656061897054315">
        <ele>1784.3399999999999</ele>
        <time>2017-01-06T14:23:04Z</time>
      </trkpt>
      <trkpt lat="46.501128198578954" lon="8.656142530962825">
        <ele>1782.4200000000001</ele>
        <time>2017-01-06T14:23:13Z</time>
      </trkpt>
      <trkpt lat="46.501191230490804" lon="8.656187457963824">
        <ele>1781.9400000000001</ele>
        <time>2017-01-06T14:23:18Z</time>
      </trkpt>
      <trkpt lat="46.501264488324523" lon="8.656259039416909">
        <ele>1781.46</ele>
        <time>2017-01-06T14:23:26Z</time>
      </trkpt>
      <trkpt lat="46.501306649297476" lon="8.656327854841948">
        <ele>1780.5</ele>
        <time>2017-01-06T14:23:32Z</time>
      </trkpt>
      <trkpt lat="46.501380829140544" lon="8.65640371106565">
        <ele>1779.54</ele>
        <time>2017-01-06T14:23:39Z</time>
      </trkpt>
      <trkpt lat="46.501412512734532" lon="8.656442435458303">
        <ele>1779.54</ele>
        <time>2017-01-06T14:23:47Z</time>
      </trkpt>
      <trkpt lat="46.501398012042046" lon="8.656433550640941">
        <ele>1779.54</ele>
        <time>2017-01-06T14:23:56Z</time>
      </trkpt>
      <trkpt lat="46.501470766961575" lon="8.656464815139771">
        <ele>1778.5799999999999</ele>
        <time>2017-01-06T14:24:05Z</time>
      </trkpt>
      <trkpt lat="46.501578893512487" lon="8.656545449048281">
        <ele>1776.6500000000001</ele>
        <time>2017-01-06T14:24:14Z</time>
      </trkpt>
      <trkpt lat="46.501639159396291" lon="8.656616946682334">
        <ele>1775.21</ele>
        <time>2017-01-06T14:24:20Z</time>
      </trkpt>
      <trkpt lat="46.501672100275755" lon="8.656654665246606">
        <ele>1775.21</ele>
        <time>2017-01-06T14:24:23Z</time>
      </trkpt>
      <trkpt lat="46.501687271520495" lon="8.656663214787841">
        <ele>1774.25</ele>
        <time>2017-01-06T14:24:24Z</time>
      </trkpt>
      <trkpt lat="46.501762792468071" lon="8.65675943903625">
        <ele>1772.3299999999999</ele>
        <time>2017-01-06T14:24:31Z</time>
      </trkpt>
      <trkpt lat="46.501774191856384" lon="8.656773855909705">
        <ele>1772.3299999999999</ele>
        <time>2017-01-06T14:24:32Z</time>
      </trkpt>
      <trkpt lat="46.501788441091776" lon="8.656782153993845">
        <ele>1772.3299999999999</ele>
        <time>2017-01-06T14:24:33Z</time>
      </trkpt>
      <trkpt lat="46.5018648840487" lon="8.656869074329734">
        <ele>1768.96</ele>
        <time>2017-01-06T14:24:40Z</time>
      </trkpt>
      <trkpt lat="46.501885671168566" lon="8.65689723752439">
        <ele>1768.96</ele>
        <time>2017-01-06T14:24:42Z</time>
      </trkpt>
      <trkpt lat="46.501997988671064" lon="8.656991617754102">
        <ele>1766.5599999999999</ele>
        <time>2017-01-06T14:24:51Z</time>
      </trkpt>
      <trkpt lat="46.502110725268722" lon="8.657075855880976">
        <ele>1764.1600000000001</ele>
        <time>2017-01-06T14:25:01Z</time>
      </trkpt>
      <trkpt lat="46.502164620906115" lon="8.657138971611857">
        <ele>1763.2</ele>
        <time>2017-01-06T14:25:05Z</time>
      </trkpt>
      <trkpt lat="46.502176271751523" lon="8.657143246382475">
        <ele>1763.6800000000001</ele>
        <time>2017-01-06T14:25:06Z</time>
      </trkpt>
      <trkpt lat="46.502269310876727" lon="8.6572299990803">
        <ele>1761.75</ele>
        <time>2017-01-06T14:25:15Z</time>
      </trkpt>
      <trkpt lat="46.502324631437659" lon="8.657274171710014">
        <ele>1761.27</ele>
        <time>2017-01-06T14:25:20Z</time>
      </trkpt>
      <trkpt lat="46.502341981977224" lon="8.657274842262268">
        <ele>1761.27</ele>
        <time>2017-01-06T14:25:21Z</time>
      </trkpt>
      <trkpt lat="46.502462597563863" lon="8.657382130622864">
        <ele>1760.3099999999999</ele>
        <time>2017-01-06T14:25:31Z</time>
      </trkpt>
      <trkpt lat="46.502477768808603" lon="8.657389506697655">
        <ele>1759.3499999999999</ele>
        <time>2017-01-06T14:25:32Z</time>
      </trkpt>
      <trkpt lat="46.50248983874917" lon="8.657387578859925">
        <ele>1758.3900000000001</ele>
        <time>2017-01-06T14:25:33Z</time>
      </trkpt>
      <trkpt lat="46.502381460741162" lon="8.657460585236549">
        <ele>1758.3900000000001</ele>
        <time>2017-01-06T14:25:39Z</time>
      </trkpt>
      <trkpt lat="46.502471063286066" lon="8.657506853342056">
        <ele>1756.47</ele>
        <time>2017-01-06T14:25:48Z</time>
      </trkpt>
      <trkpt lat="46.50250006467104" lon="8.657532669603825">
        <ele>1755.5</ele>
        <time>2017-01-06T14:25:51Z</time>
      </trkpt>
      <trkpt lat="46.502595283091068" lon="8.65759838372469">
        <ele>1752.1400000000001</ele>
        <time>2017-01-06T14:26:01Z</time>
      </trkpt>
      <trkpt lat="46.502606431022286" lon="8.657601736485958">
        <ele>1754.0599999999999</ele>
        <time>2017-01-06T14:26:02Z</time>
      </trkpt>
      <trkpt lat="46.502696368843317" lon="8.657608442008495">
        <ele>1751.6600000000001</ele>
        <time>2017-01-06T14:26:11Z</time>
      </trkpt>
      <trkpt lat="46.502774991095066" lon="8.657602574676275">
        <ele>1749.74</ele>
        <time>2017-01-06T14:26:17Z</time>
      </trkpt>
      <trkpt lat="46.502870377153158" lon="8.657593941316009">
        <ele>1747.3299999999999</ele>
        <time>2017-01-06T14:26:26Z</time>
      </trkpt>
      <trkpt lat="46.502881860360503" lon="8.657590504735708">
        <ele>1747.3299999999999</ele>
        <time>2017-01-06T14:26:27Z</time>
      </trkpt>
      <trkpt lat="46.502927877008915" lon="8.657581368461251">
        <ele>1745.8900000000001</ele>
        <time>2017-01-06T14:26:31Z</time>
      </trkpt>
      <trkpt lat="46.503023933619261" lon="8.657541554421186">
        <ele>1743.49</ele>
        <time>2017-01-06T14:26:40Z</time>
      </trkpt>
      <trkpt lat="46.503044217824936" lon="8.657535267993808">
        <ele>1743.49</ele>
        <time>2017-01-06T14:26:42Z</time>
      </trkpt>
      <trkpt lat="46.503098951652646" lon="8.657497884705663">
        <ele>1742.05</ele>
        <time>2017-01-06T14:26:47Z</time>
      </trkpt>
      <trkpt lat="46.503230212256312" lon="8.657455472275615">
        <ele>1738.2</ele>
        <time>2017-01-06T14:26:58Z</time>
      </trkpt>
      <trkpt lat="46.503354264423251" lon="8.657425800338388">
        <ele>1736.28</ele>
        <time>2017-01-06T14:27:08Z</time>
      </trkpt>
      <trkpt lat="46.503379074856639" lon="8.657411215826869">
        <ele>1735.3199999999999</ele>
        <time>2017-01-06T14:27:10Z</time>
      </trkpt>
      <trkpt lat="46.503401957452297" lon="8.65740685723722">
        <ele>1734.3599999999999</ele>
        <time>2017-01-06T14:27:12Z</time>
      </trkpt>
      <trkpt lat="46.503435987979174" lon="8.65739612840116">
        <ele>1733.8800000000001</ele>
        <time>2017-01-06T14:27:15Z</time>
      </trkpt>
      <trkpt lat="46.503499522805214" lon="8.657390344887972">
        <ele>1731.95</ele>
        <time>2017-01-06T14:27:21Z</time>
      </trkpt>
      <trkpt lat="46.503594992682338" lon="8.657397301867604">
        <ele>1730.03</ele>
        <time>2017-01-06T14:27:30Z</time>
      </trkpt>
      <trkpt lat="46.503634052351117" lon="8.657390680164099">
        <ele>1729.0699999999999</ele>
        <time>2017-01-06T14:27:33Z</time>
      </trkpt>
      <trkpt lat="46.503658108413219" lon="8.65739805623889">
        <ele>1728.5899999999999</ele>
        <time>2017-01-06T14:27:35Z</time>
      </trkpt>
      <trkpt lat="46.503738323226571" lon="8.657416412606835">
        <ele>1726.6700000000001</ele>
        <time>2017-01-06T14:27:42Z</time>
      </trkpt>
      <trkpt lat="46.503757014870644" lon="8.65742445923388">
        <ele>1726.1800000000001</ele>
        <time>2017-01-06T14:27:44Z</time>
      </trkpt>
      <trkpt lat="46.503846952691674" lon="8.65740492939949">
        <ele>1723.78</ele>
        <time>2017-01-06T14:27:52Z</time>
      </trkpt>
      <trkpt lat="46.50387704372406" lon="8.657408114522696">
        <ele>1722.8199999999999</ele>
        <time>2017-01-06T14:27:54Z</time>
      </trkpt>
      <trkpt lat="46.503998916596174" lon="8.657427309080958">
        <ele>1720.9000000000001</ele>
        <time>2017-01-06T14:28:03Z</time>
      </trkpt>
      <trkpt lat="46.504138140007854" lon="8.65744499489665">
        <ele>1718.01</ele>
        <time>2017-01-06T14:28:14Z</time>
      </trkpt>
      <trkpt lat="46.50424593128264" lon="8.657455388456583">
        <ele>1715.1300000000001</ele>
        <time>2017-01-06T14:28:23Z</time>
      </trkpt>
      <trkpt lat="46.50434173643589" lon="8.657456729561091">
        <ele>1712.25</ele>
        <time>2017-01-06T14:28:31Z</time>
      </trkpt>
      <trkpt lat="46.504427148029208" lon="8.657442312687635">
        <ele>1710.3199999999999</ele>
        <time>2017-01-06T14:28:39Z</time>
      </trkpt>
      <trkpt lat="46.504542985931039" lon="8.657401744276285">
        <ele>1707.9200000000001</ele>
        <time>2017-01-06T14:28:49Z</time>
      </trkpt>
      <trkpt lat="46.504626302048564" lon="8.657395374029875">
        <ele>1705.52</ele>
        <time>2017-01-06T14:28:55Z</time>
      </trkpt>
      <trkpt lat="46.504740295931697" lon="8.657412976026535">
        <ele>1702.6300000000001</ele>
        <time>2017-01-06T14:29:05Z</time>
      </trkpt>
      <trkpt lat="46.504824366420507" lon="8.65743518806994">
        <ele>1701.1900000000001</ele>
        <time>2017-01-06T14:29:12Z</time>
      </trkpt>
      <trkpt lat="46.504889577627182" lon="8.657507859170437">
        <ele>1699.27</ele>
        <time>2017-01-06T14:29:19Z</time>
      </trkpt>
      <trkpt lat="46.504907933995128" lon="8.657525544986129">
        <ele>1698.79</ele>
        <time>2017-01-06T14:29:21Z</time>
      </trkpt>
      <trkpt lat="46.504945484921336" lon="8.657597126439214">
        <ele>1697.3399999999999</ele>
        <time>2017-01-06T14:29:26Z</time>
      </trkpt>
      <trkpt lat="46.50499158538878" lon="8.657721094787121">
        <ele>1695.9000000000001</ele>
        <time>2017-01-06T14:29:35Z</time>
      </trkpt>
      <trkpt lat="46.50505025871098" lon="8.657855875790119">
        <ele>1693.98</ele>
        <time>2017-01-06T14:29:44Z</time>
      </trkpt>
      <trkpt lat="46.50511228479445" lon="8.657982526347041">
        <ele>1691.5799999999999</ele>
        <time>2017-01-06T14:29:53Z</time>
      </trkpt>
      <trkpt lat="46.505175735801458" lon="8.658074224367738">
        <ele>1690.6199999999999</ele>
        <time>2017-01-06T14:30:00Z</time>
      </trkpt>
      <trkpt lat="46.505247903987765" lon="8.65816181525588">
        <ele>1689.1700000000001</ele>
        <time>2017-01-06T14:30:08Z</time>
      </trkpt>
      <trkpt lat="46.505316384136677" lon="8.658256949856877">
        <ele>1687.25</ele>
        <time>2017-01-06T14:30:17Z</time>
      </trkpt>
      <trkpt lat="46.505336919799447" lon="8.658271031454206">
        <ele>1686.77</ele>
        <time>2017-01-06T14:30:19Z</time>
      </trkpt>
      <trkpt lat="46.50536198168993" lon="8.658264996483922">
        <ele>1685.8099999999999</ele>
        <time>2017-01-06T14:30:22Z</time>
      </trkpt>
      <trkpt lat="46.505369609221816" lon="8.658185200765729">
        <ele>1684.8499999999999</ele>
        <time>2017-01-06T14:30:32Z</time>
      </trkpt>
      <trkpt lat="46.505360053852201" lon="8.658125353977084">
        <ele>1683.8900000000001</ele>
        <time>2017-01-06T14:30:42Z</time>
      </trkpt>
      <trkpt lat="46.505347397178411" lon="8.657982777804136">
        <ele>1682.4400000000001</ele>
        <time>2017-01-06T14:30:50Z</time>
      </trkpt>
      <trkpt lat="46.50535904802382" lon="8.657928798347712">
        <ele>1681.96</ele>
        <time>2017-01-06T14:30:53Z</time>
      </trkpt>
      <trkpt lat="46.505454266443849" lon="8.657869622111321">
        <ele>1678.5999999999999</ele>
        <time>2017-01-06T14:31:00Z</time>
      </trkpt>
      <trkpt lat="46.505472706630826" lon="8.657890912145376">
        <ele>1678.1199999999999</ele>
        <time>2017-01-06T14:31:02Z</time>
      </trkpt>
      <trkpt lat="46.505480334162712" lon="8.657921841368079">
        <ele>1678.1199999999999</ele>
        <time>2017-01-06T14:31:04Z</time>
      </trkpt>
      <trkpt lat="46.50550564751029" lon="8.657928043976426">
        <ele>1677.6400000000001</ele>
        <time>2017-01-06T14:31:08Z</time>
      </trkpt>
      <trkpt lat="46.505546048283577" lon="8.657950675114989">
        <ele>1677.6400000000001</ele>
        <time>2017-01-06T14:31:12Z</time>
      </trkpt>
      <trkpt lat="46.505669178441167" lon="8.657965175807476">
        <ele>1675.72</ele>
        <time>2017-01-06T14:31:23Z</time>
      </trkpt>
      <trkpt lat="46.505766743794084" lon="8.65796098485589">
        <ele>1674.75</ele>
        <time>2017-01-06T14:31:31Z</time>
      </trkpt>
      <trkpt lat="46.505845366045833" lon="8.657976323738694">
        <ele>1674.27</ele>
        <time>2017-01-06T14:31:37Z</time>
      </trkpt>
      <trkpt lat="46.50586623698473" lon="8.657995937392116">
        <ele>1673.79</ele>
        <time>2017-01-06T14:31:39Z</time>
      </trkpt>
      <trkpt lat="46.505884090438485" lon="8.658010186627507">
        <ele>1673.79</ele>
        <time>2017-01-06T14:31:41Z</time>
      </trkpt>
      <trkpt lat="46.505905715748668" lon="8.658072128891945">
        <ele>1674.27</ele>
        <time>2017-01-06T14:31:49Z</time>
      </trkpt>
      <trkpt lat="46.505905129015446" lon="8.65806701593101">
        <ele>1672.8299999999999</ele>
        <time>2017-01-06T14:32:00Z</time>
      </trkpt>
      <trkpt lat="46.505916779860854" lon="8.658086797222495">
        <ele>1672.8299999999999</ele>
        <time>2017-01-06T14:32:26Z</time>
      </trkpt>
      <trkpt lat="46.505934046581388" lon="8.658106327056885">
        <ele>1673.3099999999999</ele>
        <time>2017-01-06T14:32:52Z</time>
      </trkpt>
      <trkpt lat="46.505928765982389" lon="8.658102219924331">
        <ele>1673.3099999999999</ele>
        <time>2017-01-06T14:33:18Z</time>
      </trkpt>
      <trkpt lat="46.505929855629802" lon="8.65807288326323">
        <ele>1673.79</ele>
        <time>2017-01-06T14:33:49Z</time>
      </trkpt>
      <trkpt lat="46.50593907572329" lon="8.658062824979425">
        <ele>1673.79</ele>
        <time>2017-01-06T14:34:12Z</time>
      </trkpt>
      <trkpt lat="46.505937818437815" lon="8.658066429197788">
        <ele>1673.3099999999999</ele>
        <time>2017-01-06T14:34:35Z</time>
      </trkpt>
      <trkpt lat="46.505913427099586" lon="8.658071374520659">
        <ele>1673.3099999999999</ele>
        <time>2017-01-06T14:34:59Z</time>
      </trkpt>
      <trkpt lat="46.505922982469201" lon="8.658058298751712">
        <ele>1673.79</ele>
        <time>2017-01-06T14:35:16Z</time>
      </trkpt>
      <trkpt lat="46.505924491211772" lon="8.658057963475585">
        <ele>1673.3099999999999</ele>
        <time>2017-01-06T14:35:23Z</time>
      </trkpt>
      <trkpt lat="46.50591904297471" lon="8.658077409490943">
        <ele>1673.79</ele>
        <time>2017-01-06T14:35:31Z</time>
      </trkpt>
      <trkpt lat="46.505903117358685" lon="8.658060813322663">
        <ele>1673.3099999999999</ele>
        <time>2017-01-06T14:35:47Z</time>
      </trkpt>
      <trkpt lat="46.505898758769035" lon="8.658058969303966">
        <ele>1673.79</ele>
        <time>2017-01-06T14:35:55Z</time>
      </trkpt>
      <trkpt lat="46.505912924185395" lon="8.658054359257221">
        <ele>1673.79</ele>
        <time>2017-01-06T14:36:07Z</time>
      </trkpt>
      <trkpt lat="46.505899094045162" lon="8.658040026202798">
        <ele>1674.27</ele>
        <time>2017-01-06T14:36:20Z</time>
      </trkpt>
      <trkpt lat="46.505914013832808" lon="8.658031392842531">
        <ele>1674.75</ele>
        <time>2017-01-06T14:36:34Z</time>
      </trkpt>
      <trkpt lat="46.505902614444494" lon="8.658055700361729">
        <ele>1674.27</ele>
        <time>2017-01-06T14:36:52Z</time>
      </trkpt>
      <trkpt lat="46.505913930013776" lon="8.658062322065234">
        <ele>1674.27</ele>
        <time>2017-01-06T14:37:07Z</time>
      </trkpt>
      <trkpt lat="46.505918791517615" lon="8.658047737553716">
        <ele>1674.75</ele>
        <time>2017-01-06T14:37:23Z</time>
      </trkpt>
      <trkpt lat="46.505917198956013" lon="8.658044217154384">
        <ele>1674.75</ele>
        <time>2017-01-06T14:37:40Z</time>
      </trkpt>
      <trkpt lat="46.505913259461522" lon="8.658047486096621">
        <ele>1675.23</ele>
        <time>2017-01-06T14:37:54Z</time>
      </trkpt>
      <trkpt lat="46.505911331623793" lon="8.658056873828173">
        <ele>1675.23</ele>
        <time>2017-01-06T14:38:03Z</time>
      </trkpt>
      <trkpt lat="46.505907643586397" lon="8.658032733947039">
        <ele>1675.23</ele>
        <time>2017-01-06T14:38:23Z</time>
      </trkpt>
      <trkpt lat="46.505897669121623" lon="8.658065255731344">
        <ele>1675.23</ele>
        <time>2017-01-06T14:38:37Z</time>
      </trkpt>
      <trkpt lat="46.505910074338317" lon="8.658062824979425">
        <ele>1675.23</ele>
        <time>2017-01-06T14:38:49Z</time>
      </trkpt>
      <trkpt lat="46.505884090438485" lon="8.658042708411813">
        <ele>1675.23</ele>
        <time>2017-01-06T14:39:08Z</time>
      </trkpt>
      <trkpt lat="46.505882497876883" lon="8.65804991684854">
        <ele>1675.23</ele>
        <time>2017-01-06T14:39:24Z</time>
      </trkpt>
      <trkpt lat="46.505926083773375" lon="8.658056035637856">
        <ele>1675.72</ele>
        <time>2017-01-06T14:39:41Z</time>
      </trkpt>
      <trkpt lat="46.505933124572039" lon="8.658034913241863">
        <ele>1675.23</ele>
        <time>2017-01-06T14:40:05Z</time>
      </trkpt>
      <trkpt lat="46.505915690213442" lon="8.658027620986104">
        <ele>1675.72</ele>
        <time>2017-01-06T14:40:18Z</time>
      </trkpt>
      <trkpt lat="46.505897082388401" lon="8.658016305416822">
        <ele>1675.72</ele>
        <time>2017-01-06T14:40:28Z</time>
      </trkpt>
      <trkpt lat="46.505898172035813" lon="8.658022675663233">
        <ele>1675.72</ele>
        <time>2017-01-06T14:40:43Z</time>
      </trkpt>
      <trkpt lat="46.505894064903259" lon="8.658033739775419">
        <ele>1675.23</ele>
        <time>2017-01-06T14:40:57Z</time>
      </trkpt>
      <trkpt lat="46.505896998569369" lon="8.658032063394785">
        <ele>1675.23</ele>
        <time>2017-01-06T14:41:06Z</time>
      </trkpt>
      <trkpt lat="46.505925077944994" lon="8.65801764652133">
        <ele>1674.75</ele>
        <time>2017-01-06T14:41:16Z</time>
      </trkpt>
      <trkpt lat="46.505919629707932" lon="8.657971294596791">
        <ele>1674.27</ele>
        <time>2017-01-06T14:41:21Z</time>
      </trkpt>
      <trkpt lat="46.505971597507596" lon="8.65783684886992">
        <ele>1672.3499999999999</ele>
        <time>2017-01-06T14:41:30Z</time>
      </trkpt>
      <trkpt lat="46.50600797496736" lon="8.65781974978745">
        <ele>1671.8699999999999</ele>
        <time>2017-01-06T14:41:39Z</time>
      </trkpt>
      <trkpt lat="46.506024990230799" lon="8.657705504447222">
        <ele>1670.4300000000001</ele>
        <time>2017-01-06T14:41:47Z</time>
      </trkpt>
      <trkpt lat="46.506050387397408" lon="8.657595198601484">
        <ele>1669.47</ele>
        <time>2017-01-06T14:41:54Z</time>
      </trkpt>
      <trkpt lat="46.506077712401748" lon="8.657566448673606">
        <ele>1668.99</ele>
        <time>2017-01-06T14:42:03Z</time>
      </trkpt>
      <trkpt lat="46.506136301904917" lon="8.657395793125033">
        <ele>1667.54</ele>
        <time>2017-01-06T14:42:14Z</time>
      </trkpt>
      <trkpt lat="46.506171505898237" lon="8.657365953549743">
        <ele>1667.0599999999999</ele>
        <time>2017-01-06T14:42:22Z</time>
      </trkpt>
      <trkpt lat="46.506206290796399" lon="8.65720996633172">
        <ele>1665.1400000000001</ele>
        <time>2017-01-06T14:42:31Z</time>
      </trkpt>
      <trkpt lat="46.506228083744645" lon="8.657008381560445">
        <ele>1663.7</ele>
        <time>2017-01-06T14:42:42Z</time>
      </trkpt>
      <trkpt lat="46.506229760125279" lon="8.656950294971466">
        <ele>1663.7</ele>
        <time>2017-01-06T14:42:46Z</time>
      </trkpt>
      <trkpt lat="46.506229676306248" lon="8.656761618331075">
        <ele>1662.74</ele>
        <time>2017-01-06T14:42:58Z</time>
      </trkpt>
      <trkpt lat="46.506217354908586" lon="8.656638823449612">
        <ele>1662.26</ele>
        <time>2017-01-06T14:43:06Z</time>
      </trkpt>
      <trkpt lat="46.50620193220675" lon="8.656481662765145">
        <ele>1661.3</ele>
        <time>2017-01-06T14:43:17Z</time>
      </trkpt>
      <trkpt lat="46.506183994933963" lon="8.656399603933096">
        <ele>1660.8099999999999</ele>
        <time>2017-01-06T14:43:22Z</time>
      </trkpt>
      <trkpt lat="46.50619849562645" lon="8.656221656128764">
        <ele>1658.4100000000001</ele>
        <time>2017-01-06T14:43:33Z</time>
      </trkpt>
      <trkpt lat="46.506213583052158" lon="8.656136663630605">
        <ele>1657.45</ele>
        <time>2017-01-06T14:43:38Z</time>
      </trkpt>
      <trkpt lat="46.50620193220675" lon="8.65604798309505">
        <ele>1656.97</ele>
        <time>2017-01-06T14:43:43Z</time>
      </trkpt>
      <trkpt lat="46.506190029904246" lon="8.65601965226233">
        <ele>1656.97</ele>
        <time>2017-01-06T14:43:45Z</time>
      </trkpt>
      <trkpt lat="46.506133452057838" lon="8.655881434679031">
        <ele>1655.53</ele>
        <time>2017-01-06T14:43:55Z</time>
      </trkpt>
      <trkpt lat="46.506101517006755" lon="8.655661158263683">
        <ele>1654.0899999999999</ele>
        <time>2017-01-06T14:44:08Z</time>
      </trkpt>
      <trkpt lat="46.506057931110263" lon="8.655518833547831">
        <ele>1653.1199999999999</ele>
        <time>2017-01-06T14:44:17Z</time>
      </trkpt>
      <trkpt lat="46.506028091534972" lon="8.655441552400589">
        <ele>1652.1600000000001</ele>
        <time>2017-01-06T14:44:22Z</time>
      </trkpt>
      <trkpt lat="46.506008394062519" lon="8.655259246006608">
        <ele>1650.24</ele>
        <time>2017-01-06T14:44:33Z</time>
      </trkpt>
      <trkpt lat="46.50597520172596" lon="8.655062941834331">
        <ele>1648.3199999999999</ele>
        <time>2017-01-06T14:44:45Z</time>
      </trkpt>
      <trkpt lat="46.505948714911938" lon="8.654947355389595">
        <ele>1647.3599999999999</ele>
        <time>2017-01-06T14:44:52Z</time>
      </trkpt>
      <trkpt lat="46.505909152328968" lon="8.654766893014312">
        <ele>1646.4000000000001</ele>
        <time>2017-01-06T14:45:03Z</time>
      </trkpt>
      <trkpt lat="46.505842600017786" lon="8.654621886089444">
        <ele>1644.47</ele>
        <time>2017-01-06T14:45:14Z</time>
      </trkpt>
      <trkpt lat="46.505816197022796" lon="8.654567152261734">
        <ele>1643.99</ele>
        <time>2017-01-06T14:45:18Z</time>
      </trkpt>
      <trkpt lat="46.505724415183067" lon="8.654474364593625">
        <ele>1642.0699999999999</ele>
        <time>2017-01-06T14:45:30Z</time>
      </trkpt>
      <trkpt lat="46.505730366334319" lon="8.654472855851054">
        <ele>1642.0699999999999</ele>
        <time>2017-01-06T14:45:35Z</time>
      </trkpt>
      <trkpt lat="46.505714859813452" lon="8.65445064380765">
        <ele>1642.0699999999999</ele>
        <time>2017-01-06T14:45:37Z</time>
      </trkpt>
      <trkpt lat="46.505629532039165" lon="8.65428987890482">
        <ele>1639.6700000000001</ele>
        <time>2017-01-06T14:45:48Z</time>
      </trkpt>
      <trkpt lat="46.505547473207116" lon="8.65415358915925">
        <ele>1637.26</ele>
        <time>2017-01-06T14:45:58Z</time>
      </trkpt>
      <trkpt lat="46.505527105182409" lon="8.654107404872775">
        <ele>1636.3</ele>
        <time>2017-01-06T14:46:01Z</time>
      </trkpt>
      <trkpt lat="46.505420068278909" lon="8.653906490653753">
        <ele>1633.9000000000001</ele>
        <time>2017-01-06T14:46:15Z</time>
      </trkpt>
      <trkpt lat="46.505333567038178" lon="8.653762573376298">
        <ele>1632.46</ele>
        <time>2017-01-06T14:46:26Z</time>
      </trkpt>
      <trkpt lat="46.505245389416814" lon="8.653630558401346">
        <ele>1630.53</ele>
        <time>2017-01-06T14:46:36Z</time>
      </trkpt>
      <trkpt lat="46.505171880125999" lon="8.653494939208031">
        <ele>1628.6099999999999</ele>
        <time>2017-01-06T14:46:47Z</time>
      </trkpt>
      <trkpt lat="46.505092000588775" lon="8.653356889262795">
        <ele>1626.6900000000001</ele>
        <time>2017-01-06T14:46:59Z</time>
      </trkpt>
      <trkpt lat="46.505016731098294" lon="8.653237279504538">
        <ele>1625.73</ele>
        <time>2017-01-06T14:47:10Z</time>
      </trkpt>
      <trkpt lat="46.504973145201802" lon="8.653166787698865">
        <ele>1624.77</ele>
        <time>2017-01-06T14:47:16Z</time>
      </trkpt>
      <trkpt lat="46.504939533770084" lon="8.653127728030086">
        <ele>1624.77</ele>
        <time>2017-01-06T14:47:20Z</time>
      </trkpt>
      <trkpt lat="46.504841297864914" lon="8.653001496568322">
        <ele>1622.8399999999999</ele>
        <time>2017-01-06T14:47:32Z</time>
      </trkpt>
      <trkpt lat="46.504827635362744" lon="8.652980038896203">
        <ele>1622.8399999999999</ele>
        <time>2017-01-06T14:47:34Z</time>
      </trkpt>
      <trkpt lat="46.504740547388792" lon="8.652878450229764">
        <ele>1621.8800000000001</ele>
        <time>2017-01-06T14:47:44Z</time>
      </trkpt>
      <trkpt lat="46.504690926522017" lon="8.652753392234445">
        <ele>1620.4400000000001</ele>
        <time>2017-01-06T14:47:52Z</time>
      </trkpt>
      <trkpt lat="46.504664942622185" lon="8.652681224048138">
        <ele>1619.48</ele>
        <time>2017-01-06T14:47:57Z</time>
      </trkpt>
      <trkpt lat="46.504645328968763" lon="8.652615342289209">
        <ele>1618.52</ele>
        <time>2017-01-06T14:48:01Z</time>
      </trkpt>
      <trkpt lat="46.504614735022187" lon="8.652540994808078">
        <ele>1617.5599999999999</ele>
        <time>2017-01-06T14:48:06Z</time>
      </trkpt>
      <trkpt lat="46.50459042750299" lon="8.652502689510584">
        <ele>1617.5599999999999</ele>
        <time>2017-01-06T14:48:09Z</time>
      </trkpt>
      <trkpt lat="46.504549188539386" lon="8.652435131371021">
        <ele>1617.0699999999999</ele>
        <time>2017-01-06T14:48:14Z</time>
      </trkpt>
      <trkpt lat="46.504516080021858" lon="8.652396323159337">
        <ele>1617.0699999999999</ele>
        <time>2017-01-06T14:48:18Z</time>
      </trkpt>
      <trkpt lat="46.504460675641894" lon="8.652291717007756">
        <ele>1617.0699999999999</ele>
        <time>2017-01-06T14:48:26Z</time>
      </trkpt>
      <trkpt lat="46.504415581002831" lon="8.652199013158679">
        <ele>1617.5599999999999</ele>
        <time>2017-01-06T14:48:33Z</time>
      </trkpt>
      <trkpt lat="46.504423627629876" lon="8.652173029258847">
        <ele>1616.5899999999999</ele>
        <time>2017-01-06T14:48:42Z</time>
      </trkpt>
      <trkpt lat="46.504431925714016" lon="8.65217269398272">
        <ele>1617.0699999999999</ele>
        <time>2017-01-06T14:48:51Z</time>
      </trkpt>
      <trkpt lat="46.504438631236553" lon="8.652172274887562">
        <ele>1617.0699999999999</ele>
        <time>2017-01-06T14:48:52Z</time>
      </trkpt>
      <trkpt lat="46.504457406699657" lon="8.652188703417778">
        <ele>1617.0699999999999</ele>
        <time>2017-01-06T14:49:02Z</time>
      </trkpt>
      <trkpt lat="46.504429327324033" lon="8.652176465839148">
        <ele>1617.0699999999999</ele>
        <time>2017-01-06T14:49:05Z</time>
      </trkpt>
      <trkpt lat="46.504384065046906" lon="8.652146626263857">
        <ele>1617.0699999999999</ele>
        <time>2017-01-06T14:49:10Z</time>
      </trkpt>
      <trkpt lat="46.504345173016191" lon="8.651985358446837">
        <ele>1617.5599999999999</ele>
        <time>2017-01-06T14:49:20Z</time>
      </trkpt>
      <trkpt lat="46.50435883551836" lon="8.651955854147673">
        <ele>1618.04</ele>
        <time>2017-01-06T14:49:22Z</time>
      </trkpt>
      <trkpt lat="46.504405103623867" lon="8.651942778378725">
        <ele>1617.5599999999999</ele>
        <time>2017-01-06T14:49:26Z</time>
      </trkpt>
      <trkpt lat="46.50444433093071" lon="8.651939174160361">
        <ele>1617.5599999999999</ele>
        <time>2017-01-06T14:49:29Z</time>
      </trkpt>
      <trkpt lat="46.504471991211176" lon="8.65186583250761">
        <ele>1619</ele>
        <time>2017-01-06T14:49:37Z</time>
      </trkpt>
      <trkpt lat="46.504545919597149" lon="8.651838172227144">
        <ele>1619.96</ele>
        <time>2017-01-06T14:49:48Z</time>
      </trkpt>
      <trkpt lat="46.50458263233304" lon="8.651827275753021">
        <ele>1619.96</ele>
        <time>2017-01-06T14:49:57Z</time>
      </trkpt>
      <trkpt lat="46.504639126360416" lon="8.651785282418132">
        <ele>1621.4000000000001</ele>
        <time>2017-01-06T14:50:06Z</time>
      </trkpt>
      <trkpt lat="46.504686735570431" lon="8.651734907180071">
        <ele>1622.3599999999999</ele>
        <time>2017-01-06T14:50:15Z</time>
      </trkpt>
      <trkpt lat="46.504733003675938" lon="8.651769440621138">
        <ele>1622.8399999999999</ele>
        <time>2017-01-06T14:50:23Z</time>
      </trkpt>
      <trkpt lat="46.504821348935366" lon="8.651689393445849">
        <ele>1622.3599999999999</ele>
        <time>2017-01-06T14:50:35Z</time>
      </trkpt>
      <trkpt lat="46.504850182682276" lon="8.651664750650525">
        <ele>1623.3199999999999</ele>
        <time>2017-01-06T14:50:39Z</time>
      </trkpt>
      <trkpt lat="46.504881363362074" lon="8.651656117290258">
        <ele>1623.8</ele>
        <time>2017-01-06T14:50:43Z</time>
      </trkpt>
      <trkpt lat="46.504896702244878" lon="8.651650166139007">
        <ele>1624.28</ele>
        <time>2017-01-06T14:50:45Z</time>
      </trkpt>
      <trkpt lat="46.504990747198462" lon="8.651633905246854">
        <ele>1624.28</ele>
        <time>2017-01-06T14:50:56Z</time>
      </trkpt>
      <trkpt lat="46.504999799653888" lon="8.651635916903615">
        <ele>1626.21</ele>
        <time>2017-01-06T14:50:57Z</time>
      </trkpt>
      <trkpt lat="46.505066100507975" lon="8.651643376797438">
        <ele>1625.73</ele>
        <time>2017-01-06T14:51:03Z</time>
      </trkpt>
      <trkpt lat="46.505111111328006" lon="8.65163373760879">
        <ele>1625.73</ele>
        <time>2017-01-06T14:51:08Z</time>
      </trkpt>
      <trkpt lat="46.505125695839524" lon="8.651624182239175">
        <ele>1625.73</ele>
        <time>2017-01-06T14:51:10Z</time>
      </trkpt>
      <trkpt lat="46.505219237878919" lon="8.651637593284249">
        <ele>1626.21</ele>
        <time>2017-01-06T14:51:21Z</time>
      </trkpt>
      <trkpt lat="46.505303895100951" lon="8.651657290756702">
        <ele>1626.6900000000001</ele>
        <time>2017-01-06T14:51:31Z</time>
      </trkpt>
      <trkpt lat="46.505386624485254" lon="8.651644298806787">
        <ele>1627.1700000000001</ele>
        <time>2017-01-06T14:51:40Z</time>
      </trkpt>
      <trkpt lat="46.505464911460876" lon="8.651599204167724">
        <ele>1628.6099999999999</ele>
        <time>2017-01-06T14:51:51Z</time>
      </trkpt>
      <trkpt lat="46.505432222038507" lon="8.65163566544652">
        <ele>1628.6099999999999</ele>
        <time>2017-01-06T14:52:06Z</time>
      </trkpt>
      <trkpt lat="46.505478322505951" lon="8.651638263836503">
        <ele>1628.1300000000001</ele>
        <time>2017-01-06T14:52:17Z</time>
      </trkpt>
      <trkpt lat="46.505552753806114" lon="8.651655111461878">
        <ele>1628.1300000000001</ele>
        <time>2017-01-06T14:52:26Z</time>
      </trkpt>
      <trkpt lat="46.505639087408781" lon="8.651659972965717">
        <ele>1629.0899999999999</ele>
        <time>2017-01-06T14:52:36Z</time>
      </trkpt>
      <trkpt lat="46.505756936967373" lon="8.651663577184081">
        <ele>1629.0899999999999</ele>
        <time>2017-01-06T14:52:46Z</time>
      </trkpt>
      <trkpt lat="46.50584327057004" lon="8.651647819206119">
        <ele>1630.05</ele>
        <time>2017-01-06T14:52:57Z</time>
      </trkpt>
      <trkpt lat="46.505933711305261" lon="8.651605658233166">
        <ele>1631.01</ele>
        <time>2017-01-06T14:53:07Z</time>
      </trkpt>
      <trkpt lat="46.50595567189157" lon="8.65161269903183">
        <ele>1631.01</ele>
        <time>2017-01-06T14:53:09Z</time>
      </trkpt>
      <trkpt lat="46.506036724895239" lon="8.651601132005453">
        <ele>1631.01</ele>
        <time>2017-01-06T14:53:16Z</time>
      </trkpt>
      <trkpt lat="46.506054578348994" lon="8.651589648798108">
        <ele>1631.49</ele>
        <time>2017-01-06T14:53:21Z</time>
      </trkpt>
      <trkpt lat="46.506114341318607" lon="8.651554109528661">
        <ele>1630.53</ele>
        <time>2017-01-06T14:53:29Z</time>
      </trkpt>
      <trkpt lat="46.506184749305248" lon="8.65150767378509">
        <ele>1631.01</ele>
        <time>2017-01-06T14:53:39Z</time>
      </trkpt>
      <trkpt lat="46.506188185885549" lon="8.651501052081585">
        <ele>1631.01</ele>
        <time>2017-01-06T14:53:40Z</time>
      </trkpt>
      <trkpt lat="46.506221545860171" lon="8.651482528075576">
        <ele>1629.5699999999999</ele>
        <time>2017-01-06T14:53:50Z</time>
      </trkpt>
      <trkpt lat="46.506254822015762" lon="8.651472050696611">
        <ele>1628.6099999999999</ele>
        <time>2017-01-06T14:53:54Z</time>
      </trkpt>
      <trkpt lat="46.506309723481536" lon="8.651408599689603">
        <ele>1628.6099999999999</ele>
        <time>2017-01-06T14:54:02Z</time>
      </trkpt>
      <trkpt lat="46.506313662976027" lon="8.651350429281592">
        <ele>1627.1700000000001</ele>
        <time>2017-01-06T14:54:07Z</time>
      </trkpt>
      <trkpt lat="46.506372755393386" lon="8.651267532259226">
        <ele>1626.21</ele>
        <time>2017-01-06T14:54:17Z</time>
      </trkpt>
      <trkpt lat="46.506409300491214" lon="8.651312543079257">
        <ele>1625.73</ele>
        <time>2017-01-06T14:54:22Z</time>
      </trkpt>
      <trkpt lat="46.506467470899224" lon="8.651335509493947">
        <ele>1622.8399999999999</ele>
        <time>2017-01-06T14:54:30Z</time>
      </trkpt>
      <trkpt lat="46.506513571366668" lon="8.651340957731009">
        <ele>1621.8800000000001</ele>
        <time>2017-01-06T14:54:38Z</time>
      </trkpt>
      <trkpt lat="46.506562354043126" lon="8.651333246380091">
        <ele>1619.96</ele>
        <time>2017-01-06T14:54:46Z</time>
      </trkpt>
      <trkpt lat="46.506638545542955" lon="8.651339868083596">
        <ele>1619</ele>
        <time>2017-01-06T14:54:55Z</time>
      </trkpt>
      <trkpt lat="46.506625805050135" lon="8.65133224055171">
        <ele>1619</ele>
        <time>2017-01-06T14:55:03Z</time>
      </trkpt>
      <trkpt lat="46.506608622148633" lon="8.65133416838944">
        <ele>1619</ele>
        <time>2017-01-06T14:55:12Z</time>
      </trkpt>
      <trkpt lat="46.506621949374676" lon="8.651341628283262">
        <ele>1619</ele>
        <time>2017-01-06T14:55:24Z</time>
      </trkpt>
      <trkpt lat="46.506614908576012" lon="8.651352608576417">
        <ele>1618.52</ele>
        <time>2017-01-06T14:55:37Z</time>
      </trkpt>
      <trkpt lat="46.506610549986362" lon="8.651351854205132">
        <ele>1618.52</ele>
        <time>2017-01-06T14:55:47Z</time>
      </trkpt>
      <trkpt lat="46.506615160033107" lon="8.651376413181424">
        <ele>1618.52</ele>
        <time>2017-01-06T14:55:59Z</time>
      </trkpt>
      <trkpt lat="46.506632175296545" lon="8.651345819234848">
        <ele>1618.04</ele>
        <time>2017-01-06T14:56:12Z</time>
      </trkpt>
      <trkpt lat="46.506618345156312" lon="8.651333916932344">
        <ele>1618.04</ele>
        <time>2017-01-06T14:56:24Z</time>
      </trkpt>
      <trkpt lat="46.506636282429099" lon="8.651348920539022">
        <ele>1617.5599999999999</ele>
        <time>2017-01-06T14:56:32Z</time>
      </trkpt>
      <trkpt lat="46.506654638797045" lon="8.65139820612967">
        <ele>1618.52</ele>
        <time>2017-01-06T14:56:53Z</time>
      </trkpt>
      <trkpt lat="46.506615160033107" lon="8.651357386261225">
        <ele>1618.52</ele>
        <time>2017-01-06T14:57:07Z</time>
      </trkpt>
      <trkpt lat="46.506639970466495" lon="8.651342131197453">
        <ele>1618.04</ele>
        <time>2017-01-06T14:57:25Z</time>
      </trkpt>
      <trkpt lat="46.506643071770668" lon="8.651348585262895">
        <ele>1618.52</ele>
        <time>2017-01-06T14:57:40Z</time>
      </trkpt>
      <trkpt lat="46.506647346541286" lon="8.651350094005466">
        <ele>1619</ele>
        <time>2017-01-06T14:58:08Z</time>
      </trkpt>
      <trkpt lat="46.506642233580351" lon="8.651341125369072">
        <ele>1619</ele>
        <time>2017-01-06T14:58:33Z</time>
      </trkpt>
      <trkpt lat="46.506653465330601" lon="8.651358643546701">
        <ele>1618.52</ele>
        <time>2017-01-06T14:59:05Z</time>
      </trkpt>
      <trkpt lat="46.506634270772338" lon="8.65137180313468">
        <ele>1618.04</ele>
        <time>2017-01-06T14:59:35Z</time>
      </trkpt>
      <trkpt lat="46.506639886647463" lon="8.651429386809468">
        <ele>1618.52</ele>
        <time>2017-01-06T15:00:06Z</time>
      </trkpt>
      <trkpt lat="46.506623793393373" lon="8.65144900046289">
        <ele>1618.04</ele>
        <time>2017-01-06T15:00:17Z</time>
      </trkpt>
      <trkpt lat="46.506631001830101" lon="8.651366606354713">
        <ele>1619</ele>
        <time>2017-01-06T15:00:23Z</time>
      </trkpt>
      <trkpt lat="46.50660996325314" lon="8.651335760951042">
        <ele>1618.52</ele>
        <time>2017-01-06T15:00:36Z</time>
      </trkpt>
      <trkpt lat="46.506617926061153" lon="8.651358308270574">
        <ele>1618.52</ele>
        <time>2017-01-06T15:00:46Z</time>
      </trkpt>
      <trkpt lat="46.506603928282857" lon="8.651379849761725">
        <ele>1619.48</ele>
        <time>2017-01-06T15:01:03Z</time>
      </trkpt>
      <trkpt lat="46.50657425634563" lon="8.651356967166066">
        <ele>1619.48</ele>
        <time>2017-01-06T15:01:20Z</time>
      </trkpt>
      <trkpt lat="46.506600491702557" lon="8.651362583041191">
        <ele>1619</ele>
        <time>2017-01-06T15:01:37Z</time>
      </trkpt>
      <trkpt lat="46.5066206920892" lon="8.651364594697952">
        <ele>1618.52</ele>
        <time>2017-01-06T15:01:49Z</time>
      </trkpt>
      <trkpt lat="46.506632594391704" lon="8.651367360725999">
        <ele>1618.52</ele>
        <time>2017-01-06T15:02:03Z</time>
      </trkpt>
      <trkpt lat="46.506632678210735" lon="8.651377251371741">
        <ele>1619</ele>
        <time>2017-01-06T15:02:15Z</time>
      </trkpt>
      <trkpt lat="46.506628403440118" lon="8.651372976601124">
        <ele>1619</ele>
        <time>2017-01-06T15:02:30Z</time>
      </trkpt>
      <trkpt lat="46.506606275215745" lon="8.651353865861893">
        <ele>1619</ele>
        <time>2017-01-06T15:02:41Z</time>
      </trkpt>
      <trkpt lat="46.506614405661821" lon="8.651385800912976">
        <ele>1619</ele>
        <time>2017-01-06T15:02:57Z</time>
      </trkpt>
      <trkpt lat="46.506607951596379" lon="8.651402313262224">
        <ele>1619</ele>
        <time>2017-01-06T15:03:15Z</time>
      </trkpt>
      <trkpt lat="46.506638461723924" lon="8.651399463415146">
        <ele>1618.52</ele>
        <time>2017-01-06T15:03:30Z</time>
      </trkpt>
      <trkpt lat="46.506618512794375" lon="8.651394098997116">
        <ele>1619</ele>
        <time>2017-01-06T15:03:46Z</time>
      </trkpt>
      <trkpt lat="46.506611304357648" lon="8.651382364332676">
        <ele>1619</ele>
        <time>2017-01-06T15:04:06Z</time>
      </trkpt>
      <trkpt lat="46.506612813100219" lon="8.651395021006465">
        <ele>1619.48</ele>
        <time>2017-01-06T15:04:28Z</time>
      </trkpt>
      <trkpt lat="46.506637204438448" lon="8.651423854753375">
        <ele>1619.96</ele>
        <time>2017-01-06T15:04:39Z</time>
      </trkpt>
      <trkpt lat="46.506655225530267" lon="8.651400553062558">
        <ele>1619.96</ele>
        <time>2017-01-06T15:04:57Z</time>
      </trkpt>
      <trkpt lat="46.506658913567662" lon="8.651375658810139">
        <ele>1619.96</ele>
        <time>2017-01-06T15:05:22Z</time>
      </trkpt>
      <trkpt lat="46.506647849455476" lon="8.651339281350374">
        <ele>1619.96</ele>
        <time>2017-01-06T15:05:35Z</time>
      </trkpt>
      <trkpt lat="46.50668079033494" lon="8.651290582492948">
        <ele>1618.52</ele>
        <time>2017-01-06T15:05:46Z</time>
      </trkpt>
      <trkpt lat="46.506685400381684" lon="8.651275327429175">
        <ele>1617.5599999999999</ele>
        <time>2017-01-06T15:05:49Z</time>
      </trkpt>
      <trkpt lat="46.506696213036776" lon="8.651240458711982">
        <ele>1616.5899999999999</ele>
        <time>2017-01-06T15:05:54Z</time>
      </trkpt>
      <trkpt lat="46.50674139149487" lon="8.651258479803801">
        <ele>1614.6700000000001</ele>
        <time>2017-01-06T15:06:04Z</time>
      </trkpt>
      <trkpt lat="46.506766704842448" lon="8.651281027123332">
        <ele>1614.1900000000001</ele>
        <time>2017-01-06T15:06:08Z</time>
      </trkpt>
      <trkpt lat="46.506813978776336" lon="8.651335593312979">
        <ele>1612.75</ele>
        <time>2017-01-06T15:06:17Z</time>
      </trkpt>
      <trkpt lat="46.506817499175668" lon="8.651284631341696">
        <ele>1611.3099999999999</ele>
        <time>2017-01-06T15:06:25Z</time>
      </trkpt>
      <trkpt lat="46.50686108507216" lon="8.651254624128342">
        <ele>1608.4200000000001</ele>
        <time>2017-01-06T15:06:37Z</time>
      </trkpt>
      <trkpt lat="46.506840968504548" lon="8.651253031566739">
        <ele>1608.4200000000001</ele>
        <time>2017-01-06T15:06:49Z</time>
      </trkpt>
      <trkpt lat="46.506917998194695" lon="8.651272896677256">
        <ele>1606.02</ele>
        <time>2017-01-06T15:07:00Z</time>
      </trkpt>
      <trkpt lat="46.506963679566979" lon="8.651267951354384">
        <ele>1603.1400000000001</ele>
        <time>2017-01-06T15:07:10Z</time>
      </trkpt>
      <trkpt lat="46.507023274898529" lon="8.651279350742698">
        <ele>1600.73</ele>
        <time>2017-01-06T15:07:20Z</time>
      </trkpt>
      <trkpt lat="46.507032578811049" lon="8.651275662705302">
        <ele>1598.8099999999999</ele>
        <time>2017-01-06T15:07:28Z</time>
      </trkpt>
      <trkpt lat="46.507044900208712" lon="8.651292510330677">
        <ele>1598.3299999999999</ele>
        <time>2017-01-06T15:07:39Z</time>
      </trkpt>
      <trkpt lat="46.507083373144269" lon="8.651281278580427">
        <ele>1596.4100000000001</ele>
        <time>2017-01-06T15:07:48Z</time>
      </trkpt>
      <trkpt lat="46.50710885412991" lon="8.65121497772634">
        <ele>1593.52</ele>
        <time>2017-01-06T15:07:59Z</time>
      </trkpt>
      <trkpt lat="46.507133580744267" lon="8.651217576116324">
        <ele>1593.04</ele>
        <time>2017-01-06T15:08:09Z</time>
      </trkpt>
      <trkpt lat="46.507183033972979" lon="8.651247918605804">
        <ele>1591.1199999999999</ele>
        <time>2017-01-06T15:08:18Z</time>
      </trkpt>
      <trkpt lat="46.507239444181323" lon="8.65125403739512">
        <ele>1589.2</ele>
        <time>2017-01-06T15:08:27Z</time>
      </trkpt>
      <trkpt lat="46.507268948480487" lon="8.651313968002796">
        <ele>1587.27</ele>
        <time>2017-01-06T15:08:37Z</time>
      </trkpt>
      <trkpt lat="46.507286047562957" lon="8.651315812021494">
        <ele>1586.3099999999999</ele>
        <time>2017-01-06T15:08:47Z</time>
      </trkpt>
      <trkpt lat="46.507301218807697" lon="8.651273902505636">
        <ele>1585.3499999999999</ele>
        <time>2017-01-06T15:08:58Z</time>
      </trkpt>
      <trkpt lat="46.507326532155275" lon="8.651249343529344">
        <ele>1583.9100000000001</ele>
        <time>2017-01-06T15:09:06Z</time>
      </trkpt>
      <trkpt lat="46.507351426407695" lon="8.651283793151379">
        <ele>1581.99</ele>
        <time>2017-01-06T15:09:14Z</time>
      </trkpt>
      <trkpt lat="46.507365172728896" lon="8.651273483410478">
        <ele>1579.5799999999999</ele>
        <time>2017-01-06T15:09:23Z</time>
      </trkpt>
      <trkpt lat="46.507354527711868" lon="8.651216737926006">
        <ele>1577.6600000000001</ele>
        <time>2017-01-06T15:09:35Z</time>
      </trkpt>
      <trkpt lat="46.507378499954939" lon="8.651172313839197">
        <ele>1575.74</ele>
        <time>2017-01-06T15:09:47Z</time>
      </trkpt>
      <trkpt lat="46.507439017295837" lon="8.651199135929346">
        <ele>1572.8499999999999</ele>
        <time>2017-01-06T15:09:56Z</time>
      </trkpt>
      <trkpt lat="46.5075100120157" lon="8.651210032403469">
        <ele>1569.97</ele>
        <time>2017-01-06T15:10:05Z</time>
      </trkpt>
      <trkpt lat="46.507541360333562" lon="8.651258982717991">
        <ele>1569.49</ele>
        <time>2017-01-06T15:10:14Z</time>
      </trkpt>
      <trkpt lat="46.507578575983644" lon="8.651296198368073">
        <ele>1568.53</ele>
        <time>2017-01-06T15:10:25Z</time>
      </trkpt>
      <trkpt lat="46.507595591247082" lon="8.651224114000797">
        <ele>1566.1199999999999</ele>
        <time>2017-01-06T15:10:34Z</time>
      </trkpt>
      <trkpt lat="46.507659461349249" lon="8.651246158406138">
        <ele>1563.72</ele>
        <time>2017-01-06T15:10:44Z</time>
      </trkpt>
      <trkpt lat="46.507681841030717" lon="8.651221850886941">
        <ele>1562.28</ele>
        <time>2017-01-06T15:10:52Z</time>
      </trkpt>
      <trkpt lat="46.507711177691817" lon="8.651196705177426">
        <ele>1562.28</ele>
        <time>2017-01-06T15:11:01Z</time>
      </trkpt>
      <trkpt lat="46.507745459675789" lon="8.651132835075259">
        <ele>1561.8</ele>
        <time>2017-01-06T15:11:10Z</time>
      </trkpt>
      <trkpt lat="46.507812179625034" lon="8.651095284149051">
        <ele>1560.3599999999999</ele>
        <time>2017-01-06T15:11:19Z</time>
      </trkpt>
      <trkpt lat="46.507868086919188" lon="8.651101319119334">
        <ele>1558.9200000000001</ele>
        <time>2017-01-06T15:11:27Z</time>
      </trkpt>
      <trkpt lat="46.507949056103826" lon="8.651078771799803">
        <ele>1556.99</ele>
        <time>2017-01-06T15:11:37Z</time>
      </trkpt>
      <trkpt lat="46.507966658100486" lon="8.651061588898301">
        <ele>1555.55</ele>
        <time>2017-01-06T15:11:45Z</time>
      </trkpt>
      <trkpt lat="46.508011082187295" lon="8.65100190974772">
        <ele>1554.1099999999999</ele>
        <time>2017-01-06T15:11:56Z</time>
      </trkpt>
      <trkpt lat="46.508054416626692" lon="8.65091691724956">
        <ele>1551.71</ele>
        <time>2017-01-06T15:12:06Z</time>
      </trkpt>
      <trkpt lat="46.508059361949563" lon="8.650907445698977">
        <ele>1551.71</ele>
        <time>2017-01-06T15:12:07Z</time>
      </trkpt>
      <trkpt lat="46.508092219009995" lon="8.650825303047895">
        <ele>1549.3</ele>
        <time>2017-01-06T15:12:17Z</time>
      </trkpt>
      <trkpt lat="46.508098421618342" lon="8.650793032720685">
        <ele>1548.8199999999999</ele>
        <time>2017-01-06T15:12:19Z</time>
      </trkpt>
      <trkpt lat="46.508135050535202" lon="8.650773083791137">
        <ele>1545.9400000000001</ele>
        <time>2017-01-06T15:12:29Z</time>
      </trkpt>
      <trkpt lat="46.508216606453061" lon="8.650812562555075">
        <ele>1544.01</ele>
        <time>2017-01-06T15:12:39Z</time>
      </trkpt>
      <trkpt lat="46.508215349167585" lon="8.650804096832871">
        <ele>1543.53</ele>
        <time>2017-01-06T15:12:40Z</time>
      </trkpt>
      <trkpt lat="46.508246613666415" lon="8.65079278126359">
        <ele>1542.5699999999999</ele>
        <time>2017-01-06T15:12:50Z</time>
      </trkpt>
      <trkpt lat="46.508281230926514" lon="8.650787333026528">
        <ele>1542.0899999999999</ele>
        <time>2017-01-06T15:13:02Z</time>
      </trkpt>
      <trkpt lat="46.508319787681103" lon="8.650725306943059">
        <ele>1540.1700000000001</ele>
        <time>2017-01-06T15:13:11Z</time>
      </trkpt>
      <trkpt lat="46.508324230089784" lon="8.650721618905664">
        <ele>1539.6900000000001</ele>
        <time>2017-01-06T15:13:12Z</time>
      </trkpt>
      <trkpt lat="46.508362619206309" lon="8.650706950575113">
        <ele>1537.29</ele>
        <time>2017-01-06T15:13:21Z</time>
      </trkpt>
      <trkpt lat="46.50837535969913" lon="8.650639476254582">
        <ele>1534.8800000000001</ele>
        <time>2017-01-06T15:13:31Z</time>
      </trkpt>
      <trkpt lat="46.508435122668743" lon="8.650635117664933">
        <ele>1532.48</ele>
        <time>2017-01-06T15:13:41Z</time>
      </trkpt>
      <trkpt lat="46.50844962336123" lon="8.650645008310676">
        <ele>1532</ele>
        <time>2017-01-06T15:13:43Z</time>
      </trkpt>
      <trkpt lat="46.508477618917823" lon="8.650617264211178">
        <ele>1530.0799999999999</ele>
        <time>2017-01-06T15:13:51Z</time>
      </trkpt>
      <trkpt lat="46.508478205651045" lon="8.650555238127708">
        <ele>1527.6700000000001</ele>
        <time>2017-01-06T15:14:00Z</time>
      </trkpt>
      <trkpt lat="46.508499747142196" lon="8.650529002770782">
        <ele>1525.27</ele>
        <time>2017-01-06T15:14:09Z</time>
      </trkpt>
      <trkpt lat="46.508557749912143" lon="8.650500336661935">
        <ele>1523.8299999999999</ele>
        <time>2017-01-06T15:14:20Z</time>
      </trkpt>
      <trkpt lat="46.508527155965567" lon="8.650518022477627">
        <ele>1522.8699999999999</ele>
        <time>2017-01-06T15:14:36Z</time>
      </trkpt>
      <trkpt lat="46.508537298068404" lon="8.650525147095323">
        <ele>1523.3499999999999</ele>
        <time>2017-01-06T15:14:52Z</time>
      </trkpt>
      <trkpt lat="46.508533023297787" lon="8.650518693029881">
        <ele>1524.79</ele>
        <time>2017-01-06T15:15:10Z</time>
      </trkpt>
      <trkpt lat="46.508533610031009" lon="8.650523722171783">
        <ele>1523.3499999999999</ele>
        <time>2017-01-06T15:15:30Z</time>
      </trkpt>
      <trkpt lat="46.5085444226861" lon="8.65053185261786">
        <ele>1524.3099999999999</ele>
        <time>2017-01-06T15:15:40Z</time>
      </trkpt>
      <trkpt lat="46.508544590324163" lon="8.6505435872823">
        <ele>1524.3099999999999</ele>
        <time>2017-01-06T15:15:55Z</time>
      </trkpt>
      <trkpt lat="46.508520785719156" lon="8.65052841603756">
        <ele>1524.3099999999999</ele>
        <time>2017-01-06T15:16:15Z</time>
      </trkpt>
      <trkpt lat="46.508536459878087" lon="8.650546353310347">
        <ele>1524.3099999999999</ele>
        <time>2017-01-06T15:16:31Z</time>
      </trkpt>
      <trkpt lat="46.508550541475415" lon="8.650509053841233">
        <ele>1524.3099999999999</ele>
        <time>2017-01-06T15:16:53Z</time>
      </trkpt>
      <trkpt lat="46.508561437949538" lon="8.650522464886308">
        <ele>1524.79</ele>
        <time>2017-01-06T15:17:13Z</time>
      </trkpt>
      <trkpt lat="46.508566047996283" lon="8.650531098246574">
        <ele>1524.3099999999999</ele>
        <time>2017-01-06T15:17:23Z</time>
      </trkpt>
      <trkpt lat="46.508568897843361" lon="8.650495810434222">
        <ele>1525.27</ele>
        <time>2017-01-06T15:17:36Z</time>
      </trkpt>
      <trkpt lat="46.508578369393945" lon="8.650528583675623">
        <ele>1524.79</ele>
        <time>2017-01-06T15:17:58Z</time>
      </trkpt>
      <trkpt lat="46.508616842329502" lon="8.650516681373119">
        <ele>1524.79</ele>
        <time>2017-01-06T15:18:10Z</time>
      </trkpt>
      <trkpt lat="46.508616842329502" lon="8.650427497923374">
        <ele>1523.8299999999999</ele>
        <time>2017-01-06T15:18:16Z</time>
      </trkpt>
      <trkpt lat="46.508644502609968" lon="8.650427330285311">
        <ele>1522.8699999999999</ele>
        <time>2017-01-06T15:18:26Z</time>
      </trkpt>
      <trkpt lat="46.50864508934319" lon="8.650450799614191">
        <ele>1523.3499999999999</ele>
        <time>2017-01-06T15:18:45Z</time>
      </trkpt>
      <trkpt lat="46.508657494559884" lon="8.650478208437562">
        <ele>1523.3499999999999</ele>
        <time>2017-01-06T15:19:01Z</time>
      </trkpt>
      <trkpt lat="46.508628996089101" lon="8.650505114346743">
        <ele>1523.8299999999999</ele>
        <time>2017-01-06T15:19:15Z</time>
      </trkpt>
      <trkpt lat="46.50861038826406" lon="8.650480136275291">
        <ele>1522.8699999999999</ele>
        <time>2017-01-06T15:19:38Z</time>
      </trkpt>
      <trkpt lat="46.50860158726573" lon="8.650474268943071">
        <ele>1523.3499999999999</ele>
        <time>2017-01-06T15:19:55Z</time>
      </trkpt>
      <trkpt lat="46.508612483739853" lon="8.650482567027211">
        <ele>1523.8299999999999</ele>
        <time>2017-01-06T15:20:12Z</time>
      </trkpt>
      <trkpt lat="46.508588176220655" lon="8.650468401610851">
        <ele>1523.3499999999999</ele>
        <time>2017-01-06T15:20:26Z</time>
      </trkpt>
      <trkpt lat="46.508584655821323" lon="8.650465048849583">
        <ele>1523.3499999999999</ele>
        <time>2017-01-06T15:20:36Z</time>
      </trkpt>
      <trkpt lat="46.508598485961556" lon="8.650449709966779">
        <ele>1523.8299999999999</ele>
        <time>2017-01-06T15:20:55Z</time>
      </trkpt>
      <trkpt lat="46.508626565337181" lon="8.650452056899667">
        <ele>1523.8299999999999</ele>
        <time>2017-01-06T15:21:14Z</time>
      </trkpt>
      <trkpt lat="46.508623044937849" lon="8.650435293093324">
        <ele>1524.3099999999999</ele>
        <time>2017-01-06T15:21:29Z</time>
      </trkpt>
      <trkpt lat="46.508603934198618" lon="8.650471670553088">
        <ele>1524.3099999999999</ele>
        <time>2017-01-06T15:21:50Z</time>
      </trkpt>
      <trkpt lat="46.508586416020989" lon="8.650477705523372">
        <ele>1523.8299999999999</ele>
        <time>2017-01-06T15:22:05Z</time>
      </trkpt>
      <trkpt lat="46.508571747690439" lon="8.650505701079965">
        <ele>1524.79</ele>
        <time>2017-01-06T15:22:32Z</time>
      </trkpt>
      <trkpt lat="46.508562862873077" lon="8.65050109103322">
        <ele>1524.79</ele>
        <time>2017-01-06T15:22:49Z</time>
      </trkpt>
      <trkpt lat="46.508620698004961" lon="8.650401262566447">
        <ele>1525.27</ele>
        <time>2017-01-06T15:23:19Z</time>
      </trkpt>
      <trkpt lat="46.508661769330502" lon="8.650354575365782">
        <ele>1523.3499999999999</ele>
        <time>2017-01-06T15:23:28Z</time>
      </trkpt>
      <trkpt lat="46.508692698553205" lon="8.650323646143079">
        <ele>1523.3499999999999</ele>
        <time>2017-01-06T15:23:31Z</time>
      </trkpt>
      <trkpt lat="46.508739721029997" lon="8.650264134630561">
        <ele>1522.3900000000001</ele>
        <time>2017-01-06T15:23:39Z</time>
      </trkpt>
      <trkpt lat="46.508750366047025" lon="8.650204036384821">
        <ele>1521.4200000000001</ele>
        <time>2017-01-06T15:23:42Z</time>
      </trkpt>
      <trkpt lat="46.508759753778577" lon="8.650180902332068">
        <ele>1521.4200000000001</ele>
        <time>2017-01-06T15:23:44Z</time>
      </trkpt>
      <trkpt lat="46.508762687444687" lon="8.650151146575809">
        <ele>1520.9400000000001</ele>
        <time>2017-01-06T15:23:46Z</time>
      </trkpt>
      <trkpt lat="46.50878774933517" lon="8.650106051936746">
        <ele>1520.9400000000001</ele>
        <time>2017-01-06T15:23:50Z</time>
      </trkpt>
      <trkpt lat="46.508804177865386" lon="8.650005972012878">
        <ele>1519.98</ele>
        <time>2017-01-06T15:23:57Z</time>
      </trkpt>
      <trkpt lat="46.508869808167219" lon="8.649966241791844">
        <ele>1518.0599999999999</ele>
        <time>2017-01-06T15:24:07Z</time>
      </trkpt>
      <trkpt lat="46.508923452347517" lon="8.649971941486001">
        <ele>1515.6600000000001</ele>
        <time>2017-01-06T15:24:16Z</time>
      </trkpt>
      <trkpt lat="46.508974162861705" lon="8.649962972849608">
        <ele>1513.25</ele>
        <time>2017-01-06T15:24:25Z</time>
      </trkpt>
      <trkpt lat="46.508984556421638" lon="8.649918213486671">
        <ele>1511.8099999999999</ele>
        <time>2017-01-06T15:24:34Z</time>
      </trkpt>
      <trkpt lat="46.508998135104775" lon="8.649898180738092">
        <ele>1511.3299999999999</ele>
        <time>2017-01-06T15:24:36Z</time>
      </trkpt>
      <trkpt lat="46.5090555511415" lon="8.649884685873985">
        <ele>1508.45</ele>
        <time>2017-01-06T15:24:46Z</time>
      </trkpt>
      <trkpt lat="46.509124785661697" lon="8.649993566796184">
        <ele>1506.52</ele>
        <time>2017-01-06T15:24:57Z</time>
      </trkpt>
      <trkpt lat="46.509137526154518" lon="8.649939084425569">
        <ele>1505.0799999999999</ele>
        <time>2017-01-06T15:25:03Z</time>
      </trkpt>
      <trkpt lat="46.509155044332147" lon="8.649845626205206">
        <ele>1503.6400000000001</ele>
        <time>2017-01-06T15:25:12Z</time>
      </trkpt>
      <trkpt lat="46.509161749854684" lon="8.649786785244942">
        <ele>1502.6800000000001</ele>
        <time>2017-01-06T15:25:17Z</time>
      </trkpt>
      <trkpt lat="46.509158397093415" lon="8.649703804403544">
        <ele>1500.76</ele>
        <time>2017-01-06T15:25:24Z</time>
      </trkpt>
      <trkpt lat="46.509174490347505" lon="8.649600790813565">
        <ele>1499.3099999999999</ele>
        <time>2017-01-06T15:25:31Z</time>
      </trkpt>
      <trkpt lat="46.509179687127471" lon="8.649544967338443">
        <ele>1498.3499999999999</ele>
        <time>2017-01-06T15:25:35Z</time>
      </trkpt>
      <trkpt lat="46.509175999090075" lon="8.649512948468328">
        <ele>1497.3900000000001</ele>
        <time>2017-01-06T15:25:38Z</time>
      </trkpt>
      <trkpt lat="46.50916401296854" lon="8.649469949305058">
        <ele>1496.9100000000001</ele>
        <time>2017-01-06T15:25:42Z</time>
      </trkpt>
      <trkpt lat="46.509141130372882" lon="8.649386549368501">
        <ele>1496.9100000000001</ele>
        <time>2017-01-06T15:25:48Z</time>
      </trkpt>
      <trkpt lat="46.509128138422966" lon="8.649329300969839">
        <ele>1495.95</ele>
        <time>2017-01-06T15:25:52Z</time>
      </trkpt>
      <trkpt lat="46.509082289412618" lon="8.649274902418256">
        <ele>1495.47</ele>
        <time>2017-01-06T15:25:57Z</time>
      </trkpt>
      <trkpt lat="46.508955974131823" lon="8.649199968203902">
        <ele>1494.99</ele>
        <time>2017-01-06T15:26:10Z</time>
      </trkpt>
      <trkpt lat="46.508937366306782" lon="8.649194855242968">
        <ele>1494.99</ele>
        <time>2017-01-06T15:26:12Z</time>
      </trkpt>
      <trkpt lat="46.508901240304112" lon="8.649122435599566">
        <ele>1494.51</ele>
        <time>2017-01-06T15:26:23Z</time>
      </trkpt>
      <trkpt lat="46.508905934169888" lon="8.649096870794892">
        <ele>1494.51</ele>
        <time>2017-01-06T15:26:37Z</time>
      </trkpt>
      <trkpt lat="46.508900569751859" lon="8.649096367880702">
        <ele>1494.51</ele>
        <time>2017-01-06T15:26:46Z</time>
      </trkpt>
      <trkpt lat="46.508894870057702" lon="8.649089997634292">
        <ele>1494.51</ele>
        <time>2017-01-06T15:26:56Z</time>
      </trkpt>
      <trkpt lat="46.508883805945516" lon="8.649086561053991">
        <ele>1494.03</ele>
        <time>2017-01-06T15:26:58Z</time>
      </trkpt>
      <trkpt lat="46.508845668286085" lon="8.649060912430286">
        <ele>1494.03</ele>
        <time>2017-01-06T15:27:03Z</time>
      </trkpt>
      <trkpt lat="46.508789341896772" lon="8.648940296843648">
        <ele>1494.03</ele>
        <time>2017-01-06T15:27:14Z</time>
      </trkpt>
      <trkpt lat="46.508752377703786" lon="8.648864272981882">
        <ele>1494.03</ele>
        <time>2017-01-06T15:27:20Z</time>
      </trkpt>
      <trkpt lat="46.508732344955206" lon="8.648766539990902">
        <ele>1494.03</ele>
        <time>2017-01-06T15:27:26Z</time>
      </trkpt>
      <trkpt lat="46.508721364662051" lon="8.648716080933809">
        <ele>1494.03</ele>
        <time>2017-01-06T15:27:29Z</time>
      </trkpt>
      <trkpt lat="46.508709210902452" lon="8.648536372929812">
        <ele>1494.03</ele>
        <time>2017-01-06T15:27:40Z</time>
      </trkpt>
      <trkpt lat="46.508711474016309" lon="8.648381810635328">
        <ele>1494.51</ele>
        <time>2017-01-06T15:27:50Z</time>
      </trkpt>
      <trkpt lat="46.508729578927159" lon="8.648217273876071">
        <ele>1494.03</ele>
        <time>2017-01-06T15:28:00Z</time>
      </trkpt>
      <trkpt lat="46.508746258914471" lon="8.64802666939795">
        <ele>1494.03</ele>
        <time>2017-01-06T15:28:12Z</time>
      </trkpt>
      <trkpt lat="46.50874868966639" lon="8.648010492324829">
        <ele>1494.03</ele>
        <time>2017-01-06T15:28:13Z</time>
      </trkpt>
      <trkpt lat="46.50875355117023" lon="8.647855343297124">
        <ele>1494.03</ele>
        <time>2017-01-06T15:28:23Z</time>
      </trkpt>
      <trkpt lat="46.508762519806623" lon="8.64777403883636">
        <ele>1494.03</ele>
        <time>2017-01-06T15:28:28Z</time>
      </trkpt>
      <trkpt lat="46.508771069347858" lon="8.647661972790957">
        <ele>1493.55</ele>
        <time>2017-01-06T15:28:36Z</time>
      </trkpt>
      <trkpt lat="46.508772829547524" lon="8.647573124617338">
        <ele>1493.55</ele>
        <time>2017-01-06T15:28:42Z</time>
      </trkpt>
      <trkpt lat="46.508770314976573" lon="8.647487880662084">
        <ele>1493.55</ele>
        <time>2017-01-06T15:28:47Z</time>
      </trkpt>
      <trkpt lat="46.508792024105787" lon="8.647301634773612">
        <ele>1493.55</ele>
        <time>2017-01-06T15:28:59Z</time>
      </trkpt>
      <trkpt lat="46.508803507313132" lon="8.647231142967939">
        <ele>1494.03</ele>
        <time>2017-01-06T15:29:03Z</time>
      </trkpt>
      <trkpt lat="46.508843991905451" lon="8.64711731672287">
        <ele>1494.03</ele>
        <time>2017-01-06T15:29:11Z</time>
      </trkpt>
      <trkpt lat="46.508882464841008" lon="8.646942051127553">
        <ele>1494.03</ele>
        <time>2017-01-06T15:29:22Z</time>
      </trkpt>
      <trkpt lat="46.508898725733161" lon="8.646871391683817">
        <ele>1494.03</ele>
        <time>2017-01-06T15:29:26Z</time>
      </trkpt>
      <trkpt lat="46.508914148434997" lon="8.646800061687827">
        <ele>1494.03</ele>
        <time>2017-01-06T15:29:31Z</time>
      </trkpt>
      <trkpt lat="46.508927643299103" lon="8.646752201020718">
        <ele>1494.03</ele>
        <time>2017-01-06T15:29:34Z</time>
      </trkpt>
      <trkpt lat="46.508974749594927" lon="8.646611552685499">
        <ele>1494.03</ele>
        <time>2017-01-06T15:29:45Z</time>
      </trkpt>
      <trkpt lat="46.508986232802272" lon="8.646552627906203">
        <ele>1494.51</ele>
        <time>2017-01-06T15:29:49Z</time>
      </trkpt>
      <trkpt lat="46.509022526443005" lon="8.64640393294394">
        <ele>1494.03</ele>
        <time>2017-01-06T15:29:59Z</time>
      </trkpt>
      <trkpt lat="46.509075667709112" lon="8.646226655691862">
        <ele>1494.51</ele>
        <time>2017-01-06T15:30:11Z</time>
      </trkpt>
      <trkpt lat="46.509098131209612" lon="8.646155493333936">
        <ele>1494.51</ele>
        <time>2017-01-06T15:30:16Z</time>
      </trkpt>
      <trkpt lat="46.509123193100095" lon="8.64606287330389">
        <ele>1494.51</ele>
        <time>2017-01-06T15:30:24Z</time>
      </trkpt>
      <trkpt lat="46.509144986048341" lon="8.646088521927595">
        <ele>1494.51</ele>
        <time>2017-01-06T15:30:29Z</time>
      </trkpt>
      <trkpt lat="46.509143896400928" lon="8.646039823070169">
        <ele>1494.51</ele>
        <time>2017-01-06T15:30:33Z</time>
      </trkpt>
      <trkpt lat="46.50917717255652" lon="8.645827174186707">
        <ele>1494.03</ele>
        <time>2017-01-06T15:30:45Z</time>
      </trkpt>
      <trkpt lat="46.509192511439323" lon="8.645775290206075">
        <ele>1494.03</ele>
        <time>2017-01-06T15:30:48Z</time>
      </trkpt>
      <trkpt lat="46.50922168046236" lon="8.64566314034164">
        <ele>1493.55</ele>
        <time>2017-01-06T15:30:55Z</time>
      </trkpt>
      <trkpt lat="46.509236013516784" lon="8.645591223612428">
        <ele>1494.51</ele>
        <time>2017-01-06T15:30:59Z</time>
      </trkpt>
      <trkpt lat="46.509256465360522" lon="8.645433224737644">
        <ele>1494.51</ele>
        <time>2017-01-06T15:31:11Z</time>
      </trkpt>
      <trkpt lat="46.509298207238317" lon="8.645379329100251">
        <ele>1494.99</ele>
        <time>2017-01-06T15:31:20Z</time>
      </trkpt>
      <trkpt lat="46.509339865297079" lon="8.645295593887568">
        <ele>1494.51</ele>
        <time>2017-01-06T15:31:31Z</time>
      </trkpt>
      <trkpt lat="46.509343553334475" lon="8.645228371024132">
        <ele>1494.51</ele>
        <time>2017-01-06T15:31:38Z</time>
      </trkpt>
      <trkpt lat="46.509359898045659" lon="8.645181432366371">
        <ele>1494.51</ele>
        <time>2017-01-06T15:31:41Z</time>
      </trkpt>
      <trkpt lat="46.509431228041649" lon="8.645053692162037">
        <ele>1494.51</ele>
        <time>2017-01-06T15:31:51Z</time>
      </trkpt>
      <trkpt lat="46.509458888322115" lon="8.645005999132991">
        <ele>1494.51</ele>
        <time>2017-01-06T15:31:55Z</time>
      </trkpt>
      <trkpt lat="46.509528625756502" lon="8.644929388538003">
        <ele>1494.03</ele>
        <time>2017-01-06T15:32:02Z</time>
      </trkpt>
      <trkpt lat="46.509616719558835" lon="8.644856549799442">
        <ele>1492.5799999999999</ele>
        <time>2017-01-06T15:32:12Z</time>
      </trkpt>
      <trkpt lat="46.509718727320433" lon="8.644774742424488">
        <ele>1493.55</ele>
        <time>2017-01-06T15:32:22Z</time>
      </trkpt>
      <trkpt lat="46.509810592979193" lon="8.644694443792105">
        <ele>1493.55</ele>
        <time>2017-01-06T15:32:33Z</time>
      </trkpt>
      <trkpt lat="46.509909499436617" lon="8.644544323906303">
        <ele>1493.55</ele>
        <time>2017-01-06T15:32:46Z</time>
      </trkpt>
      <trkpt lat="46.509932968765497" lon="8.644477603957057">
        <ele>1494.03</ele>
        <time>2017-01-06T15:32:51Z</time>
      </trkpt>
      <trkpt lat="46.509981583803892" lon="8.644340056926012">
        <ele>1494.51</ele>
        <time>2017-01-06T15:33:02Z</time>
      </trkpt>
      <trkpt lat="46.509986948221922" lon="8.644310720264912">
        <ele>1494.03</ele>
        <time>2017-01-06T15:33:04Z</time>
      </trkpt>
      <trkpt lat="46.51000932790339" lon="8.64421583712101">
        <ele>1494.03</ele>
        <time>2017-01-06T15:33:14Z</time>
      </trkpt>
      <trkpt lat="46.51001175865531" lon="8.644206449389458">
        <ele>1494.03</ele>
        <time>2017-01-06T15:33:15Z</time>
      </trkpt>
      <trkpt lat="46.510051321238279" lon="8.644067728891969">
        <ele>1494.03</ele>
        <time>2017-01-06T15:33:24Z</time>
      </trkpt>
      <trkpt lat="46.51006942614913" lon="8.643991872668266">
        <ele>1493.55</ele>
        <time>2017-01-06T15:33:29Z</time>
      </trkpt>
      <trkpt lat="46.510095996782184" lon="8.643877627328038">
        <ele>1493.0599999999999</ele>
        <time>2017-01-06T15:33:36Z</time>
      </trkpt>
      <trkpt lat="46.510101277381182" lon="8.643781822174788">
        <ele>1493.0599999999999</ele>
        <time>2017-01-06T15:33:42Z</time>
      </trkpt>
      <trkpt lat="46.510134804993868" lon="8.643634468317032">
        <ele>1493.0599999999999</ele>
        <time>2017-01-06T15:33:51Z</time>
      </trkpt>
      <trkpt lat="46.51016665622592" lon="8.64350588992238">
        <ele>1492.5799999999999</ele>
        <time>2017-01-06T15:33:59Z</time>
      </trkpt>
      <trkpt lat="46.510185431689024" lon="8.643405139446259">
        <ele>1493.0599999999999</ele>
        <time>2017-01-06T15:34:06Z</time>
      </trkpt>
      <trkpt lat="46.510214433073997" lon="8.643246637657285">
        <ele>1492.5799999999999</ele>
        <time>2017-01-06T15:34:16Z</time>
      </trkpt>
      <trkpt lat="46.510220300406218" lon="8.643069779500365">
        <ele>1492.0999999999999</ele>
        <time>2017-01-06T15:34:26Z</time>
      </trkpt>
      <trkpt lat="46.510234046727419" lon="8.64291706122458">
        <ele>1492.0999999999999</ele>
        <time>2017-01-06T15:34:36Z</time>
      </trkpt>
      <trkpt lat="46.510233292356133" lon="8.642814215272665">
        <ele>1492.0999999999999</ele>
        <time>2017-01-06T15:34:42Z</time>
      </trkpt>
      <trkpt lat="46.51023605838418" lon="8.642767276614904">
        <ele>1492.0999999999999</ele>
        <time>2017-01-06T15:34:50Z</time>
      </trkpt>
      <trkpt lat="46.51022432371974" lon="8.642595950514078">
        <ele>1492.0999999999999</ele>
        <time>2017-01-06T15:35:00Z</time>
      </trkpt>
      <trkpt lat="46.510220216587186" lon="8.64246217533946">
        <ele>1492.5799999999999</ele>
        <time>2017-01-06T15:35:08Z</time>
      </trkpt>
      <trkpt lat="46.510215103626251" lon="8.642389252781868">
        <ele>1493.0599999999999</ele>
        <time>2017-01-06T15:35:13Z</time>
      </trkpt>
      <trkpt lat="46.510206637904048" lon="8.642320185899735">
        <ele>1492.5799999999999</ele>
        <time>2017-01-06T15:35:17Z</time>
      </trkpt>
      <trkpt lat="46.510153077542782" lon="8.64209471270442">
        <ele>1492.0999999999999</ele>
        <time>2017-01-06T15:35:31Z</time>
      </trkpt>
      <trkpt lat="46.510146204382181" lon="8.642027406021953">
        <ele>1491.6199999999999</ele>
        <time>2017-01-06T15:35:35Z</time>
      </trkpt>
      <trkpt lat="46.510120052844286" lon="8.641854822635651">
        <ele>1491.1400000000001</ele>
        <time>2017-01-06T15:35:47Z</time>
      </trkpt>
      <trkpt lat="46.510104713961482" lon="8.641776368021965">
        <ele>1491.1400000000001</ele>
        <time>2017-01-06T15:35:51Z</time>
      </trkpt>
      <trkpt lat="46.510084513574839" lon="8.64164225757122">
        <ele>1490.6600000000001</ele>
        <time>2017-01-06T15:35:59Z</time>
      </trkpt>
      <trkpt lat="46.510082334280014" lon="8.641475960612297">
        <ele>1490.6600000000001</ele>
        <time>2017-01-06T15:36:08Z</time>
      </trkpt>
      <trkpt lat="46.510085435584188" lon="8.641305221244693">
        <ele>1491.1400000000001</ele>
        <time>2017-01-06T15:36:18Z</time>
      </trkpt>
      <trkpt lat="46.510103372856975" lon="8.641118220984936">
        <ele>1491.1400000000001</ele>
        <time>2017-01-06T15:36:29Z</time>
      </trkpt>
      <trkpt lat="46.510108653455973" lon="8.640926945954561">
        <ele>1491.6199999999999</ele>
        <time>2017-01-06T15:36:40Z</time>
      </trkpt>
      <trkpt lat="46.510112676769495" lon="8.640708094462752">
        <ele>1491.1400000000001</ele>
        <time>2017-01-06T15:36:53Z</time>
      </trkpt>
      <trkpt lat="46.510114688426256" lon="8.640525620430708">
        <ele>1490.6600000000001</ele>
        <time>2017-01-06T15:37:03Z</time>
      </trkpt>
      <trkpt lat="46.510141342878342" lon="8.640407519415021">
        <ele>1491.1400000000001</ele>
        <time>2017-01-06T15:37:10Z</time>
      </trkpt>
      <trkpt lat="46.510150730609894" lon="8.64025061018765">
        <ele>1490.6600000000001</ele>
        <time>2017-01-06T15:37:19Z</time>
      </trkpt>
      <trkpt lat="46.510179815813899" lon="8.640047768130899">
        <ele>1490.1800000000001</ele>
        <time>2017-01-06T15:37:31Z</time>
      </trkpt>
      <trkpt lat="46.510204123333097" lon="8.6399354506284">
        <ele>1489.7</ele>
        <time>2017-01-06T15:37:38Z</time>
      </trkpt>
      <trkpt lat="46.510260784998536" lon="8.639718862250447">
        <ele>1489.22</ele>
        <time>2017-01-06T15:37:51Z</time>
      </trkpt>
      <trkpt lat="46.510297581553459" lon="8.639548122882843">
        <ele>1489.22</ele>
        <time>2017-01-06T15:38:01Z</time>
      </trkpt>
      <trkpt lat="46.510346028953791" lon="8.639377634972334">
        <ele>1489.22</ele>
        <time>2017-01-06T15:38:12Z</time>
      </trkpt>
      <trkpt lat="46.510385172441602" lon="8.639183677732945">
        <ele>1489.7</ele>
        <time>2017-01-06T15:38:24Z</time>
      </trkpt>
      <trkpt lat="46.510404786095023" lon="8.639032216742635">
        <ele>1489.22</ele>
        <time>2017-01-06T15:38:33Z</time>
      </trkpt>
      <trkpt lat="46.510415514931083" lon="8.638950912281871">
        <ele>1489.22</ele>
        <time>2017-01-06T15:38:38Z</time>
      </trkpt>
      <trkpt lat="46.510453736409545" lon="8.638800708577037">
        <ele>1489.22</ele>
        <time>2017-01-06T15:38:47Z</time>
      </trkpt>
      <trkpt lat="46.510493969544768" lon="8.638716973364353">
        <ele>1489.22</ele>
        <time>2017-01-06T15:38:53Z</time>
      </trkpt>
      <trkpt lat="46.51055364869535" lon="8.638605577871203">
        <ele>1489.7</ele>
        <time>2017-01-06T15:39:01Z</time>
      </trkpt>
      <trkpt lat="46.51061424985528" lon="8.638474568724632">
        <ele>1489.22</ele>
        <time>2017-01-06T15:39:10Z</time>
      </trkpt>
      <trkpt lat="46.510703014209867" lon="8.638323610648513">
        <ele>1488.74</ele>
        <time>2017-01-06T15:39:22Z</time>
      </trkpt>
      <trkpt lat="46.510796891525388" lon="8.638172233477235">
        <ele>1489.22</ele>
        <time>2017-01-06T15:39:35Z</time>
      </trkpt>
      <trkpt lat="46.51085564866662" lon="8.638019766658545">
        <ele>1489.22</ele>
        <time>2017-01-06T15:39:46Z</time>
      </trkpt>
      <trkpt lat="46.5108756814152" lon="8.637904599308968">
        <ele>1489.22</ele>
        <time>2017-01-06T15:39:53Z</time>
      </trkpt>
      <trkpt lat="46.510901413857937" lon="8.637719862163067">
        <ele>1489.22</ele>
        <time>2017-01-06T15:40:04Z</time>
      </trkpt>
      <trkpt lat="46.51090887375176" lon="8.637689771130681">
        <ele>1488.74</ele>
        <time>2017-01-06T15:40:06Z</time>
      </trkpt>
      <trkpt lat="46.51094751432538" lon="8.637643419206142">
        <ele>1488.74</ele>
        <time>2017-01-06T15:40:16Z</time>
      </trkpt>
      <trkpt lat="46.510971570387483" lon="8.637593798339367">
        <ele>1490.1800000000001</ele>
        <time>2017-01-06T15:40:22Z</time>
      </trkpt>
      <trkpt lat="46.510982802137733" lon="8.637531856074929">
        <ele>1490.1800000000001</ele>
        <time>2017-01-06T15:40:26Z</time>
      </trkpt>
      <trkpt lat="46.510993530973792" lon="8.637476870790124">
        <ele>1491.1400000000001</ele>
        <time>2017-01-06T15:40:30Z</time>
      </trkpt>
      <trkpt lat="46.510999565944076" lon="8.637315267696977">
        <ele>1492.5799999999999</ele>
        <time>2017-01-06T15:40:41Z</time>
      </trkpt>
      <trkpt lat="46.51099931448698" lon="8.637282997369766">
        <ele>1492.5799999999999</ele>
        <time>2017-01-06T15:40:43Z</time>
      </trkpt>
      <trkpt lat="46.510991351678967" lon="8.637243015691638">
        <ele>1493.55</ele>
        <time>2017-01-06T15:40:46Z</time>
      </trkpt>
      <trkpt lat="46.510949023067951" lon="8.637124160304666">
        <ele>1494.03</ele>
        <time>2017-01-06T15:40:56Z</time>
      </trkpt>
      <trkpt lat="46.51090057566762" lon="8.636993318796158">
        <ele>1495.47</ele>
        <time>2017-01-06T15:41:07Z</time>
      </trkpt>
      <trkpt lat="46.510869646444917" lon="8.636868093162775">
        <ele>1496.4300000000001</ele>
        <time>2017-01-06T15:41:17Z</time>
      </trkpt>
      <trkpt lat="46.51085514575243" lon="8.636820819228888">
        <ele>1496.4300000000001</ele>
        <time>2017-01-06T15:41:21Z</time>
      </trkpt>
      <trkpt lat="46.510835364460945" lon="8.636768264696002">
        <ele>1497.3900000000001</ele>
        <time>2017-01-06T15:41:26Z</time>
      </trkpt>
      <trkpt lat="46.510815164074302" lon="8.636673046275973">
        <ele>1498.8299999999999</ele>
        <time>2017-01-06T15:41:38Z</time>
      </trkpt>
      <trkpt lat="46.510820360854268" lon="8.636674135923386">
        <ele>1497.8699999999999</ele>
        <time>2017-01-06T15:41:57Z</time>
      </trkpt>
      <trkpt lat="46.510820193216205" lon="8.636656617745757">
        <ele>1498.3499999999999</ele>
        <time>2017-01-06T15:42:14Z</time>
      </trkpt>
      <trkpt lat="46.510831257328391" lon="8.636668184772134">
        <ele>1498.3499999999999</ele>
        <time>2017-01-06T15:42:28Z</time>
      </trkpt>
      <trkpt lat="46.510808039456606" lon="8.636623006314039">
        <ele>1499.3099999999999</ele>
        <time>2017-01-06T15:42:37Z</time>
      </trkpt>
      <trkpt lat="46.510789347812533" lon="8.636489482596517">
        <ele>1499.3099999999999</ele>
        <time>2017-01-06T15:42:47Z</time>
      </trkpt>
      <trkpt lat="46.510781971737742" lon="8.636372052133083">
        <ele>1499.79</ele>
        <time>2017-01-06T15:42:57Z</time>
      </trkpt>
      <trkpt lat="46.510763699188828" lon="8.63623165525496">
        <ele>1500.76</ele>
        <time>2017-01-06T15:43:08Z</time>
      </trkpt>
      <trkpt lat="46.510766381397843" lon="8.636180441826582">
        <ele>1499.79</ele>
        <time>2017-01-06T15:43:13Z</time>
      </trkpt>
      <trkpt lat="46.510773003101349" lon="8.636137861758471">
        <ele>1500.27</ele>
        <time>2017-01-06T15:43:16Z</time>
      </trkpt>
      <trkpt lat="46.510761855170131" lon="8.63596242852509">
        <ele>1500.76</ele>
        <time>2017-01-06T15:43:28Z</time>
      </trkpt>
      <trkpt lat="46.510744001716375" lon="8.635765872895718">
        <ele>1501.72</ele>
        <time>2017-01-06T15:43:41Z</time>
      </trkpt>
      <trkpt lat="46.510740648955107" lon="8.635687334463">
        <ele>1501.72</ele>
        <time>2017-01-06T15:43:46Z</time>
      </trkpt>
      <trkpt lat="46.510737463831902" lon="8.635551547631621">
        <ele>1501.72</ele>
        <time>2017-01-06T15:43:56Z</time>
      </trkpt>
      <trkpt lat="46.510742995887995" lon="8.635471668094397">
        <ele>1501.24</ele>
        <time>2017-01-06T15:44:05Z</time>
      </trkpt>
      <trkpt lat="46.510720616206527" lon="8.635457251220942">
        <ele>1502.2</ele>
        <time>2017-01-06T15:44:21Z</time>
      </trkpt>
      <trkpt lat="46.510702762752771" lon="8.635393129661679">
        <ele>1502.2</ele>
        <time>2017-01-06T15:44:26Z</time>
      </trkpt>
      <trkpt lat="46.510719358921051" lon="8.635394219309092">
        <ele>1502.2</ele>
        <time>2017-01-06T15:44:34Z</time>
      </trkpt>
      <trkpt lat="46.510716509073973" lon="8.635387429967523">
        <ele>1502.2</ele>
        <time>2017-01-06T15:44:38Z</time>
      </trkpt>
      <trkpt lat="46.510701421648264" lon="8.635353399440646">
        <ele>1503.1600000000001</ele>
        <time>2017-01-06T15:44:40Z</time>
      </trkpt>
      <trkpt lat="46.510654650628567" lon="8.635138152167201">
        <ele>1503.1600000000001</ele>
        <time>2017-01-06T15:44:53Z</time>
      </trkpt>
      <trkpt lat="46.510655153542757" lon="8.635003874078393">
        <ele>1503.6400000000001</ele>
        <time>2017-01-06T15:45:01Z</time>
      </trkpt>
      <trkpt lat="46.510677952319384" lon="8.634776640683413">
        <ele>1502.6800000000001</ele>
        <time>2017-01-06T15:45:13Z</time>
      </trkpt>
      <trkpt lat="46.510701505467296" lon="8.634575055912137">
        <ele>1502.2</ele>
        <time>2017-01-06T15:45:24Z</time>
      </trkpt>
      <trkpt lat="46.51070955209434" lon="8.634542701765895">
        <ele>1502.6800000000001</ele>
        <time>2017-01-06T15:45:26Z</time>
      </trkpt>
      <trkpt lat="46.510742073878646" lon="8.634484615176916">
        <ele>1502.2</ele>
        <time>2017-01-06T15:45:30Z</time>
      </trkpt>
      <trkpt lat="46.510760514065623" lon="8.634462738409638">
        <ele>1502.2</ele>
        <time>2017-01-06T15:45:32Z</time>
      </trkpt>
      <trkpt lat="46.510898480191827" lon="8.634442118927836">
        <ele>1502.6800000000001</ele>
        <time>2017-01-06T15:45:44Z</time>
      </trkpt>
      <trkpt lat="46.510961093008518" lon="8.63446282222867">
        <ele>1502.6800000000001</ele>
        <time>2017-01-06T15:45:50Z</time>
      </trkpt>
      <trkpt lat="46.51106427423656" lon="8.634561225771904">
        <ele>1502.6800000000001</ele>
        <time>2017-01-06T15:46:01Z</time>
      </trkpt>
      <trkpt lat="46.511071231216192" lon="8.634572457522154">
        <ele>1503.1600000000001</ele>
        <time>2017-01-06T15:46:02Z</time>
      </trkpt>
      <trkpt lat="46.511086486279964" lon="8.634588634595275">
        <ele>1503.1600000000001</ele>
        <time>2017-01-06T15:46:04Z</time>
      </trkpt>
      <trkpt lat="46.511100651696324" lon="8.634607326239348">
        <ele>1503.1600000000001</ele>
        <time>2017-01-06T15:46:06Z</time>
      </trkpt>
      <trkpt lat="46.511187236756086" lon="8.634710088372231">
        <ele>1504.1199999999999</ele>
        <time>2017-01-06T15:46:17Z</time>
      </trkpt>
      <trkpt lat="46.511235013604164" lon="8.634753506630659">
        <ele>1504.1199999999999</ele>
        <time>2017-01-06T15:46:23Z</time>
      </trkpt>
      <trkpt lat="46.511280359700322" lon="8.634765576571226">
        <ele>1504.5999999999999</ele>
        <time>2017-01-06T15:46:28Z</time>
      </trkpt>
      <trkpt lat="46.511376332491636" lon="8.634756859391928">
        <ele>1505.0799999999999</ele>
        <time>2017-01-06T15:46:37Z</time>
      </trkpt>
      <trkpt lat="46.511394269764423" lon="8.634749734774232">
        <ele>1505.0799999999999</ele>
        <time>2017-01-06T15:46:39Z</time>
      </trkpt>
      <trkpt lat="46.511468617245555" lon="8.634705394506455">
        <ele>1505.5599999999999</ele>
        <time>2017-01-06T15:46:48Z</time>
      </trkpt>
      <trkpt lat="46.51157783344388" lon="8.634634567424655">
        <ele>1505.5599999999999</ele>
        <time>2017-01-06T15:46:59Z</time>
      </trkpt>
      <trkpt lat="46.511696772649884" lon="8.634570026770234">
        <ele>1505.0799999999999</ele>
        <time>2017-01-06T15:47:11Z</time>
      </trkpt>
      <trkpt lat="46.511765923351049" lon="8.634520238265395">
        <ele>1504.5999999999999</ele>
        <time>2017-01-06T15:47:18Z</time>
      </trkpt>
      <trkpt lat="46.511828200891614" lon="8.634417140856385">
        <ele>1505.5599999999999</ele>
        <time>2017-01-06T15:47:26Z</time>
      </trkpt>
      <trkpt lat="46.511875139549375" lon="8.634299542754889">
        <ele>1503.1600000000001</ele>
        <time>2017-01-06T15:47:34Z</time>
      </trkpt>
      <trkpt lat="46.511935153976083" lon="8.634111704304814">
        <ele>1502.6800000000001</ele>
        <time>2017-01-06T15:47:47Z</time>
      </trkpt>
      <trkpt lat="46.51196675375104" lon="8.633959656581283">
        <ele>1501.72</ele>
        <time>2017-01-06T15:47:56Z</time>
      </trkpt>
      <trkpt lat="46.511970860883594" lon="8.633924787864089">
        <ele>1501.24</ele>
        <time>2017-01-06T15:47:58Z</time>
      </trkpt>
      <trkpt lat="46.512010004371405" lon="8.633769303560257">
        <ele>1500.76</ele>
        <time>2017-01-06T15:48:09Z</time>
      </trkpt>
      <trkpt lat="46.512060211971402" lon="8.633643742650747">
        <ele>1500.76</ele>
        <time>2017-01-06T15:48:19Z</time>
      </trkpt>
      <trkpt lat="46.512073706835508" lon="8.633616920560598">
        <ele>1500.27</ele>
        <time>2017-01-06T15:48:22Z</time>
      </trkpt>
      <trkpt lat="46.512158364057541" lon="8.633463615551591">
        <ele>1498.8299999999999</ele>
        <time>2017-01-06T15:48:34Z</time>
      </trkpt>
      <trkpt lat="46.512209828943014" lon="8.633405696600676">
        <ele>1497.8699999999999</ele>
        <time>2017-01-06T15:48:41Z</time>
      </trkpt>
      <trkpt lat="46.512277806177735" lon="8.633261108770967">
        <ele>1496.9100000000001</ele>
        <time>2017-01-06T15:48:53Z</time>
      </trkpt>
      <trkpt lat="46.512320889160037" lon="8.633199166506529">
        <ele>1496.9100000000001</ele>
        <time>2017-01-06T15:48:58Z</time>
      </trkpt>
      <trkpt lat="46.512331115081906" lon="8.633164130151272">
        <ele>1496.9100000000001</ele>
        <time>2017-01-06T15:49:00Z</time>
      </trkpt>
      <trkpt lat="46.512382244691253" lon="8.633045526221395">
        <ele>1495.95</ele>
        <time>2017-01-06T15:49:10Z</time>
      </trkpt>
      <trkpt lat="46.512438822537661" lon="8.63290211185813">
        <ele>1494.99</ele>
        <time>2017-01-06T15:49:20Z</time>
      </trkpt>
      <trkpt lat="46.512474277988076" lon="8.632847545668483">
        <ele>1494.51</ele>
        <time>2017-01-06T15:49:25Z</time>
      </trkpt>
      <trkpt lat="46.512491712346673" lon="8.632808234542608">
        <ele>1494.99</ele>
        <time>2017-01-06T15:49:28Z</time>
      </trkpt>
      <trkpt lat="46.512588942423463" lon="8.632780825719237">
        <ele>1494.51</ele>
        <time>2017-01-06T15:49:36Z</time>
      </trkpt>
      <trkpt lat="46.512676617130637" lon="8.632787615060806">
        <ele>1494.03</ele>
        <time>2017-01-06T15:49:45Z</time>
      </trkpt>
      <trkpt lat="46.512771835550666" lon="8.632784681394696">
        <ele>1493.55</ele>
        <time>2017-01-06T15:49:54Z</time>
      </trkpt>
      <trkpt lat="46.512779546901584" lon="8.632782585918903">
        <ele>1493.55</ele>
        <time>2017-01-06T15:49:55Z</time>
      </trkpt>
      <trkpt lat="46.512906113639474" lon="8.632671106606722">
        <ele>1493.0599999999999</ele>
        <time>2017-01-06T15:50:08Z</time>
      </trkpt>
      <trkpt lat="46.512996973469853" lon="8.632556777447462">
        <ele>1493.0599999999999</ele>
        <time>2017-01-06T15:50:19Z</time>
      </trkpt>
      <trkpt lat="46.513075428083539" lon="8.632442029193044">
        <ele>1493.0599999999999</ele>
        <time>2017-01-06T15:50:30Z</time>
      </trkpt>
      <trkpt lat="46.513120019808412" lon="8.632423840463162">
        <ele>1492.0999999999999</ele>
        <time>2017-01-06T15:50:40Z</time>
      </trkpt>
      <trkpt lat="46.513155391439795" lon="8.63230599090457">
        <ele>1492.5799999999999</ele>
        <time>2017-01-06T15:50:51Z</time>
      </trkpt>
      <trkpt lat="46.513245245441794" lon="8.63213793374598">
        <ele>1493.0599999999999</ele>
        <time>2017-01-06T15:51:02Z</time>
      </trkpt>
      <trkpt lat="46.51328019797802" lon="8.632053444162011">
        <ele>1492.5799999999999</ele>
        <time>2017-01-06T15:51:08Z</time>
      </trkpt>
      <trkpt lat="46.513300566002727" lon="8.632003236562014">
        <ele>1492.5799999999999</ele>
        <time>2017-01-06T15:51:11Z</time>
      </trkpt>
      <trkpt lat="46.51337600313127" lon="8.631819421425462">
        <ele>1492.5799999999999</ele>
        <time>2017-01-06T15:51:23Z</time>
      </trkpt>
      <trkpt lat="46.513413637876511" lon="8.631703080609441">
        <ele>1492.5799999999999</ele>
        <time>2017-01-06T15:51:31Z</time>
      </trkpt>
      <trkpt lat="46.513444231823087" lon="8.631647257134318">
        <ele>1492.5799999999999</ele>
        <time>2017-01-06T15:51:35Z</time>
      </trkpt>
      <trkpt lat="46.513541461899877" lon="8.631508620455861">
        <ele>1492.5799999999999</ele>
        <time>2017-01-06T15:51:47Z</time>
      </trkpt>
      <trkpt lat="46.513603571802378" lon="8.631374845281243">
        <ele>1493.0599999999999</ele>
        <time>2017-01-06T15:51:57Z</time>
      </trkpt>
      <trkpt lat="46.513688145205379" lon="8.631244087591767">
        <ele>1493.0599999999999</ele>
        <time>2017-01-06T15:52:07Z</time>
      </trkpt>
      <trkpt lat="46.513721169903874" lon="8.631152389571071">
        <ele>1493.0599999999999</ele>
        <time>2017-01-06T15:52:13Z</time>
      </trkpt>
      <trkpt lat="46.513789817690849" lon="8.631015764549375">
        <ele>1492.5799999999999</ele>
        <time>2017-01-06T15:52:23Z</time>
      </trkpt>
      <trkpt lat="46.513799875974655" lon="8.630986930802465">
        <ele>1491.6199999999999</ele>
        <time>2017-01-06T15:52:25Z</time>
      </trkpt>
      <trkpt lat="46.513839941471815" lon="8.630914594978094">
        <ele>1491.6199999999999</ele>
        <time>2017-01-06T15:52:31Z</time>
      </trkpt>
      <trkpt lat="46.51386508718133" lon="8.630814179778099">
        <ele>1491.1400000000001</ele>
        <time>2017-01-06T15:52:37Z</time>
      </trkpt>
      <trkpt lat="46.513914875686169" lon="8.630694821476936">
        <ele>1489.7</ele>
        <time>2017-01-06T15:52:46Z</time>
      </trkpt>
      <trkpt lat="46.5139667596668" lon="8.630516622215509">
        <ele>1488.26</ele>
        <time>2017-01-06T15:52:58Z</time>
      </trkpt>
      <trkpt lat="46.513970112428069" lon="8.630501199513674">
        <ele>1488.26</ele>
        <time>2017-01-06T15:52:59Z</time>
      </trkpt>
      <trkpt lat="46.513983104377985" lon="8.630449986085296">
        <ele>1487.3</ele>
        <time>2017-01-06T15:53:02Z</time>
      </trkpt>
      <trkpt lat="46.514010261744261" lon="8.63041159696877">
        <ele>1485.8499999999999</ele>
        <time>2017-01-06T15:53:05Z</time>
      </trkpt>
      <trkpt lat="46.514026271179318" lon="8.630297603085637">
        <ele>1485.8499999999999</ele>
        <time>2017-01-06T15:53:12Z</time>
      </trkpt>
      <trkpt lat="46.51404001750052" lon="8.630182603374124">
        <ele>1484.4100000000001</ele>
        <time>2017-01-06T15:53:19Z</time>
      </trkpt>
      <trkpt lat="46.514047728851438" lon="8.630100209265947">
        <ele>1484.4100000000001</ele>
        <time>2017-01-06T15:53:23Z</time>
      </trkpt>
      <trkpt lat="46.514052674174309" lon="8.630012702196837">
        <ele>1484.4100000000001</ele>
        <time>2017-01-06T15:53:28Z</time>
      </trkpt>
      <trkpt lat="46.514101792126894" lon="8.629730651155114">
        <ele>1481.05</ele>
        <time>2017-01-06T15:53:43Z</time>
      </trkpt>
      <trkpt lat="46.514112940058112" lon="8.629690585657954">
        <ele>1480.5699999999999</ele>
        <time>2017-01-06T15:53:45Z</time>
      </trkpt>
      <trkpt lat="46.514121573418379" lon="8.629655297845602">
        <ele>1480.5699999999999</ele>
        <time>2017-01-06T15:53:47Z</time>
      </trkpt>
      <trkpt lat="46.514163063839078" lon="8.629581118002534">
        <ele>1479.1300000000001</ele>
        <time>2017-01-06T15:53:52Z</time>
      </trkpt>
      <trkpt lat="46.514231711626053" lon="8.629399985074997">
        <ele>1477.6800000000001</ele>
        <time>2017-01-06T15:54:03Z</time>
      </trkpt>
      <trkpt lat="46.514231376349926" lon="8.629305521026254">
        <ele>1476.72</ele>
        <time>2017-01-06T15:54:08Z</time>
      </trkpt>
      <trkpt lat="46.514237662777305" lon="8.629165040329099">
        <ele>1476.24</ele>
        <time>2017-01-06T15:54:16Z</time>
      </trkpt>
      <trkpt lat="46.514266664162278" lon="8.628998743370175">
        <ele>1474.8</ele>
        <time>2017-01-06T15:54:25Z</time>
      </trkpt>
      <trkpt lat="46.514291474595666" lon="8.628860022872686">
        <ele>1473.8399999999999</ele>
        <time>2017-01-06T15:54:32Z</time>
      </trkpt>
      <trkpt lat="46.514368923380971" lon="8.628684841096401">
        <ele>1472.4000000000001</ele>
        <time>2017-01-06T15:54:43Z</time>
      </trkpt>
      <trkpt lat="46.514485767111182" lon="8.628560453653336">
        <ele>1470.95</ele>
        <time>2017-01-06T15:54:55Z</time>
      </trkpt>
      <trkpt lat="46.514535220339894" lon="8.628560034558177">
        <ele>1471.4400000000001</ele>
        <time>2017-01-06T15:54:59Z</time>
      </trkpt>
      <trkpt lat="46.514681065455079" lon="8.628598172217608">
        <ele>1470.95</ele>
        <time>2017-01-06T15:55:10Z</time>
      </trkpt>
      <trkpt lat="46.514840489253402" lon="8.628641171380878">
        <ele>1469.03</ele>
        <time>2017-01-06T15:55:21Z</time>
      </trkpt>
      <trkpt lat="46.514919530600309" lon="8.628645781427622">
        <ele>1470.47</ele>
        <time>2017-01-06T15:55:27Z</time>
      </trkpt>
      <trkpt lat="46.514971163123846" lon="8.628636477515101">
        <ele>1466.6300000000001</ele>
        <time>2017-01-06T15:55:31Z</time>
      </trkpt>
      <trkpt lat="46.514985328540206" lon="8.628633543848991">
        <ele>1466.6300000000001</ele>
        <time>2017-01-06T15:55:32Z</time>
      </trkpt>
      <trkpt lat="46.515071159228683" lon="8.628574870526791">
        <ele>1467.1099999999999</ele>
        <time>2017-01-06T15:55:39Z</time>
      </trkpt>
      <trkpt lat="46.515179956331849" lon="8.628436904400587">
        <ele>1465.6700000000001</ele>
        <time>2017-01-06T15:55:51Z</time>
      </trkpt>
      <trkpt lat="46.51519026607275" lon="8.628401113674045">
        <ele>1465.1900000000001</ele>
        <time>2017-01-06T15:55:53Z</time>
      </trkpt>
      <trkpt lat="46.515216920524836" lon="8.628167258575559">
        <ele>1462.78</ele>
        <time>2017-01-06T15:56:06Z</time>
      </trkpt>
      <trkpt lat="46.515238713473082" lon="8.627937342971563">
        <ele>1460.8599999999999</ele>
        <time>2017-01-06T15:56:19Z</time>
      </trkpt>
      <trkpt lat="46.515245502814651" lon="8.627840951085091">
        <ele>1459.9000000000001</ele>
        <time>2017-01-06T15:56:25Z</time>
      </trkpt>
      <trkpt lat="46.515270564705133" lon="8.627648251131177">
        <ele>1457.98</ele>
        <time>2017-01-06T15:56:35Z</time>
      </trkpt>
      <trkpt lat="46.515284227207303" lon="8.6274329200387">
        <ele>1455.5699999999999</ele>
        <time>2017-01-06T15:56:47Z</time>
      </trkpt>
      <trkpt lat="46.5153050981462" lon="8.627295037731528">
        <ele>1454.1300000000001</ele>
        <time>2017-01-06T15:56:54Z</time>
      </trkpt>
      <trkpt lat="46.5153275616467" lon="8.627065289765596">
        <ele>1452.21</ele>
        <time>2017-01-06T15:57:06Z</time>
      </trkpt>
      <trkpt lat="46.515334937721491" lon="8.626864291727543">
        <ele>1450.29</ele>
        <time>2017-01-06T15:57:17Z</time>
      </trkpt>
      <trkpt lat="46.515326304361224" lon="8.626643428578973">
        <ele>1447.8800000000001</ele>
        <time>2017-01-06T15:57:29Z</time>
      </trkpt>
      <trkpt lat="46.515306606888771" lon="8.626522477716208">
        <ele>1446.4400000000001</ele>
        <time>2017-01-06T15:57:36Z</time>
      </trkpt>
      <trkpt lat="46.515306439250708" lon="8.626320557668805">
        <ele>1444.04</ele>
        <time>2017-01-06T15:57:47Z</time>
      </trkpt>
      <trkpt lat="46.515309205278754" lon="8.626113776117563">
        <ele>1442.5999999999999</ele>
        <time>2017-01-06T15:57:58Z</time>
      </trkpt>
      <trkpt lat="46.515310797840357" lon="8.625886039808393">
        <ele>1440.6700000000001</ele>
        <time>2017-01-06T15:58:10Z</time>
      </trkpt>
      <trkpt lat="46.515313647687435" lon="8.625638522207737">
        <ele>1438.75</ele>
        <time>2017-01-06T15:58:23Z</time>
      </trkpt>
      <trkpt lat="46.515315659344196" lon="8.625477505847812">
        <ele>1436.8299999999999</ele>
        <time>2017-01-06T15:58:32Z</time>
      </trkpt>
      <trkpt lat="46.515296213328838" lon="8.625314645469189">
        <ele>1434.9100000000001</ele>
        <time>2017-01-06T15:58:41Z</time>
      </trkpt>
      <trkpt lat="46.515280539169908" lon="8.625098979100585">
        <ele>1432.98</ele>
        <time>2017-01-06T15:58:52Z</time>
      </trkpt>
      <trkpt lat="46.515269726514816" lon="8.624869398772717">
        <ele>1431.0599999999999</ele>
        <time>2017-01-06T15:59:04Z</time>
      </trkpt>
      <trkpt lat="46.515274755656719" lon="8.624770576134324">
        <ele>1431.0599999999999</ele>
        <time>2017-01-06T15:59:09Z</time>
      </trkpt>
      <trkpt lat="46.515301577746868" lon="8.624642584472895">
        <ele>1430.5799999999999</ele>
        <time>2017-01-06T15:59:16Z</time>
      </trkpt>
      <trkpt lat="46.515405513346195" lon="8.624383583664894">
        <ele>1428.1800000000001</ele>
        <time>2017-01-06T15:59:31Z</time>
      </trkpt>
      <trkpt lat="46.51545169763267" lon="8.624340333044529">
        <ele>1427.7</ele>
        <time>2017-01-06T15:59:35Z</time>
      </trkpt>
      <trkpt lat="46.515565775334835" lon="8.624217789620161">
        <ele>1427.7</ele>
        <time>2017-01-06T15:59:45Z</time>
      </trkpt>
      <trkpt lat="46.515696533024311" lon="8.624045960605145">
        <ele>1426.73</ele>
        <time>2017-01-06T15:59:58Z</time>
      </trkpt>
      <trkpt lat="46.515833325684071" lon="8.623876646161079">
        <ele>1425.77</ele>
        <time>2017-01-06T16:00:12Z</time>
      </trkpt>
      <trkpt lat="46.515946984291077" lon="8.623846471309662">
        <ele>1426.73</ele>
        <time>2017-01-06T16:00:22Z</time>
      </trkpt>
      <trkpt lat="46.516074389219284" lon="8.62383808940649">
        <ele>1427.21</ele>
        <time>2017-01-06T16:00:34Z</time>
      </trkpt>
      <trkpt lat="46.516152592375875" lon="8.623840771615505">
        <ele>1427.7</ele>
        <time>2017-01-06T16:00:40Z</time>
      </trkpt>
      <trkpt lat="46.516288463026285" lon="8.62380632199347">
        <ele>1427.21</ele>
        <time>2017-01-06T16:00:51Z</time>
      </trkpt>
      <trkpt lat="46.5163947455585" lon="8.623710433021188">
        <ele>1426.73</ele>
        <time>2017-01-06T16:01:01Z</time>
      </trkpt>
      <trkpt lat="46.516496250405908" lon="8.623548410832882">
        <ele>1426.25</ele>
        <time>2017-01-06T16:01:13Z</time>
      </trkpt>
      <trkpt lat="46.51650320738554" lon="8.623538687825203">
        <ele>1426.25</ele>
        <time>2017-01-06T16:01:14Z</time>
      </trkpt>
      <trkpt lat="46.516575710847974" lon="8.623410779982805">
        <ele>1426.73</ele>
        <time>2017-01-06T16:01:23Z</time>
      </trkpt>
      <trkpt lat="46.516719209030271" lon="8.623204249888659">
        <ele>1426.73</ele>
        <time>2017-01-06T16:01:38Z</time>
      </trkpt>
      <trkpt lat="46.516834544017911" lon="8.623050441965461">
        <ele>1426.73</ele>
        <time>2017-01-06T16:01:50Z</time>
      </trkpt>
      <trkpt lat="46.5169439278543" lon="8.622883893549442">
        <ele>1424.8099999999999</ele>
        <time>2017-01-06T16:02:02Z</time>
      </trkpt>
      <trkpt lat="46.517049623653293" lon="8.622728576883674">
        <ele>1423.3699999999999</ele>
        <time>2017-01-06T16:02:14Z</time>
      </trkpt>
      <trkpt lat="46.517067728564143" lon="8.62270150333643">
        <ele>1422.8900000000001</ele>
        <time>2017-01-06T16:02:16Z</time>
      </trkpt>
      <trkpt lat="46.517191529273987" lon="8.622511401772499">
        <ele>1421.45</ele>
        <time>2017-01-06T16:02:30Z</time>
      </trkpt>
      <trkpt lat="46.5172996558249" lon="8.622329430654645">
        <ele>1419.52</ele>
        <time>2017-01-06T16:02:43Z</time>
      </trkpt>
      <trkpt lat="46.517332512885332" lon="8.622244270518422">
        <ele>1420.49</ele>
        <time>2017-01-06T16:02:48Z</time>
      </trkpt>
      <trkpt lat="46.517346762120724" lon="8.622187105938792">
        <ele>1418.5599999999999</ele>
        <time>2017-01-06T16:02:51Z</time>
      </trkpt>
      <trkpt lat="46.517396634444594" lon="8.621950820088387">
        <ele>1418.5599999999999</ele>
        <time>2017-01-06T16:03:04Z</time>
      </trkpt>
      <trkpt lat="46.517439046874642" lon="8.621723502874374">
        <ele>1418.5599999999999</ele>
        <time>2017-01-06T16:03:17Z</time>
      </trkpt>
      <trkpt lat="46.517444411292672" lon="8.621689891442657">
        <ele>1418.5599999999999</ele>
        <time>2017-01-06T16:03:19Z</time>
      </trkpt>
      <trkpt lat="46.517481040209532" lon="8.621508087962866">
        <ele>1419.52</ele>
        <time>2017-01-06T16:03:29Z</time>
      </trkpt>
      <trkpt lat="46.517549101263285" lon="8.621309520676732">
        <ele>1419.52</ele>
        <time>2017-01-06T16:03:41Z</time>
      </trkpt>
      <trkpt lat="46.517592435702682" lon="8.621148755773902">
        <ele>1420</ele>
        <time>2017-01-06T16:03:53Z</time>
      </trkpt>
      <trkpt lat="46.517589250579476" lon="8.621146492660046">
        <ele>1419.52</ele>
        <time>2017-01-06T16:03:54Z</time>
      </trkpt>
      <trkpt lat="46.517611965537071" lon="8.621023530140519">
        <ele>1418.5599999999999</ele>
        <time>2017-01-06T16:04:03Z</time>
      </trkpt>
      <trkpt lat="46.517646163702011" lon="8.620921522378922">
        <ele>1419.52</ele>
        <time>2017-01-06T16:04:09Z</time>
      </trkpt>
      <trkpt lat="46.517685139551759" lon="8.620822029188275">
        <ele>1420</ele>
        <time>2017-01-06T16:04:18Z</time>
      </trkpt>
      <trkpt lat="46.517740124836564" lon="8.620700240135193">
        <ele>1420.49</ele>
        <time>2017-01-06T16:04:27Z</time>
      </trkpt>
      <trkpt lat="46.517797289416194" lon="8.620567303150892">
        <ele>1420.97</ele>
        <time>2017-01-06T16:04:37Z</time>
      </trkpt>
      <trkpt lat="46.51781371794641" lon="8.620530590415001">
        <ele>1420.97</ele>
        <time>2017-01-06T16:04:40Z</time>
      </trkpt>
      <trkpt lat="46.51785864494741" lon="8.620364377275109">
        <ele>1421.45</ele>
        <time>2017-01-06T16:04:51Z</time>
      </trkpt>
      <trkpt lat="46.517891921103001" lon="8.620195314288139">
        <ele>1420.97</ele>
        <time>2017-01-06T16:05:01Z</time>
      </trkpt>
      <trkpt lat="46.517921509221196" lon="8.620054582133889">
        <ele>1421.45</ele>
        <time>2017-01-06T16:05:09Z</time>
      </trkpt>
      <trkpt lat="46.517953528091311" lon="8.619859367609024">
        <ele>1420.97</ele>
        <time>2017-01-06T16:05:20Z</time>
      </trkpt>
      <trkpt lat="46.517998790368438" lon="8.61964026466012">
        <ele>1420.49</ele>
        <time>2017-01-06T16:05:32Z</time>
      </trkpt>
      <trkpt lat="46.518017398193479" lon="8.619534987956286">
        <ele>1420.49</ele>
        <time>2017-01-06T16:05:38Z</time>
      </trkpt>
      <trkpt lat="46.518018404021859" lon="8.61950296908617">
        <ele>1420</ele>
        <time>2017-01-06T16:05:40Z</time>
      </trkpt>
      <trkpt lat="46.51807171292603" lon="8.619344970211387">
        <ele>1420</ele>
        <time>2017-01-06T16:05:50Z</time>
      </trkpt>
      <trkpt lat="46.518114879727364" lon="8.619163585826755">
        <ele>1420.97</ele>
        <time>2017-01-06T16:06:01Z</time>
      </trkpt>
      <trkpt lat="46.518129883334041" lon="8.619016064330936">
        <ele>1420.97</ele>
        <time>2017-01-06T16:06:10Z</time>
      </trkpt>
      <trkpt lat="46.518142204731703" lon="8.618925623595715">
        <ele>1420.97</ele>
        <time>2017-01-06T16:06:15Z</time>
      </trkpt>
      <trkpt lat="46.518158297985792" lon="8.618873823434115">
        <ele>1421.45</ele>
        <time>2017-01-06T16:06:18Z</time>
      </trkpt>
      <trkpt lat="46.518155196681619" lon="8.618642315268517">
        <ele>1421.45</ele>
        <time>2017-01-06T16:06:31Z</time>
      </trkpt>
      <trkpt lat="46.518159471452236" lon="8.61860878765583">
        <ele>1421.45</ele>
        <time>2017-01-06T16:06:33Z</time>
      </trkpt>
      <trkpt lat="46.518185287714005" lon="8.618488842621446">
        <ele>1421.9300000000001</ele>
        <time>2017-01-06T16:06:40Z</time>
      </trkpt>
      <trkpt lat="46.518206242471933" lon="8.618409214541316">
        <ele>1422.4100000000001</ele>
        <time>2017-01-06T16:06:45Z</time>
      </trkpt>
      <trkpt lat="46.518263071775436" lon="8.618281139060855">
        <ele>1422.8900000000001</ele>
        <time>2017-01-06T16:06:54Z</time>
      </trkpt>
      <trkpt lat="46.518284948542714" lon="8.618237553164363">
        <ele>1423.3699999999999</ele>
        <time>2017-01-06T16:06:58Z</time>
      </trkpt>
      <trkpt lat="46.518341945484281" lon="8.618184998631477">
        <ele>1423.8499999999999</ele>
        <time>2017-01-06T16:07:04Z</time>
      </trkpt>
      <trkpt lat="46.51844940148294" lon="8.618126576766372">
        <ele>1424.8099999999999</ele>
        <time>2017-01-06T16:07:14Z</time>
      </trkpt>
      <trkpt lat="46.518542524427176" lon="8.618120457977057">
        <ele>1424.3299999999999</ele>
        <time>2017-01-06T16:07:22Z</time>
      </trkpt>
      <trkpt lat="46.518554259091616" lon="8.618120290338993">
        <ele>1424.3299999999999</ele>
        <time>2017-01-06T16:07:23Z</time>
      </trkpt>
      <trkpt lat="46.518656266853213" lon="8.618144094944">
        <ele>1424.3299999999999</ele>
        <time>2017-01-06T16:07:31Z</time>
      </trkpt>
      <trkpt lat="46.518678646534681" lon="8.618147866800427">
        <ele>1425.29</ele>
        <time>2017-01-06T16:07:33Z</time>
      </trkpt>
      <trkpt lat="46.518700690940022" lon="8.618143256753683">
        <ele>1425.29</ele>
        <time>2017-01-06T16:07:35Z</time>
      </trkpt>
      <trkpt lat="46.518734470009804" lon="8.618152812123299">
        <ele>1427.21</ele>
        <time>2017-01-06T16:07:38Z</time>
      </trkpt>
      <trkpt lat="46.518744360655546" lon="8.618151722475886">
        <ele>1426.25</ele>
        <time>2017-01-06T16:07:39Z</time>
      </trkpt>
      <trkpt lat="46.5187674947083" lon="8.618148704990745">
        <ele>1425.77</ele>
        <time>2017-01-06T16:07:41Z</time>
      </trkpt>
      <trkpt lat="46.51885642670095" lon="8.61810939386487">
        <ele>1425.77</ele>
        <time>2017-01-06T16:07:49Z</time>
      </trkpt>
      <trkpt lat="46.518913339823484" lon="8.618059018626809">
        <ele>1425.29</ele>
        <time>2017-01-06T16:07:55Z</time>
      </trkpt>
      <trkpt lat="46.518963128328323" lon="8.617939492687583">
        <ele>1424.8099999999999</ele>
        <time>2017-01-06T16:08:03Z</time>
      </trkpt>
      <trkpt lat="46.519015431404114" lon="8.617739332839847">
        <ele>1424.3299999999999</ele>
        <time>2017-01-06T16:08:16Z</time>
      </trkpt>
      <trkpt lat="46.519024148583412" lon="8.617648305371404">
        <ele>1423.8499999999999</ele>
        <time>2017-01-06T16:08:22Z</time>
      </trkpt>
      <trkpt lat="46.519046109169722" lon="8.617453426122665">
        <ele>1424.3299999999999</ele>
        <time>2017-01-06T16:08:33Z</time>
      </trkpt>
      <trkpt lat="46.519078798592091" lon="8.617248656228185">
        <ele>1424.3299999999999</ele>
        <time>2017-01-06T16:08:44Z</time>
      </trkpt>
      <trkpt lat="46.519101513549685" lon="8.617052687332034">
        <ele>1423.8499999999999</ele>
        <time>2017-01-06T16:08:55Z</time>
      </trkpt>
      <trkpt lat="46.519121965393424" lon="8.616904160007834">
        <ele>1423.3699999999999</ele>
        <time>2017-01-06T16:09:03Z</time>
      </trkpt>
      <trkpt lat="46.519141243770719" lon="8.616800811141729">
        <ele>1421.9300000000001</ele>
        <time>2017-01-06T16:09:10Z</time>
      </trkpt>
      <trkpt lat="46.519175190478563" lon="8.616581289097667">
        <ele>1421.45</ele>
        <time>2017-01-06T16:09:22Z</time>
      </trkpt>
      <trkpt lat="46.519192373380065" lon="8.616482047364116">
        <ele>1421.9300000000001</ele>
        <time>2017-01-06T16:09:28Z</time>
      </trkpt>
      <trkpt lat="46.519222632050514" lon="8.616445083171129">
        <ele>1420.97</ele>
        <time>2017-01-06T16:09:37Z</time>
      </trkpt>
      <trkpt lat="46.519214417785406" lon="8.61644558608532">
        <ele>1420.49</ele>
        <time>2017-01-06T16:09:45Z</time>
      </trkpt>
      <trkpt lat="46.519243000075221" lon="8.616421949118376">
        <ele>1420</ele>
        <time>2017-01-06T16:10:07Z</time>
      </trkpt>
      <trkpt lat="46.519207796081901" lon="8.616412561386824">
        <ele>1419.04</ele>
        <time>2017-01-06T16:10:27Z</time>
      </trkpt>
      <trkpt lat="46.519212070852518" lon="8.616415075957775">
        <ele>1419.52</ele>
        <time>2017-01-06T16:10:41Z</time>
      </trkpt>
      <trkpt lat="46.519207544624805" lon="8.6164690554142">
        <ele>1419.04</ele>
        <time>2017-01-06T16:11:04Z</time>
      </trkpt>
      <trkpt lat="46.51920729316771" lon="8.616453213617206">
        <ele>1420.97</ele>
        <time>2017-01-06T16:11:39Z</time>
      </trkpt>
      <trkpt lat="46.519209388643503" lon="8.616459751501679">
        <ele>1419.52</ele>
        <time>2017-01-06T16:12:09Z</time>
      </trkpt>
      <trkpt lat="46.519225649535656" lon="8.616458158940077">
        <ele>1420</ele>
        <time>2017-01-06T16:12:27Z</time>
      </trkpt>
      <trkpt lat="46.519221877679229" lon="8.616457907482982">
        <ele>1420</ele>
        <time>2017-01-06T16:12:28Z</time>
      </trkpt>
      <trkpt lat="46.519245179370046" lon="8.616403844207525">
        <ele>1419.52</ele>
        <time>2017-01-06T16:12:42Z</time>
      </trkpt>
      <trkpt lat="46.519246688112617" lon="8.616384230554104">
        <ele>1419.52</ele>
        <time>2017-01-06T16:13:00Z</time>
      </trkpt>
      <trkpt lat="46.51922925375402" lon="8.616369478404522">
        <ele>1419.52</ele>
        <time>2017-01-06T16:13:21Z</time>
      </trkpt>
      <trkpt lat="46.519189523532987" lon="8.616392947733402">
        <ele>1420</ele>
        <time>2017-01-06T16:13:45Z</time>
      </trkpt>
      <trkpt lat="46.519200000911951" lon="8.616386661306024">
        <ele>1420</ele>
        <time>2017-01-06T16:14:02Z</time>
      </trkpt>
      <trkpt lat="46.519205113872886" lon="8.616377525031567">
        <ele>1420</ele>
        <time>2017-01-06T16:14:24Z</time>
      </trkpt>
      <trkpt lat="46.519205532968044" lon="8.616362605243921">
        <ele>1419.52</ele>
        <time>2017-01-06T16:14:45Z</time>
      </trkpt>
      <trkpt lat="46.51921265758574" lon="8.616392947733402">
        <ele>1419.52</ele>
        <time>2017-01-06T16:15:12Z</time>
      </trkpt>
      <trkpt lat="46.519225398078561" lon="8.61638892441988">
        <ele>1419.04</ele>
        <time>2017-01-06T16:15:35Z</time>
      </trkpt>
      <trkpt lat="46.519223218783736" lon="8.616437455639243">
        <ele>1419.52</ele>
        <time>2017-01-06T16:16:01Z</time>
      </trkpt>
      <trkpt lat="46.519214333966374" lon="8.616418680176139">
        <ele>1419.04</ele>
        <time>2017-01-06T16:16:21Z</time>
      </trkpt>
      <trkpt lat="46.519219698384404" lon="8.616421110928059">
        <ele>1420.49</ele>
        <time>2017-01-06T16:16:38Z</time>
      </trkpt>
      <trkpt lat="46.519250124692917" lon="8.616452794522047">
        <ele>1420</ele>
        <time>2017-01-06T16:16:50Z</time>
      </trkpt>
    </trkseg>
  </trk>

</gpx>